<?xml version='1.0' encoding='UTF-8'?><gpx version="1.1" creator="JPX - https://github.com/jenetics/jpx" xmlns="http://www.topografix.com/GPX/1/1"><trk><trkseg><trkpt lat="45.4129148" lon="11.0581248"><ele>42.0</ele><time>2026-04-18T17:38:26.825Z</time></trkpt><trkpt lat="45.4128594" lon="11.0581802"><ele>42.0</ele><time>2026-04-18T17:38:35.835Z</time></trkpt><trkpt lat="45.4128539" lon="11.0582729"><ele>42.0</ele><time>2026-04-18T17:38:37.83Z</time></trkpt><trkpt lat="45.4128659" lon="11.0583613"><ele>42.0</ele><time>2026-04-18T17:38:39.838Z</time></trkpt><trkpt lat="45.412946" lon="11.0584049"><ele>42.0</ele><time>2026-04-18T17:38:42.83Z</time></trkpt><trkpt lat="45.4130088" lon="11.0583893"><ele>42.0</ele><time>2026-04-18T17:39:11.826Z</time></trkpt><trkpt lat="45.4130729" lon="11.0582851"><ele>42.0</ele><time>2026-04-18T17:39:15.836Z</time></trkpt><trkpt lat="45.4131117" lon="11.0581116"><ele>42.166666666666664</ele><time>2026-04-18T17:39:17.83Z</time></trkpt><trkpt lat="45.4131406" lon="11.0579985"><ele>42.333333333333336</ele><time>2026-04-18T17:39:18.829Z</time></trkpt><trkpt lat="45.4131825" lon="11.0578952"><ele>42.5</ele><time>2026-04-18T17:39:19.832Z</time></trkpt><trkpt lat="45.4132364" lon="11.0577984"><ele>42.66666666666667</ele><time>2026-04-18T17:39:20.829Z</time></trkpt><trkpt lat="45.4133083" lon="11.0577338"><ele>42.833333333333336</ele><time>2026-04-18T17:39:21.83Z</time></trkpt><trkpt lat="45.4133904" lon="11.0577082"><ele>43.0</ele><time>2026-04-18T17:39:22.837Z</time></trkpt><trkpt lat="45.4134991" lon="11.0576906"><ele>43.0</ele><time>2026-04-18T17:39:23.832Z</time></trkpt><trkpt lat="45.4136254" lon="11.0576731"><ele>43.0</ele><time>2026-04-18T17:39:24.826Z</time></trkpt><trkpt lat="45.4137691" lon="11.0576504"><ele>43.0</ele><time>2026-04-18T17:39:25.832Z</time></trkpt><trkpt lat="45.4139207" lon="11.0576343"><ele>43.0</ele><time>2026-04-18T17:39:26.83Z</time></trkpt><trkpt lat="45.4140776" lon="11.057621"><ele>43.333333333333336</ele><time>2026-04-18T17:39:27.832Z</time></trkpt><trkpt lat="45.4142392" lon="11.0576041"><ele>43.666666666666664</ele><time>2026-04-18T17:39:28.832Z</time></trkpt><trkpt lat="45.4144009" lon="11.0575855"><ele>44.0</ele><time>2026-04-18T17:39:29.831Z</time></trkpt><trkpt lat="45.41456" lon="11.0575624"><ele>44.0</ele><time>2026-04-18T17:39:30.843Z</time></trkpt><trkpt lat="45.4147216" lon="11.0575187"><ele>44.0</ele><time>2026-04-18T17:39:31.829Z</time></trkpt><trkpt lat="45.4148786" lon="11.0574586"><ele>44.0</ele><time>2026-04-18T17:39:32.841Z</time></trkpt><trkpt lat="45.4150234" lon="11.0573945"><ele>43.75</ele><time>2026-04-18T17:39:33.837Z</time></trkpt><trkpt lat="45.415157" lon="11.0573354"><ele>43.5</ele><time>2026-04-18T17:39:34.83Z</time></trkpt><trkpt lat="45.4152873" lon="11.0572827"><ele>43.25</ele><time>2026-04-18T17:39:35.828Z</time></trkpt><trkpt lat="45.4154109" lon="11.0572354"><ele>43.0</ele><time>2026-04-18T17:39:36.832Z</time></trkpt><trkpt lat="45.4155349" lon="11.057197"><ele>43.0</ele><time>2026-04-18T17:39:37.834Z</time></trkpt><trkpt lat="45.415661" lon="11.0571952"><ele>43.0</ele><time>2026-04-18T17:39:38.833Z</time></trkpt><trkpt lat="45.4157835" lon="11.0572321"><ele>43.0</ele><time>2026-04-18T17:39:39.827Z</time></trkpt><trkpt lat="45.4159049" lon="11.0572884"><ele>43.0</ele><time>2026-04-18T17:39:40.837Z</time></trkpt><trkpt lat="45.4160144" lon="11.0573353"><ele>43.0</ele><time>2026-04-18T17:39:41.826Z</time></trkpt><trkpt lat="45.4161133" lon="11.0573817"><ele>43.0</ele><time>2026-04-18T17:39:42.829Z</time></trkpt><trkpt lat="45.4162021" lon="11.0574192"><ele>43.0</ele><time>2026-04-18T17:39:43.83Z</time></trkpt><trkpt lat="45.4162897" lon="11.0574358"><ele>43.0</ele><time>2026-04-18T17:39:44.833Z</time></trkpt><trkpt lat="45.4163828" lon="11.0574023"><ele>43.0</ele><time>2026-04-18T17:39:45.826Z</time></trkpt><trkpt lat="45.4164715" lon="11.0573321"><ele>43.25</ele><time>2026-04-18T17:39:46.833Z</time></trkpt><trkpt lat="45.4165532" lon="11.0572217"><ele>43.5</ele><time>2026-04-18T17:39:47.826Z</time></trkpt><trkpt lat="45.4166265" lon="11.0570803"><ele>43.75</ele><time>2026-04-18T17:39:48.839Z</time></trkpt><trkpt lat="45.4167027" lon="11.0569062"><ele>44.0</ele><time>2026-04-18T17:39:49.825Z</time></trkpt><trkpt lat="45.4167889" lon="11.0567324"><ele>44.0</ele><time>2026-04-18T17:39:50.828Z</time></trkpt><trkpt lat="45.4168901" lon="11.0565648"><ele>44.0</ele><time>2026-04-18T17:39:51.826Z</time></trkpt><trkpt lat="45.4169985" lon="11.0564235"><ele>44.0</ele><time>2026-04-18T17:39:52.831Z</time></trkpt><trkpt lat="45.4170949" lon="11.056304"><ele>44.0</ele><time>2026-04-18T17:39:53.829Z</time></trkpt><trkpt lat="45.4171826" lon="11.0561982"><ele>43.6</ele><time>2026-04-18T17:39:54.829Z</time></trkpt><trkpt lat="45.4172645" lon="11.0561055"><ele>43.2</ele><time>2026-04-18T17:39:55.828Z</time></trkpt><trkpt lat="45.4173505" lon="11.0560335"><ele>42.800000000000004</ele><time>2026-04-18T17:39:56.837Z</time></trkpt><trkpt lat="45.4174404" lon="11.0559775"><ele>42.400000000000006</ele><time>2026-04-18T17:39:57.835Z</time></trkpt><trkpt lat="45.4175658" lon="11.0560274"><ele>42.0</ele><time>2026-04-18T17:39:58.836Z</time></trkpt><trkpt lat="45.4176793" lon="11.0560687"><ele>42.0</ele><time>2026-04-18T17:39:59.829Z</time></trkpt><trkpt lat="45.4178085" lon="11.0561474"><ele>42.0</ele><time>2026-04-18T17:40:00.829Z</time></trkpt><trkpt lat="45.4179491" lon="11.0562528"><ele>42.0</ele><time>2026-04-18T17:40:01.837Z</time></trkpt><trkpt lat="45.4180977" lon="11.056365"><ele>42.0</ele><time>2026-04-18T17:40:02.828Z</time></trkpt><trkpt lat="45.4182631" lon="11.056478"><ele>42.0</ele><time>2026-04-18T17:40:03.837Z</time></trkpt><trkpt lat="45.4184273" lon="11.0565954"><ele>42.0</ele><time>2026-04-18T17:40:04.827Z</time></trkpt><trkpt lat="45.4185812" lon="11.0567011"><ele>42.0</ele><time>2026-04-18T17:40:05.837Z</time></trkpt><trkpt lat="45.4187298" lon="11.0567757"><ele>42.0</ele><time>2026-04-18T17:40:06.829Z</time></trkpt><trkpt lat="45.4188924" lon="11.0568097"><ele>42.0</ele><time>2026-04-18T17:40:07.839Z</time></trkpt><trkpt lat="45.4190637" lon="11.0568115"><ele>41.333333333333336</ele><time>2026-04-18T17:40:08.834Z</time></trkpt><trkpt lat="45.4192412" lon="11.0567902"><ele>40.66666666666667</ele><time>2026-04-18T17:40:09.827Z</time></trkpt><trkpt lat="45.4194219" lon="11.0567596"><ele>40.0</ele><time>2026-04-18T17:40:10.831Z</time></trkpt><trkpt lat="45.4196049" lon="11.0567205"><ele>40.0</ele><time>2026-04-18T17:40:11.833Z</time></trkpt><trkpt lat="45.41979" lon="11.0566778"><ele>40.0</ele><time>2026-04-18T17:40:12.832Z</time></trkpt><trkpt lat="45.4199751" lon="11.0566398"><ele>40.0</ele><time>2026-04-18T17:40:13.833Z</time></trkpt><trkpt lat="45.4201545" lon="11.0566002"><ele>40.0</ele><time>2026-04-18T17:40:14.83Z</time></trkpt><trkpt lat="45.4203299" lon="11.056543"><ele>40.0</ele><time>2026-04-18T17:40:15.831Z</time></trkpt><trkpt lat="45.4205015" lon="11.0564863"><ele>40.0</ele><time>2026-04-18T17:40:16.828Z</time></trkpt><trkpt lat="45.4206725" lon="11.0564299"><ele>40.0</ele><time>2026-04-18T17:40:17.831Z</time></trkpt><trkpt lat="45.4208433" lon="11.0563713"><ele>40.0</ele><time>2026-04-18T17:40:18.832Z</time></trkpt><trkpt lat="45.4210132" lon="11.0563116"><ele>40.0</ele><time>2026-04-18T17:40:19.828Z</time></trkpt><trkpt lat="45.4211794" lon="11.0562495"><ele>40.0</ele><time>2026-04-18T17:40:20.829Z</time></trkpt><trkpt lat="45.4213452" lon="11.0561754"><ele>40.0</ele><time>2026-04-18T17:40:21.833Z</time></trkpt><trkpt lat="45.4215099" lon="11.0560965"><ele>40.0</ele><time>2026-04-18T17:40:22.829Z</time></trkpt><trkpt lat="45.4216738" lon="11.0560146"><ele>40.0</ele><time>2026-04-18T17:40:23.828Z</time></trkpt><trkpt lat="45.421838" lon="11.055931"><ele>40.0</ele><time>2026-04-18T17:40:24.834Z</time></trkpt><trkpt lat="45.4220011" lon="11.0558432"><ele>40.0</ele><time>2026-04-18T17:40:25.829Z</time></trkpt><trkpt lat="45.422165" lon="11.0557541"><ele>40.333333333333336</ele><time>2026-04-18T17:40:26.826Z</time></trkpt><trkpt lat="45.4223307" lon="11.055666"><ele>40.666666666666664</ele><time>2026-04-18T17:40:27.827Z</time></trkpt><trkpt lat="45.4224989" lon="11.0555874"><ele>41.0</ele><time>2026-04-18T17:40:28.836Z</time></trkpt><trkpt lat="45.4226663" lon="11.0555132"><ele>41.0</ele><time>2026-04-18T17:40:29.828Z</time></trkpt><trkpt lat="45.4228342" lon="11.0554373"><ele>41.0</ele><time>2026-04-18T17:40:30.827Z</time></trkpt><trkpt lat="45.4230013" lon="11.0553529"><ele>41.0</ele><time>2026-04-18T17:40:31.828Z</time></trkpt><trkpt lat="45.4231659" lon="11.0552659"><ele>40.33333333333333</ele><time>2026-04-18T17:40:32.837Z</time></trkpt><trkpt lat="45.4233265" lon="11.0551857"><ele>39.666666666666664</ele><time>2026-04-18T17:40:33.828Z</time></trkpt><trkpt lat="45.4234833" lon="11.0550993"><ele>39.0</ele><time>2026-04-18T17:40:34.833Z</time></trkpt><trkpt lat="45.423634" lon="11.0550154"><ele>39.25</ele><time>2026-04-18T17:40:35.832Z</time></trkpt><trkpt lat="45.4237675" lon="11.0549257"><ele>39.5</ele><time>2026-04-18T17:40:36.83Z</time></trkpt><trkpt lat="45.4238885" lon="11.0548173"><ele>39.75</ele><time>2026-04-18T17:40:37.832Z</time></trkpt><trkpt lat="45.4240034" lon="11.0546865"><ele>40.0</ele><time>2026-04-18T17:40:38.827Z</time></trkpt><trkpt lat="45.4241173" lon="11.0545603"><ele>40.4</ele><time>2026-04-18T17:40:39.83Z</time></trkpt><trkpt lat="45.4242225" lon="11.0544476"><ele>40.8</ele><time>2026-04-18T17:40:40.831Z</time></trkpt><trkpt lat="45.4243189" lon="11.0543486"><ele>41.2</ele><time>2026-04-18T17:40:41.829Z</time></trkpt><trkpt lat="45.4244056" lon="11.0542654"><ele>41.6</ele><time>2026-04-18T17:40:42.834Z</time></trkpt><trkpt lat="45.4244766" lon="11.0541936"><ele>42.0</ele><time>2026-04-18T17:40:43.829Z</time></trkpt><trkpt lat="45.4245324" lon="11.0541144"><ele>42.5</ele><time>2026-04-18T17:40:44.836Z</time></trkpt><trkpt lat="45.4245307" lon="11.054006"><ele>43.0</ele><time>2026-04-18T17:40:45.824Z</time></trkpt><trkpt lat="45.4245297" lon="11.0538552"><ele>43.5</ele><time>2026-04-18T17:40:46.832Z</time></trkpt><trkpt lat="45.4245063" lon="11.053647"><ele>44.0</ele><time>2026-04-18T17:40:47.836Z</time></trkpt><trkpt lat="45.4244971" lon="11.0534405"><ele>44.0</ele><time>2026-04-18T17:40:48.833Z</time></trkpt><trkpt lat="45.4244803" lon="11.0532386"><ele>44.0</ele><time>2026-04-18T17:40:49.827Z</time></trkpt><trkpt lat="45.4244599" lon="11.0530535"><ele>44.0</ele><time>2026-04-18T17:40:50.831Z</time></trkpt><trkpt lat="45.4244319" lon="11.0528725"><ele>44.0</ele><time>2026-04-18T17:40:51.826Z</time></trkpt><trkpt lat="45.424405" lon="11.0527005"><ele>44.0</ele><time>2026-04-18T17:40:52.831Z</time></trkpt><trkpt lat="45.4243969" lon="11.0525569"><ele>44.0</ele><time>2026-04-18T17:40:53.829Z</time></trkpt><trkpt lat="45.4244129" lon="11.0524054"><ele>44.0</ele><time>2026-04-18T17:40:54.828Z</time></trkpt><trkpt lat="45.4244287" lon="11.0522495"><ele>44.0</ele><time>2026-04-18T17:40:55.828Z</time></trkpt><trkpt lat="45.424521" lon="11.0520855"><ele>44.6</ele><time>2026-04-18T17:40:56.827Z</time></trkpt><trkpt lat="45.4245834" lon="11.0519522"><ele>45.2</ele><time>2026-04-18T17:40:57.828Z</time></trkpt><trkpt lat="45.4246465" lon="11.0518384"><ele>45.800000000000004</ele><time>2026-04-18T17:40:58.831Z</time></trkpt><trkpt lat="45.4247094" lon="11.0517432"><ele>46.400000000000006</ele><time>2026-04-18T17:40:59.83Z</time></trkpt><trkpt lat="45.4247684" lon="11.0516487"><ele>47.0</ele><time>2026-04-18T17:41:00.832Z</time></trkpt><trkpt lat="45.4248316" lon="11.0515542"><ele>47.166666666666664</ele><time>2026-04-18T17:41:01.824Z</time></trkpt><trkpt lat="45.4248817" lon="11.0514794"><ele>47.33333333333333</ele><time>2026-04-18T17:41:02.828Z</time></trkpt><trkpt lat="45.4249303" lon="11.051405"><ele>47.5</ele><time>2026-04-18T17:41:03.829Z</time></trkpt><trkpt lat="45.4249796" lon="11.0513296"><ele>47.666666666666664</ele><time>2026-04-18T17:41:04.829Z</time></trkpt><trkpt lat="45.4250276" lon="11.0512616"><ele>47.833333333333336</ele><time>2026-04-18T17:41:05.835Z</time></trkpt><trkpt lat="45.4250795" lon="11.0511932"><ele>48.0</ele><time>2026-04-18T17:41:06.83Z</time></trkpt><trkpt lat="45.4251719" lon="11.0510962"><ele>48.0</ele><time>2026-04-18T17:41:08.827Z</time></trkpt><trkpt lat="45.4252726" lon="11.051048"><ele>48.0</ele><time>2026-04-18T17:41:10.824Z</time></trkpt><trkpt lat="45.4253872" lon="11.0510423"><ele>48.0</ele><time>2026-04-18T17:41:12.83Z</time></trkpt><trkpt lat="45.4254967" lon="11.0510711"><ele>48.0</ele><time>2026-04-18T17:41:14.834Z</time></trkpt><trkpt lat="45.4255574" lon="11.0510986"><ele>48.0</ele><time>2026-04-18T17:41:15.828Z</time></trkpt><trkpt lat="45.4256204" lon="11.0511291"><ele>48.166666666666664</ele><time>2026-04-18T17:41:16.832Z</time></trkpt><trkpt lat="45.4256893" lon="11.0511627"><ele>48.33333333333333</ele><time>2026-04-18T17:41:17.829Z</time></trkpt><trkpt lat="45.4257571" lon="11.0511934"><ele>48.5</ele><time>2026-04-18T17:41:18.829Z</time></trkpt><trkpt lat="45.425823" lon="11.0512209"><ele>48.666666666666664</ele><time>2026-04-18T17:41:19.83Z</time></trkpt><trkpt lat="45.4259319" lon="11.0512562"><ele>48.83333333333333</ele><time>2026-04-18T17:41:21.826Z</time></trkpt><trkpt lat="45.4260151" lon="11.0512848"><ele>49.0</ele><time>2026-04-18T17:41:23.828Z</time></trkpt><trkpt lat="45.4260905" lon="11.0512218"><ele>49.0</ele><time>2026-04-18T17:41:25.826Z</time></trkpt><trkpt lat="45.4261485" lon="11.0510481"><ele>49.0</ele><time>2026-04-18T17:41:27.826Z</time></trkpt><trkpt lat="45.426179" lon="11.0509472"><ele>49.0</ele><time>2026-04-18T17:41:28.83Z</time></trkpt><trkpt lat="45.4262057" lon="11.0508311"><ele>49.0</ele><time>2026-04-18T17:41:29.838Z</time></trkpt><trkpt lat="45.4262268" lon="11.0507014"><ele>49.0</ele><time>2026-04-18T17:41:30.838Z</time></trkpt><trkpt lat="45.4262464" lon="11.05055"><ele>49.25</ele><time>2026-04-18T17:41:31.829Z</time></trkpt><trkpt lat="45.4262881" lon="11.0503664"><ele>49.5</ele><time>2026-04-18T17:41:32.835Z</time></trkpt><trkpt lat="45.4263356" lon="11.0501636"><ele>49.75</ele><time>2026-04-18T17:41:33.829Z</time></trkpt><trkpt lat="45.4263967" lon="11.0499485"><ele>50.0</ele><time>2026-04-18T17:41:34.829Z</time></trkpt><trkpt lat="45.426454" lon="11.0497181"><ele>50.0</ele><time>2026-04-18T17:41:35.825Z</time></trkpt><trkpt lat="45.4265027" lon="11.0494774"><ele>50.0</ele><time>2026-04-18T17:41:36.829Z</time></trkpt><trkpt lat="45.426576" lon="11.0492381"><ele>50.0</ele><time>2026-04-18T17:41:37.824Z</time></trkpt><trkpt lat="45.4266877" lon="11.0490101"><ele>50.0</ele><time>2026-04-18T17:41:38.834Z</time></trkpt><trkpt lat="45.4268173" lon="11.048775"><ele>50.0</ele><time>2026-04-18T17:41:39.829Z</time></trkpt><trkpt lat="45.4269285" lon="11.0485621"><ele>50.0</ele><time>2026-04-18T17:41:40.838Z</time></trkpt><trkpt lat="45.4270329" lon="11.0483489"><ele>50.0</ele><time>2026-04-18T17:41:41.827Z</time></trkpt><trkpt lat="45.4271374" lon="11.0481292"><ele>50.0</ele><time>2026-04-18T17:41:42.832Z</time></trkpt><trkpt lat="45.4272385" lon="11.0479328"><ele>50.0</ele><time>2026-04-18T17:41:43.832Z</time></trkpt><trkpt lat="45.4273331" lon="11.0477546"><ele>50.0</ele><time>2026-04-18T17:41:44.835Z</time></trkpt><trkpt lat="45.4274146" lon="11.0476029"><ele>50.0</ele><time>2026-04-18T17:41:45.825Z</time></trkpt><trkpt lat="45.4274893" lon="11.0474649"><ele>50.0</ele><time>2026-04-18T17:41:46.828Z</time></trkpt><trkpt lat="45.4275579" lon="11.0473489"><ele>50.0</ele><time>2026-04-18T17:41:47.838Z</time></trkpt><trkpt lat="45.4276126" lon="11.0472601"><ele>50.0</ele><time>2026-04-18T17:41:48.828Z</time></trkpt><trkpt lat="45.427654" lon="11.047192"><ele>49.75</ele><time>2026-04-18T17:41:49.836Z</time></trkpt><trkpt lat="45.4277142" lon="11.0470982"><ele>49.5</ele><time>2026-04-18T17:41:51.83Z</time></trkpt><trkpt lat="45.4277951" lon="11.0470538"><ele>49.25</ele><time>2026-04-18T17:41:54.829Z</time></trkpt><trkpt lat="45.4278895" lon="11.0471112"><ele>49.0</ele><time>2026-04-18T17:41:58.825Z</time></trkpt><trkpt lat="45.4280187" lon="11.0472932"><ele>49.0</ele><time>2026-04-18T17:42:00.829Z</time></trkpt><trkpt lat="45.4280831" lon="11.047397"><ele>49.0</ele><time>2026-04-18T17:42:01.836Z</time></trkpt><trkpt lat="45.4281499" lon="11.0474944"><ele>49.0</ele><time>2026-04-18T17:42:02.835Z</time></trkpt><trkpt lat="45.4282427" lon="11.0475725"><ele>49.0</ele><time>2026-04-18T17:42:03.832Z</time></trkpt><trkpt lat="45.428331" lon="11.0476266"><ele>49.0</ele><time>2026-04-18T17:42:04.837Z</time></trkpt><trkpt lat="45.4284223" lon="11.0476599"><ele>49.400000000000006</ele><time>2026-04-18T17:42:05.829Z</time></trkpt><trkpt lat="45.4285024" lon="11.0476642"><ele>49.8</ele><time>2026-04-18T17:42:06.836Z</time></trkpt><trkpt lat="45.4285894" lon="11.0476399"><ele>50.2</ele><time>2026-04-18T17:42:07.829Z</time></trkpt><trkpt lat="45.4286737" lon="11.0475794"><ele>50.599999999999994</ele><time>2026-04-18T17:42:08.834Z</time></trkpt><trkpt lat="45.4287473" lon="11.0474978"><ele>51.0</ele><time>2026-04-18T17:42:09.828Z</time></trkpt><trkpt lat="45.428824" lon="11.0474054"><ele>51.0</ele><time>2026-04-18T17:42:10.843Z</time></trkpt><trkpt lat="45.4289004" lon="11.0472851"><ele>51.0</ele><time>2026-04-18T17:42:11.827Z</time></trkpt><trkpt lat="45.4289823" lon="11.0471546"><ele>51.0</ele><time>2026-04-18T17:42:12.827Z</time></trkpt><trkpt lat="45.4290759" lon="11.0469916"><ele>51.0</ele><time>2026-04-18T17:42:13.826Z</time></trkpt><trkpt lat="45.429195" lon="11.0468265"><ele>51.0</ele><time>2026-04-18T17:42:14.834Z</time></trkpt><trkpt lat="45.4293292" lon="11.0466523"><ele>51.0</ele><time>2026-04-18T17:42:15.825Z</time></trkpt><trkpt lat="45.4294698" lon="11.0464566"><ele>51.0</ele><time>2026-04-18T17:42:16.836Z</time></trkpt><trkpt lat="45.4295936" lon="11.0462752"><ele>51.0</ele><time>2026-04-18T17:42:17.823Z</time></trkpt><trkpt lat="45.4297131" lon="11.0461095"><ele>51.0</ele><time>2026-04-18T17:42:18.833Z</time></trkpt><trkpt lat="45.4298331" lon="11.0459586"><ele>51.0</ele><time>2026-04-18T17:42:19.83Z</time></trkpt><trkpt lat="45.4299609" lon="11.0458129"><ele>50.25</ele><time>2026-04-18T17:42:20.824Z</time></trkpt><trkpt lat="45.4300932" lon="11.0456837"><ele>49.5</ele><time>2026-04-18T17:42:21.824Z</time></trkpt><trkpt lat="45.4302158" lon="11.0455684"><ele>48.75</ele><time>2026-04-18T17:42:22.835Z</time></trkpt><trkpt lat="45.4303343" lon="11.0454648"><ele>48.0</ele><time>2026-04-18T17:42:23.828Z</time></trkpt><trkpt lat="45.4304541" lon="11.0453694"><ele>49.25</ele><time>2026-04-18T17:42:24.834Z</time></trkpt><trkpt lat="45.4305682" lon="11.0452877"><ele>50.5</ele><time>2026-04-18T17:42:25.833Z</time></trkpt><trkpt lat="45.430679" lon="11.0452064"><ele>51.75</ele><time>2026-04-18T17:42:26.829Z</time></trkpt><trkpt lat="45.4307847" lon="11.0451362"><ele>53.0</ele><time>2026-04-18T17:42:27.83Z</time></trkpt><trkpt lat="45.4308774" lon="11.0450762"><ele>53.00000000000001</ele><time>2026-04-18T17:42:28.832Z</time></trkpt><trkpt lat="45.4309662" lon="11.0450206"><ele>53.0</ele><time>2026-04-18T17:42:29.825Z</time></trkpt><trkpt lat="45.4310383" lon="11.0449792"><ele>53.0</ele><time>2026-04-18T17:42:30.828Z</time></trkpt><trkpt lat="45.4311002" lon="11.0449356"><ele>53.0</ele><time>2026-04-18T17:42:31.834Z</time></trkpt><trkpt lat="45.4311626" lon="11.0449037"><ele>53.00000000000001</ele><time>2026-04-18T17:42:32.828Z</time></trkpt><trkpt lat="45.4312233" lon="11.04487"><ele>53.0</ele><time>2026-04-18T17:42:33.834Z</time></trkpt><trkpt lat="45.4313138" lon="11.0448086"><ele>53.16666666666667</ele><time>2026-04-18T17:42:35.828Z</time></trkpt><trkpt lat="45.431393" lon="11.044746"><ele>53.333333333333336</ele><time>2026-04-18T17:42:37.829Z</time></trkpt><trkpt lat="45.4314559" lon="11.0447187"><ele>53.5</ele><time>2026-04-18T17:42:39.83Z</time></trkpt><trkpt lat="45.4315547" lon="11.0447238"><ele>53.66666666666667</ele><time>2026-04-18T17:42:45.826Z</time></trkpt><trkpt lat="45.4316195" lon="11.0446724"><ele>53.833333333333336</ele><time>2026-04-18T17:42:46.827Z</time></trkpt><trkpt lat="45.4316865" lon="11.0445969"><ele>54.0</ele><time>2026-04-18T17:42:47.828Z</time></trkpt><trkpt lat="45.4317557" lon="11.0445138"><ele>54.0</ele><time>2026-04-18T17:42:48.831Z</time></trkpt><trkpt lat="45.4318244" lon="11.0444302"><ele>54.0</ele><time>2026-04-18T17:42:49.827Z</time></trkpt><trkpt lat="45.4318913" lon="11.044354"><ele>54.0</ele><time>2026-04-18T17:42:50.829Z</time></trkpt><trkpt lat="45.4319564" lon="11.0442836"><ele>54.0</ele><time>2026-04-18T17:42:51.832Z</time></trkpt><trkpt lat="45.4320069" lon="11.0442258"><ele>54.0</ele><time>2026-04-18T17:42:52.834Z</time></trkpt><trkpt lat="45.4320582" lon="11.0441676"><ele>54.0</ele><time>2026-04-18T17:42:53.832Z</time></trkpt><trkpt lat="45.4321098" lon="11.0442231"><ele>54.666666666666664</ele><time>2026-04-18T17:42:54.839Z</time></trkpt><trkpt lat="45.4321669" lon="11.0442629"><ele>55.33333333333333</ele><time>2026-04-18T17:42:55.835Z</time></trkpt><trkpt lat="45.4322251" lon="11.0443184"><ele>56.0</ele><time>2026-04-18T17:42:56.836Z</time></trkpt><trkpt lat="45.4322984" lon="11.0443736"><ele>56.666666666666664</ele><time>2026-04-18T17:42:57.83Z</time></trkpt><trkpt lat="45.4323696" lon="11.044447"><ele>57.33333333333333</ele><time>2026-04-18T17:42:58.826Z</time></trkpt><trkpt lat="45.4324491" lon="11.0445253"><ele>58.0</ele><time>2026-04-18T17:42:59.834Z</time></trkpt><trkpt lat="45.4325365" lon="11.0446128"><ele>58.0</ele><time>2026-04-18T17:43:00.837Z</time></trkpt><trkpt lat="45.4326285" lon="11.0446951"><ele>58.0</ele><time>2026-04-18T17:43:01.827Z</time></trkpt><trkpt lat="45.4327125" lon="11.0447763"><ele>58.0</ele><time>2026-04-18T17:43:02.823Z</time></trkpt><trkpt lat="45.4327951" lon="11.044849"><ele>58.0</ele><time>2026-04-18T17:43:03.826Z</time></trkpt><trkpt lat="45.4328723" lon="11.0449039"><ele>58.0</ele><time>2026-04-18T17:43:04.84Z</time></trkpt><trkpt lat="45.4329391" lon="11.0449463"><ele>58.2</ele><time>2026-04-18T17:43:05.826Z</time></trkpt><trkpt lat="45.4330382" lon="11.0449822"><ele>58.4</ele><time>2026-04-18T17:43:07.826Z</time></trkpt><trkpt lat="45.4331065" lon="11.0450425"><ele>58.60000000000001</ele><time>2026-04-18T17:43:54.831Z</time></trkpt><trkpt lat="45.4331792" lon="11.045121"><ele>58.800000000000004</ele><time>2026-04-18T17:43:56.837Z</time></trkpt><trkpt lat="45.4332026" lon="11.0452643"><ele>59.0</ele><time>2026-04-18T17:43:58.83Z</time></trkpt><trkpt lat="45.4331862" lon="11.0454166"><ele>59.0</ele><time>2026-04-18T17:44:00.834Z</time></trkpt><trkpt lat="45.4331558" lon="11.0455753"><ele>59.00000000000001</ele><time>2026-04-18T17:44:02.833Z</time></trkpt><trkpt lat="45.4331307" lon="11.0457035"><ele>59.00000000000001</ele><time>2026-04-18T17:44:04.825Z</time></trkpt><trkpt lat="45.4331163" lon="11.0457977"><ele>59.0</ele><time>2026-04-18T17:44:24.828Z</time></trkpt><trkpt lat="45.433094" lon="11.0459351"><ele>59.0</ele><time>2026-04-18T17:44:26.828Z</time></trkpt><trkpt lat="45.4330707" lon="11.0460675"><ele>59.0</ele><time>2026-04-18T17:44:27.834Z</time></trkpt><trkpt lat="45.4330363" lon="11.0462413"><ele>59.0</ele><time>2026-04-18T17:44:28.828Z</time></trkpt><trkpt lat="45.4329925" lon="11.0464435"><ele>59.0</ele><time>2026-04-18T17:44:29.825Z</time></trkpt><trkpt lat="45.4329454" lon="11.0466711"><ele>59.0</ele><time>2026-04-18T17:44:30.833Z</time></trkpt><trkpt lat="45.4328908" lon="11.0469115"><ele>59.0</ele><time>2026-04-18T17:44:31.831Z</time></trkpt><trkpt lat="45.4328374" lon="11.0471571"><ele>59.0</ele><time>2026-04-18T17:44:32.83Z</time></trkpt><trkpt lat="45.4327834" lon="11.0473995"><ele>59.0</ele><time>2026-04-18T17:44:33.827Z</time></trkpt><trkpt lat="45.4327308" lon="11.0476406"><ele>59.0</ele><time>2026-04-18T17:44:34.83Z</time></trkpt><trkpt lat="45.4326804" lon="11.0478966"><ele>59.0</ele><time>2026-04-18T17:44:35.826Z</time></trkpt><trkpt lat="45.4326316" lon="11.0481743"><ele>59.0</ele><time>2026-04-18T17:44:36.831Z</time></trkpt><trkpt lat="45.4325768" lon="11.0484364"><ele>59.0</ele><time>2026-04-18T17:44:37.83Z</time></trkpt><trkpt lat="45.4325169" lon="11.0486916"><ele>59.0</ele><time>2026-04-18T17:44:38.829Z</time></trkpt><trkpt lat="45.4324618" lon="11.0489458"><ele>59.0</ele><time>2026-04-18T17:44:39.832Z</time></trkpt><trkpt lat="45.4324093" lon="11.0491864"><ele>59.0</ele><time>2026-04-18T17:44:40.834Z</time></trkpt><trkpt lat="45.4323584" lon="11.0494066"><ele>59.0</ele><time>2026-04-18T17:44:41.826Z</time></trkpt><trkpt lat="45.4323116" lon="11.0496095"><ele>59.0</ele><time>2026-04-18T17:44:42.829Z</time></trkpt><trkpt lat="45.4322675" lon="11.0497975"><ele>59.0</ele><time>2026-04-18T17:44:43.832Z</time></trkpt><trkpt lat="45.432225" lon="11.049984"><ele>59.0</ele><time>2026-04-18T17:44:44.836Z</time></trkpt><trkpt lat="45.4321834" lon="11.0501702"><ele>59.0</ele><time>2026-04-18T17:44:45.829Z</time></trkpt><trkpt lat="45.4321416" lon="11.0503528"><ele>59.0</ele><time>2026-04-18T17:44:46.836Z</time></trkpt><trkpt lat="45.4321024" lon="11.0505327"><ele>58.75</ele><time>2026-04-18T17:44:47.832Z</time></trkpt><trkpt lat="45.4320563" lon="11.0507156"><ele>58.5</ele><time>2026-04-18T17:44:48.841Z</time></trkpt><trkpt lat="45.432015" lon="11.0508972"><ele>58.25</ele><time>2026-04-18T17:44:49.834Z</time></trkpt><trkpt lat="45.4319734" lon="11.0510833"><ele>58.0</ele><time>2026-04-18T17:44:50.834Z</time></trkpt><trkpt lat="45.431928" lon="11.0512794"><ele>58.0</ele><time>2026-04-18T17:44:51.828Z</time></trkpt><trkpt lat="45.4318795" lon="11.0514726"><ele>58.0</ele><time>2026-04-18T17:44:52.828Z</time></trkpt><trkpt lat="45.4318309" lon="11.0516783"><ele>58.0</ele><time>2026-04-18T17:44:53.823Z</time></trkpt><trkpt lat="45.4317812" lon="11.0518916"><ele>58.0</ele><time>2026-04-18T17:44:54.826Z</time></trkpt><trkpt lat="45.4317246" lon="11.0521061"><ele>58.0</ele><time>2026-04-18T17:44:55.826Z</time></trkpt><trkpt lat="45.4316679" lon="11.052322"><ele>58.0</ele><time>2026-04-18T17:44:56.831Z</time></trkpt><trkpt lat="45.4316147" lon="11.0525438"><ele>58.33333333333333</ele><time>2026-04-18T17:44:57.837Z</time></trkpt><trkpt lat="45.4315653" lon="11.0527683"><ele>58.66666666666667</ele><time>2026-04-18T17:44:58.824Z</time></trkpt><trkpt lat="45.4315164" lon="11.0529946"><ele>59.0</ele><time>2026-04-18T17:44:59.828Z</time></trkpt><trkpt lat="45.4314671" lon="11.0532188"><ele>58.333333333333336</ele><time>2026-04-18T17:45:00.83Z</time></trkpt><trkpt lat="45.4314179" lon="11.0534358"><ele>57.66666666666667</ele><time>2026-04-18T17:45:01.829Z</time></trkpt><trkpt lat="45.4313698" lon="11.0536414"><ele>57.0</ele><time>2026-04-18T17:45:02.83Z</time></trkpt><trkpt lat="45.4313207" lon="11.0538515"><ele>57.0</ele><time>2026-04-18T17:45:03.828Z</time></trkpt><trkpt lat="45.4312732" lon="11.0540657"><ele>57.0</ele><time>2026-04-18T17:45:04.827Z</time></trkpt><trkpt lat="45.4312213" lon="11.0542818"><ele>57.0</ele><time>2026-04-18T17:45:05.828Z</time></trkpt><trkpt lat="45.4311719" lon="11.0544919"><ele>57.0</ele><time>2026-04-18T17:45:06.835Z</time></trkpt><trkpt lat="45.4311258" lon="11.0546949"><ele>57.0</ele><time>2026-04-18T17:45:07.825Z</time></trkpt><trkpt lat="45.4310795" lon="11.0548923"><ele>57.0</ele><time>2026-04-18T17:45:08.834Z</time></trkpt><trkpt lat="45.4310354" lon="11.05508"><ele>57.0</ele><time>2026-04-18T17:45:09.827Z</time></trkpt><trkpt lat="45.4309992" lon="11.0552691"><ele>57.0</ele><time>2026-04-18T17:45:10.834Z</time></trkpt><trkpt lat="45.4309706" lon="11.0554703"><ele>57.0</ele><time>2026-04-18T17:45:11.829Z</time></trkpt><trkpt lat="45.4309325" lon="11.0556796"><ele>57.0</ele><time>2026-04-18T17:45:12.834Z</time></trkpt><trkpt lat="45.430886" lon="11.0558894"><ele>57.0</ele><time>2026-04-18T17:45:13.825Z</time></trkpt><trkpt lat="45.4308411" lon="11.0560905"><ele>57.0</ele><time>2026-04-18T17:45:14.832Z</time></trkpt><trkpt lat="45.4308027" lon="11.0562836"><ele>57.0</ele><time>2026-04-18T17:45:15.833Z</time></trkpt><trkpt lat="45.4307683" lon="11.0564609"><ele>57.0</ele><time>2026-04-18T17:45:16.834Z</time></trkpt><trkpt lat="45.4307335" lon="11.0566261"><ele>57.25</ele><time>2026-04-18T17:45:17.831Z</time></trkpt><trkpt lat="45.4306968" lon="11.0567878"><ele>57.5</ele><time>2026-04-18T17:45:18.834Z</time></trkpt><trkpt lat="45.4306593" lon="11.0569587"><ele>57.75</ele><time>2026-04-18T17:45:19.828Z</time></trkpt><trkpt lat="45.4306209" lon="11.057127"><ele>58.0</ele><time>2026-04-18T17:45:20.826Z</time></trkpt><trkpt lat="45.4305878" lon="11.0572978"><ele>58.0</ele><time>2026-04-18T17:45:21.829Z</time></trkpt><trkpt lat="45.4305478" lon="11.0574726"><ele>58.0</ele><time>2026-04-18T17:45:22.829Z</time></trkpt><trkpt lat="45.4305044" lon="11.0576571"><ele>58.0</ele><time>2026-04-18T17:45:23.835Z</time></trkpt><trkpt lat="45.4304673" lon="11.0578621"><ele>58.0</ele><time>2026-04-18T17:45:24.834Z</time></trkpt><trkpt lat="45.430422" lon="11.0580756"><ele>58.25</ele><time>2026-04-18T17:45:25.828Z</time></trkpt><trkpt lat="45.4303786" lon="11.0582698"><ele>58.5</ele><time>2026-04-18T17:45:26.835Z</time></trkpt><trkpt lat="45.430334" lon="11.0584503"><ele>58.75</ele><time>2026-04-18T17:45:27.833Z</time></trkpt><trkpt lat="45.4302894" lon="11.0586325"><ele>59.0</ele><time>2026-04-18T17:45:28.831Z</time></trkpt><trkpt lat="45.4302452" lon="11.0588122"><ele>58.25</ele><time>2026-04-18T17:45:29.831Z</time></trkpt><trkpt lat="45.4302086" lon="11.0589838"><ele>57.5</ele><time>2026-04-18T17:45:30.827Z</time></trkpt><trkpt lat="45.4301768" lon="11.0591455"><ele>56.75</ele><time>2026-04-18T17:45:31.83Z</time></trkpt><trkpt lat="45.4301445" lon="11.0592907"><ele>56.0</ele><time>2026-04-18T17:45:32.83Z</time></trkpt><trkpt lat="45.4301115" lon="11.0594349"><ele>56.0</ele><time>2026-04-18T17:45:33.832Z</time></trkpt><trkpt lat="45.4300769" lon="11.0595855"><ele>56.0</ele><time>2026-04-18T17:45:34.832Z</time></trkpt><trkpt lat="45.4300438" lon="11.0597387"><ele>56.0</ele><time>2026-04-18T17:45:35.829Z</time></trkpt><trkpt lat="45.4300099" lon="11.0598945"><ele>56.0</ele><time>2026-04-18T17:45:36.825Z</time></trkpt><trkpt lat="45.4299723" lon="11.0600607"><ele>56.0</ele><time>2026-04-18T17:45:37.826Z</time></trkpt><trkpt lat="45.4299312" lon="11.0602339"><ele>56.0</ele><time>2026-04-18T17:45:38.833Z</time></trkpt><trkpt lat="45.4298896" lon="11.0604103"><ele>56.0</ele><time>2026-04-18T17:45:39.833Z</time></trkpt><trkpt lat="45.4298492" lon="11.060591"><ele>56.0</ele><time>2026-04-18T17:45:40.836Z</time></trkpt><trkpt lat="45.4298081" lon="11.0607622"><ele>56.0</ele><time>2026-04-18T17:45:41.825Z</time></trkpt><trkpt lat="45.4297689" lon="11.0609302"><ele>56.0</ele><time>2026-04-18T17:45:42.829Z</time></trkpt><trkpt lat="45.4297311" lon="11.061098"><ele>56.0</ele><time>2026-04-18T17:45:43.833Z</time></trkpt><trkpt lat="45.4296919" lon="11.0612516"><ele>56.0</ele><time>2026-04-18T17:45:44.832Z</time></trkpt><trkpt lat="45.4296481" lon="11.0613858"><ele>55.599999999999994</ele><time>2026-04-18T17:45:45.836Z</time></trkpt><trkpt lat="45.4295924" lon="11.0615064"><ele>55.199999999999996</ele><time>2026-04-18T17:45:46.836Z</time></trkpt><trkpt lat="45.4295267" lon="11.0616138"><ele>54.800000000000004</ele><time>2026-04-18T17:45:47.825Z</time></trkpt><trkpt lat="45.429456" lon="11.0617142"><ele>54.400000000000006</ele><time>2026-04-18T17:45:48.839Z</time></trkpt><trkpt lat="45.4293805" lon="11.0618037"><ele>54.0</ele><time>2026-04-18T17:45:49.837Z</time></trkpt><trkpt lat="45.4293062" lon="11.0618839"><ele>53.800000000000004</ele><time>2026-04-18T17:45:50.832Z</time></trkpt><trkpt lat="45.4292373" lon="11.0619596"><ele>53.60000000000001</ele><time>2026-04-18T17:45:51.836Z</time></trkpt><trkpt lat="45.429175" lon="11.0620277"><ele>53.4</ele><time>2026-04-18T17:45:52.838Z</time></trkpt><trkpt lat="45.4291055" lon="11.0621103"><ele>53.2</ele><time>2026-04-18T17:45:53.838Z</time></trkpt><trkpt lat="45.4290247" lon="11.0622"><ele>53.0</ele><time>2026-04-18T17:45:54.832Z</time></trkpt><trkpt lat="45.4289439" lon="11.0622885"><ele>53.0</ele><time>2026-04-18T17:45:55.832Z</time></trkpt><trkpt lat="45.4288642" lon="11.0623758"><ele>53.0</ele><time>2026-04-18T17:45:56.836Z</time></trkpt><trkpt lat="45.4287801" lon="11.062472"><ele>53.0</ele><time>2026-04-18T17:45:57.825Z</time></trkpt><trkpt lat="45.4286928" lon="11.062585"><ele>53.0</ele><time>2026-04-18T17:45:58.825Z</time></trkpt><trkpt lat="45.4286063" lon="11.0627062"><ele>53.0</ele><time>2026-04-18T17:45:59.827Z</time></trkpt><trkpt lat="45.428518" lon="11.0628354"><ele>52.5</ele><time>2026-04-18T17:46:00.829Z</time></trkpt><trkpt lat="45.4284335" lon="11.0629687"><ele>52.0</ele><time>2026-04-18T17:46:01.828Z</time></trkpt><trkpt lat="45.4283508" lon="11.0631083"><ele>51.5</ele><time>2026-04-18T17:46:02.833Z</time></trkpt><trkpt lat="45.4282678" lon="11.0632533"><ele>51.0</ele><time>2026-04-18T17:46:03.828Z</time></trkpt><trkpt lat="45.4281872" lon="11.0634097"><ele>50.75</ele><time>2026-04-18T17:46:04.837Z</time></trkpt><trkpt lat="45.4281108" lon="11.0635655"><ele>50.5</ele><time>2026-04-18T17:46:05.829Z</time></trkpt><trkpt lat="45.4280412" lon="11.0637241"><ele>50.25</ele><time>2026-04-18T17:46:06.832Z</time></trkpt><trkpt lat="45.4279765" lon="11.0638845"><ele>50.0</ele><time>2026-04-18T17:46:07.825Z</time></trkpt><trkpt lat="45.4279182" lon="11.0640555"><ele>49.75</ele><time>2026-04-18T17:46:08.833Z</time></trkpt><trkpt lat="45.4278714" lon="11.0642377"><ele>49.5</ele><time>2026-04-18T17:46:09.825Z</time></trkpt><trkpt lat="45.4278488" lon="11.0644228"><ele>49.25</ele><time>2026-04-18T17:46:10.832Z</time></trkpt><trkpt lat="45.4278487" lon="11.0645993"><ele>49.0</ele><time>2026-04-18T17:46:11.83Z</time></trkpt><trkpt lat="45.4278638" lon="11.064762"><ele>49.0</ele><time>2026-04-18T17:46:12.836Z</time></trkpt><trkpt lat="45.427894" lon="11.0649105"><ele>49.0</ele><time>2026-04-18T17:46:13.839Z</time></trkpt><trkpt lat="45.4279371" lon="11.0650525"><ele>49.0</ele><time>2026-04-18T17:46:14.833Z</time></trkpt><trkpt lat="45.4279939" lon="11.0651849"><ele>49.0</ele><time>2026-04-18T17:46:15.831Z</time></trkpt><trkpt lat="45.4280639" lon="11.0653103"><ele>49.0</ele><time>2026-04-18T17:46:16.828Z</time></trkpt><trkpt lat="45.4281389" lon="11.0654075"><ele>49.33333333333333</ele><time>2026-04-18T17:46:17.832Z</time></trkpt><trkpt lat="45.4282162" lon="11.065488"><ele>49.666666666666664</ele><time>2026-04-18T17:46:18.84Z</time></trkpt><trkpt lat="45.4282933" lon="11.0655484"><ele>50.0</ele><time>2026-04-18T17:46:19.833Z</time></trkpt><trkpt lat="45.428373" lon="11.0656032"><ele>50.33333333333333</ele><time>2026-04-18T17:46:20.838Z</time></trkpt><trkpt lat="45.4284496" lon="11.0656449"><ele>50.666666666666664</ele><time>2026-04-18T17:46:21.828Z</time></trkpt><trkpt lat="45.4285255" lon="11.0656887"><ele>51.0</ele><time>2026-04-18T17:46:22.842Z</time></trkpt><trkpt lat="45.4285911" lon="11.0657619"><ele>50.833333333333336</ele><time>2026-04-18T17:46:23.829Z</time></trkpt><trkpt lat="45.4286496" lon="11.0658523"><ele>50.66666666666667</ele><time>2026-04-18T17:46:24.831Z</time></trkpt><trkpt lat="45.4286944" lon="11.0659581"><ele>50.5</ele><time>2026-04-18T17:46:25.834Z</time></trkpt><trkpt lat="45.4287219" lon="11.0660697"><ele>50.333333333333336</ele><time>2026-04-18T17:46:26.836Z</time></trkpt><trkpt lat="45.4287325" lon="11.0661906"><ele>50.16666666666667</ele><time>2026-04-18T17:46:27.83Z</time></trkpt><trkpt lat="45.4287257" lon="11.0663246"><ele>50.0</ele><time>2026-04-18T17:46:28.834Z</time></trkpt><trkpt lat="45.4286923" lon="11.066471"><ele>49.75</ele><time>2026-04-18T17:46:29.827Z</time></trkpt><trkpt lat="45.4286443" lon="11.0666239"><ele>49.5</ele><time>2026-04-18T17:46:30.835Z</time></trkpt><trkpt lat="45.4285909" lon="11.0667776"><ele>49.25</ele><time>2026-04-18T17:46:31.829Z</time></trkpt><trkpt lat="45.4285382" lon="11.0669339"><ele>49.0</ele><time>2026-04-18T17:46:32.829Z</time></trkpt><trkpt lat="45.4284843" lon="11.0670967"><ele>49.0</ele><time>2026-04-18T17:46:33.831Z</time></trkpt><trkpt lat="45.4284306" lon="11.0672644"><ele>49.0</ele><time>2026-04-18T17:46:34.828Z</time></trkpt><trkpt lat="45.4283794" lon="11.0674427"><ele>49.0</ele><time>2026-04-18T17:46:35.831Z</time></trkpt><trkpt lat="45.4283288" lon="11.0676359"><ele>49.0</ele><time>2026-04-18T17:46:36.837Z</time></trkpt><trkpt lat="45.4282797" lon="11.0678357"><ele>49.0</ele><time>2026-04-18T17:46:37.831Z</time></trkpt><trkpt lat="45.428232" lon="11.0680393"><ele>49.0</ele><time>2026-04-18T17:46:38.836Z</time></trkpt><trkpt lat="45.4281862" lon="11.0682411"><ele>49.0</ele><time>2026-04-18T17:46:39.831Z</time></trkpt><trkpt lat="45.4281423" lon="11.0684433"><ele>49.0</ele><time>2026-04-18T17:46:40.831Z</time></trkpt><trkpt lat="45.4281011" lon="11.0686424"><ele>49.0</ele><time>2026-04-18T17:46:41.832Z</time></trkpt><trkpt lat="45.4280615" lon="11.0688319"><ele>49.0</ele><time>2026-04-18T17:46:42.83Z</time></trkpt><trkpt lat="45.4280227" lon="11.0690161"><ele>49.0</ele><time>2026-04-18T17:46:43.837Z</time></trkpt><trkpt lat="45.427981" lon="11.0691994"><ele>49.0</ele><time>2026-04-18T17:46:44.84Z</time></trkpt><trkpt lat="45.4279335" lon="11.0693808"><ele>48.5</ele><time>2026-04-18T17:46:45.832Z</time></trkpt><trkpt lat="45.4278806" lon="11.0695613"><ele>48.0</ele><time>2026-04-18T17:46:46.829Z</time></trkpt><trkpt lat="45.4278359" lon="11.0697325"><ele>47.5</ele><time>2026-04-18T17:46:47.835Z</time></trkpt><trkpt lat="45.4277958" lon="11.0698929"><ele>47.0</ele><time>2026-04-18T17:46:48.833Z</time></trkpt><trkpt lat="45.4277602" lon="11.0700371"><ele>47.0</ele><time>2026-04-18T17:46:49.84Z</time></trkpt><trkpt lat="45.4277234" lon="11.0701723"><ele>47.0</ele><time>2026-04-18T17:46:50.83Z</time></trkpt><trkpt lat="45.4276838" lon="11.0702899"><ele>47.0</ele><time>2026-04-18T17:46:51.83Z</time></trkpt><trkpt lat="45.427641" lon="11.0703978"><ele>47.0</ele><time>2026-04-18T17:46:52.831Z</time></trkpt><trkpt lat="45.4275942" lon="11.07048"><ele>47.0</ele><time>2026-04-18T17:46:53.834Z</time></trkpt><trkpt lat="45.4275406" lon="11.070537"><ele>47.0</ele><time>2026-04-18T17:46:54.828Z</time></trkpt><trkpt lat="45.4274797" lon="11.0705825"><ele>47.0</ele><time>2026-04-18T17:46:55.826Z</time></trkpt><trkpt lat="45.4274153" lon="11.0706427"><ele>47.0</ele><time>2026-04-18T17:46:56.835Z</time></trkpt><trkpt lat="45.4273643" lon="11.0707249"><ele>47.0</ele><time>2026-04-18T17:46:57.827Z</time></trkpt><trkpt lat="45.4273328" lon="11.0708193"><ele>47.0</ele><time>2026-04-18T17:46:58.832Z</time></trkpt><trkpt lat="45.4273231" lon="11.0709136"><ele>47.0</ele><time>2026-04-18T17:46:59.83Z</time></trkpt><trkpt lat="45.4273298" lon="11.0710119"><ele>47.0</ele><time>2026-04-18T17:47:00.837Z</time></trkpt><trkpt lat="45.4273512" lon="11.0711127"><ele>47.0</ele><time>2026-04-18T17:47:01.824Z</time></trkpt><trkpt lat="45.4273756" lon="11.0712221"><ele>47.5</ele><time>2026-04-18T17:47:02.832Z</time></trkpt><trkpt lat="45.4273918" lon="11.0713395"><ele>48.0</ele><time>2026-04-18T17:47:03.825Z</time></trkpt><trkpt lat="45.4273971" lon="11.0714832"><ele>48.5</ele><time>2026-04-18T17:47:04.829Z</time></trkpt><trkpt lat="45.4273928" lon="11.0716675"><ele>49.0</ele><time>2026-04-18T17:47:05.831Z</time></trkpt><trkpt lat="45.4273736" lon="11.0718787"><ele>49.0</ele><time>2026-04-18T17:47:06.829Z</time></trkpt><trkpt lat="45.4273425" lon="11.0721006"><ele>49.0</ele><time>2026-04-18T17:47:07.833Z</time></trkpt><trkpt lat="45.4273051" lon="11.0723035"><ele>49.0</ele><time>2026-04-18T17:47:08.827Z</time></trkpt><trkpt lat="45.4272625" lon="11.0724975"><ele>49.0</ele><time>2026-04-18T17:47:09.834Z</time></trkpt><trkpt lat="45.4272204" lon="11.0726858"><ele>48.800000000000004</ele><time>2026-04-18T17:47:10.835Z</time></trkpt><trkpt lat="45.4271826" lon="11.0728521"><ele>48.6</ele><time>2026-04-18T17:47:11.834Z</time></trkpt><trkpt lat="45.4271484" lon="11.0729919"><ele>48.4</ele><time>2026-04-18T17:47:12.83Z</time></trkpt><trkpt lat="45.4271196" lon="11.0731097"><ele>48.2</ele><time>2026-04-18T17:47:13.831Z</time></trkpt><trkpt lat="45.4270872" lon="11.0732111"><ele>48.0</ele><time>2026-04-18T17:47:14.828Z</time></trkpt><trkpt lat="45.4270474" lon="11.073299"><ele>47.857142857142854</ele><time>2026-04-18T17:47:15.833Z</time></trkpt><trkpt lat="45.4269852" lon="11.0733657"><ele>47.714285714285715</ele><time>2026-04-18T17:47:16.829Z</time></trkpt><trkpt lat="45.4269101" lon="11.0733956"><ele>47.57142857142857</ele><time>2026-04-18T17:47:17.834Z</time></trkpt><trkpt lat="45.4268472" lon="11.0734207"><ele>47.42857142857143</ele><time>2026-04-18T17:47:18.828Z</time></trkpt><trkpt lat="45.4267995" lon="11.0734836"><ele>47.285714285714285</ele><time>2026-04-18T17:47:19.829Z</time></trkpt><trkpt lat="45.4267683" lon="11.0735683"><ele>47.14285714285714</ele><time>2026-04-18T17:47:20.829Z</time></trkpt><trkpt lat="45.4267736" lon="11.0736651"><ele>47.0</ele><time>2026-04-18T17:47:21.829Z</time></trkpt><trkpt lat="45.4268068" lon="11.073769"><ele>47.0</ele><time>2026-04-18T17:47:22.834Z</time></trkpt><trkpt lat="45.4268472" lon="11.0738772"><ele>47.0</ele><time>2026-04-18T17:47:23.834Z</time></trkpt><trkpt lat="45.4268727" lon="11.0739854"><ele>47.0</ele><time>2026-04-18T17:47:24.837Z</time></trkpt><trkpt lat="45.4268839" lon="11.0741024"><ele>47.0</ele><time>2026-04-18T17:47:25.828Z</time></trkpt><trkpt lat="45.4268784" lon="11.0742309"><ele>47.0</ele><time>2026-04-18T17:47:26.83Z</time></trkpt><trkpt lat="45.4268582" lon="11.0743634"><ele>47.0</ele><time>2026-04-18T17:47:27.825Z</time></trkpt><trkpt lat="45.4268285" lon="11.074506"><ele>47.0</ele><time>2026-04-18T17:47:28.834Z</time></trkpt><trkpt lat="45.4267995" lon="11.0746528"><ele>47.0</ele><time>2026-04-18T17:47:29.831Z</time></trkpt><trkpt lat="45.4267668" lon="11.074802"><ele>47.0</ele><time>2026-04-18T17:47:30.831Z</time></trkpt><trkpt lat="45.4267351" lon="11.0749572"><ele>47.0</ele><time>2026-04-18T17:47:31.827Z</time></trkpt><trkpt lat="45.4267004" lon="11.0751152"><ele>47.0</ele><time>2026-04-18T17:47:32.83Z</time></trkpt><trkpt lat="45.4266641" lon="11.0752768"><ele>47.0</ele><time>2026-04-18T17:47:33.826Z</time></trkpt><trkpt lat="45.426627" lon="11.0754413"><ele>47.0</ele><time>2026-04-18T17:47:34.825Z</time></trkpt><trkpt lat="45.426586" lon="11.075624"><ele>47.0</ele><time>2026-04-18T17:47:35.828Z</time></trkpt><trkpt lat="45.426542" lon="11.0758173"><ele>47.0</ele><time>2026-04-18T17:47:36.827Z</time></trkpt><trkpt lat="45.4264978" lon="11.076011"><ele>47.0</ele><time>2026-04-18T17:47:37.824Z</time></trkpt><trkpt lat="45.4264549" lon="11.0762074"><ele>47.0</ele><time>2026-04-18T17:47:38.826Z</time></trkpt><trkpt lat="45.4264131" lon="11.0764033"><ele>47.0</ele><time>2026-04-18T17:47:39.826Z</time></trkpt><trkpt lat="45.4263716" lon="11.076598"><ele>47.0</ele><time>2026-04-18T17:47:40.827Z</time></trkpt><trkpt lat="45.4263275" lon="11.0767945"><ele>47.25</ele><time>2026-04-18T17:47:41.83Z</time></trkpt><trkpt lat="45.4262851" lon="11.0769894"><ele>47.5</ele><time>2026-04-18T17:47:42.827Z</time></trkpt><trkpt lat="45.4262401" lon="11.077189"><ele>47.75</ele><time>2026-04-18T17:47:43.827Z</time></trkpt><trkpt lat="45.4261954" lon="11.0773888"><ele>48.0</ele><time>2026-04-18T17:47:44.825Z</time></trkpt><trkpt lat="45.4261538" lon="11.077588"><ele>48.0</ele><time>2026-04-18T17:47:45.823Z</time></trkpt><trkpt lat="45.4261103" lon="11.0777844"><ele>48.0</ele><time>2026-04-18T17:47:46.829Z</time></trkpt><trkpt lat="45.4260636" lon="11.0780023"><ele>48.0</ele><time>2026-04-18T17:47:47.83Z</time></trkpt><trkpt lat="45.426016" lon="11.078218"><ele>48.0</ele><time>2026-04-18T17:47:48.829Z</time></trkpt><trkpt lat="45.4259725" lon="11.0784213"><ele>48.0</ele><time>2026-04-18T17:47:49.829Z</time></trkpt><trkpt lat="45.425931" lon="11.07863"><ele>48.0</ele><time>2026-04-18T17:47:50.826Z</time></trkpt><trkpt lat="45.4258898" lon="11.0788374"><ele>48.0</ele><time>2026-04-18T17:47:51.823Z</time></trkpt><trkpt lat="45.4258449" lon="11.0790427"><ele>48.0</ele><time>2026-04-18T17:47:52.823Z</time></trkpt><trkpt lat="45.4258006" lon="11.0792477"><ele>48.0</ele><time>2026-04-18T17:47:53.829Z</time></trkpt><trkpt lat="45.425753" lon="11.0794608"><ele>48.33333333333333</ele><time>2026-04-18T17:47:54.827Z</time></trkpt><trkpt lat="45.4256996" lon="11.0796737"><ele>48.666666666666664</ele><time>2026-04-18T17:47:55.828Z</time></trkpt><trkpt lat="45.4256525" lon="11.0798858"><ele>49.0</ele><time>2026-04-18T17:47:56.833Z</time></trkpt><trkpt lat="45.4256061" lon="11.080097"><ele>49.0</ele><time>2026-04-18T17:47:57.83Z</time></trkpt><trkpt lat="45.4255604" lon="11.0802922"><ele>49.0</ele><time>2026-04-18T17:47:58.829Z</time></trkpt><trkpt lat="45.4255177" lon="11.0804825"><ele>49.0</ele><time>2026-04-18T17:47:59.83Z</time></trkpt><trkpt lat="45.4254759" lon="11.0806766"><ele>49.0</ele><time>2026-04-18T17:48:00.835Z</time></trkpt><trkpt lat="45.4254361" lon="11.0808616"><ele>49.0</ele><time>2026-04-18T17:48:01.835Z</time></trkpt><trkpt lat="45.4253957" lon="11.0810399"><ele>49.0</ele><time>2026-04-18T17:48:02.827Z</time></trkpt><trkpt lat="45.4253551" lon="11.0812244"><ele>49.0</ele><time>2026-04-18T17:48:03.828Z</time></trkpt><trkpt lat="45.4253132" lon="11.0814144"><ele>49.0</ele><time>2026-04-18T17:48:04.834Z</time></trkpt><trkpt lat="45.4252729" lon="11.0816096"><ele>49.0</ele><time>2026-04-18T17:48:05.83Z</time></trkpt><trkpt lat="45.4252308" lon="11.0817909"><ele>49.0</ele><time>2026-04-18T17:48:06.83Z</time></trkpt><trkpt lat="45.4251921" lon="11.0819684"><ele>49.0</ele><time>2026-04-18T17:48:07.835Z</time></trkpt><trkpt lat="45.425158" lon="11.082152"><ele>49.0</ele><time>2026-04-18T17:48:08.826Z</time></trkpt><trkpt lat="45.4251176" lon="11.0823418"><ele>49.0</ele><time>2026-04-18T17:48:09.831Z</time></trkpt><trkpt lat="45.4250774" lon="11.0825278"><ele>49.0</ele><time>2026-04-18T17:48:10.826Z</time></trkpt><trkpt lat="45.425041" lon="11.0827081"><ele>49.0</ele><time>2026-04-18T17:48:11.831Z</time></trkpt><trkpt lat="45.4250039" lon="11.0828795"><ele>49.0</ele><time>2026-04-18T17:48:12.829Z</time></trkpt><trkpt lat="45.4249622" lon="11.0830563"><ele>49.0</ele><time>2026-04-18T17:48:13.83Z</time></trkpt><trkpt lat="45.4249222" lon="11.0832329"><ele>49.0</ele><time>2026-04-18T17:48:14.832Z</time></trkpt><trkpt lat="45.4248821" lon="11.0834057"><ele>49.0</ele><time>2026-04-18T17:48:15.83Z</time></trkpt><trkpt lat="45.424839" lon="11.083587"><ele>49.0</ele><time>2026-04-18T17:48:16.834Z</time></trkpt><trkpt lat="45.4247933" lon="11.0837604"><ele>49.0</ele><time>2026-04-18T17:48:17.824Z</time></trkpt><trkpt lat="45.4247495" lon="11.0839155"><ele>49.0</ele><time>2026-04-18T17:48:18.829Z</time></trkpt><trkpt lat="45.4247" lon="11.0840664"><ele>49.0</ele><time>2026-04-18T17:48:19.825Z</time></trkpt><trkpt lat="45.4246477" lon="11.0842182"><ele>49.0</ele><time>2026-04-18T17:48:20.825Z</time></trkpt><trkpt lat="45.4245988" lon="11.0843709"><ele>48.5</ele><time>2026-04-18T17:48:21.827Z</time></trkpt><trkpt lat="45.4245446" lon="11.0845222"><ele>48.0</ele><time>2026-04-18T17:48:22.827Z</time></trkpt><trkpt lat="45.4244918" lon="11.0846697"><ele>47.5</ele><time>2026-04-18T17:48:23.827Z</time></trkpt><trkpt lat="45.4244359" lon="11.0848165"><ele>47.0</ele><time>2026-04-18T17:48:24.832Z</time></trkpt><trkpt lat="45.4243859" lon="11.0849647"><ele>47.0</ele><time>2026-04-18T17:48:25.833Z</time></trkpt><trkpt lat="45.4243336" lon="11.0851164"><ele>47.0</ele><time>2026-04-18T17:48:26.831Z</time></trkpt><trkpt lat="45.4242805" lon="11.0852675"><ele>47.0</ele><time>2026-04-18T17:48:27.834Z</time></trkpt><trkpt lat="45.4242263" lon="11.0854252"><ele>47.0</ele><time>2026-04-18T17:48:28.829Z</time></trkpt><trkpt lat="45.4241775" lon="11.0855786"><ele>47.0</ele><time>2026-04-18T17:48:29.833Z</time></trkpt><trkpt lat="45.4241322" lon="11.0857291"><ele>47.0</ele><time>2026-04-18T17:48:30.83Z</time></trkpt><trkpt lat="45.4240875" lon="11.0858859"><ele>47.0</ele><time>2026-04-18T17:48:31.83Z</time></trkpt><trkpt lat="45.4240444" lon="11.0860399"><ele>47.0</ele><time>2026-04-18T17:48:32.833Z</time></trkpt><trkpt lat="45.4239974" lon="11.0861891"><ele>47.2</ele><time>2026-04-18T17:48:33.83Z</time></trkpt><trkpt lat="45.423956" lon="11.0863315"><ele>47.400000000000006</ele><time>2026-04-18T17:48:34.828Z</time></trkpt><trkpt lat="45.4239153" lon="11.0864703"><ele>47.599999999999994</ele><time>2026-04-18T17:48:35.825Z</time></trkpt><trkpt lat="45.4238714" lon="11.0866157"><ele>47.8</ele><time>2026-04-18T17:48:36.829Z</time></trkpt><trkpt lat="45.4238274" lon="11.0867718"><ele>48.0</ele><time>2026-04-18T17:48:37.827Z</time></trkpt><trkpt lat="45.4237818" lon="11.0869435"><ele>48.0</ele><time>2026-04-18T17:48:38.828Z</time></trkpt><trkpt lat="45.4237335" lon="11.0871163"><ele>48.0</ele><time>2026-04-18T17:48:39.831Z</time></trkpt><trkpt lat="45.4236881" lon="11.0872762"><ele>48.0</ele><time>2026-04-18T17:48:40.824Z</time></trkpt><trkpt lat="45.4236464" lon="11.0874291"><ele>48.0</ele><time>2026-04-18T17:48:41.828Z</time></trkpt><trkpt lat="45.423599" lon="11.0875799"><ele>47.8</ele><time>2026-04-18T17:48:42.829Z</time></trkpt><trkpt lat="45.4235478" lon="11.0877284"><ele>47.599999999999994</ele><time>2026-04-18T17:48:43.83Z</time></trkpt><trkpt lat="45.4234987" lon="11.0878592"><ele>47.400000000000006</ele><time>2026-04-18T17:48:44.828Z</time></trkpt><trkpt lat="45.423448" lon="11.0879777"><ele>47.2</ele><time>2026-04-18T17:48:45.83Z</time></trkpt><trkpt lat="45.4234005" lon="11.0880858"><ele>47.0</ele><time>2026-04-18T17:48:46.826Z</time></trkpt><trkpt lat="45.4233546" lon="11.0881975"><ele>47.0</ele><time>2026-04-18T17:48:47.826Z</time></trkpt><trkpt lat="45.4233042" lon="11.0883133"><ele>47.0</ele><time>2026-04-18T17:48:48.838Z</time></trkpt><trkpt lat="45.4232508" lon="11.0884294"><ele>47.0</ele><time>2026-04-18T17:48:49.824Z</time></trkpt><trkpt lat="45.4231956" lon="11.0885427"><ele>47.0</ele><time>2026-04-18T17:48:50.833Z</time></trkpt><trkpt lat="45.423148" lon="11.0886492"><ele>47.0</ele><time>2026-04-18T17:48:51.832Z</time></trkpt><trkpt lat="45.4231047" lon="11.088747"><ele>47.0</ele><time>2026-04-18T17:48:52.832Z</time></trkpt><trkpt lat="45.423062" lon="11.0888415"><ele>47.0</ele><time>2026-04-18T17:48:53.832Z</time></trkpt><trkpt lat="45.423023" lon="11.088929"><ele>47.0</ele><time>2026-04-18T17:48:54.84Z</time></trkpt><trkpt lat="45.4229883" lon="11.0890101"><ele>47.0</ele><time>2026-04-18T17:48:55.827Z</time></trkpt><trkpt lat="45.4229381" lon="11.089143"><ele>47.0</ele><time>2026-04-18T17:48:57.832Z</time></trkpt><trkpt lat="45.4228841" lon="11.0892849"><ele>47.0</ele><time>2026-04-18T17:48:59.835Z</time></trkpt><trkpt lat="45.422821" lon="11.0894216"><ele>47.0</ele><time>2026-04-18T17:49:01.838Z</time></trkpt><trkpt lat="45.4227794" lon="11.0895001"><ele>47.0</ele><time>2026-04-18T17:49:03.831Z</time></trkpt><trkpt lat="45.4227204" lon="11.089612"><ele>47.0</ele><time>2026-04-18T17:49:13.834Z</time></trkpt><trkpt lat="45.422678" lon="11.0897079"><ele>47.0</ele><time>2026-04-18T17:49:14.827Z</time></trkpt><trkpt lat="45.4226167" lon="11.0898373"><ele>47.0</ele><time>2026-04-18T17:49:15.831Z</time></trkpt><trkpt lat="45.4225626" lon="11.0899963"><ele>47.25</ele><time>2026-04-18T17:49:16.828Z</time></trkpt><trkpt lat="45.422514" lon="11.0901842"><ele>47.5</ele><time>2026-04-18T17:49:17.835Z</time></trkpt><trkpt lat="45.4224776" lon="11.0903845"><ele>47.75</ele><time>2026-04-18T17:49:18.835Z</time></trkpt><trkpt lat="45.4224602" lon="11.0906029"><ele>48.0</ele><time>2026-04-18T17:49:19.832Z</time></trkpt><trkpt lat="45.4224568" lon="11.0908237"><ele>47.333333333333336</ele><time>2026-04-18T17:49:20.828Z</time></trkpt><trkpt lat="45.4224665" lon="11.091042"><ele>46.66666666666667</ele><time>2026-04-18T17:49:21.83Z</time></trkpt><trkpt lat="45.4224862" lon="11.0912609"><ele>46.0</ele><time>2026-04-18T17:49:22.836Z</time></trkpt><trkpt lat="45.4225152" lon="11.0914663"><ele>46.0</ele><time>2026-04-18T17:49:23.839Z</time></trkpt><trkpt lat="45.4225542" lon="11.0916495"><ele>46.0</ele><time>2026-04-18T17:49:24.836Z</time></trkpt><trkpt lat="45.4225851" lon="11.0918195"><ele>46.0</ele><time>2026-04-18T17:49:25.832Z</time></trkpt><trkpt lat="45.4226143" lon="11.0919673"><ele>46.0</ele><time>2026-04-18T17:49:26.83Z</time></trkpt><trkpt lat="45.4226359" lon="11.0920971"><ele>46.0</ele><time>2026-04-18T17:49:27.83Z</time></trkpt><trkpt lat="45.4226571" lon="11.0922073"><ele>46.0</ele><time>2026-04-18T17:49:28.834Z</time></trkpt><trkpt lat="45.4226779" lon="11.0923036"><ele>46.0</ele><time>2026-04-18T17:49:29.831Z</time></trkpt><trkpt lat="45.4227065" lon="11.0924294"><ele>46.0</ele><time>2026-04-18T17:49:31.836Z</time></trkpt><trkpt lat="45.4227493" lon="11.0925293"><ele>46.0</ele><time>2026-04-18T17:50:01.83Z</time></trkpt><trkpt lat="45.4227666" lon="11.0926246"><ele>46.0</ele><time>2026-04-18T17:50:02.83Z</time></trkpt><trkpt lat="45.4227927" lon="11.0927483"><ele>46.25</ele><time>2026-04-18T17:50:03.837Z</time></trkpt><trkpt lat="45.4228249" lon="11.0929011"><ele>46.5</ele><time>2026-04-18T17:50:04.83Z</time></trkpt><trkpt lat="45.4228735" lon="11.093073"><ele>46.75</ele><time>2026-04-18T17:50:05.837Z</time></trkpt><trkpt lat="45.4229319" lon="11.0932594"><ele>47.0</ele><time>2026-04-18T17:50:06.832Z</time></trkpt><trkpt lat="45.4230007" lon="11.0934519"><ele>47.0</ele><time>2026-04-18T17:50:07.834Z</time></trkpt><trkpt lat="45.4230622" lon="11.0936538"><ele>47.0</ele><time>2026-04-18T17:50:08.829Z</time></trkpt><trkpt lat="45.4231179" lon="11.0938709"><ele>47.0</ele><time>2026-04-18T17:50:09.83Z</time></trkpt><trkpt lat="45.423157" lon="11.0940981"><ele>47.666666666666664</ele><time>2026-04-18T17:50:10.829Z</time></trkpt><trkpt lat="45.4231737" lon="11.0943328"><ele>48.33333333333333</ele><time>2026-04-18T17:50:11.829Z</time></trkpt><trkpt lat="45.4231791" lon="11.0945649"><ele>49.0</ele><time>2026-04-18T17:50:12.829Z</time></trkpt><trkpt lat="45.423158" lon="11.0948166"><ele>49.33333333333333</ele><time>2026-04-18T17:50:13.828Z</time></trkpt><trkpt lat="45.4231079" lon="11.0950942"><ele>49.66666666666667</ele><time>2026-04-18T17:50:14.838Z</time></trkpt><trkpt lat="45.4230557" lon="11.0953627"><ele>50.0</ele><time>2026-04-18T17:50:15.827Z</time></trkpt><trkpt lat="45.4230045" lon="11.0956254"><ele>49.0</ele><time>2026-04-18T17:50:16.833Z</time></trkpt><trkpt lat="45.4229509" lon="11.095901"><ele>48.0</ele><time>2026-04-18T17:50:17.832Z</time></trkpt><trkpt lat="45.4229027" lon="11.0961419"><ele>47.0</ele><time>2026-04-18T17:50:18.831Z</time></trkpt><trkpt lat="45.4228504" lon="11.0963911"><ele>46.666666666666664</ele><time>2026-04-18T17:50:19.834Z</time></trkpt><trkpt lat="45.4228012" lon="11.0966418"><ele>46.333333333333336</ele><time>2026-04-18T17:50:20.825Z</time></trkpt><trkpt lat="45.4227519" lon="11.096892"><ele>46.0</ele><time>2026-04-18T17:50:21.826Z</time></trkpt><trkpt lat="45.4227029" lon="11.0971409"><ele>46.0</ele><time>2026-04-18T17:50:22.836Z</time></trkpt><trkpt lat="45.4226563" lon="11.0973858"><ele>46.0</ele><time>2026-04-18T17:50:23.84Z</time></trkpt><trkpt lat="45.4226089" lon="11.0976255"><ele>46.0</ele><time>2026-04-18T17:50:24.829Z</time></trkpt><trkpt lat="45.4225615" lon="11.0978666"><ele>46.0</ele><time>2026-04-18T17:50:25.831Z</time></trkpt><trkpt lat="45.4225147" lon="11.0981078"><ele>46.0</ele><time>2026-04-18T17:50:26.831Z</time></trkpt><trkpt lat="45.4224698" lon="11.098343"><ele>46.0</ele><time>2026-04-18T17:50:27.829Z</time></trkpt><trkpt lat="45.4224255" lon="11.0985791"><ele>46.0</ele><time>2026-04-18T17:50:28.836Z</time></trkpt><trkpt lat="45.4223809" lon="11.0988203"><ele>46.0</ele><time>2026-04-18T17:50:29.828Z</time></trkpt><trkpt lat="45.4223378" lon="11.0990572"><ele>46.0</ele><time>2026-04-18T17:50:30.836Z</time></trkpt><trkpt lat="45.4222961" lon="11.0993023"><ele>46.0</ele><time>2026-04-18T17:50:31.832Z</time></trkpt><trkpt lat="45.4222511" lon="11.0995589"><ele>46.0</ele><time>2026-04-18T17:50:32.835Z</time></trkpt><trkpt lat="45.4222021" lon="11.0998144"><ele>46.0</ele><time>2026-04-18T17:50:33.83Z</time></trkpt><trkpt lat="45.4221556" lon="11.1000699"><ele>45.66666666666667</ele><time>2026-04-18T17:50:34.834Z</time></trkpt><trkpt lat="45.4221114" lon="11.100321"><ele>45.333333333333336</ele><time>2026-04-18T17:50:35.828Z</time></trkpt><trkpt lat="45.4220689" lon="11.1005713"><ele>45.0</ele><time>2026-04-18T17:50:36.826Z</time></trkpt><trkpt lat="45.4220307" lon="11.1008179"><ele>45.0</ele><time>2026-04-18T17:50:37.83Z</time></trkpt><trkpt lat="45.4219959" lon="11.1010787"><ele>45.0</ele><time>2026-04-18T17:50:38.829Z</time></trkpt><trkpt lat="45.4219712" lon="11.1013078"><ele>45.0</ele><time>2026-04-18T17:50:39.828Z</time></trkpt><trkpt lat="45.4219495" lon="11.1015515"><ele>45.0</ele><time>2026-04-18T17:50:40.827Z</time></trkpt><trkpt lat="45.4219321" lon="11.1017889"><ele>45.0</ele><time>2026-04-18T17:50:41.834Z</time></trkpt><trkpt lat="45.4219167" lon="11.1020106"><ele>45.0</ele><time>2026-04-18T17:50:42.827Z</time></trkpt><trkpt lat="45.4219015" lon="11.1022251"><ele>45.0</ele><time>2026-04-18T17:50:43.827Z</time></trkpt><trkpt lat="45.4218883" lon="11.1024205"><ele>45.0</ele><time>2026-04-18T17:50:44.834Z</time></trkpt><trkpt lat="45.4218755" lon="11.1026001"><ele>45.0</ele><time>2026-04-18T17:50:45.833Z</time></trkpt><trkpt lat="45.4218595" lon="11.1027834"><ele>45.0</ele><time>2026-04-18T17:50:46.831Z</time></trkpt><trkpt lat="45.421852" lon="11.1029297"><ele>45.0</ele><time>2026-04-18T17:50:47.839Z</time></trkpt><trkpt lat="45.4218404" lon="11.1030607"><ele>45.0</ele><time>2026-04-18T17:50:48.828Z</time></trkpt><trkpt lat="45.4218157" lon="11.1031818"><ele>45.0</ele><time>2026-04-18T17:50:49.828Z</time></trkpt><trkpt lat="45.4217747" lon="11.1032734"><ele>45.0</ele><time>2026-04-18T17:50:50.83Z</time></trkpt><trkpt lat="45.4217082" lon="11.1033542"><ele>45.0</ele><time>2026-04-18T17:50:51.832Z</time></trkpt><trkpt lat="45.4216326" lon="11.103416"><ele>45.0</ele><time>2026-04-18T17:50:52.828Z</time></trkpt><trkpt lat="45.4215599" lon="11.1034747"><ele>45.166666666666664</ele><time>2026-04-18T17:50:53.83Z</time></trkpt><trkpt lat="45.4215077" lon="11.103549"><ele>45.333333333333336</ele><time>2026-04-18T17:50:54.84Z</time></trkpt><trkpt lat="45.4214884" lon="11.1036585"><ele>45.5</ele><time>2026-04-18T17:50:55.836Z</time></trkpt><trkpt lat="45.4215027" lon="11.1037794"><ele>45.66666666666667</ele><time>2026-04-18T17:50:56.83Z</time></trkpt><trkpt lat="45.4215411" lon="11.1038968"><ele>45.833333333333336</ele><time>2026-04-18T17:50:57.834Z</time></trkpt><trkpt lat="45.4215964" lon="11.1040397"><ele>46.0</ele><time>2026-04-18T17:50:58.832Z</time></trkpt><trkpt lat="45.4216479" lon="11.1042053"><ele>46.0</ele><time>2026-04-18T17:50:59.837Z</time></trkpt><trkpt lat="45.4216811" lon="11.1043927"><ele>46.0</ele><time>2026-04-18T17:51:00.838Z</time></trkpt><trkpt lat="45.4216941" lon="11.1046065"><ele>46.0</ele><time>2026-04-18T17:51:01.834Z</time></trkpt><trkpt lat="45.4216873" lon="11.104841"><ele>45.333333333333336</ele><time>2026-04-18T17:51:02.835Z</time></trkpt><trkpt lat="45.4216744" lon="11.1050509"><ele>44.666666666666664</ele><time>2026-04-18T17:51:03.83Z</time></trkpt><trkpt lat="45.421658" lon="11.1052686"><ele>44.0</ele><time>2026-04-18T17:51:04.833Z</time></trkpt><trkpt lat="45.4216436" lon="11.1054835"><ele>44.0</ele><time>2026-04-18T17:51:05.831Z</time></trkpt><trkpt lat="45.4216325" lon="11.1056577"><ele>44.0</ele><time>2026-04-18T17:51:06.839Z</time></trkpt><trkpt lat="45.4216167" lon="11.1058416"><ele>44.0</ele><time>2026-04-18T17:51:07.829Z</time></trkpt><trkpt lat="45.4215951" lon="11.1060233"><ele>44.0</ele><time>2026-04-18T17:51:08.834Z</time></trkpt><trkpt lat="45.4215764" lon="11.1061952"><ele>43.6</ele><time>2026-04-18T17:51:09.833Z</time></trkpt><trkpt lat="45.4215679" lon="11.1063623"><ele>43.2</ele><time>2026-04-18T17:51:10.829Z</time></trkpt><trkpt lat="45.4215709" lon="11.1065052"><ele>42.800000000000004</ele><time>2026-04-18T17:51:11.838Z</time></trkpt><trkpt lat="45.4215813" lon="11.1066433"><ele>42.400000000000006</ele><time>2026-04-18T17:51:12.837Z</time></trkpt><trkpt lat="45.4215958" lon="11.1067648"><ele>42.0</ele><time>2026-04-18T17:51:13.83Z</time></trkpt><trkpt lat="45.4216026" lon="11.1068686"><ele>42.0</ele><time>2026-04-18T17:51:14.831Z</time></trkpt><trkpt lat="45.4215939" lon="11.1069676"><ele>42.0</ele><time>2026-04-18T17:51:15.837Z</time></trkpt><trkpt lat="45.4215737" lon="11.1070747"><ele>42.0</ele><time>2026-04-18T17:51:16.832Z</time></trkpt><trkpt lat="45.4215478" lon="11.10719"><ele>42.0</ele><time>2026-04-18T17:51:17.831Z</time></trkpt><trkpt lat="45.4215274" lon="11.1073265"><ele>42.0</ele><time>2026-04-18T17:51:18.833Z</time></trkpt><trkpt lat="45.4215154" lon="11.1074542"><ele>42.0</ele><time>2026-04-18T17:51:19.831Z</time></trkpt><trkpt lat="45.4215084" lon="11.107592"><ele>42.0</ele><time>2026-04-18T17:51:20.832Z</time></trkpt><trkpt lat="45.4214988" lon="11.107763"><ele>42.0</ele><time>2026-04-18T17:51:21.836Z</time></trkpt><trkpt lat="45.4214818" lon="11.1079392"><ele>42.0</ele><time>2026-04-18T17:51:22.831Z</time></trkpt><trkpt lat="45.4214588" lon="11.108138"><ele>42.0</ele><time>2026-04-18T17:51:23.832Z</time></trkpt><trkpt lat="45.4214391" lon="11.1083392"><ele>42.0</ele><time>2026-04-18T17:51:24.834Z</time></trkpt><trkpt lat="45.4214233" lon="11.1085256"><ele>42.0</ele><time>2026-04-18T17:51:25.838Z</time></trkpt><trkpt lat="45.4214093" lon="11.1086983"><ele>42.0</ele><time>2026-04-18T17:51:26.831Z</time></trkpt><trkpt lat="45.4213959" lon="11.1088635"><ele>42.0</ele><time>2026-04-18T17:51:27.835Z</time></trkpt><trkpt lat="45.4213814" lon="11.1090346"><ele>42.400000000000006</ele><time>2026-04-18T17:51:28.825Z</time></trkpt><trkpt lat="45.4213698" lon="11.1091872"><ele>42.800000000000004</ele><time>2026-04-18T17:51:29.836Z</time></trkpt><trkpt lat="45.421356" lon="11.1093455"><ele>43.2</ele><time>2026-04-18T17:51:30.833Z</time></trkpt><trkpt lat="45.4213424" lon="11.1095058"><ele>43.6</ele><time>2026-04-18T17:51:31.835Z</time></trkpt><trkpt lat="45.4213289" lon="11.1096663"><ele>44.0</ele><time>2026-04-18T17:51:32.836Z</time></trkpt><trkpt lat="45.4213159" lon="11.1098307"><ele>44.2</ele><time>2026-04-18T17:51:33.833Z</time></trkpt><trkpt lat="45.421306" lon="11.1100044"><ele>44.400000000000006</ele><time>2026-04-18T17:51:34.832Z</time></trkpt><trkpt lat="45.4212966" lon="11.1101474"><ele>44.6</ele><time>2026-04-18T17:51:35.835Z</time></trkpt><trkpt lat="45.4212847" lon="11.1102962"><ele>44.8</ele><time>2026-04-18T17:51:36.833Z</time></trkpt><trkpt lat="45.42127" lon="11.1104389"><ele>45.0</ele><time>2026-04-18T17:51:37.836Z</time></trkpt><trkpt lat="45.4212594" lon="11.1105499"><ele>45.0</ele><time>2026-04-18T17:51:38.828Z</time></trkpt><trkpt lat="45.4212488" lon="11.1106651"><ele>45.0</ele><time>2026-04-18T17:51:39.837Z</time></trkpt><trkpt lat="45.4212392" lon="11.1107815"><ele>45.0</ele><time>2026-04-18T17:51:40.83Z</time></trkpt><trkpt lat="45.4212298" lon="11.1108994"><ele>45.0</ele><time>2026-04-18T17:51:41.831Z</time></trkpt><trkpt lat="45.4212175" lon="11.1110176"><ele>45.0</ele><time>2026-04-18T17:51:42.834Z</time></trkpt><trkpt lat="45.4212083" lon="11.1111342"><ele>45.0</ele><time>2026-04-18T17:51:43.836Z</time></trkpt><trkpt lat="45.4212132" lon="11.111255"><ele>45.0</ele><time>2026-04-18T17:51:44.832Z</time></trkpt><trkpt lat="45.4212224" lon="11.1113861"><ele>45.0</ele><time>2026-04-18T17:51:45.838Z</time></trkpt><trkpt lat="45.4212156" lon="11.1115203"><ele>45.0</ele><time>2026-04-18T17:51:46.829Z</time></trkpt><trkpt lat="45.4211874" lon="11.1116691"><ele>45.0</ele><time>2026-04-18T17:51:47.833Z</time></trkpt><trkpt lat="45.4211631" lon="11.1118158"><ele>45.0</ele><time>2026-04-18T17:51:48.834Z</time></trkpt><trkpt lat="45.4211462" lon="11.1119815"><ele>44.75</ele><time>2026-04-18T17:51:49.831Z</time></trkpt><trkpt lat="45.4211322" lon="11.1121459"><ele>44.5</ele><time>2026-04-18T17:51:50.831Z</time></trkpt><trkpt lat="45.4211173" lon="11.1123098"><ele>44.25</ele><time>2026-04-18T17:51:51.83Z</time></trkpt><trkpt lat="45.4211035" lon="11.1124738"><ele>44.0</ele><time>2026-04-18T17:51:52.831Z</time></trkpt><trkpt lat="45.4210882" lon="11.1126513"><ele>44.0</ele><time>2026-04-18T17:51:53.834Z</time></trkpt><trkpt lat="45.4210758" lon="11.1128159"><ele>44.0</ele><time>2026-04-18T17:51:54.839Z</time></trkpt><trkpt lat="45.4210631" lon="11.1129907"><ele>44.0</ele><time>2026-04-18T17:51:55.828Z</time></trkpt><trkpt lat="45.4210505" lon="11.1131591"><ele>44.0</ele><time>2026-04-18T17:51:56.833Z</time></trkpt><trkpt lat="45.4210375" lon="11.1133251"><ele>44.25</ele><time>2026-04-18T17:51:57.833Z</time></trkpt><trkpt lat="45.4210234" lon="11.1134888"><ele>44.5</ele><time>2026-04-18T17:51:58.829Z</time></trkpt><trkpt lat="45.4210089" lon="11.1136484"><ele>44.75</ele><time>2026-04-18T17:51:59.829Z</time></trkpt><trkpt lat="45.4209953" lon="11.1138096"><ele>45.0</ele><time>2026-04-18T17:52:00.825Z</time></trkpt><trkpt lat="45.4209815" lon="11.1139768"><ele>44.8</ele><time>2026-04-18T17:52:01.823Z</time></trkpt><trkpt lat="45.4209686" lon="11.1141344"><ele>44.6</ele><time>2026-04-18T17:52:02.825Z</time></trkpt><trkpt lat="45.4209562" lon="11.1142913"><ele>44.400000000000006</ele><time>2026-04-18T17:52:03.823Z</time></trkpt><trkpt lat="45.4209432" lon="11.1144479"><ele>44.2</ele><time>2026-04-18T17:52:04.829Z</time></trkpt><trkpt lat="45.4209313" lon="11.1146048"><ele>44.0</ele><time>2026-04-18T17:52:05.827Z</time></trkpt><trkpt lat="45.4209208" lon="11.1147582"><ele>43.800000000000004</ele><time>2026-04-18T17:52:06.826Z</time></trkpt><trkpt lat="45.4209096" lon="11.1149088"><ele>43.6</ele><time>2026-04-18T17:52:07.825Z</time></trkpt><trkpt lat="45.4209004" lon="11.1150606"><ele>43.4</ele><time>2026-04-18T17:52:08.829Z</time></trkpt><trkpt lat="45.4208899" lon="11.1151972"><ele>43.2</ele><time>2026-04-18T17:52:09.825Z</time></trkpt><trkpt lat="45.4208795" lon="11.115321"><ele>43.0</ele><time>2026-04-18T17:52:10.828Z</time></trkpt><trkpt lat="45.4208642" lon="11.1154502"><ele>43.0</ele><time>2026-04-18T17:52:11.825Z</time></trkpt><trkpt lat="45.4208383" lon="11.1155704"><ele>43.0</ele><time>2026-04-18T17:52:12.828Z</time></trkpt><trkpt lat="45.4208035" lon="11.1156876"><ele>43.0</ele><time>2026-04-18T17:52:13.831Z</time></trkpt><trkpt lat="45.4207599" lon="11.1157839"><ele>43.0</ele><time>2026-04-18T17:52:14.827Z</time></trkpt><trkpt lat="45.420712" lon="11.115861"><ele>43.0</ele><time>2026-04-18T17:52:15.825Z</time></trkpt><trkpt lat="45.4206545" lon="11.1159226"><ele>43.0</ele><time>2026-04-18T17:52:16.832Z</time></trkpt><trkpt lat="45.4205978" lon="11.1159862"><ele>43.333333333333336</ele><time>2026-04-18T17:52:17.827Z</time></trkpt><trkpt lat="45.4205565" lon="11.1160586"><ele>43.66666666666667</ele><time>2026-04-18T17:52:18.84Z</time></trkpt><trkpt lat="45.4205276" lon="11.1161458"><ele>44.0</ele><time>2026-04-18T17:52:19.831Z</time></trkpt><trkpt lat="45.420528" lon="11.1163287"><ele>44.333333333333336</ele><time>2026-04-18T17:52:21.829Z</time></trkpt><trkpt lat="45.4205722" lon="11.1164106"><ele>44.666666666666664</ele><time>2026-04-18T17:52:22.83Z</time></trkpt><trkpt lat="45.4206269" lon="11.1164821"><ele>45.0</ele><time>2026-04-18T17:52:23.826Z</time></trkpt><trkpt lat="45.4206693" lon="11.1165873"><ele>45.2</ele><time>2026-04-18T17:52:24.83Z</time></trkpt><trkpt lat="45.4206973" lon="11.1167022"><ele>45.4</ele><time>2026-04-18T17:52:25.826Z</time></trkpt><trkpt lat="45.4207189" lon="11.1168151"><ele>45.599999999999994</ele><time>2026-04-18T17:52:26.83Z</time></trkpt><trkpt lat="45.4207317" lon="11.1169464"><ele>45.8</ele><time>2026-04-18T17:52:27.826Z</time></trkpt><trkpt lat="45.4207358" lon="11.1170845"><ele>46.0</ele><time>2026-04-18T17:52:28.832Z</time></trkpt><trkpt lat="45.4207348" lon="11.1172296"><ele>46.0</ele><time>2026-04-18T17:52:29.826Z</time></trkpt><trkpt lat="45.4207272" lon="11.1173752"><ele>46.0</ele><time>2026-04-18T17:52:30.831Z</time></trkpt><trkpt lat="45.4207177" lon="11.1175142"><ele>46.0</ele><time>2026-04-18T17:52:31.827Z</time></trkpt><trkpt lat="45.4207058" lon="11.1176595"><ele>46.0</ele><time>2026-04-18T17:52:32.836Z</time></trkpt><trkpt lat="45.4206955" lon="11.1178097"><ele>46.0</ele><time>2026-04-18T17:52:33.831Z</time></trkpt><trkpt lat="45.4206831" lon="11.1179687"><ele>45.5</ele><time>2026-04-18T17:52:34.831Z</time></trkpt><trkpt lat="45.4206717" lon="11.1181334"><ele>45.0</ele><time>2026-04-18T17:52:35.838Z</time></trkpt><trkpt lat="45.4206611" lon="11.118306"><ele>44.5</ele><time>2026-04-18T17:52:36.833Z</time></trkpt><trkpt lat="45.4206504" lon="11.1184973"><ele>44.0</ele><time>2026-04-18T17:52:37.83Z</time></trkpt><trkpt lat="45.4206414" lon="11.1187218"><ele>44.0</ele><time>2026-04-18T17:52:38.831Z</time></trkpt><trkpt lat="45.4206257" lon="11.1189597"><ele>44.0</ele><time>2026-04-18T17:52:39.828Z</time></trkpt><trkpt lat="45.4205988" lon="11.1192125"><ele>44.0</ele><time>2026-04-18T17:52:40.83Z</time></trkpt><trkpt lat="45.4205682" lon="11.1194729"><ele>44.0</ele><time>2026-04-18T17:52:41.828Z</time></trkpt><trkpt lat="45.4205461" lon="11.119737"><ele>44.0</ele><time>2026-04-18T17:52:42.835Z</time></trkpt><trkpt lat="45.4205262" lon="11.1200028"><ele>44.0</ele><time>2026-04-18T17:52:43.83Z</time></trkpt><trkpt lat="45.4205035" lon="11.1202688"><ele>43.666666666666664</ele><time>2026-04-18T17:52:44.837Z</time></trkpt><trkpt lat="45.4204848" lon="11.1205307"><ele>43.333333333333336</ele><time>2026-04-18T17:52:45.829Z</time></trkpt><trkpt lat="45.4204669" lon="11.1207894"><ele>43.0</ele><time>2026-04-18T17:52:46.828Z</time></trkpt><trkpt lat="45.4204445" lon="11.1210329"><ele>42.333333333333336</ele><time>2026-04-18T17:52:47.83Z</time></trkpt><trkpt lat="45.4204218" lon="11.1212707"><ele>41.666666666666664</ele><time>2026-04-18T17:52:48.829Z</time></trkpt><trkpt lat="45.4204043" lon="11.1215132"><ele>41.0</ele><time>2026-04-18T17:52:49.83Z</time></trkpt><trkpt lat="45.4203851" lon="11.1217538"><ele>41.0</ele><time>2026-04-18T17:52:50.83Z</time></trkpt><trkpt lat="45.4203616" lon="11.1219652"><ele>41.0</ele><time>2026-04-18T17:52:51.825Z</time></trkpt><trkpt lat="45.4203387" lon="11.122174"><ele>41.0</ele><time>2026-04-18T17:52:52.831Z</time></trkpt><trkpt lat="45.4203251" lon="11.1223808"><ele>41.0</ele><time>2026-04-18T17:52:53.828Z</time></trkpt><trkpt lat="45.4203071" lon="11.1225242"><ele>41.0</ele><time>2026-04-18T17:52:54.829Z</time></trkpt><trkpt lat="45.4203191" lon="11.1227084"><ele>41.0</ele><time>2026-04-18T17:52:56.827Z</time></trkpt><trkpt lat="45.4203282" lon="11.1228089"><ele>41.0</ele><time>2026-04-18T17:52:57.831Z</time></trkpt><trkpt lat="45.4203992" lon="11.1229002"><ele>41.0</ele><time>2026-04-18T17:52:59.828Z</time></trkpt><trkpt lat="45.4204728" lon="11.12285"><ele>41.0</ele><time>2026-04-18T17:53:01.825Z</time></trkpt><trkpt lat="45.4205691" lon="11.1227483"><ele>43.33333333333333</ele><time>2026-04-18T17:53:03.835Z</time></trkpt><trkpt lat="45.420625" lon="11.1226613"><ele>45.666666666666664</ele><time>2026-04-18T17:53:04.827Z</time></trkpt><trkpt lat="45.4207852" lon="11.1222692"><ele>48.0</ele><time>2026-04-18T17:53:05.828Z</time></trkpt><trkpt lat="45.4208322" lon="11.1220335"><ele>48.0</ele><time>2026-04-18T17:53:06.832Z</time></trkpt><trkpt lat="45.4208975" lon="11.1218361"><ele>48.0</ele><time>2026-04-18T17:53:07.829Z</time></trkpt><trkpt lat="45.4209696" lon="11.1216653"><ele>48.0</ele><time>2026-04-18T17:53:08.825Z</time></trkpt><trkpt lat="45.4210691" lon="11.1215239"><ele>48.0</ele><time>2026-04-18T17:53:09.83Z</time></trkpt><trkpt lat="45.4211941" lon="11.1214139"><ele>48.66666666666667</ele><time>2026-04-18T17:53:10.83Z</time></trkpt><trkpt lat="45.4213432" lon="11.1213137"><ele>49.333333333333336</ele><time>2026-04-18T17:53:11.83Z</time></trkpt><trkpt lat="45.4215063" lon="11.1212307"><ele>50.0</ele><time>2026-04-18T17:53:12.834Z</time></trkpt><trkpt lat="45.4216927" lon="11.1211495"><ele>50.0</ele><time>2026-04-18T17:53:13.835Z</time></trkpt><trkpt lat="45.4218956" lon="11.1210927"><ele>50.0</ele><time>2026-04-18T17:53:14.834Z</time></trkpt><trkpt lat="45.4220896" lon="11.1210607"><ele>50.0</ele><time>2026-04-18T17:53:15.828Z</time></trkpt><trkpt lat="45.4222778" lon="11.1210401"><ele>51.333333333333336</ele><time>2026-04-18T17:53:16.826Z</time></trkpt><trkpt lat="45.4224674" lon="11.121003"><ele>52.66666666666667</ele><time>2026-04-18T17:53:17.826Z</time></trkpt><trkpt lat="45.4226684" lon="11.1209355"><ele>54.0</ele><time>2026-04-18T17:53:18.828Z</time></trkpt><trkpt lat="45.4228543" lon="11.120857"><ele>53.25</ele><time>2026-04-18T17:53:19.826Z</time></trkpt><trkpt lat="45.4230187" lon="11.1207703"><ele>52.5</ele><time>2026-04-18T17:53:20.824Z</time></trkpt><trkpt lat="45.4231533" lon="11.1206803"><ele>51.75</ele><time>2026-04-18T17:53:21.827Z</time></trkpt><trkpt lat="45.4232643" lon="11.1205986"><ele>51.0</ele><time>2026-04-18T17:53:22.826Z</time></trkpt><trkpt lat="45.4233571" lon="11.1205306"><ele>51.0</ele><time>2026-04-18T17:53:23.834Z</time></trkpt><trkpt lat="45.4234394" lon="11.1204679"><ele>51.0</ele><time>2026-04-18T17:53:24.837Z</time></trkpt><trkpt lat="45.4235148" lon="11.1204149"><ele>51.0</ele><time>2026-04-18T17:53:25.832Z</time></trkpt><trkpt lat="45.4235832" lon="11.1203912"><ele>51.0</ele><time>2026-04-18T17:53:26.826Z</time></trkpt><trkpt lat="45.4236515" lon="11.1204095"><ele>51.0</ele><time>2026-04-18T17:53:27.826Z</time></trkpt><trkpt lat="45.4237252" lon="11.1204585"><ele>51.0</ele><time>2026-04-18T17:53:28.825Z</time></trkpt><trkpt lat="45.4238099" lon="11.1205113"><ele>52.599999999999994</ele><time>2026-04-18T17:53:29.829Z</time></trkpt><trkpt lat="45.423923" lon="11.1205425"><ele>54.2</ele><time>2026-04-18T17:53:30.827Z</time></trkpt><trkpt lat="45.4240123" lon="11.1205794"><ele>55.800000000000004</ele><time>2026-04-18T17:53:31.825Z</time></trkpt><trkpt lat="45.4240772" lon="11.120649"><ele>57.400000000000006</ele><time>2026-04-18T17:53:32.836Z</time></trkpt><trkpt lat="45.424166" lon="11.1206921"><ele>59.0</ele><time>2026-04-18T17:53:33.826Z</time></trkpt><trkpt lat="45.4242279" lon="11.1208637"><ele>59.0</ele><time>2026-04-18T17:53:34.832Z</time></trkpt><trkpt lat="45.4242814" lon="11.1210111"><ele>59.0</ele><time>2026-04-18T17:53:35.828Z</time></trkpt><trkpt lat="45.4243595" lon="11.1212144"><ele>59.0</ele><time>2026-04-18T17:53:36.828Z</time></trkpt><trkpt lat="45.4244462" lon="11.121377"><ele>59.0</ele><time>2026-04-18T17:53:37.832Z</time></trkpt><trkpt lat="45.4245194" lon="11.1215789"><ele>58.66666666666667</ele><time>2026-04-18T17:53:38.825Z</time></trkpt><trkpt lat="45.4245839" lon="11.1218024"><ele>58.33333333333333</ele><time>2026-04-18T17:53:39.829Z</time></trkpt><trkpt lat="45.4246401" lon="11.1220498"><ele>58.0</ele><time>2026-04-18T17:53:40.828Z</time></trkpt><trkpt lat="45.4246827" lon="11.1223134"><ele>58.666666666666664</ele><time>2026-04-18T17:53:41.842Z</time></trkpt><trkpt lat="45.4247136" lon="11.1225842"><ele>59.33333333333333</ele><time>2026-04-18T17:53:42.829Z</time></trkpt><trkpt lat="45.4247419" lon="11.1228527"><ele>60.0</ele><time>2026-04-18T17:53:43.833Z</time></trkpt><trkpt lat="45.424771" lon="11.1231251"><ele>58.66666666666667</ele><time>2026-04-18T17:53:44.833Z</time></trkpt><trkpt lat="45.4248022" lon="11.1234024"><ele>57.333333333333336</ele><time>2026-04-18T17:53:45.832Z</time></trkpt><trkpt lat="45.4248372" lon="11.1236815"><ele>56.0</ele><time>2026-04-18T17:53:46.829Z</time></trkpt><trkpt lat="45.4248762" lon="11.123963"><ele>55.0</ele><time>2026-04-18T17:53:47.832Z</time></trkpt><trkpt lat="45.4249257" lon="11.1242574"><ele>54.0</ele><time>2026-04-18T17:53:48.829Z</time></trkpt><trkpt lat="45.4249756" lon="11.1245508"><ele>53.0</ele><time>2026-04-18T17:53:49.826Z</time></trkpt><trkpt lat="45.4250206" lon="11.1248329"><ele>51.0</ele><time>2026-04-18T17:53:50.839Z</time></trkpt><trkpt lat="45.4250641" lon="11.12512"><ele>49.0</ele><time>2026-04-18T17:53:51.829Z</time></trkpt><trkpt lat="45.4250898" lon="11.1254104"><ele>47.0</ele><time>2026-04-18T17:53:52.831Z</time></trkpt><trkpt lat="45.4250971" lon="11.1256851"><ele>46.0</ele><time>2026-04-18T17:53:53.837Z</time></trkpt><trkpt lat="45.4250929" lon="11.1259567"><ele>45.0</ele><time>2026-04-18T17:53:54.836Z</time></trkpt><trkpt lat="45.4250867" lon="11.1262249"><ele>44.0</ele><time>2026-04-18T17:53:55.826Z</time></trkpt><trkpt lat="45.4250848" lon="11.1264909"><ele>43.0</ele><time>2026-04-18T17:53:56.827Z</time></trkpt><trkpt lat="45.4250841" lon="11.1267512"><ele>42.0</ele><time>2026-04-18T17:53:57.835Z</time></trkpt><trkpt lat="45.4250824" lon="11.1270088"><ele>41.0</ele><time>2026-04-18T17:53:58.836Z</time></trkpt><trkpt lat="45.4250822" lon="11.1272563"><ele>41.0</ele><time>2026-04-18T17:53:59.829Z</time></trkpt><trkpt lat="45.42508" lon="11.1275027"><ele>41.0</ele><time>2026-04-18T17:54:00.826Z</time></trkpt><trkpt lat="45.425074" lon="11.1277422"><ele>41.0</ele><time>2026-04-18T17:54:01.837Z</time></trkpt><trkpt lat="45.4250622" lon="11.1279836"><ele>41.33333333333333</ele><time>2026-04-18T17:54:02.826Z</time></trkpt><trkpt lat="45.4250464" lon="11.1282301"><ele>41.666666666666664</ele><time>2026-04-18T17:54:03.825Z</time></trkpt><trkpt lat="45.4250243" lon="11.1284767"><ele>42.0</ele><time>2026-04-18T17:54:04.832Z</time></trkpt><trkpt lat="45.4249929" lon="11.1287172"><ele>42.0</ele><time>2026-04-18T17:54:05.829Z</time></trkpt><trkpt lat="45.4249398" lon="11.1289525"><ele>42.0</ele><time>2026-04-18T17:54:06.83Z</time></trkpt><trkpt lat="45.4248692" lon="11.1291757"><ele>42.0</ele><time>2026-04-18T17:54:07.836Z</time></trkpt><trkpt lat="45.4247923" lon="11.1293919"><ele>42.0</ele><time>2026-04-18T17:54:08.828Z</time></trkpt><trkpt lat="45.4247166" lon="11.1296019"><ele>42.0</ele><time>2026-04-18T17:54:09.824Z</time></trkpt><trkpt lat="45.4246397" lon="11.1298093"><ele>42.0</ele><time>2026-04-18T17:54:10.825Z</time></trkpt><trkpt lat="45.4245667" lon="11.1300137"><ele>43.0</ele><time>2026-04-18T17:54:11.824Z</time></trkpt><trkpt lat="45.4244935" lon="11.1302191"><ele>44.0</ele><time>2026-04-18T17:54:12.827Z</time></trkpt><trkpt lat="45.4244171" lon="11.1304324"><ele>45.0</ele><time>2026-04-18T17:54:13.832Z</time></trkpt><trkpt lat="45.4243503" lon="11.1306532"><ele>46.33333333333333</ele><time>2026-04-18T17:54:14.825Z</time></trkpt><trkpt lat="45.4242739" lon="11.1308724"><ele>47.666666666666664</ele><time>2026-04-18T17:54:15.835Z</time></trkpt><trkpt lat="45.4242035" lon="11.1310769"><ele>49.0</ele><time>2026-04-18T17:54:16.825Z</time></trkpt><trkpt lat="45.4241369" lon="11.1312838"><ele>49.0</ele><time>2026-04-18T17:54:17.828Z</time></trkpt><trkpt lat="45.424079" lon="11.1315018"><ele>49.0</ele><time>2026-04-18T17:54:18.828Z</time></trkpt><trkpt lat="45.4240362" lon="11.1317277"><ele>49.0</ele><time>2026-04-18T17:54:19.829Z</time></trkpt><trkpt lat="45.4240039" lon="11.1319704"><ele>49.666666666666664</ele><time>2026-04-18T17:54:20.825Z</time></trkpt><trkpt lat="45.4239885" lon="11.1322211"><ele>50.33333333333333</ele><time>2026-04-18T17:54:21.838Z</time></trkpt><trkpt lat="45.4239768" lon="11.132479"><ele>51.0</ele><time>2026-04-18T17:54:22.828Z</time></trkpt><trkpt lat="45.4239613" lon="11.1327386"><ele>52.66666666666667</ele><time>2026-04-18T17:54:23.834Z</time></trkpt><trkpt lat="45.4239386" lon="11.1329965"><ele>54.333333333333336</ele><time>2026-04-18T17:54:24.829Z</time></trkpt><trkpt lat="45.4239166" lon="11.1332459"><ele>56.0</ele><time>2026-04-18T17:54:25.837Z</time></trkpt><trkpt lat="45.423894" lon="11.1334885"><ele>56.0</ele><time>2026-04-18T17:54:26.829Z</time></trkpt><trkpt lat="45.4238818" lon="11.1337247"><ele>56.0</ele><time>2026-04-18T17:54:27.833Z</time></trkpt><trkpt lat="45.4238793" lon="11.1339686"><ele>56.0</ele><time>2026-04-18T17:54:28.829Z</time></trkpt><trkpt lat="45.4238875" lon="11.1342214"><ele>56.0</ele><time>2026-04-18T17:54:29.828Z</time></trkpt><trkpt lat="45.4239125" lon="11.1344828"><ele>56.0</ele><time>2026-04-18T17:54:30.837Z</time></trkpt><trkpt lat="45.4239539" lon="11.1347381"><ele>56.0</ele><time>2026-04-18T17:54:31.822Z</time></trkpt><trkpt lat="45.4240126" lon="11.134984"><ele>55.0</ele><time>2026-04-18T17:54:32.834Z</time></trkpt><trkpt lat="45.4240877" lon="11.1352213"><ele>54.0</ele><time>2026-04-18T17:54:33.828Z</time></trkpt><trkpt lat="45.4241755" lon="11.1354444"><ele>53.0</ele><time>2026-04-18T17:54:34.827Z</time></trkpt><trkpt lat="45.4242717" lon="11.1356511"><ele>51.333333333333336</ele><time>2026-04-18T17:54:35.824Z</time></trkpt><trkpt lat="45.4243644" lon="11.1358447"><ele>49.66666666666667</ele><time>2026-04-18T17:54:36.834Z</time></trkpt><trkpt lat="45.4244496" lon="11.1360232"><ele>48.0</ele><time>2026-04-18T17:54:37.831Z</time></trkpt><trkpt lat="45.4245271" lon="11.1361926"><ele>48.0</ele><time>2026-04-18T17:54:38.828Z</time></trkpt><trkpt lat="45.4246018" lon="11.1363587"><ele>48.0</ele><time>2026-04-18T17:54:39.825Z</time></trkpt><trkpt lat="45.4246761" lon="11.1365227"><ele>48.0</ele><time>2026-04-18T17:54:40.828Z</time></trkpt><trkpt lat="45.4247416" lon="11.1366732"><ele>48.0</ele><time>2026-04-18T17:54:41.831Z</time></trkpt><trkpt lat="45.4248008" lon="11.1368065"><ele>48.2</ele><time>2026-04-18T17:54:42.825Z</time></trkpt><trkpt lat="45.4248454" lon="11.1369373"><ele>48.4</ele><time>2026-04-18T17:54:43.831Z</time></trkpt><trkpt lat="45.4248756" lon="11.1370779"><ele>48.6</ele><time>2026-04-18T17:54:44.828Z</time></trkpt><trkpt lat="45.4248829" lon="11.1372261"><ele>48.800000000000004</ele><time>2026-04-18T17:54:45.83Z</time></trkpt><trkpt lat="45.4248796" lon="11.1373739"><ele>49.0</ele><time>2026-04-18T17:54:46.825Z</time></trkpt><trkpt lat="45.4248875" lon="11.1375064"><ele>49.0</ele><time>2026-04-18T17:54:47.828Z</time></trkpt><trkpt lat="45.4249147" lon="11.1376302"><ele>49.0</ele><time>2026-04-18T17:54:48.827Z</time></trkpt><trkpt lat="45.4249707" lon="11.1377377"><ele>49.0</ele><time>2026-04-18T17:54:49.826Z</time></trkpt><trkpt lat="45.425045" lon="11.137831"><ele>49.0</ele><time>2026-04-18T17:54:50.831Z</time></trkpt><trkpt lat="45.4251163" lon="11.13794"><ele>49.0</ele><time>2026-04-18T17:54:51.832Z</time></trkpt><trkpt lat="45.4251601" lon="11.1380853"><ele>48.75</ele><time>2026-04-18T17:54:52.842Z</time></trkpt><trkpt lat="45.4251984" lon="11.1382345"><ele>48.5</ele><time>2026-04-18T17:54:53.823Z</time></trkpt><trkpt lat="45.4252367" lon="11.1383895"><ele>48.25</ele><time>2026-04-18T17:54:54.827Z</time></trkpt><trkpt lat="45.4252847" lon="11.1385438"><ele>48.0</ele><time>2026-04-18T17:54:55.826Z</time></trkpt><trkpt lat="45.4253634" lon="11.1386764"><ele>48.0</ele><time>2026-04-18T17:54:56.828Z</time></trkpt><trkpt lat="45.4254587" lon="11.1388025"><ele>48.0</ele><time>2026-04-18T17:54:57.831Z</time></trkpt><trkpt lat="45.4255621" lon="11.1389383"><ele>48.0</ele><time>2026-04-18T17:54:58.822Z</time></trkpt><trkpt lat="45.4256724" lon="11.1390593"><ele>48.0</ele><time>2026-04-18T17:54:59.827Z</time></trkpt><trkpt lat="45.4257784" lon="11.139162"><ele>48.25</ele><time>2026-04-18T17:55:00.823Z</time></trkpt><trkpt lat="45.4258753" lon="11.1392553"><ele>48.5</ele><time>2026-04-18T17:55:01.829Z</time></trkpt><trkpt lat="45.4259671" lon="11.1393424"><ele>48.75</ele><time>2026-04-18T17:55:02.833Z</time></trkpt><trkpt lat="45.4260658" lon="11.1394336"><ele>49.0</ele><time>2026-04-18T17:55:03.829Z</time></trkpt><trkpt lat="45.4261626" lon="11.1395333"><ele>49.0</ele><time>2026-04-18T17:55:04.826Z</time></trkpt><trkpt lat="45.4262681" lon="11.1396404"><ele>49.0</ele><time>2026-04-18T17:55:05.827Z</time></trkpt><trkpt lat="45.4263808" lon="11.1397526"><ele>49.0</ele><time>2026-04-18T17:55:06.826Z</time></trkpt><trkpt lat="45.4265" lon="11.1398729"><ele>49.0</ele><time>2026-04-18T17:55:07.825Z</time></trkpt><trkpt lat="45.4266277" lon="11.1399991"><ele>49.666666666666664</ele><time>2026-04-18T17:55:08.838Z</time></trkpt><trkpt lat="45.4267621" lon="11.1401254"><ele>50.33333333333333</ele><time>2026-04-18T17:55:09.832Z</time></trkpt><trkpt lat="45.4269132" lon="11.1402562"><ele>51.0</ele><time>2026-04-18T17:55:10.834Z</time></trkpt><trkpt lat="45.4270769" lon="11.1403947"><ele>51.0</ele><time>2026-04-18T17:55:11.828Z</time></trkpt><trkpt lat="45.427259" lon="11.140544"><ele>51.0</ele><time>2026-04-18T17:55:12.828Z</time></trkpt><trkpt lat="45.4274545" lon="11.1407115"><ele>51.0</ele><time>2026-04-18T17:55:13.829Z</time></trkpt><trkpt lat="45.4276642" lon="11.140887"><ele>51.0</ele><time>2026-04-18T17:55:14.835Z</time></trkpt><trkpt lat="45.4278734" lon="11.141068"><ele>51.0</ele><time>2026-04-18T17:55:15.827Z</time></trkpt><trkpt lat="45.4280774" lon="11.1412488"><ele>51.0</ele><time>2026-04-18T17:55:16.829Z</time></trkpt><trkpt lat="45.4282715" lon="11.1414425"><ele>51.0</ele><time>2026-04-18T17:55:17.832Z</time></trkpt><trkpt lat="45.4284592" lon="11.1416542"><ele>51.0</ele><time>2026-04-18T17:55:18.83Z</time></trkpt><trkpt lat="45.4286326" lon="11.1418683"><ele>51.0</ele><time>2026-04-18T17:55:19.836Z</time></trkpt><trkpt lat="45.4288244" lon="11.1420572"><ele>50.5</ele><time>2026-04-18T17:55:20.826Z</time></trkpt><trkpt lat="45.4290282" lon="11.1422297"><ele>50.0</ele><time>2026-04-18T17:55:21.831Z</time></trkpt><trkpt lat="45.4292297" lon="11.1424052"><ele>51.0</ele><time>2026-04-18T17:55:22.827Z</time></trkpt><trkpt lat="45.4294317" lon="11.1425746"><ele>52.0</ele><time>2026-04-18T17:55:23.826Z</time></trkpt><trkpt lat="45.4296345" lon="11.1427424"><ele>52.0</ele><time>2026-04-18T17:55:24.83Z</time></trkpt><trkpt lat="45.4298374" lon="11.1429131"><ele>52.0</ele><time>2026-04-18T17:55:25.828Z</time></trkpt><trkpt lat="45.4300375" lon="11.1430827"><ele>52.0</ele><time>2026-04-18T17:55:26.827Z</time></trkpt><trkpt lat="45.4302362" lon="11.1432536"><ele>52.0</ele><time>2026-04-18T17:55:27.828Z</time></trkpt><trkpt lat="45.4304345" lon="11.1434229"><ele>53.5</ele><time>2026-04-18T17:55:28.829Z</time></trkpt><trkpt lat="45.4306332" lon="11.1435907"><ele>55.0</ele><time>2026-04-18T17:55:29.827Z</time></trkpt><trkpt lat="45.430831" lon="11.1437582"><ele>55.0</ele><time>2026-04-18T17:55:30.83Z</time></trkpt><trkpt lat="45.4310255" lon="11.1439253"><ele>55.0</ele><time>2026-04-18T17:55:31.827Z</time></trkpt><trkpt lat="45.4312208" lon="11.1440931"><ele>56.0</ele><time>2026-04-18T17:55:32.834Z</time></trkpt><trkpt lat="45.4314173" lon="11.1442597"><ele>57.0</ele><time>2026-04-18T17:55:33.83Z</time></trkpt><trkpt lat="45.431622" lon="11.1444324"><ele>57.0</ele><time>2026-04-18T17:55:34.836Z</time></trkpt><trkpt lat="45.4318346" lon="11.1446114"><ele>57.0</ele><time>2026-04-18T17:55:35.831Z</time></trkpt><trkpt lat="45.4320312" lon="11.1447748"><ele>57.66666666666667</ele><time>2026-04-18T17:55:36.837Z</time></trkpt><trkpt lat="45.4322212" lon="11.1449353"><ele>58.333333333333336</ele><time>2026-04-18T17:55:37.831Z</time></trkpt><trkpt lat="45.4324066" lon="11.145096"><ele>59.0</ele><time>2026-04-18T17:55:38.831Z</time></trkpt><trkpt lat="45.4325923" lon="11.1452508"><ele>59.0</ele><time>2026-04-18T17:55:39.826Z</time></trkpt><trkpt lat="45.4327798" lon="11.1454053"><ele>59.0</ele><time>2026-04-18T17:55:40.827Z</time></trkpt><trkpt lat="45.4329687" lon="11.1455515"><ele>59.0</ele><time>2026-04-18T17:55:41.828Z</time></trkpt><trkpt lat="45.4331582" lon="11.1456974"><ele>59.66666666666667</ele><time>2026-04-18T17:55:42.828Z</time></trkpt><trkpt lat="45.4333499" lon="11.1458404"><ele>60.33333333333333</ele><time>2026-04-18T17:55:43.824Z</time></trkpt><trkpt lat="45.4335455" lon="11.145984"><ele>61.0</ele><time>2026-04-18T17:55:44.825Z</time></trkpt><trkpt lat="45.4337483" lon="11.1461133"><ele>61.0</ele><time>2026-04-18T17:55:45.836Z</time></trkpt><trkpt lat="45.4339517" lon="11.1462346"><ele>61.0</ele><time>2026-04-18T17:55:46.826Z</time></trkpt><trkpt lat="45.4341549" lon="11.1463611"><ele>61.0</ele><time>2026-04-18T17:55:47.83Z</time></trkpt><trkpt lat="45.4343543" lon="11.1464877"><ele>61.666666666666664</ele><time>2026-04-18T17:55:48.83Z</time></trkpt><trkpt lat="45.4345492" lon="11.1466193"><ele>62.33333333333333</ele><time>2026-04-18T17:55:49.827Z</time></trkpt><trkpt lat="45.4347474" lon="11.1467604"><ele>63.0</ele><time>2026-04-18T17:55:50.832Z</time></trkpt><trkpt lat="45.434952" lon="11.1469101"><ele>63.0</ele><time>2026-04-18T17:55:51.831Z</time></trkpt><trkpt lat="45.4351622" lon="11.1470754"><ele>63.0</ele><time>2026-04-18T17:55:52.832Z</time></trkpt><trkpt lat="45.4353781" lon="11.1472419"><ele>65.0</ele><time>2026-04-18T17:55:53.826Z</time></trkpt><trkpt lat="45.4355984" lon="11.1474122"><ele>67.0</ele><time>2026-04-18T17:55:54.828Z</time></trkpt><trkpt lat="45.4358161" lon="11.1475803"><ele>67.0</ele><time>2026-04-18T17:55:55.824Z</time></trkpt><trkpt lat="45.4360281" lon="11.1477426"><ele>67.0</ele><time>2026-04-18T17:55:56.835Z</time></trkpt><trkpt lat="45.4362225" lon="11.1479011"><ele>66.66666666666666</ele><time>2026-04-18T17:55:57.832Z</time></trkpt><trkpt lat="45.4364072" lon="11.1480792"><ele>66.33333333333333</ele><time>2026-04-18T17:55:58.826Z</time></trkpt><trkpt lat="45.4365832" lon="11.1482804"><ele>66.0</ele><time>2026-04-18T17:55:59.828Z</time></trkpt><trkpt lat="45.4367496" lon="11.1484917"><ele>67.5</ele><time>2026-04-18T17:56:00.825Z</time></trkpt><trkpt lat="45.4369126" lon="11.14871"><ele>69.0</ele><time>2026-04-18T17:56:01.824Z</time></trkpt><trkpt lat="45.43707" lon="11.1489468"><ele>69.5</ele><time>2026-04-18T17:56:02.827Z</time></trkpt><trkpt lat="45.4372156" lon="11.1491935"><ele>70.0</ele><time>2026-04-18T17:56:03.835Z</time></trkpt><trkpt lat="45.4373648" lon="11.1494535"><ele>70.0</ele><time>2026-04-18T17:56:04.837Z</time></trkpt><trkpt lat="45.437502" lon="11.1497198"><ele>70.0</ele><time>2026-04-18T17:56:05.834Z</time></trkpt><trkpt lat="45.437633" lon="11.1499908"><ele>71.0</ele><time>2026-04-18T17:56:06.83Z</time></trkpt><trkpt lat="45.4377564" lon="11.1502705"><ele>72.0</ele><time>2026-04-18T17:56:07.824Z</time></trkpt><trkpt lat="45.4378704" lon="11.1505491"><ele>72.66666666666667</ele><time>2026-04-18T17:56:08.832Z</time></trkpt><trkpt lat="45.4379792" lon="11.1508276"><ele>73.33333333333334</ele><time>2026-04-18T17:56:09.83Z</time></trkpt><trkpt lat="45.4380931" lon="11.1510998"><ele>74.0</ele><time>2026-04-18T17:56:10.833Z</time></trkpt><trkpt lat="45.4382044" lon="11.1513706"><ele>74.66666666666667</ele><time>2026-04-18T17:56:11.827Z</time></trkpt><trkpt lat="45.4383213" lon="11.1516438"><ele>75.33333333333333</ele><time>2026-04-18T17:56:12.834Z</time></trkpt><trkpt lat="45.4384391" lon="11.1519063"><ele>76.0</ele><time>2026-04-18T17:56:13.832Z</time></trkpt><trkpt lat="45.4385465" lon="11.1521572"><ele>75.66666666666666</ele><time>2026-04-18T17:56:14.827Z</time></trkpt><trkpt lat="45.4386625" lon="11.1524083"><ele>75.33333333333333</ele><time>2026-04-18T17:56:15.824Z</time></trkpt><trkpt lat="45.438827" lon="11.1526237"><ele>75.0</ele><time>2026-04-18T17:56:16.828Z</time></trkpt><trkpt lat="45.4390009" lon="11.1528541"><ele>76.0</ele><time>2026-04-18T17:56:17.826Z</time></trkpt><trkpt lat="45.4391889" lon="11.1530905"><ele>77.0</ele><time>2026-04-18T17:56:18.838Z</time></trkpt><trkpt lat="45.4393812" lon="11.1533485"><ele>77.0</ele><time>2026-04-18T17:56:19.83Z</time></trkpt><trkpt lat="45.43958" lon="11.1536185"><ele>77.0</ele><time>2026-04-18T17:56:20.829Z</time></trkpt><trkpt lat="45.4397769" lon="11.1538601"><ele>78.5</ele><time>2026-04-18T17:56:21.83Z</time></trkpt><trkpt lat="45.439984" lon="11.1540865"><ele>80.0</ele><time>2026-04-18T17:56:22.83Z</time></trkpt><trkpt lat="45.4401955" lon="11.1542972"><ele>80.0</ele><time>2026-04-18T17:56:23.825Z</time></trkpt><trkpt lat="45.4404223" lon="11.1544953"><ele>80.0</ele><time>2026-04-18T17:56:24.826Z</time></trkpt><trkpt lat="45.4406667" lon="11.1546738"><ele>80.5</ele><time>2026-04-18T17:56:25.828Z</time></trkpt><trkpt lat="45.440885" lon="11.1548295"><ele>81.0</ele><time>2026-04-18T17:56:26.828Z</time></trkpt><trkpt lat="45.4410714" lon="11.1549693"><ele>81.66666666666667</ele><time>2026-04-18T17:56:27.829Z</time></trkpt><trkpt lat="45.4412408" lon="11.1551063"><ele>82.33333333333334</ele><time>2026-04-18T17:56:28.825Z</time></trkpt><trkpt lat="45.441399" lon="11.1552726"><ele>83.0</ele><time>2026-04-18T17:56:29.83Z</time></trkpt><trkpt lat="45.4415575" lon="11.1554745"><ele>85.0</ele><time>2026-04-18T17:56:30.834Z</time></trkpt><trkpt lat="45.4417188" lon="11.1557039"><ele>87.0</ele><time>2026-04-18T17:56:31.829Z</time></trkpt><trkpt lat="45.4418982" lon="11.1559398"><ele>87.0</ele><time>2026-04-18T17:56:32.83Z</time></trkpt><trkpt lat="45.442071" lon="11.1561627"><ele>87.0</ele><time>2026-04-18T17:56:33.828Z</time></trkpt><trkpt lat="45.4422196" lon="11.1563647"><ele>87.0</ele><time>2026-04-18T17:56:34.832Z</time></trkpt><trkpt lat="45.4423463" lon="11.1565332"><ele>87.19999999999999</ele><time>2026-04-18T17:56:35.824Z</time></trkpt><trkpt lat="45.4424483" lon="11.1566667"><ele>87.4</ele><time>2026-04-18T17:56:36.831Z</time></trkpt><trkpt lat="45.4425344" lon="11.1567817"><ele>87.6</ele><time>2026-04-18T17:56:37.828Z</time></trkpt><trkpt lat="45.4426085" lon="11.1568774"><ele>87.80000000000001</ele><time>2026-04-18T17:56:38.832Z</time></trkpt><trkpt lat="45.4426703" lon="11.1569637"><ele>88.0</ele><time>2026-04-18T17:56:39.834Z</time></trkpt><trkpt lat="45.4427194" lon="11.1570308"><ele>88.0</ele><time>2026-04-18T17:56:40.827Z</time></trkpt><trkpt lat="45.4427876" lon="11.1571288"><ele>88.0</ele><time>2026-04-18T17:56:42.835Z</time></trkpt><trkpt lat="45.4428564" lon="11.1572221"><ele>88.0</ele><time>2026-04-18T17:57:02.832Z</time></trkpt><trkpt lat="45.4429163" lon="11.1572924"><ele>88.0</ele><time>2026-04-18T17:57:03.83Z</time></trkpt><trkpt lat="45.4429962" lon="11.1573784"><ele>88.0</ele><time>2026-04-18T17:57:04.829Z</time></trkpt><trkpt lat="45.4431103" lon="11.1574632"><ele>89.0</ele><time>2026-04-18T17:57:05.836Z</time></trkpt><trkpt lat="45.4432582" lon="11.157548"><ele>90.0</ele><time>2026-04-18T17:57:06.829Z</time></trkpt><trkpt lat="45.4434303" lon="11.1576325"><ele>91.0</ele><time>2026-04-18T17:57:07.835Z</time></trkpt><trkpt lat="45.4436249" lon="11.1577206"><ele>92.0</ele><time>2026-04-18T17:57:08.828Z</time></trkpt><trkpt lat="45.4438325" lon="11.1578151"><ele>93.0</ele><time>2026-04-18T17:57:09.833Z</time></trkpt><trkpt lat="45.4440543" lon="11.1579195"><ele>93.0</ele><time>2026-04-18T17:57:10.825Z</time></trkpt><trkpt lat="45.4442631" lon="11.1580136"><ele>93.0</ele><time>2026-04-18T17:57:11.828Z</time></trkpt><trkpt lat="45.4444551" lon="11.1581029"><ele>93.0</ele><time>2026-04-18T17:57:12.827Z</time></trkpt><trkpt lat="45.4446357" lon="11.1581861"><ele>93.66666666666667</ele><time>2026-04-18T17:57:13.831Z</time></trkpt><trkpt lat="45.4448097" lon="11.1582641"><ele>94.33333333333334</ele><time>2026-04-18T17:57:14.828Z</time></trkpt><trkpt lat="45.4449784" lon="11.1583441"><ele>95.0</ele><time>2026-04-18T17:57:15.837Z</time></trkpt><trkpt lat="45.4451485" lon="11.1584231"><ele>95.0</ele><time>2026-04-18T17:57:16.834Z</time></trkpt><trkpt lat="45.4453194" lon="11.1585021"><ele>95.0</ele><time>2026-04-18T17:57:17.831Z</time></trkpt><trkpt lat="45.4454903" lon="11.1585937"><ele>95.0</ele><time>2026-04-18T17:57:18.83Z</time></trkpt><trkpt lat="45.4456552" lon="11.1587087"><ele>96.33333333333334</ele><time>2026-04-18T17:57:19.827Z</time></trkpt><trkpt lat="45.4458119" lon="11.1588494"><ele>97.66666666666667</ele><time>2026-04-18T17:57:20.835Z</time></trkpt><trkpt lat="45.4459725" lon="11.159001"><ele>99.0</ele><time>2026-04-18T17:57:21.826Z</time></trkpt><trkpt lat="45.4461461" lon="11.1591387"><ele>100.0</ele><time>2026-04-18T17:57:22.838Z</time></trkpt><trkpt lat="45.4463231" lon="11.1592914"><ele>101.0</ele><time>2026-04-18T17:57:23.83Z</time></trkpt><trkpt lat="45.4464943" lon="11.1594614"><ele>102.0</ele><time>2026-04-18T17:57:24.826Z</time></trkpt><trkpt lat="45.4466491" lon="11.159619"><ele>102.0</ele><time>2026-04-18T17:57:25.838Z</time></trkpt><trkpt lat="45.4467925" lon="11.1597641"><ele>102.0</ele><time>2026-04-18T17:57:26.826Z</time></trkpt><trkpt lat="45.4469225" lon="11.1598987"><ele>102.0</ele><time>2026-04-18T17:57:27.829Z</time></trkpt><trkpt lat="45.4470327" lon="11.1600166"><ele>102.33333333333333</ele><time>2026-04-18T17:57:28.831Z</time></trkpt><trkpt lat="45.447121" lon="11.1601136"><ele>102.66666666666666</ele><time>2026-04-18T17:57:29.828Z</time></trkpt><trkpt lat="45.4471918" lon="11.1601918"><ele>103.0</ele><time>2026-04-18T17:57:30.825Z</time></trkpt><trkpt lat="45.447247" lon="11.1602631"><ele>103.33333333333333</ele><time>2026-04-18T17:57:31.834Z</time></trkpt><trkpt lat="45.447246" lon="11.1604107"><ele>103.66666666666666</ele><time>2026-04-18T17:57:33.833Z</time></trkpt><trkpt lat="45.4471947" lon="11.1604655"><ele>104.0</ele><time>2026-04-18T17:57:34.828Z</time></trkpt><trkpt lat="45.4471506" lon="11.160555"><ele>104.0</ele><time>2026-04-18T17:57:35.826Z</time></trkpt><trkpt lat="45.4471365" lon="11.1606816"><ele>104.0</ele><time>2026-04-18T17:57:36.829Z</time></trkpt><trkpt lat="45.4471226" lon="11.1608452"><ele>104.0</ele><time>2026-04-18T17:57:37.822Z</time></trkpt><trkpt lat="45.447106" lon="11.1609844"><ele>104.0</ele><time>2026-04-18T17:57:38.83Z</time></trkpt><trkpt lat="45.4470984" lon="11.1611138"><ele>104.0</ele><time>2026-04-18T17:57:39.823Z</time></trkpt><trkpt lat="45.4471225" lon="11.1612292"><ele>104.6</ele><time>2026-04-18T17:57:40.829Z</time></trkpt><trkpt lat="45.4471838" lon="11.1613308"><ele>105.2</ele><time>2026-04-18T17:57:41.821Z</time></trkpt><trkpt lat="45.4472723" lon="11.161399"><ele>105.79999999999998</ele><time>2026-04-18T17:57:42.826Z</time></trkpt><trkpt lat="45.4473882" lon="11.1614431"><ele>106.39999999999999</ele><time>2026-04-18T17:57:43.828Z</time></trkpt><trkpt lat="45.4475185" lon="11.1614719"><ele>107.0</ele><time>2026-04-18T17:57:44.825Z</time></trkpt><trkpt lat="45.4476707" lon="11.1615057"><ele>106.66666666666666</ele><time>2026-04-18T17:57:45.838Z</time></trkpt><trkpt lat="45.4478312" lon="11.1615478"><ele>106.33333333333334</ele><time>2026-04-18T17:57:46.824Z</time></trkpt><trkpt lat="45.448001" lon="11.1616025"><ele>106.0</ele><time>2026-04-18T17:57:47.821Z</time></trkpt><trkpt lat="45.4481788" lon="11.1616339"><ele>106.66666666666667</ele><time>2026-04-18T17:57:48.827Z</time></trkpt><trkpt lat="45.4483618" lon="11.1616584"><ele>107.33333333333334</ele><time>2026-04-18T17:57:49.821Z</time></trkpt><trkpt lat="45.4485515" lon="11.1616812"><ele>108.0</ele><time>2026-04-18T17:57:50.83Z</time></trkpt><trkpt lat="45.4487496" lon="11.1617064"><ele>109.33333333333334</ele><time>2026-04-18T17:57:51.829Z</time></trkpt><trkpt lat="45.4489523" lon="11.1617275"><ele>110.66666666666667</ele><time>2026-04-18T17:57:52.822Z</time></trkpt><trkpt lat="45.4491533" lon="11.1617461"><ele>112.0</ele><time>2026-04-18T17:57:53.833Z</time></trkpt><trkpt lat="45.4493507" lon="11.1617567"><ele>112.0</ele><time>2026-04-18T17:57:54.829Z</time></trkpt><trkpt lat="45.449542" lon="11.1617545"><ele>112.0</ele><time>2026-04-18T17:57:55.836Z</time></trkpt><trkpt lat="45.4497322" lon="11.1617577"><ele>112.0</ele><time>2026-04-18T17:57:56.828Z</time></trkpt><trkpt lat="45.4499212" lon="11.1617748"><ele>112.33333333333334</ele><time>2026-04-18T17:57:57.825Z</time></trkpt><trkpt lat="45.4501081" lon="11.1618077"><ele>112.66666666666666</ele><time>2026-04-18T17:57:58.828Z</time></trkpt><trkpt lat="45.4502864" lon="11.1618868"><ele>113.0</ele><time>2026-04-18T17:57:59.828Z</time></trkpt><trkpt lat="45.4504624" lon="11.1619799"><ele>114.0</ele><time>2026-04-18T17:58:00.832Z</time></trkpt><trkpt lat="45.4506402" lon="11.1620728"><ele>115.0</ele><time>2026-04-18T17:58:01.821Z</time></trkpt><trkpt lat="45.4508247" lon="11.1621618"><ele>116.0</ele><time>2026-04-18T17:58:02.827Z</time></trkpt><trkpt lat="45.4510053" lon="11.1622496"><ele>116.0</ele><time>2026-04-18T17:58:03.826Z</time></trkpt><trkpt lat="45.4511845" lon="11.1623356"><ele>116.0</ele><time>2026-04-18T17:58:04.827Z</time></trkpt><trkpt lat="45.4513627" lon="11.1624249"><ele>116.0</ele><time>2026-04-18T17:58:05.828Z</time></trkpt><trkpt lat="45.4515423" lon="11.1625142"><ele>117.0</ele><time>2026-04-18T17:58:06.83Z</time></trkpt><trkpt lat="45.4517216" lon="11.1626031"><ele>118.0</ele><time>2026-04-18T17:58:07.835Z</time></trkpt><trkpt lat="45.4518996" lon="11.1626897"><ele>119.0</ele><time>2026-04-18T17:58:08.829Z</time></trkpt><trkpt lat="45.4520773" lon="11.1627792"><ele>119.66666666666666</ele><time>2026-04-18T17:58:09.832Z</time></trkpt><trkpt lat="45.4522519" lon="11.1628643"><ele>120.33333333333334</ele><time>2026-04-18T17:58:10.831Z</time></trkpt><trkpt lat="45.4524257" lon="11.1629458"><ele>121.0</ele><time>2026-04-18T17:58:11.827Z</time></trkpt><trkpt lat="45.4526024" lon="11.1630268"><ele>121.0</ele><time>2026-04-18T17:58:12.821Z</time></trkpt><trkpt lat="45.4527711" lon="11.1631045"><ele>121.0</ele><time>2026-04-18T17:58:13.825Z</time></trkpt><trkpt lat="45.4529361" lon="11.1631768"><ele>121.0</ele><time>2026-04-18T17:58:14.826Z</time></trkpt><trkpt lat="45.4531006" lon="11.1632368"><ele>121.66666666666667</ele><time>2026-04-18T17:58:15.827Z</time></trkpt><trkpt lat="45.4532688" lon="11.163281"><ele>122.33333333333334</ele><time>2026-04-18T17:58:16.828Z</time></trkpt><trkpt lat="45.4534415" lon="11.1632973"><ele>123.0</ele><time>2026-04-18T17:58:17.835Z</time></trkpt><trkpt lat="45.4536129" lon="11.1632811"><ele>123.0</ele><time>2026-04-18T17:58:18.83Z</time></trkpt><trkpt lat="45.4537875" lon="11.1632445"><ele>123.0</ele><time>2026-04-18T17:58:19.836Z</time></trkpt><trkpt lat="45.4539684" lon="11.1632162"><ele>123.0</ele><time>2026-04-18T17:58:20.83Z</time></trkpt><trkpt lat="45.4541515" lon="11.163202"><ele>123.66666666666666</ele><time>2026-04-18T17:58:21.827Z</time></trkpt><trkpt lat="45.454336" lon="11.1631888"><ele>124.33333333333333</ele><time>2026-04-18T17:58:22.831Z</time></trkpt><trkpt lat="45.454521" lon="11.163188"><ele>125.0</ele><time>2026-04-18T17:58:23.82Z</time></trkpt><trkpt lat="45.4547079" lon="11.1631952"><ele>125.66666666666666</ele><time>2026-04-18T17:58:24.834Z</time></trkpt><trkpt lat="45.4548959" lon="11.1632047"><ele>126.33333333333334</ele><time>2026-04-18T17:58:25.83Z</time></trkpt><trkpt lat="45.4550848" lon="11.1632177"><ele>127.0</ele><time>2026-04-18T17:58:26.822Z</time></trkpt><trkpt lat="45.4552729" lon="11.163238"><ele>128.0</ele><time>2026-04-18T17:58:27.84Z</time></trkpt><trkpt lat="45.4554609" lon="11.1632565"><ele>129.0</ele><time>2026-04-18T17:58:28.822Z</time></trkpt><trkpt lat="45.4556515" lon="11.1632657"><ele>130.0</ele><time>2026-04-18T17:58:29.828Z</time></trkpt><trkpt lat="45.4558381" lon="11.1632688"><ele>130.0</ele><time>2026-04-18T17:58:30.836Z</time></trkpt><trkpt lat="45.4560051" lon="11.1632746"><ele>130.0</ele><time>2026-04-18T17:58:31.826Z</time></trkpt><trkpt lat="45.4561599" lon="11.1632825"><ele>130.0</ele><time>2026-04-18T17:58:32.831Z</time></trkpt><trkpt lat="45.4563036" lon="11.1632986"><ele>130.5</ele><time>2026-04-18T17:58:33.83Z</time></trkpt><trkpt lat="45.456434" lon="11.1633237"><ele>131.0</ele><time>2026-04-18T17:58:34.828Z</time></trkpt><trkpt lat="45.4565506" lon="11.1633512"><ele>131.5</ele><time>2026-04-18T17:58:35.825Z</time></trkpt><trkpt lat="45.4566584" lon="11.1633824"><ele>132.0</ele><time>2026-04-18T17:58:36.827Z</time></trkpt><trkpt lat="45.4567627" lon="11.1634401"><ele>132.0</ele><time>2026-04-18T17:58:37.825Z</time></trkpt><trkpt lat="45.4568522" lon="11.1635362"><ele>132.0</ele><time>2026-04-18T17:58:38.825Z</time></trkpt><trkpt lat="45.4569229" lon="11.1636745"><ele>132.0</ele><time>2026-04-18T17:58:39.826Z</time></trkpt><trkpt lat="45.4569855" lon="11.1638487"><ele>132.0</ele><time>2026-04-18T17:58:40.828Z</time></trkpt><trkpt lat="45.4570418" lon="11.1640464"><ele>132.33333333333334</ele><time>2026-04-18T17:58:41.833Z</time></trkpt><trkpt lat="45.4570974" lon="11.1642535"><ele>132.66666666666669</ele><time>2026-04-18T17:58:42.84Z</time></trkpt><trkpt lat="45.45716" lon="11.1644711"><ele>133.0</ele><time>2026-04-18T17:58:43.829Z</time></trkpt><trkpt lat="45.4572282" lon="11.164696"><ele>134.0</ele><time>2026-04-18T17:58:44.83Z</time></trkpt><trkpt lat="45.4572959" lon="11.1649238"><ele>135.0</ele><time>2026-04-18T17:58:45.828Z</time></trkpt><trkpt lat="45.457363" lon="11.1651608"><ele>136.0</ele><time>2026-04-18T17:58:46.828Z</time></trkpt><trkpt lat="45.4574259" lon="11.1653966"><ele>136.0</ele><time>2026-04-18T17:58:47.828Z</time></trkpt><trkpt lat="45.4574921" lon="11.1656324"><ele>136.0</ele><time>2026-04-18T17:58:48.826Z</time></trkpt><trkpt lat="45.4575584" lon="11.1658651"><ele>136.0</ele><time>2026-04-18T17:58:49.824Z</time></trkpt><trkpt lat="45.4576265" lon="11.1660936"><ele>136.0</ele><time>2026-04-18T17:58:50.825Z</time></trkpt><trkpt lat="45.4576942" lon="11.1663234"><ele>136.0</ele><time>2026-04-18T17:58:51.826Z</time></trkpt><trkpt lat="45.4577567" lon="11.1665506"><ele>136.0</ele><time>2026-04-18T17:58:52.829Z</time></trkpt><trkpt lat="45.4578167" lon="11.166765"><ele>136.0</ele><time>2026-04-18T17:58:53.838Z</time></trkpt><trkpt lat="45.4578697" lon="11.166963"><ele>136.0</ele><time>2026-04-18T17:58:54.827Z</time></trkpt><trkpt lat="45.4579239" lon="11.1671605"><ele>136.0</ele><time>2026-04-18T17:58:55.833Z</time></trkpt><trkpt lat="45.4579798" lon="11.167357"><ele>136.0</ele><time>2026-04-18T17:58:56.83Z</time></trkpt><trkpt lat="45.4580378" lon="11.1675511"><ele>136.0</ele><time>2026-04-18T17:58:57.835Z</time></trkpt><trkpt lat="45.4580942" lon="11.1677447"><ele>136.0</ele><time>2026-04-18T17:58:58.835Z</time></trkpt><trkpt lat="45.4581513" lon="11.1679364"><ele>136.0</ele><time>2026-04-18T17:58:59.841Z</time></trkpt><trkpt lat="45.4582071" lon="11.1681235"><ele>136.0</ele><time>2026-04-18T17:59:00.837Z</time></trkpt><trkpt lat="45.458263" lon="11.1683136"><ele>136.0</ele><time>2026-04-18T17:59:01.829Z</time></trkpt><trkpt lat="45.4583164" lon="11.1685058"><ele>136.0</ele><time>2026-04-18T17:59:02.827Z</time></trkpt><trkpt lat="45.4583684" lon="11.1686939"><ele>136.0</ele><time>2026-04-18T17:59:03.826Z</time></trkpt><trkpt lat="45.4584169" lon="11.1688677"><ele>136.0</ele><time>2026-04-18T17:59:04.839Z</time></trkpt><trkpt lat="45.4584646" lon="11.1690372"><ele>136.25</ele><time>2026-04-18T17:59:05.827Z</time></trkpt><trkpt lat="45.4585158" lon="11.1692145"><ele>136.5</ele><time>2026-04-18T17:59:06.831Z</time></trkpt><trkpt lat="45.4585728" lon="11.1694134"><ele>136.75</ele><time>2026-04-18T17:59:07.829Z</time></trkpt><trkpt lat="45.4586239" lon="11.1696067"><ele>137.0</ele><time>2026-04-18T17:59:08.832Z</time></trkpt><trkpt lat="45.4586757" lon="11.1697942"><ele>137.0</ele><time>2026-04-18T17:59:09.827Z</time></trkpt><trkpt lat="45.4587362" lon="11.1699815"><ele>137.0</ele><time>2026-04-18T17:59:10.828Z</time></trkpt><trkpt lat="45.4587898" lon="11.1701782"><ele>137.0</ele><time>2026-04-18T17:59:11.826Z</time></trkpt><trkpt lat="45.4588427" lon="11.1703841"><ele>137.0</ele><time>2026-04-18T17:59:12.835Z</time></trkpt><trkpt lat="45.4589061" lon="11.1705896"><ele>137.75</ele><time>2026-04-18T17:59:13.826Z</time></trkpt><trkpt lat="45.4589591" lon="11.1707832"><ele>138.5</ele><time>2026-04-18T17:59:14.83Z</time></trkpt><trkpt lat="45.4590068" lon="11.1709589"><ele>139.25</ele><time>2026-04-18T17:59:15.834Z</time></trkpt><trkpt lat="45.459055" lon="11.1711333"><ele>140.0</ele><time>2026-04-18T17:59:16.829Z</time></trkpt><trkpt lat="45.4591056" lon="11.1713128"><ele>140.0</ele><time>2026-04-18T17:59:17.836Z</time></trkpt><trkpt lat="45.4591703" lon="11.1714866"><ele>140.0</ele><time>2026-04-18T17:59:18.831Z</time></trkpt><trkpt lat="45.4592501" lon="11.1716578"><ele>140.0</ele><time>2026-04-18T17:59:19.833Z</time></trkpt><trkpt lat="45.4593322" lon="11.1718322"><ele>140.0</ele><time>2026-04-18T17:59:20.826Z</time></trkpt><trkpt lat="45.4594094" lon="11.1720204"><ele>140.0</ele><time>2026-04-18T17:59:21.827Z</time></trkpt><trkpt lat="45.4594845" lon="11.1722137"><ele>140.0</ele><time>2026-04-18T17:59:22.829Z</time></trkpt><trkpt lat="45.4595599" lon="11.1724118"><ele>140.0</ele><time>2026-04-18T17:59:23.827Z</time></trkpt><trkpt lat="45.4596322" lon="11.1726112"><ele>140.33333333333331</ele><time>2026-04-18T17:59:24.831Z</time></trkpt><trkpt lat="45.4597033" lon="11.1728058"><ele>140.66666666666666</ele><time>2026-04-18T17:59:25.828Z</time></trkpt><trkpt lat="45.4597742" lon="11.1729965"><ele>141.0</ele><time>2026-04-18T17:59:26.825Z</time></trkpt><trkpt lat="45.459843" lon="11.1731879"><ele>141.25</ele><time>2026-04-18T17:59:27.834Z</time></trkpt><trkpt lat="45.4599056" lon="11.1733697"><ele>141.5</ele><time>2026-04-18T17:59:28.831Z</time></trkpt><trkpt lat="45.4599652" lon="11.1735525"><ele>141.75</ele><time>2026-04-18T17:59:29.831Z</time></trkpt><trkpt lat="45.4600234" lon="11.1737376"><ele>142.0</ele><time>2026-04-18T17:59:30.826Z</time></trkpt><trkpt lat="45.4600833" lon="11.1739176"><ele>142.0</ele><time>2026-04-18T17:59:31.828Z</time></trkpt><trkpt lat="45.4601497" lon="11.1741019"><ele>142.0</ele><time>2026-04-18T17:59:32.831Z</time></trkpt><trkpt lat="45.4602267" lon="11.1742893"><ele>142.0</ele><time>2026-04-18T17:59:33.826Z</time></trkpt><trkpt lat="45.4603186" lon="11.1744765"><ele>142.0</ele><time>2026-04-18T17:59:34.83Z</time></trkpt><trkpt lat="45.4604063" lon="11.1746594"><ele>142.0</ele><time>2026-04-18T17:59:35.825Z</time></trkpt><trkpt lat="45.4604878" lon="11.174831"><ele>142.0</ele><time>2026-04-18T17:59:36.827Z</time></trkpt><trkpt lat="45.4605701" lon="11.1749962"><ele>142.0</ele><time>2026-04-18T17:59:37.828Z</time></trkpt><trkpt lat="45.4606609" lon="11.175153"><ele>142.25</ele><time>2026-04-18T17:59:38.828Z</time></trkpt><trkpt lat="45.4607499" lon="11.1753087"><ele>142.5</ele><time>2026-04-18T17:59:39.828Z</time></trkpt><trkpt lat="45.4608368" lon="11.1754609"><ele>142.75</ele><time>2026-04-18T17:59:40.824Z</time></trkpt><trkpt lat="45.4609187" lon="11.1756062"><ele>143.0</ele><time>2026-04-18T17:59:41.827Z</time></trkpt><trkpt lat="45.4609929" lon="11.1757413"><ele>143.0</ele><time>2026-04-18T17:59:42.824Z</time></trkpt><trkpt lat="45.4610643" lon="11.1758727"><ele>143.0</ele><time>2026-04-18T17:59:43.829Z</time></trkpt><trkpt lat="45.4611295" lon="11.176002"><ele>143.0</ele><time>2026-04-18T17:59:44.825Z</time></trkpt><trkpt lat="45.4611966" lon="11.1761361"><ele>143.0</ele><time>2026-04-18T17:59:45.832Z</time></trkpt><trkpt lat="45.4612613" lon="11.1762666"><ele>143.4</ele><time>2026-04-18T17:59:46.831Z</time></trkpt><trkpt lat="45.4613204" lon="11.1763821"><ele>143.8</ele><time>2026-04-18T17:59:47.83Z</time></trkpt><trkpt lat="45.4613802" lon="11.1765024"><ele>144.2</ele><time>2026-04-18T17:59:48.833Z</time></trkpt><trkpt lat="45.4614429" lon="11.1766174"><ele>144.6</ele><time>2026-04-18T17:59:49.829Z</time></trkpt><trkpt lat="45.4615071" lon="11.176721"><ele>145.0</ele><time>2026-04-18T17:59:50.833Z</time></trkpt><trkpt lat="45.4615605" lon="11.1768181"><ele>145.16666666666669</ele><time>2026-04-18T17:59:51.831Z</time></trkpt><trkpt lat="45.4616049" lon="11.1769041"><ele>145.33333333333334</ele><time>2026-04-18T17:59:52.829Z</time></trkpt><trkpt lat="45.4616603" lon="11.1770214"><ele>145.5</ele><time>2026-04-18T17:59:54.827Z</time></trkpt><trkpt lat="45.4617082" lon="11.177114"><ele>145.66666666666666</ele><time>2026-04-18T18:00:07.831Z</time></trkpt><trkpt lat="45.4617805" lon="11.1772441"><ele>145.83333333333331</ele><time>2026-04-18T18:00:09.828Z</time></trkpt><trkpt lat="45.4618449" lon="11.177305"><ele>146.0</ele><time>2026-04-18T18:00:10.829Z</time></trkpt><trkpt lat="45.4619286" lon="11.1773616"><ele>146.0</ele><time>2026-04-18T18:00:11.834Z</time></trkpt><trkpt lat="45.4620281" lon="11.1774292"><ele>146.0</ele><time>2026-04-18T18:00:12.84Z</time></trkpt><trkpt lat="45.4621352" lon="11.1775006"><ele>146.0</ele><time>2026-04-18T18:00:13.828Z</time></trkpt><trkpt lat="45.4622392" lon="11.1775755"><ele>146.0</ele><time>2026-04-18T18:00:14.828Z</time></trkpt><trkpt lat="45.4623326" lon="11.1776423"><ele>146.0</ele><time>2026-04-18T18:00:15.825Z</time></trkpt><trkpt lat="45.462423" lon="11.1777068"><ele>146.6</ele><time>2026-04-18T18:00:16.826Z</time></trkpt><trkpt lat="45.4625154" lon="11.1777704"><ele>147.2</ele><time>2026-04-18T18:00:17.829Z</time></trkpt><trkpt lat="45.4626056" lon="11.1778385"><ele>147.8</ele><time>2026-04-18T18:00:18.823Z</time></trkpt><trkpt lat="45.4626976" lon="11.1779076"><ele>148.4</ele><time>2026-04-18T18:00:19.827Z</time></trkpt><trkpt lat="45.4627903" lon="11.177975"><ele>149.0</ele><time>2026-04-18T18:00:20.828Z</time></trkpt><trkpt lat="45.4628877" lon="11.1780484"><ele>149.5</ele><time>2026-04-18T18:00:21.828Z</time></trkpt><trkpt lat="45.4629902" lon="11.1781287"><ele>150.0</ele><time>2026-04-18T18:00:22.834Z</time></trkpt><trkpt lat="45.4630973" lon="11.1782053"><ele>150.5</ele><time>2026-04-18T18:00:23.83Z</time></trkpt><trkpt lat="45.4632091" lon="11.1782825"><ele>151.0</ele><time>2026-04-18T18:00:24.826Z</time></trkpt><trkpt lat="45.4633197" lon="11.1783632"><ele>151.25</ele><time>2026-04-18T18:00:25.832Z</time></trkpt><trkpt lat="45.4634283" lon="11.1784461"><ele>151.5</ele><time>2026-04-18T18:00:26.83Z</time></trkpt><trkpt lat="45.4635311" lon="11.1785254"><ele>151.75</ele><time>2026-04-18T18:00:27.824Z</time></trkpt><trkpt lat="45.4636294" lon="11.1785989"><ele>152.0</ele><time>2026-04-18T18:00:28.826Z</time></trkpt><trkpt lat="45.4637314" lon="11.1786748"><ele>152.6</ele><time>2026-04-18T18:00:29.825Z</time></trkpt><trkpt lat="45.4638349" lon="11.1787541"><ele>153.2</ele><time>2026-04-18T18:00:30.834Z</time></trkpt><trkpt lat="45.4639387" lon="11.1788296"><ele>153.8</ele><time>2026-04-18T18:00:31.829Z</time></trkpt><trkpt lat="45.4640411" lon="11.1789009"><ele>154.4</ele><time>2026-04-18T18:00:32.844Z</time></trkpt><trkpt lat="45.4641323" lon="11.1789637"><ele>155.0</ele><time>2026-04-18T18:00:33.83Z</time></trkpt><trkpt lat="45.4642214" lon="11.1790264"><ele>155.2</ele><time>2026-04-18T18:00:34.826Z</time></trkpt><trkpt lat="45.464309" lon="11.1790866"><ele>155.4</ele><time>2026-04-18T18:00:35.826Z</time></trkpt><trkpt lat="45.4644036" lon="11.1791415"><ele>155.6</ele><time>2026-04-18T18:00:36.832Z</time></trkpt><trkpt lat="45.4645005" lon="11.1791919"><ele>155.8</ele><time>2026-04-18T18:00:37.828Z</time></trkpt><trkpt lat="45.4646028" lon="11.1792368"><ele>156.0</ele><time>2026-04-18T18:00:38.831Z</time></trkpt><trkpt lat="45.4647153" lon="11.1792782"><ele>156.5</ele><time>2026-04-18T18:00:39.825Z</time></trkpt><trkpt lat="45.4648327" lon="11.179317"><ele>157.0</ele><time>2026-04-18T18:00:40.834Z</time></trkpt><trkpt lat="45.4649392" lon="11.1793542"><ele>157.5</ele><time>2026-04-18T18:00:41.825Z</time></trkpt><trkpt lat="45.465052" lon="11.1793977"><ele>158.0</ele><time>2026-04-18T18:00:42.83Z</time></trkpt><trkpt lat="45.4651587" lon="11.1794394"><ele>158.0</ele><time>2026-04-18T18:00:43.845Z</time></trkpt><trkpt lat="45.4652549" lon="11.1794762"><ele>158.0</ele><time>2026-04-18T18:00:44.828Z</time></trkpt><trkpt lat="45.4653512" lon="11.1795058"><ele>158.0</ele><time>2026-04-18T18:00:45.828Z</time></trkpt><trkpt lat="45.4654507" lon="11.1795337"><ele>158.0</ele><time>2026-04-18T18:00:46.831Z</time></trkpt><trkpt lat="45.4655478" lon="11.1795595"><ele>158.0</ele><time>2026-04-18T18:00:47.83Z</time></trkpt><trkpt lat="45.4656415" lon="11.179586"><ele>158.5</ele><time>2026-04-18T18:00:48.831Z</time></trkpt><trkpt lat="45.465736" lon="11.1796108"><ele>159.0</ele><time>2026-04-18T18:00:49.823Z</time></trkpt><trkpt lat="45.4658233" lon="11.1796342"><ele>159.5</ele><time>2026-04-18T18:00:50.828Z</time></trkpt><trkpt lat="45.4659081" lon="11.1796501"><ele>160.0</ele><time>2026-04-18T18:00:51.827Z</time></trkpt><trkpt lat="45.4659839" lon="11.1796632"><ele>160.5</ele><time>2026-04-18T18:00:52.828Z</time></trkpt><trkpt lat="45.4660481" lon="11.1796744"><ele>161.0</ele><time>2026-04-18T18:00:53.826Z</time></trkpt><trkpt lat="45.4661745" lon="11.1796766"><ele>161.0</ele><time>2026-04-18T18:00:55.823Z</time></trkpt><trkpt lat="45.4662385" lon="11.1796904"><ele>161.0</ele><time>2026-04-18T18:00:56.842Z</time></trkpt><trkpt lat="45.4663402" lon="11.1797244"><ele>161.0</ele><time>2026-04-18T18:00:58.828Z</time></trkpt><trkpt lat="45.4664346" lon="11.1797607"><ele>161.0</ele><time>2026-04-18T18:01:15.828Z</time></trkpt><trkpt lat="45.4665491" lon="11.1797996"><ele>161.0</ele><time>2026-04-18T18:01:17.828Z</time></trkpt><trkpt lat="45.4666179" lon="11.1798157"><ele>161.60000000000002</ele><time>2026-04-18T18:01:18.829Z</time></trkpt><trkpt lat="45.4667027" lon="11.1798418"><ele>162.2</ele><time>2026-04-18T18:01:19.833Z</time></trkpt><trkpt lat="45.4668022" lon="11.1798689"><ele>162.8</ele><time>2026-04-18T18:01:20.831Z</time></trkpt><trkpt lat="45.4669068" lon="11.1799046"><ele>163.39999999999998</ele><time>2026-04-18T18:01:21.834Z</time></trkpt><trkpt lat="45.4669998" lon="11.1799376"><ele>164.0</ele><time>2026-04-18T18:01:22.832Z</time></trkpt><trkpt lat="45.4670938" lon="11.1799764"><ele>164.6</ele><time>2026-04-18T18:01:23.832Z</time></trkpt><trkpt lat="45.4671926" lon="11.1800193"><ele>165.2</ele><time>2026-04-18T18:01:24.828Z</time></trkpt><trkpt lat="45.4672953" lon="11.1800619"><ele>165.79999999999998</ele><time>2026-04-18T18:01:25.834Z</time></trkpt><trkpt lat="45.467402" lon="11.1801024"><ele>166.39999999999998</ele><time>2026-04-18T18:01:26.832Z</time></trkpt><trkpt lat="45.4675143" lon="11.1801335"><ele>167.0</ele><time>2026-04-18T18:01:27.825Z</time></trkpt><trkpt lat="45.4676276" lon="11.180166"><ele>167.0</ele><time>2026-04-18T18:01:28.83Z</time></trkpt><trkpt lat="45.4677476" lon="11.1801912"><ele>167.0</ele><time>2026-04-18T18:01:29.828Z</time></trkpt><trkpt lat="45.4678716" lon="11.1802121"><ele>167.0</ele><time>2026-04-18T18:01:30.833Z</time></trkpt><trkpt lat="45.4679992" lon="11.1802133"><ele>167.0</ele><time>2026-04-18T18:01:31.826Z</time></trkpt><trkpt lat="45.4681299" lon="11.1801917"><ele>167.75</ele><time>2026-04-18T18:01:32.836Z</time></trkpt><trkpt lat="45.4682669" lon="11.1801683"><ele>168.5</ele><time>2026-04-18T18:01:33.825Z</time></trkpt><trkpt lat="45.4684056" lon="11.1801444"><ele>169.25</ele><time>2026-04-18T18:01:34.825Z</time></trkpt><trkpt lat="45.4685455" lon="11.1801311"><ele>170.0</ele><time>2026-04-18T18:01:35.826Z</time></trkpt><trkpt lat="45.4686842" lon="11.1801118"><ele>170.75</ele><time>2026-04-18T18:01:36.829Z</time></trkpt><trkpt lat="45.4688212" lon="11.1800905"><ele>171.5</ele><time>2026-04-18T18:01:37.823Z</time></trkpt><trkpt lat="45.4689567" lon="11.1800683"><ele>172.25</ele><time>2026-04-18T18:01:38.828Z</time></trkpt><trkpt lat="45.469093" lon="11.1800507"><ele>173.0</ele><time>2026-04-18T18:01:39.834Z</time></trkpt><trkpt lat="45.4692298" lon="11.180045"><ele>173.0</ele><time>2026-04-18T18:01:40.826Z</time></trkpt><trkpt lat="45.4693685" lon="11.1800575"><ele>173.0</ele><time>2026-04-18T18:01:41.829Z</time></trkpt><trkpt lat="45.4695138" lon="11.1800838"><ele>173.0</ele><time>2026-04-18T18:01:42.828Z</time></trkpt><trkpt lat="45.4696585" lon="11.1801244"><ele>173.0</ele><time>2026-04-18T18:01:43.83Z</time></trkpt><trkpt lat="45.4698075" lon="11.1801898"><ele>173.66666666666666</ele><time>2026-04-18T18:01:44.829Z</time></trkpt><trkpt lat="45.4699647" lon="11.1802778"><ele>174.33333333333334</ele><time>2026-04-18T18:01:45.827Z</time></trkpt><trkpt lat="45.4701216" lon="11.1803749"><ele>175.0</ele><time>2026-04-18T18:01:46.829Z</time></trkpt><trkpt lat="45.470282" lon="11.1804711"><ele>175.66666666666669</ele><time>2026-04-18T18:01:47.824Z</time></trkpt><trkpt lat="45.4704462" lon="11.1805528"><ele>176.33333333333334</ele><time>2026-04-18T18:01:48.828Z</time></trkpt><trkpt lat="45.4706177" lon="11.1806328"><ele>177.0</ele><time>2026-04-18T18:01:49.829Z</time></trkpt><trkpt lat="45.4707918" lon="11.1807073"><ele>177.33333333333334</ele><time>2026-04-18T18:01:50.828Z</time></trkpt><trkpt lat="45.470964" lon="11.1807771"><ele>177.66666666666669</ele><time>2026-04-18T18:01:51.836Z</time></trkpt><trkpt lat="45.4711309" lon="11.180839"><ele>178.0</ele><time>2026-04-18T18:01:52.826Z</time></trkpt><trkpt lat="45.4712969" lon="11.1808707"><ele>178.0</ele><time>2026-04-18T18:01:53.825Z</time></trkpt><trkpt lat="45.4714575" lon="11.1808755"><ele>178.0</ele><time>2026-04-18T18:01:54.829Z</time></trkpt><trkpt lat="45.4716191" lon="11.1808691"><ele>178.0</ele><time>2026-04-18T18:01:55.826Z</time></trkpt><trkpt lat="45.4717717" lon="11.1808606"><ele>178.0</ele><time>2026-04-18T18:01:56.827Z</time></trkpt><trkpt lat="45.4719208" lon="11.1808496"><ele>178.0</ele><time>2026-04-18T18:01:57.833Z</time></trkpt><trkpt lat="45.4720637" lon="11.180851"><ele>178.0</ele><time>2026-04-18T18:01:58.827Z</time></trkpt><trkpt lat="45.4721987" lon="11.180871"><ele>178.0</ele><time>2026-04-18T18:01:59.823Z</time></trkpt><trkpt lat="45.472333" lon="11.1809055"><ele>178.4</ele><time>2026-04-18T18:02:00.832Z</time></trkpt><trkpt lat="45.4724588" lon="11.1809437"><ele>178.8</ele><time>2026-04-18T18:02:01.833Z</time></trkpt><trkpt lat="45.4725656" lon="11.1809728"><ele>179.2</ele><time>2026-04-18T18:02:02.833Z</time></trkpt><trkpt lat="45.4726621" lon="11.1809915"><ele>179.6</ele><time>2026-04-18T18:02:03.833Z</time></trkpt><trkpt lat="45.4727392" lon="11.1810199"><ele>180.0</ele><time>2026-04-18T18:02:04.828Z</time></trkpt><trkpt lat="45.4727904" lon="11.1810826"><ele>180.0</ele><time>2026-04-18T18:02:05.828Z</time></trkpt><trkpt lat="45.472833" lon="11.1811802"><ele>180.0</ele><time>2026-04-18T18:02:06.826Z</time></trkpt><trkpt lat="45.4728711" lon="11.1813017"><ele>180.0</ele><time>2026-04-18T18:02:07.828Z</time></trkpt><trkpt lat="45.4729251" lon="11.1814384"><ele>180.0</ele><time>2026-04-18T18:02:08.828Z</time></trkpt><trkpt lat="45.4729965" lon="11.1815805"><ele>180.0</ele><time>2026-04-18T18:02:09.826Z</time></trkpt><trkpt lat="45.4730939" lon="11.1817174"><ele>180.66666666666666</ele><time>2026-04-18T18:02:10.826Z</time></trkpt><trkpt lat="45.4732198" lon="11.1818441"><ele>181.33333333333331</ele><time>2026-04-18T18:02:11.826Z</time></trkpt><trkpt lat="45.4733642" lon="11.1819742"><ele>182.0</ele><time>2026-04-18T18:02:12.83Z</time></trkpt><trkpt lat="45.4735221" lon="11.1821143"><ele>182.0</ele><time>2026-04-18T18:02:13.829Z</time></trkpt><trkpt lat="45.4736888" lon="11.1822725"><ele>182.0</ele><time>2026-04-18T18:02:14.828Z</time></trkpt><trkpt lat="45.4738478" lon="11.1824249"><ele>182.0</ele><time>2026-04-18T18:02:15.825Z</time></trkpt><trkpt lat="45.4739987" lon="11.1825686"><ele>182.33333333333331</ele><time>2026-04-18T18:02:16.835Z</time></trkpt><trkpt lat="45.4741522" lon="11.182712"><ele>182.66666666666666</ele><time>2026-04-18T18:02:17.827Z</time></trkpt><trkpt lat="45.4743014" lon="11.1828534"><ele>183.0</ele><time>2026-04-18T18:02:18.824Z</time></trkpt><trkpt lat="45.4744459" lon="11.1830007"><ele>183.0</ele><time>2026-04-18T18:02:19.832Z</time></trkpt><trkpt lat="45.4745822" lon="11.1831617"><ele>183.0</ele><time>2026-04-18T18:02:20.833Z</time></trkpt><trkpt lat="45.4747148" lon="11.1833321"><ele>183.0</ele><time>2026-04-18T18:02:21.823Z</time></trkpt><trkpt lat="45.4748458" lon="11.1834885"><ele>183.5</ele><time>2026-04-18T18:02:22.827Z</time></trkpt><trkpt lat="45.4749875" lon="11.1836126"><ele>184.0</ele><time>2026-04-18T18:02:23.83Z</time></trkpt><trkpt lat="45.4751245" lon="11.1836981"><ele>184.5</ele><time>2026-04-18T18:02:24.823Z</time></trkpt><trkpt lat="45.4752478" lon="11.183764"><ele>185.0</ele><time>2026-04-18T18:02:25.829Z</time></trkpt><trkpt lat="45.4753615" lon="11.1838155"><ele>185.33333333333331</ele><time>2026-04-18T18:02:26.822Z</time></trkpt><trkpt lat="45.4754645" lon="11.1838561"><ele>185.66666666666666</ele><time>2026-04-18T18:02:27.833Z</time></trkpt><trkpt lat="45.4755501" lon="11.1838887"><ele>186.0</ele><time>2026-04-18T18:02:28.832Z</time></trkpt><trkpt lat="45.4756246" lon="11.1839142"><ele>186.33333333333334</ele><time>2026-04-18T18:02:29.827Z</time></trkpt><trkpt lat="45.475686" lon="11.1839401"><ele>186.66666666666669</ele><time>2026-04-18T18:02:30.824Z</time></trkpt><trkpt lat="45.4757769" lon="11.1839369"><ele>187.0</ele><time>2026-04-18T18:02:32.827Z</time></trkpt><trkpt lat="45.4758034" lon="11.1838332"><ele>187.0</ele><time>2026-04-18T18:02:34.829Z</time></trkpt><trkpt lat="45.4757739" lon="11.1836634"><ele>187.0</ele><time>2026-04-18T18:02:36.828Z</time></trkpt><trkpt lat="45.475747" lon="11.1835381"><ele>187.0</ele><time>2026-04-18T18:02:37.826Z</time></trkpt><trkpt lat="45.4757205" lon="11.1834068"><ele>187.0</ele><time>2026-04-18T18:02:38.831Z</time></trkpt><trkpt lat="45.4756999" lon="11.183291"><ele>187.0</ele><time>2026-04-18T18:02:39.827Z</time></trkpt><trkpt lat="45.4756783" lon="11.1831863"><ele>187.0</ele><time>2026-04-18T18:02:40.823Z</time></trkpt><trkpt lat="45.4756544" lon="11.1830711"><ele>187.0</ele><time>2026-04-18T18:02:41.827Z</time></trkpt><trkpt lat="45.4756262" lon="11.1829597"><ele>187.0</ele><time>2026-04-18T18:02:42.827Z</time></trkpt><trkpt lat="45.4755981" lon="11.1828485"><ele>187.0</ele><time>2026-04-18T18:02:43.832Z</time></trkpt><trkpt lat="45.475567" lon="11.1827265"><ele>187.0</ele><time>2026-04-18T18:02:44.827Z</time></trkpt><trkpt lat="45.4755375" lon="11.1826017"><ele>187.0</ele><time>2026-04-18T18:02:45.83Z</time></trkpt><trkpt lat="45.4755215" lon="11.1824888"><ele>187.0</ele><time>2026-04-18T18:02:46.825Z</time></trkpt><trkpt lat="45.4755156" lon="11.1823984"><ele>187.0</ele><time>2026-04-18T18:02:47.829Z</time></trkpt><trkpt lat="45.475501" lon="11.1822776"><ele>187.0</ele><time>2026-04-18T18:02:49.827Z</time></trkpt><trkpt lat="45.4754523" lon="11.1821623"><ele>187.0</ele><time>2026-04-18T18:03:55.826Z</time></trkpt><trkpt lat="45.4754247" lon="11.1820633"><ele>187.0</ele><time>2026-04-18T18:03:56.831Z</time></trkpt><trkpt lat="45.4754014" lon="11.1819532"><ele>187.0</ele><time>2026-04-18T18:03:57.83Z</time></trkpt><trkpt lat="45.4753775" lon="11.1818342"><ele>186.83333333333334</ele><time>2026-04-18T18:03:58.831Z</time></trkpt><trkpt lat="45.4753592" lon="11.1817116"><ele>186.66666666666669</ele><time>2026-04-18T18:03:59.827Z</time></trkpt><trkpt lat="45.4753421" lon="11.1815908"><ele>186.5</ele><time>2026-04-18T18:04:00.834Z</time></trkpt><trkpt lat="45.4753242" lon="11.1814871"><ele>186.33333333333334</ele><time>2026-04-18T18:04:01.826Z</time></trkpt><trkpt lat="45.4753077" lon="11.1813919"><ele>186.16666666666666</ele><time>2026-04-18T18:04:02.827Z</time></trkpt><trkpt lat="45.4752911" lon="11.1813044"><ele>186.0</ele><time>2026-04-18T18:04:03.83Z</time></trkpt><trkpt lat="45.475278" lon="11.1811513"><ele>186.0</ele><time>2026-04-18T18:04:05.829Z</time></trkpt><trkpt lat="45.4752783" lon="11.1810597"><ele>186.0</ele><time>2026-04-18T18:04:08.828Z</time></trkpt><trkpt lat="45.4751933" lon="11.1809641"><ele>186.0</ele><time>2026-04-18T18:04:13.823Z</time></trkpt><trkpt lat="45.475097" lon="11.1809441"><ele>186.0</ele><time>2026-04-18T18:04:14.829Z</time></trkpt><trkpt lat="45.4749655" lon="11.1809403"><ele>186.0</ele><time>2026-04-18T18:04:15.823Z</time></trkpt><trkpt lat="45.4748119" lon="11.1809371"><ele>186.0</ele><time>2026-04-18T18:04:16.827Z</time></trkpt><trkpt lat="45.4746424" lon="11.1809289"><ele>186.0</ele><time>2026-04-18T18:04:17.83Z</time></trkpt><trkpt lat="45.4744666" lon="11.1809186"><ele>186.0</ele><time>2026-04-18T18:04:18.828Z</time></trkpt><trkpt lat="45.474294" lon="11.1809086"><ele>185.66666666666666</ele><time>2026-04-18T18:04:19.829Z</time></trkpt><trkpt lat="45.4741329" lon="11.1809003"><ele>185.33333333333331</ele><time>2026-04-18T18:04:20.826Z</time></trkpt><trkpt lat="45.4739799" lon="11.1808949"><ele>185.0</ele><time>2026-04-18T18:04:21.828Z</time></trkpt><trkpt lat="45.4738354" lon="11.1808904"><ele>184.5</ele><time>2026-04-18T18:04:22.827Z</time></trkpt><trkpt lat="45.4736922" lon="11.1808886"><ele>184.0</ele><time>2026-04-18T18:04:23.824Z</time></trkpt><trkpt lat="45.4735491" lon="11.1808858"><ele>183.5</ele><time>2026-04-18T18:04:24.828Z</time></trkpt><trkpt lat="45.4734104" lon="11.1808886"><ele>183.0</ele><time>2026-04-18T18:04:25.824Z</time></trkpt><trkpt lat="45.4732728" lon="11.1808973"><ele>183.0</ele><time>2026-04-18T18:04:26.827Z</time></trkpt><trkpt lat="45.473136" lon="11.1809106"><ele>183.0</ele><time>2026-04-18T18:04:27.828Z</time></trkpt><trkpt lat="45.4729986" lon="11.180925"><ele>183.0</ele><time>2026-04-18T18:04:28.828Z</time></trkpt><trkpt lat="45.4728642" lon="11.1809328"><ele>183.0</ele><time>2026-04-18T18:04:29.826Z</time></trkpt><trkpt lat="45.4727264" lon="11.1809308"><ele>182.25</ele><time>2026-04-18T18:04:30.836Z</time></trkpt><trkpt lat="45.4725896" lon="11.1809162"><ele>181.5</ele><time>2026-04-18T18:04:31.828Z</time></trkpt><trkpt lat="45.4724528" lon="11.1808888"><ele>180.75</ele><time>2026-04-18T18:04:32.827Z</time></trkpt><trkpt lat="45.4723166" lon="11.1808476"><ele>180.0</ele><time>2026-04-18T18:04:33.826Z</time></trkpt><trkpt lat="45.4721778" lon="11.1808056"><ele>179.5</ele><time>2026-04-18T18:04:34.83Z</time></trkpt><trkpt lat="45.4720396" lon="11.1807621"><ele>179.0</ele><time>2026-04-18T18:04:35.831Z</time></trkpt><trkpt lat="45.4719039" lon="11.1807164"><ele>178.5</ele><time>2026-04-18T18:04:36.831Z</time></trkpt><trkpt lat="45.4717658" lon="11.1806698"><ele>178.0</ele><time>2026-04-18T18:04:37.831Z</time></trkpt><trkpt lat="45.4716259" lon="11.1806377"><ele>178.0</ele><time>2026-04-18T18:04:38.827Z</time></trkpt><trkpt lat="45.4714832" lon="11.1805954"><ele>178.0</ele><time>2026-04-18T18:04:39.834Z</time></trkpt><trkpt lat="45.4713389" lon="11.1805443"><ele>178.0</ele><time>2026-04-18T18:04:40.823Z</time></trkpt><trkpt lat="45.4711945" lon="11.1805033"><ele>178.0</ele><time>2026-04-18T18:04:41.827Z</time></trkpt><trkpt lat="45.47106" lon="11.1804636"><ele>177.75</ele><time>2026-04-18T18:04:42.829Z</time></trkpt><trkpt lat="45.4709327" lon="11.1804236"><ele>177.5</ele><time>2026-04-18T18:04:43.829Z</time></trkpt><trkpt lat="45.4708088" lon="11.1803828"><ele>177.25</ele><time>2026-04-18T18:04:44.826Z</time></trkpt><trkpt lat="45.470687" lon="11.1803436"><ele>177.0</ele><time>2026-04-18T18:04:45.832Z</time></trkpt><trkpt lat="45.4705682" lon="11.1803075"><ele>177.0</ele><time>2026-04-18T18:04:46.826Z</time></trkpt><trkpt lat="45.4704469" lon="11.1802658"><ele>177.0</ele><time>2026-04-18T18:04:47.823Z</time></trkpt><trkpt lat="45.4703231" lon="11.1802266"><ele>177.0</ele><time>2026-04-18T18:04:48.826Z</time></trkpt><trkpt lat="45.4702026" lon="11.18019"><ele>177.0</ele><time>2026-04-18T18:04:49.829Z</time></trkpt><trkpt lat="45.4700802" lon="11.1801499"><ele>176.5</ele><time>2026-04-18T18:04:50.837Z</time></trkpt><trkpt lat="45.4699531" lon="11.1801116"><ele>176.0</ele><time>2026-04-18T18:04:51.826Z</time></trkpt><trkpt lat="45.469825" lon="11.1800741"><ele>175.5</ele><time>2026-04-18T18:04:52.83Z</time></trkpt><trkpt lat="45.469696" lon="11.1800413"><ele>175.0</ele><time>2026-04-18T18:04:53.828Z</time></trkpt><trkpt lat="45.4695663" lon="11.1800182"><ele>174.5</ele><time>2026-04-18T18:04:54.825Z</time></trkpt><trkpt lat="45.4694405" lon="11.1800015"><ele>174.0</ele><time>2026-04-18T18:04:55.826Z</time></trkpt><trkpt lat="45.4693047" lon="11.1799908"><ele>173.5</ele><time>2026-04-18T18:04:56.831Z</time></trkpt><trkpt lat="45.4691723" lon="11.1799919"><ele>173.0</ele><time>2026-04-18T18:04:57.827Z</time></trkpt><trkpt lat="45.4690467" lon="11.1800046"><ele>173.0</ele><time>2026-04-18T18:04:58.828Z</time></trkpt><trkpt lat="45.4689176" lon="11.1800217"><ele>173.0</ele><time>2026-04-18T18:04:59.826Z</time></trkpt><trkpt lat="45.4687846" lon="11.1800402"><ele>173.0</ele><time>2026-04-18T18:05:00.822Z</time></trkpt><trkpt lat="45.4686518" lon="11.1800586"><ele>173.0</ele><time>2026-04-18T18:05:01.835Z</time></trkpt><trkpt lat="45.4685204" lon="11.1800788"><ele>172.25</ele><time>2026-04-18T18:05:02.826Z</time></trkpt><trkpt lat="45.4683909" lon="11.1800964"><ele>171.5</ele><time>2026-04-18T18:05:03.83Z</time></trkpt><trkpt lat="45.4682645" lon="11.1801154"><ele>170.75</ele><time>2026-04-18T18:05:04.829Z</time></trkpt><trkpt lat="45.4681377" lon="11.180132"><ele>170.0</ele><time>2026-04-18T18:05:05.83Z</time></trkpt><trkpt lat="45.4680107" lon="11.1801498"><ele>169.25</ele><time>2026-04-18T18:05:06.828Z</time></trkpt><trkpt lat="45.4678798" lon="11.1801524"><ele>168.5</ele><time>2026-04-18T18:05:07.828Z</time></trkpt><trkpt lat="45.4677448" lon="11.1801359"><ele>167.75</ele><time>2026-04-18T18:05:08.825Z</time></trkpt><trkpt lat="45.4676129" lon="11.1801121"><ele>167.0</ele><time>2026-04-18T18:05:09.834Z</time></trkpt><trkpt lat="45.4674911" lon="11.1800848"><ele>167.0</ele><time>2026-04-18T18:05:10.823Z</time></trkpt><trkpt lat="45.467376" lon="11.1800562"><ele>167.0</ele><time>2026-04-18T18:05:11.827Z</time></trkpt><trkpt lat="45.467262" lon="11.1800166"><ele>167.0</ele><time>2026-04-18T18:05:12.834Z</time></trkpt><trkpt lat="45.4671502" lon="11.1799697"><ele>167.0</ele><time>2026-04-18T18:05:13.824Z</time></trkpt><trkpt lat="45.467043" lon="11.1799283"><ele>166.6</ele><time>2026-04-18T18:05:14.828Z</time></trkpt><trkpt lat="45.4669457" lon="11.1798921"><ele>166.2</ele><time>2026-04-18T18:05:15.825Z</time></trkpt><trkpt lat="45.466848" lon="11.1798605"><ele>165.8</ele><time>2026-04-18T18:05:16.827Z</time></trkpt><trkpt lat="45.4667473" lon="11.1798257"><ele>165.4</ele><time>2026-04-18T18:05:17.823Z</time></trkpt><trkpt lat="45.4666429" lon="11.1797938"><ele>165.0</ele><time>2026-04-18T18:05:18.824Z</time></trkpt><trkpt lat="45.4665314" lon="11.1797623"><ele>164.75</ele><time>2026-04-18T18:05:19.823Z</time></trkpt><trkpt lat="45.4664225" lon="11.1797293"><ele>164.5</ele><time>2026-04-18T18:05:20.831Z</time></trkpt><trkpt lat="45.4663133" lon="11.1796854"><ele>164.25</ele><time>2026-04-18T18:05:21.832Z</time></trkpt><trkpt lat="45.4661988" lon="11.1796522"><ele>164.0</ele><time>2026-04-18T18:05:22.834Z</time></trkpt><trkpt lat="45.4660716" lon="11.1796177"><ele>163.0</ele><time>2026-04-18T18:05:23.828Z</time></trkpt><trkpt lat="45.4659291" lon="11.1795802"><ele>162.0</ele><time>2026-04-18T18:05:24.823Z</time></trkpt><trkpt lat="45.4657793" lon="11.1795342"><ele>161.0</ele><time>2026-04-18T18:05:25.832Z</time></trkpt><trkpt lat="45.4656183" lon="11.1794955"><ele>161.0</ele><time>2026-04-18T18:05:26.825Z</time></trkpt><trkpt lat="45.4654617" lon="11.1794538"><ele>161.0</ele><time>2026-04-18T18:05:27.824Z</time></trkpt><trkpt lat="45.4653071" lon="11.1794095"><ele>161.0</ele><time>2026-04-18T18:05:28.828Z</time></trkpt><trkpt lat="45.4651461" lon="11.1793641"><ele>160.0</ele><time>2026-04-18T18:05:29.828Z</time></trkpt><trkpt lat="45.4649835" lon="11.1793087"><ele>159.0</ele><time>2026-04-18T18:05:30.826Z</time></trkpt><trkpt lat="45.4648229" lon="11.1792475"><ele>158.0</ele><time>2026-04-18T18:05:31.825Z</time></trkpt><trkpt lat="45.4646596" lon="11.1791817"><ele>157.33333333333331</ele><time>2026-04-18T18:05:32.826Z</time></trkpt><trkpt lat="45.4645024" lon="11.1791039"><ele>156.66666666666666</ele><time>2026-04-18T18:05:33.827Z</time></trkpt><trkpt lat="45.4643458" lon="11.1790158"><ele>156.0</ele><time>2026-04-18T18:05:34.822Z</time></trkpt><trkpt lat="45.464186" lon="11.1789118"><ele>155.66666666666666</ele><time>2026-04-18T18:05:35.823Z</time></trkpt><trkpt lat="45.4640213" lon="11.1788029"><ele>155.33333333333331</ele><time>2026-04-18T18:05:36.829Z</time></trkpt><trkpt lat="45.4638568" lon="11.1786883"><ele>155.0</ele><time>2026-04-18T18:05:37.826Z</time></trkpt><trkpt lat="45.4636946" lon="11.1785711"><ele>154.0</ele><time>2026-04-18T18:05:38.826Z</time></trkpt><trkpt lat="45.4635317" lon="11.1784502"><ele>153.0</ele><time>2026-04-18T18:05:39.833Z</time></trkpt><trkpt lat="45.4633748" lon="11.1783324"><ele>152.0</ele><time>2026-04-18T18:05:40.829Z</time></trkpt><trkpt lat="45.4632174" lon="11.1782136"><ele>151.66666666666666</ele><time>2026-04-18T18:05:41.835Z</time></trkpt><trkpt lat="45.4630585" lon="11.178099"><ele>151.33333333333334</ele><time>2026-04-18T18:05:42.826Z</time></trkpt><trkpt lat="45.4628998" lon="11.1779837"><ele>151.0</ele><time>2026-04-18T18:05:43.822Z</time></trkpt><trkpt lat="45.4627512" lon="11.1778732"><ele>150.5</ele><time>2026-04-18T18:05:44.834Z</time></trkpt><trkpt lat="45.4626115" lon="11.1777746"><ele>150.0</ele><time>2026-04-18T18:05:45.827Z</time></trkpt><trkpt lat="45.462482" lon="11.1776796"><ele>149.5</ele><time>2026-04-18T18:05:46.824Z</time></trkpt><trkpt lat="45.462364" lon="11.1775926"><ele>149.0</ele><time>2026-04-18T18:05:47.825Z</time></trkpt><trkpt lat="45.4622581" lon="11.1775122"><ele>149.0</ele><time>2026-04-18T18:05:48.834Z</time></trkpt><trkpt lat="45.4621568" lon="11.1774386"><ele>149.0</ele><time>2026-04-18T18:05:49.83Z</time></trkpt><trkpt lat="45.4620483" lon="11.177356"><ele>149.0</ele><time>2026-04-18T18:05:50.831Z</time></trkpt><trkpt lat="45.4619226" lon="11.1772717"><ele>149.0</ele><time>2026-04-18T18:05:51.824Z</time></trkpt><trkpt lat="45.4617887" lon="11.1771974"><ele>148.0</ele><time>2026-04-18T18:05:52.825Z</time></trkpt><trkpt lat="45.4616421" lon="11.1771435"><ele>147.0</ele><time>2026-04-18T18:05:53.833Z</time></trkpt><trkpt lat="45.4614858" lon="11.1771134"><ele>146.0</ele><time>2026-04-18T18:05:54.831Z</time></trkpt><trkpt lat="45.46132" lon="11.1771027"><ele>145.33333333333331</ele><time>2026-04-18T18:05:55.833Z</time></trkpt><trkpt lat="45.4611571" lon="11.1770997"><ele>144.66666666666666</ele><time>2026-04-18T18:05:56.826Z</time></trkpt><trkpt lat="45.4609959" lon="11.1770995"><ele>144.0</ele><time>2026-04-18T18:05:57.829Z</time></trkpt><trkpt lat="45.4608301" lon="11.1771003"><ele>144.0</ele><time>2026-04-18T18:05:58.824Z</time></trkpt><trkpt lat="45.4606594" lon="11.1771063"><ele>144.0</ele><time>2026-04-18T18:05:59.828Z</time></trkpt><trkpt lat="45.4604897" lon="11.1771098"><ele>144.0</ele><time>2026-04-18T18:06:00.832Z</time></trkpt><trkpt lat="45.4603204" lon="11.1771123"><ele>143.66666666666666</ele><time>2026-04-18T18:06:01.824Z</time></trkpt><trkpt lat="45.4601473" lon="11.1771135"><ele>143.33333333333331</ele><time>2026-04-18T18:06:02.827Z</time></trkpt><trkpt lat="45.4599766" lon="11.1771139"><ele>143.0</ele><time>2026-04-18T18:06:03.826Z</time></trkpt><trkpt lat="45.4598045" lon="11.1771147"><ele>143.0</ele><time>2026-04-18T18:06:04.823Z</time></trkpt><trkpt lat="45.4596366" lon="11.1771176"><ele>143.0</ele><time>2026-04-18T18:06:05.818Z</time></trkpt><trkpt lat="45.4594711" lon="11.17712"><ele>143.0</ele><time>2026-04-18T18:06:06.82Z</time></trkpt><trkpt lat="45.4593039" lon="11.1771263"><ele>141.66666666666666</ele><time>2026-04-18T18:06:07.826Z</time></trkpt><trkpt lat="45.4591335" lon="11.1771287"><ele>140.33333333333334</ele><time>2026-04-18T18:06:08.831Z</time></trkpt><trkpt lat="45.4589638" lon="11.1771343"><ele>139.0</ele><time>2026-04-18T18:06:09.822Z</time></trkpt><trkpt lat="45.458791" lon="11.1771458"><ele>137.66666666666669</ele><time>2026-04-18T18:06:10.83Z</time></trkpt><trkpt lat="45.4586164" lon="11.1771497"><ele>136.33333333333334</ele><time>2026-04-18T18:06:11.826Z</time></trkpt><trkpt lat="45.4584456" lon="11.1771559"><ele>135.0</ele><time>2026-04-18T18:06:12.825Z</time></trkpt><trkpt lat="45.4582621" lon="11.1771667"><ele>135.0</ele><time>2026-04-18T18:06:13.824Z</time></trkpt><trkpt lat="45.4580713" lon="11.1771676"><ele>135.0</ele><time>2026-04-18T18:06:14.829Z</time></trkpt><trkpt lat="45.4578757" lon="11.1771492"><ele>135.0</ele><time>2026-04-18T18:06:15.828Z</time></trkpt><trkpt lat="45.4576724" lon="11.1771492"><ele>135.0</ele><time>2026-04-18T18:06:16.828Z</time></trkpt><trkpt lat="45.4574664" lon="11.1771597"><ele>135.0</ele><time>2026-04-18T18:06:17.824Z</time></trkpt><trkpt lat="45.4572598" lon="11.1771657"><ele>135.0</ele><time>2026-04-18T18:06:18.824Z</time></trkpt><trkpt lat="45.4570518" lon="11.1771666"><ele>134.33333333333334</ele><time>2026-04-18T18:06:19.819Z</time></trkpt><trkpt lat="45.4568461" lon="11.1771583"><ele>133.66666666666669</ele><time>2026-04-18T18:06:20.828Z</time></trkpt><trkpt lat="45.456644" lon="11.177148"><ele>133.0</ele><time>2026-04-18T18:06:21.823Z</time></trkpt><trkpt lat="45.4564436" lon="11.1771312"><ele>132.0</ele><time>2026-04-18T18:06:22.826Z</time></trkpt><trkpt lat="45.4562431" lon="11.1771065"><ele>131.0</ele><time>2026-04-18T18:06:23.838Z</time></trkpt><trkpt lat="45.4560431" lon="11.1770747"><ele>130.0</ele><time>2026-04-18T18:06:24.824Z</time></trkpt><trkpt lat="45.4558425" lon="11.1770379"><ele>130.0</ele><time>2026-04-18T18:06:25.827Z</time></trkpt><trkpt lat="45.455642" lon="11.1770012"><ele>130.0</ele><time>2026-04-18T18:06:26.825Z</time></trkpt><trkpt lat="45.4554408" lon="11.1769685"><ele>130.0</ele><time>2026-04-18T18:06:27.824Z</time></trkpt><trkpt lat="45.4552391" lon="11.1769354"><ele>129.0</ele><time>2026-04-18T18:06:28.821Z</time></trkpt><trkpt lat="45.4550385" lon="11.1769004"><ele>128.0</ele><time>2026-04-18T18:06:29.837Z</time></trkpt><trkpt lat="45.4548377" lon="11.1768677"><ele>127.0</ele><time>2026-04-18T18:06:30.827Z</time></trkpt><trkpt lat="45.4546367" lon="11.1768401"><ele>126.33333333333334</ele><time>2026-04-18T18:06:31.835Z</time></trkpt><trkpt lat="45.4544354" lon="11.1768232"><ele>125.66666666666666</ele><time>2026-04-18T18:06:32.821Z</time></trkpt><trkpt lat="45.4542342" lon="11.1768171"><ele>125.0</ele><time>2026-04-18T18:06:33.828Z</time></trkpt><trkpt lat="45.4540336" lon="11.1768252"><ele>125.0</ele><time>2026-04-18T18:06:34.829Z</time></trkpt><trkpt lat="45.4538335" lon="11.1768392"><ele>125.0</ele><time>2026-04-18T18:06:35.825Z</time></trkpt><trkpt lat="45.4536346" lon="11.1768509"><ele>125.0</ele><time>2026-04-18T18:06:36.826Z</time></trkpt><trkpt lat="45.4534396" lon="11.1768627"><ele>124.33333333333333</ele><time>2026-04-18T18:06:37.825Z</time></trkpt><trkpt lat="45.453241" lon="11.1768746"><ele>123.66666666666666</ele><time>2026-04-18T18:06:38.827Z</time></trkpt><trkpt lat="45.4530438" lon="11.1768913"><ele>123.0</ele><time>2026-04-18T18:06:39.831Z</time></trkpt><trkpt lat="45.4528446" lon="11.1769173"><ele>122.33333333333334</ele><time>2026-04-18T18:06:40.831Z</time></trkpt><trkpt lat="45.4526332" lon="11.1769598"><ele>121.66666666666667</ele><time>2026-04-18T18:06:41.828Z</time></trkpt><trkpt lat="45.452403" lon="11.1770241"><ele>121.0</ele><time>2026-04-18T18:06:42.824Z</time></trkpt><trkpt lat="45.4521518" lon="11.1770958"><ele>120.0</ele><time>2026-04-18T18:06:43.828Z</time></trkpt><trkpt lat="45.4518863" lon="11.1771674"><ele>119.0</ele><time>2026-04-18T18:06:44.827Z</time></trkpt><trkpt lat="45.4516045" lon="11.177248"><ele>119.0</ele><time>2026-04-18T18:06:45.827Z</time></trkpt><trkpt lat="45.4513344" lon="11.1773296"><ele>119.0</ele><time>2026-04-18T18:06:46.827Z</time></trkpt><trkpt lat="45.4510802" lon="11.1774087"><ele>118.0</ele><time>2026-04-18T18:06:47.826Z</time></trkpt><trkpt lat="45.4508318" lon="11.1774805"><ele>117.0</ele><time>2026-04-18T18:06:48.825Z</time></trkpt><trkpt lat="45.4505851" lon="11.1775512"><ele>115.5</ele><time>2026-04-18T18:06:49.827Z</time></trkpt><trkpt lat="45.450343" lon="11.1776223"><ele>114.0</ele><time>2026-04-18T18:06:50.826Z</time></trkpt><trkpt lat="45.4500968" lon="11.177688"><ele>114.0</ele><time>2026-04-18T18:06:51.826Z</time></trkpt><trkpt lat="45.4498399" lon="11.1777496"><ele>114.0</ele><time>2026-04-18T18:06:52.826Z</time></trkpt><trkpt lat="45.4495648" lon="11.1777944"><ele>113.0</ele><time>2026-04-18T18:06:53.823Z</time></trkpt><trkpt lat="45.4492977" lon="11.1778243"><ele>112.0</ele><time>2026-04-18T18:06:54.824Z</time></trkpt><trkpt lat="45.4490515" lon="11.1778532"><ele>112.0</ele><time>2026-04-18T18:06:55.827Z</time></trkpt><trkpt lat="45.4488247" lon="11.1778869"><ele>112.0</ele><time>2026-04-18T18:06:56.831Z</time></trkpt><trkpt lat="45.448612" lon="11.1779191"><ele>112.0</ele><time>2026-04-18T18:06:57.824Z</time></trkpt><trkpt lat="45.4484061" lon="11.1779494"><ele>111.66666666666667</ele><time>2026-04-18T18:06:58.831Z</time></trkpt><trkpt lat="45.4482021" lon="11.1779771"><ele>111.33333333333334</ele><time>2026-04-18T18:06:59.828Z</time></trkpt><trkpt lat="45.4479996" lon="11.1780029"><ele>111.0</ele><time>2026-04-18T18:07:00.827Z</time></trkpt><trkpt lat="45.4478002" lon="11.1780309"><ele>110.33333333333334</ele><time>2026-04-18T18:07:01.826Z</time></trkpt><trkpt lat="45.4476034" lon="11.1780596"><ele>109.66666666666667</ele><time>2026-04-18T18:07:02.834Z</time></trkpt><trkpt lat="45.4474061" lon="11.1780881"><ele>109.0</ele><time>2026-04-18T18:07:03.826Z</time></trkpt><trkpt lat="45.4472087" lon="11.1781143"><ele>108.0</ele><time>2026-04-18T18:07:04.824Z</time></trkpt><trkpt lat="45.4470118" lon="11.1781406"><ele>107.0</ele><time>2026-04-18T18:07:05.834Z</time></trkpt><trkpt lat="45.4468142" lon="11.1781623"><ele>106.0</ele><time>2026-04-18T18:07:06.825Z</time></trkpt><trkpt lat="45.4466213" lon="11.1781733"><ele>106.0</ele><time>2026-04-18T18:07:07.825Z</time></trkpt><trkpt lat="45.4464332" lon="11.1781705"><ele>106.0</ele><time>2026-04-18T18:07:08.827Z</time></trkpt><trkpt lat="45.4462435" lon="11.1781549"><ele>106.0</ele><time>2026-04-18T18:07:09.83Z</time></trkpt><trkpt lat="45.4460559" lon="11.1781459"><ele>105.66666666666667</ele><time>2026-04-18T18:07:10.827Z</time></trkpt><trkpt lat="45.4458721" lon="11.1781437"><ele>105.33333333333334</ele><time>2026-04-18T18:07:11.83Z</time></trkpt><trkpt lat="45.4456908" lon="11.1781609"><ele>105.0</ele><time>2026-04-18T18:07:12.83Z</time></trkpt><trkpt lat="45.4455115" lon="11.1782064"><ele>104.66666666666666</ele><time>2026-04-18T18:07:13.83Z</time></trkpt><trkpt lat="45.4453352" lon="11.1782808"><ele>104.33333333333333</ele><time>2026-04-18T18:07:14.833Z</time></trkpt><trkpt lat="45.445159" lon="11.178373"><ele>104.0</ele><time>2026-04-18T18:07:15.821Z</time></trkpt><trkpt lat="45.4449829" lon="11.1784601"><ele>104.0</ele><time>2026-04-18T18:07:16.829Z</time></trkpt><trkpt lat="45.4448084" lon="11.1785424"><ele>104.0</ele><time>2026-04-18T18:07:17.835Z</time></trkpt><trkpt lat="45.4446369" lon="11.1786219"><ele>104.0</ele><time>2026-04-18T18:07:18.827Z</time></trkpt><trkpt lat="45.4444683" lon="11.1787"><ele>103.66666666666666</ele><time>2026-04-18T18:07:19.827Z</time></trkpt><trkpt lat="45.4442967" lon="11.1787659"><ele>103.33333333333334</ele><time>2026-04-18T18:07:20.825Z</time></trkpt><trkpt lat="45.444122" lon="11.1788011"><ele>103.0</ele><time>2026-04-18T18:07:21.831Z</time></trkpt><trkpt lat="45.4439458" lon="11.1788028"><ele>101.66666666666667</ele><time>2026-04-18T18:07:22.819Z</time></trkpt><trkpt lat="45.443767" lon="11.1787804"><ele>100.33333333333334</ele><time>2026-04-18T18:07:23.827Z</time></trkpt><trkpt lat="45.4435823" lon="11.1787625"><ele>99.0</ele><time>2026-04-18T18:07:24.83Z</time></trkpt><trkpt lat="45.4433886" lon="11.1787511"><ele>99.0</ele><time>2026-04-18T18:07:25.83Z</time></trkpt><trkpt lat="45.4432011" lon="11.1787471"><ele>99.0</ele><time>2026-04-18T18:07:26.828Z</time></trkpt><trkpt lat="45.4430195" lon="11.178759"><ele>99.0</ele><time>2026-04-18T18:07:27.828Z</time></trkpt><trkpt lat="45.4428342" lon="11.1787759"><ele>98.0</ele><time>2026-04-18T18:07:28.826Z</time></trkpt><trkpt lat="45.4426495" lon="11.1787921"><ele>97.0</ele><time>2026-04-18T18:07:29.827Z</time></trkpt><trkpt lat="45.4424706" lon="11.1788072"><ele>96.0</ele><time>2026-04-18T18:07:30.828Z</time></trkpt><trkpt lat="45.4422919" lon="11.178822"><ele>95.33333333333333</ele><time>2026-04-18T18:07:31.825Z</time></trkpt><trkpt lat="45.442128" lon="11.1788312"><ele>94.66666666666666</ele><time>2026-04-18T18:07:32.828Z</time></trkpt><trkpt lat="45.4419668" lon="11.178844"><ele>94.0</ele><time>2026-04-18T18:07:33.827Z</time></trkpt><trkpt lat="45.4418054" lon="11.1788534"><ele>94.0</ele><time>2026-04-18T18:07:34.828Z</time></trkpt><trkpt lat="45.4416565" lon="11.1788488"><ele>94.0</ele><time>2026-04-18T18:07:35.823Z</time></trkpt><trkpt lat="45.4415266" lon="11.1788329"><ele>94.0</ele><time>2026-04-18T18:07:36.829Z</time></trkpt><trkpt lat="45.4414173" lon="11.1788179"><ele>94.0</ele><time>2026-04-18T18:07:37.824Z</time></trkpt><trkpt lat="45.4413257" lon="11.1787999"><ele>93.80000000000001</ele><time>2026-04-18T18:07:38.834Z</time></trkpt><trkpt lat="45.4412465" lon="11.1787812"><ele>93.60000000000001</ele><time>2026-04-18T18:07:39.823Z</time></trkpt><trkpt lat="45.4411328" lon="11.1787561"><ele>93.4</ele><time>2026-04-18T18:07:41.829Z</time></trkpt><trkpt lat="45.4410412" lon="11.1787312"><ele>93.2</ele><time>2026-04-18T18:07:43.83Z</time></trkpt><trkpt lat="45.440957" lon="11.1787024"><ele>93.0</ele><time>2026-04-18T18:07:45.827Z</time></trkpt><trkpt lat="45.4408561" lon="11.1786795"><ele>93.0</ele><time>2026-04-18T18:07:47.826Z</time></trkpt><trkpt lat="45.4407946" lon="11.1787855"><ele>93.0</ele><time>2026-04-18T18:07:49.821Z</time></trkpt><trkpt lat="45.4407844" lon="11.1788937"><ele>93.0</ele><time>2026-04-18T18:07:50.824Z</time></trkpt><trkpt lat="45.4407797" lon="11.1790215"><ele>93.0</ele><time>2026-04-18T18:07:51.825Z</time></trkpt><trkpt lat="45.4407775" lon="11.1791557"><ele>93.0</ele><time>2026-04-18T18:07:52.836Z</time></trkpt><trkpt lat="45.4407799" lon="11.1792912"><ele>93.0</ele><time>2026-04-18T18:07:53.829Z</time></trkpt><trkpt lat="45.4407787" lon="11.1794289"><ele>93.0</ele><time>2026-04-18T18:07:54.827Z</time></trkpt><trkpt lat="45.4407704" lon="11.1795633"><ele>93.0</ele><time>2026-04-18T18:07:55.838Z</time></trkpt><trkpt lat="45.4407614" lon="11.1796937"><ele>93.0</ele><time>2026-04-18T18:07:56.83Z</time></trkpt><trkpt lat="45.4407539" lon="11.1798274"><ele>93.0</ele><time>2026-04-18T18:07:57.836Z</time></trkpt><trkpt lat="45.4407438" lon="11.1799765"><ele>92.80000000000001</ele><time>2026-04-18T18:07:58.825Z</time></trkpt><trkpt lat="45.4407365" lon="11.1801232"><ele>92.6</ele><time>2026-04-18T18:07:59.828Z</time></trkpt><trkpt lat="45.440736" lon="11.1802656"><ele>92.4</ele><time>2026-04-18T18:08:00.827Z</time></trkpt><trkpt lat="45.4407452" lon="11.1804037"><ele>92.19999999999999</ele><time>2026-04-18T18:08:01.823Z</time></trkpt><trkpt lat="45.4407512" lon="11.1805432"><ele>92.0</ele><time>2026-04-18T18:08:02.824Z</time></trkpt><trkpt lat="45.4407599" lon="11.1806929"><ele>92.0</ele><time>2026-04-18T18:08:03.833Z</time></trkpt><trkpt lat="45.4407727" lon="11.1808545"><ele>92.0</ele><time>2026-04-18T18:08:04.826Z</time></trkpt><trkpt lat="45.440784" lon="11.1810385"><ele>92.0</ele><time>2026-04-18T18:08:05.834Z</time></trkpt><trkpt lat="45.4407819" lon="11.1812462"><ele>92.0</ele><time>2026-04-18T18:08:06.824Z</time></trkpt><trkpt lat="45.4407684" lon="11.1814377"><ele>92.25</ele><time>2026-04-18T18:08:07.822Z</time></trkpt><trkpt lat="45.4407519" lon="11.1816336"><ele>92.5</ele><time>2026-04-18T18:08:08.826Z</time></trkpt><trkpt lat="45.4407329" lon="11.1818306"><ele>92.75</ele><time>2026-04-18T18:08:09.828Z</time></trkpt><trkpt lat="45.4407116" lon="11.1820203"><ele>93.0</ele><time>2026-04-18T18:08:10.826Z</time></trkpt><trkpt lat="45.4406889" lon="11.1822059"><ele>93.0</ele><time>2026-04-18T18:08:11.825Z</time></trkpt><trkpt lat="45.4406712" lon="11.1823941"><ele>93.0</ele><time>2026-04-18T18:08:12.838Z</time></trkpt><trkpt lat="45.440674" lon="11.1826038"><ele>93.0</ele><time>2026-04-18T18:08:13.822Z</time></trkpt><trkpt lat="45.4406719" lon="11.1827896"><ele>93.0</ele><time>2026-04-18T18:08:14.831Z</time></trkpt><trkpt lat="45.4406652" lon="11.1829791"><ele>93.0</ele><time>2026-04-18T18:08:15.829Z</time></trkpt><trkpt lat="45.4406568" lon="11.1831609"><ele>93.0</ele><time>2026-04-18T18:08:16.829Z</time></trkpt><trkpt lat="45.4406421" lon="11.1833463"><ele>93.0</ele><time>2026-04-18T18:08:17.831Z</time></trkpt><trkpt lat="45.4406283" lon="11.1835117"><ele>93.0</ele><time>2026-04-18T18:08:18.826Z</time></trkpt><trkpt lat="45.4406189" lon="11.1836597"><ele>92.80000000000001</ele><time>2026-04-18T18:08:19.825Z</time></trkpt><trkpt lat="45.4406054" lon="11.1837933"><ele>92.6</ele><time>2026-04-18T18:08:20.823Z</time></trkpt><trkpt lat="45.4405703" lon="11.1839273"><ele>92.4</ele><time>2026-04-18T18:08:21.833Z</time></trkpt><trkpt lat="45.4405261" lon="11.1840584"><ele>92.19999999999999</ele><time>2026-04-18T18:08:22.825Z</time></trkpt><trkpt lat="45.4404789" lon="11.1841818"><ele>92.0</ele><time>2026-04-18T18:08:23.824Z</time></trkpt><trkpt lat="45.4404286" lon="11.1842996"><ele>92.0</ele><time>2026-04-18T18:08:24.828Z</time></trkpt><trkpt lat="45.4403776" lon="11.1844254"><ele>92.0</ele><time>2026-04-18T18:08:25.826Z</time></trkpt><trkpt lat="45.440324" lon="11.1845657"><ele>92.0</ele><time>2026-04-18T18:08:26.829Z</time></trkpt><trkpt lat="45.4402951" lon="11.1847273"><ele>92.0</ele><time>2026-04-18T18:08:27.827Z</time></trkpt><trkpt lat="45.4402848" lon="11.1849201"><ele>92.0</ele><time>2026-04-18T18:08:28.828Z</time></trkpt><trkpt lat="45.4402922" lon="11.1851462"><ele>92.0</ele><time>2026-04-18T18:08:29.826Z</time></trkpt><trkpt lat="45.4402922" lon="11.1854078"><ele>92.0</ele><time>2026-04-18T18:08:30.824Z</time></trkpt><trkpt lat="45.440286" lon="11.1856555"><ele>92.0</ele><time>2026-04-18T18:08:31.822Z</time></trkpt><trkpt lat="45.4402891" lon="11.1858952"><ele>92.0</ele><time>2026-04-18T18:08:32.825Z</time></trkpt><trkpt lat="45.440306" lon="11.1861392"><ele>92.0</ele><time>2026-04-18T18:08:33.828Z</time></trkpt><trkpt lat="45.4403175" lon="11.1863625"><ele>91.66666666666667</ele><time>2026-04-18T18:08:34.831Z</time></trkpt><trkpt lat="45.440327" lon="11.1865763"><ele>91.33333333333333</ele><time>2026-04-18T18:08:35.831Z</time></trkpt><trkpt lat="45.4403224" lon="11.1867969"><ele>91.0</ele><time>2026-04-18T18:08:36.824Z</time></trkpt><trkpt lat="45.4403029" lon="11.1870142"><ele>91.0</ele><time>2026-04-18T18:08:37.827Z</time></trkpt><trkpt lat="45.4402815" lon="11.1872135"><ele>91.0</ele><time>2026-04-18T18:08:38.826Z</time></trkpt><trkpt lat="45.440253" lon="11.1874198"><ele>91.0</ele><time>2026-04-18T18:08:39.841Z</time></trkpt><trkpt lat="45.4402282" lon="11.18763"><ele>91.0</ele><time>2026-04-18T18:08:40.839Z</time></trkpt><trkpt lat="45.4402105" lon="11.1878532"><ele>91.19999999999999</ele><time>2026-04-18T18:08:41.832Z</time></trkpt><trkpt lat="45.4401881" lon="11.1880481"><ele>91.39999999999999</ele><time>2026-04-18T18:08:42.828Z</time></trkpt><trkpt lat="45.4401647" lon="11.1882227"><ele>91.6</ele><time>2026-04-18T18:08:43.833Z</time></trkpt><trkpt lat="45.4401494" lon="11.1883601"><ele>91.8</ele><time>2026-04-18T18:08:44.821Z</time></trkpt><trkpt lat="45.4401589" lon="11.1884837"><ele>92.0</ele><time>2026-04-18T18:08:45.827Z</time></trkpt><trkpt lat="45.4402013" lon="11.1886103"><ele>92.25</ele><time>2026-04-18T18:08:46.824Z</time></trkpt><trkpt lat="45.4402741" lon="11.1887608"><ele>92.5</ele><time>2026-04-18T18:08:47.833Z</time></trkpt><trkpt lat="45.4403399" lon="11.1889398"><ele>92.75</ele><time>2026-04-18T18:08:48.83Z</time></trkpt><trkpt lat="45.4403866" lon="11.1891323"><ele>93.0</ele><time>2026-04-18T18:08:49.827Z</time></trkpt><trkpt lat="45.4404206" lon="11.1892978"><ele>93.4</ele><time>2026-04-18T18:08:50.83Z</time></trkpt><trkpt lat="45.4404504" lon="11.1894396"><ele>93.80000000000001</ele><time>2026-04-18T18:08:51.823Z</time></trkpt><trkpt lat="45.4404873" lon="11.1895463"><ele>94.2</ele><time>2026-04-18T18:08:52.826Z</time></trkpt><trkpt lat="45.4405513" lon="11.1896233"><ele>94.6</ele><time>2026-04-18T18:08:53.829Z</time></trkpt><trkpt lat="45.440648" lon="11.1896786"><ele>95.0</ele><time>2026-04-18T18:08:54.826Z</time></trkpt><trkpt lat="45.4407573" lon="11.1897417"><ele>96.4</ele><time>2026-04-18T18:08:55.825Z</time></trkpt><trkpt lat="45.4408853" lon="11.1897868"><ele>97.8</ele><time>2026-04-18T18:08:56.819Z</time></trkpt><trkpt lat="45.4409877" lon="11.18982"><ele>99.19999999999999</ele><time>2026-04-18T18:08:57.827Z</time></trkpt><trkpt lat="45.4410807" lon="11.1898563"><ele>100.6</ele><time>2026-04-18T18:08:58.825Z</time></trkpt><trkpt lat="45.4411783" lon="11.1899395"><ele>102.0</ele><time>2026-04-18T18:08:59.828Z</time></trkpt><trkpt lat="45.4412675" lon="11.190035"><ele>105.25</ele><time>2026-04-18T18:09:00.827Z</time></trkpt><trkpt lat="45.4413734" lon="11.190148"><ele>108.5</ele><time>2026-04-18T18:09:01.829Z</time></trkpt><trkpt lat="45.4414835" lon="11.1902671"><ele>111.75</ele><time>2026-04-18T18:09:02.825Z</time></trkpt><trkpt lat="45.441578" lon="11.1903734"><ele>115.0</ele><time>2026-04-18T18:09:03.832Z</time></trkpt><trkpt lat="45.4416554" lon="11.1904997"><ele>115.0</ele><time>2026-04-18T18:09:04.836Z</time></trkpt><trkpt lat="45.4417238" lon="11.1906451"><ele>115.0</ele><time>2026-04-18T18:09:05.825Z</time></trkpt><trkpt lat="45.4417993" lon="11.1907974"><ele>115.0</ele><time>2026-04-18T18:09:06.83Z</time></trkpt><trkpt lat="45.4418821" lon="11.1909578"><ele>115.0</ele><time>2026-04-18T18:09:07.826Z</time></trkpt><trkpt lat="45.4419697" lon="11.1911404"><ele>117.33333333333334</ele><time>2026-04-18T18:09:08.827Z</time></trkpt><trkpt lat="45.4420589" lon="11.1913546"><ele>119.66666666666666</ele><time>2026-04-18T18:09:09.826Z</time></trkpt><trkpt lat="45.4421544" lon="11.1915912"><ele>122.0</ele><time>2026-04-18T18:09:10.828Z</time></trkpt><trkpt lat="45.4422316" lon="11.1917991"><ele>123.0</ele><time>2026-04-18T18:09:11.827Z</time></trkpt><trkpt lat="45.4422813" lon="11.1919893"><ele>124.0</ele><time>2026-04-18T18:09:12.826Z</time></trkpt><trkpt lat="45.4423189" lon="11.1921792"><ele>125.0</ele><time>2026-04-18T18:09:13.825Z</time></trkpt><trkpt lat="45.4423559" lon="11.1923735"><ele>126.0</ele><time>2026-04-18T18:09:14.829Z</time></trkpt><trkpt lat="45.4423879" lon="11.1925114"><ele>126.5</ele><time>2026-04-18T18:09:15.827Z</time></trkpt><trkpt lat="45.4423966" lon="11.1926174"><ele>127.0</ele><time>2026-04-18T18:09:16.827Z</time></trkpt><trkpt lat="45.4423774" lon="11.1927326"><ele>127.5</ele><time>2026-04-18T18:09:17.828Z</time></trkpt><trkpt lat="45.4423252" lon="11.1928266"><ele>128.0</ele><time>2026-04-18T18:09:18.826Z</time></trkpt><trkpt lat="45.4422433" lon="11.192907"><ele>128.5</ele><time>2026-04-18T18:09:19.826Z</time></trkpt><trkpt lat="45.4421592" lon="11.1929992"><ele>129.0</ele><time>2026-04-18T18:09:20.823Z</time></trkpt><trkpt lat="45.4420922" lon="11.1931259"><ele>130.75</ele><time>2026-04-18T18:09:21.827Z</time></trkpt><trkpt lat="45.4420434" lon="11.193273"><ele>132.5</ele><time>2026-04-18T18:09:22.837Z</time></trkpt><trkpt lat="45.4420267" lon="11.1934033"><ele>134.25</ele><time>2026-04-18T18:09:23.822Z</time></trkpt><trkpt lat="45.442047" lon="11.1935542"><ele>136.0</ele><time>2026-04-18T18:09:24.827Z</time></trkpt><trkpt lat="45.4421083" lon="11.1937294"><ele>137.0</ele><time>2026-04-18T18:09:25.829Z</time></trkpt><trkpt lat="45.4421859" lon="11.1939171"><ele>138.0</ele><time>2026-04-18T18:09:26.829Z</time></trkpt><trkpt lat="45.4422667" lon="11.194138"><ele>139.0</ele><time>2026-04-18T18:09:27.825Z</time></trkpt><trkpt lat="45.4423575" lon="11.1943759"><ele>140.0</ele><time>2026-04-18T18:09:28.826Z</time></trkpt><trkpt lat="45.4424349" lon="11.1945749"><ele>141.0</ele><time>2026-04-18T18:09:29.824Z</time></trkpt><trkpt lat="45.4425028" lon="11.1947582"><ele>142.0</ele><time>2026-04-18T18:09:30.825Z</time></trkpt><trkpt lat="45.442567" lon="11.194934"><ele>143.0</ele><time>2026-04-18T18:09:31.821Z</time></trkpt><trkpt lat="45.4426284" lon="11.1951023"><ele>144.75</ele><time>2026-04-18T18:09:32.828Z</time></trkpt><trkpt lat="45.4426898" lon="11.1952735"><ele>146.5</ele><time>2026-04-18T18:09:33.826Z</time></trkpt><trkpt lat="45.4427454" lon="11.195445"><ele>148.25</ele><time>2026-04-18T18:09:34.822Z</time></trkpt><trkpt lat="45.4427886" lon="11.1956078"><ele>150.0</ele><time>2026-04-18T18:09:35.83Z</time></trkpt><trkpt lat="45.4428146" lon="11.1957476"><ele>151.6</ele><time>2026-04-18T18:09:36.828Z</time></trkpt><trkpt lat="45.4428232" lon="11.1958824"><ele>153.2</ele><time>2026-04-18T18:09:37.825Z</time></trkpt><trkpt lat="45.4428234" lon="11.1960277"><ele>154.8</ele><time>2026-04-18T18:09:38.823Z</time></trkpt><trkpt lat="45.4428111" lon="11.1961816"><ele>156.4</ele><time>2026-04-18T18:09:39.823Z</time></trkpt><trkpt lat="45.4427788" lon="11.1963176"><ele>158.0</ele><time>2026-04-18T18:09:40.828Z</time></trkpt><trkpt lat="45.4427291" lon="11.1964412"><ele>159.66666666666666</ele><time>2026-04-18T18:09:41.829Z</time></trkpt><trkpt lat="45.4426599" lon="11.1965455"><ele>161.33333333333331</ele><time>2026-04-18T18:09:42.825Z</time></trkpt><trkpt lat="45.4425684" lon="11.1966321"><ele>163.0</ele><time>2026-04-18T18:09:43.822Z</time></trkpt><trkpt lat="45.4424915" lon="11.1967083"><ele>164.66666666666666</ele><time>2026-04-18T18:09:44.829Z</time></trkpt><trkpt lat="45.4424494" lon="11.1967894"><ele>166.33333333333334</ele><time>2026-04-18T18:09:45.827Z</time></trkpt><trkpt lat="45.4424352" lon="11.1968935"><ele>168.0</ele><time>2026-04-18T18:09:46.82Z</time></trkpt><trkpt lat="45.4424565" lon="11.1970045"><ele>168.0</ele><time>2026-04-18T18:09:47.826Z</time></trkpt><trkpt lat="45.4424939" lon="11.1971158"><ele>168.0</ele><time>2026-04-18T18:09:48.828Z</time></trkpt><trkpt lat="45.442523" lon="11.1972233"><ele>168.0</ele><time>2026-04-18T18:09:49.83Z</time></trkpt><trkpt lat="45.4425461" lon="11.1973134"><ele>168.0</ele><time>2026-04-18T18:09:50.831Z</time></trkpt><trkpt lat="45.4426062" lon="11.1974373"><ele>168.0</ele><time>2026-04-18T18:09:52.824Z</time></trkpt><trkpt lat="45.4426406" lon="11.1975798"><ele>168.0</ele><time>2026-04-18T18:09:54.827Z</time></trkpt><trkpt lat="45.4426639" lon="11.1976832"><ele>170.16666666666666</ele><time>2026-04-18T18:09:57.822Z</time></trkpt><trkpt lat="45.4427477" lon="11.1977414"><ele>172.33333333333334</ele><time>2026-04-18T18:09:59.831Z</time></trkpt><trkpt lat="45.4428674" lon="11.197769"><ele>174.5</ele><time>2026-04-18T18:10:01.823Z</time></trkpt><trkpt lat="45.4429366" lon="11.197788"><ele>176.66666666666669</ele><time>2026-04-18T18:10:02.823Z</time></trkpt><trkpt lat="45.4430032" lon="11.1978083"><ele>178.83333333333334</ele><time>2026-04-18T18:10:03.822Z</time></trkpt><trkpt lat="45.4430757" lon="11.1978492"><ele>181.0</ele><time>2026-04-18T18:10:04.823Z</time></trkpt><trkpt lat="45.4431342" lon="11.1979076"><ele>181.20000000000002</ele><time>2026-04-18T18:10:05.82Z</time></trkpt><trkpt lat="45.4431945" lon="11.1979899"><ele>181.4</ele><time>2026-04-18T18:10:06.824Z</time></trkpt><trkpt lat="45.4432599" lon="11.1981071"><ele>181.6</ele><time>2026-04-18T18:10:07.823Z</time></trkpt><trkpt lat="45.443305" lon="11.198218"><ele>181.8</ele><time>2026-04-18T18:10:08.821Z</time></trkpt><trkpt lat="45.443345" lon="11.1983495"><ele>182.0</ele><time>2026-04-18T18:10:09.826Z</time></trkpt><trkpt lat="45.4433828" lon="11.1984872"><ele>181.6</ele><time>2026-04-18T18:10:10.824Z</time></trkpt><trkpt lat="45.4434154" lon="11.1986211"><ele>181.2</ele><time>2026-04-18T18:10:11.824Z</time></trkpt><trkpt lat="45.4434416" lon="11.198747"><ele>180.8</ele><time>2026-04-18T18:10:12.821Z</time></trkpt><trkpt lat="45.4434715" lon="11.1988753"><ele>180.4</ele><time>2026-04-18T18:10:13.829Z</time></trkpt><trkpt lat="45.4435125" lon="11.1989894"><ele>180.0</ele><time>2026-04-18T18:10:14.833Z</time></trkpt><trkpt lat="45.4435512" lon="11.1990932"><ele>179.83333333333334</ele><time>2026-04-18T18:10:15.83Z</time></trkpt><trkpt lat="45.4435983" lon="11.1991918"><ele>179.66666666666666</ele><time>2026-04-18T18:10:16.824Z</time></trkpt><trkpt lat="45.4436511" lon="11.1992728"><ele>179.5</ele><time>2026-04-18T18:10:17.828Z</time></trkpt><trkpt lat="45.4437179" lon="11.1993341"><ele>179.33333333333331</ele><time>2026-04-18T18:10:18.83Z</time></trkpt><trkpt lat="45.4437929" lon="11.1993964"><ele>179.16666666666666</ele><time>2026-04-18T18:10:19.829Z</time></trkpt><trkpt lat="45.443854" lon="11.1994692"><ele>179.0</ele><time>2026-04-18T18:10:20.828Z</time></trkpt><trkpt lat="45.4439118" lon="11.1995418"><ele>179.0</ele><time>2026-04-18T18:10:21.828Z</time></trkpt><trkpt lat="45.4439617" lon="11.1996143"><ele>179.0</ele><time>2026-04-18T18:10:22.824Z</time></trkpt><trkpt lat="45.4440442" lon="11.1997391"><ele>179.0</ele><time>2026-04-18T18:10:24.841Z</time></trkpt><trkpt lat="45.4441208" lon="11.1998583"><ele>179.0</ele><time>2026-04-18T18:10:26.831Z</time></trkpt><trkpt lat="45.4441801" lon="11.1999891"><ele>179.0</ele><time>2026-04-18T18:10:28.826Z</time></trkpt><trkpt lat="45.4442392" lon="11.2001264"><ele>176.39999999999998</ele><time>2026-04-18T18:10:30.826Z</time></trkpt><trkpt lat="45.4443195" lon="11.2002269"><ele>173.8</ele><time>2026-04-18T18:10:32.826Z</time></trkpt><trkpt lat="45.4444154" lon="11.2003061"><ele>171.2</ele><time>2026-04-18T18:10:34.827Z</time></trkpt><trkpt lat="45.4445112" lon="11.2003716"><ele>168.60000000000002</ele><time>2026-04-18T18:10:36.826Z</time></trkpt><trkpt lat="45.444623" lon="11.200434"><ele>166.0</ele><time>2026-04-18T18:10:38.825Z</time></trkpt><trkpt lat="45.4446836" lon="11.2004998"><ele>166.0</ele><time>2026-04-18T18:10:39.83Z</time></trkpt><trkpt lat="45.4447373" lon="11.2005606"><ele>166.0</ele><time>2026-04-18T18:10:40.82Z</time></trkpt><trkpt lat="45.444792" lon="11.2006226"><ele>166.0</ele><time>2026-04-18T18:10:41.832Z</time></trkpt><trkpt lat="45.4448491" lon="11.2006841"><ele>166.0</ele><time>2026-04-18T18:10:42.825Z</time></trkpt><trkpt lat="45.4449051" lon="11.2007447"><ele>166.0</ele><time>2026-04-18T18:10:43.83Z</time></trkpt><trkpt lat="45.4449591" lon="11.2008038"><ele>166.0</ele><time>2026-04-18T18:10:44.827Z</time></trkpt><trkpt lat="45.4450141" lon="11.2008583"><ele>166.0</ele><time>2026-04-18T18:10:45.832Z</time></trkpt><trkpt lat="45.4450674" lon="11.2009119"><ele>162.16666666666669</ele><time>2026-04-18T18:10:46.827Z</time></trkpt><trkpt lat="45.4451185" lon="11.2009697"><ele>158.33333333333334</ele><time>2026-04-18T18:10:47.833Z</time></trkpt><trkpt lat="45.4451659" lon="11.201029"><ele>154.5</ele><time>2026-04-18T18:10:48.828Z</time></trkpt><trkpt lat="45.4452604" lon="11.2011462"><ele>150.66666666666666</ele><time>2026-04-18T18:10:50.825Z</time></trkpt><trkpt lat="45.4453183" lon="11.2012091"><ele>146.83333333333331</ele><time>2026-04-18T18:10:51.83Z</time></trkpt><trkpt lat="45.4453793" lon="11.2012714"><ele>143.0</ele><time>2026-04-18T18:10:52.832Z</time></trkpt><trkpt lat="45.4454419" lon="11.2013299"><ele>142.85714285714283</ele><time>2026-04-18T18:10:53.822Z</time></trkpt><trkpt lat="45.4455068" lon="11.2013904"><ele>142.71428571428572</ele><time>2026-04-18T18:10:54.826Z</time></trkpt><trkpt lat="45.4455728" lon="11.201451"><ele>142.57142857142856</ele><time>2026-04-18T18:10:55.831Z</time></trkpt><trkpt lat="45.4456382" lon="11.2015091"><ele>142.42857142857142</ele><time>2026-04-18T18:10:56.825Z</time></trkpt><trkpt lat="45.4456997" lon="11.2015697"><ele>142.28571428571428</ele><time>2026-04-18T18:10:57.822Z</time></trkpt><trkpt lat="45.4457486" lon="11.2016378"><ele>142.14285714285714</ele><time>2026-04-18T18:10:58.822Z</time></trkpt><trkpt lat="45.4457922" lon="11.2017139"><ele>142.0</ele><time>2026-04-18T18:10:59.825Z</time></trkpt><trkpt lat="45.4458423" lon="11.2018034"><ele>139.66666666666669</ele><time>2026-04-18T18:11:00.828Z</time></trkpt><trkpt lat="45.4458982" lon="11.2018895"><ele>137.33333333333334</ele><time>2026-04-18T18:11:01.83Z</time></trkpt><trkpt lat="45.4459523" lon="11.2019788"><ele>135.0</ele><time>2026-04-18T18:11:02.829Z</time></trkpt><trkpt lat="45.4459995" lon="11.202067"><ele>132.66666666666666</ele><time>2026-04-18T18:11:03.828Z</time></trkpt><trkpt lat="45.4460472" lon="11.2021827"><ele>130.33333333333331</ele><time>2026-04-18T18:11:04.828Z</time></trkpt><trkpt lat="45.4460922" lon="11.2023033"><ele>128.0</ele><time>2026-04-18T18:11:05.826Z</time></trkpt><trkpt lat="45.4461304" lon="11.2024177"><ele>126.49999999999999</ele><time>2026-04-18T18:11:06.822Z</time></trkpt><trkpt lat="45.4461649" lon="11.202535"><ele>125.0</ele><time>2026-04-18T18:11:07.829Z</time></trkpt><trkpt lat="45.4461954" lon="11.2026504"><ele>123.5</ele><time>2026-04-18T18:11:08.83Z</time></trkpt><trkpt lat="45.4462278" lon="11.2027638"><ele>122.0</ele><time>2026-04-18T18:11:09.83Z</time></trkpt><trkpt lat="45.4462665" lon="11.2028771"><ele>120.49999999999999</ele><time>2026-04-18T18:11:10.827Z</time></trkpt><trkpt lat="45.4463001" lon="11.2029959"><ele>119.0</ele><time>2026-04-18T18:11:11.824Z</time></trkpt><trkpt lat="45.44633" lon="11.2031141"><ele>117.49999999999999</ele><time>2026-04-18T18:11:12.823Z</time></trkpt><trkpt lat="45.4463535" lon="11.2032235"><ele>116.0</ele><time>2026-04-18T18:11:13.832Z</time></trkpt><trkpt lat="45.4463761" lon="11.2033328"><ele>114.5</ele><time>2026-04-18T18:11:14.83Z</time></trkpt><trkpt lat="45.4463989" lon="11.2034324"><ele>113.0</ele><time>2026-04-18T18:11:15.826Z</time></trkpt><trkpt lat="45.4464211" lon="11.2035389"><ele>111.49999999999999</ele><time>2026-04-18T18:11:16.825Z</time></trkpt><trkpt lat="45.4464826" lon="11.2036943"><ele>110.0</ele><time>2026-04-18T18:11:18.824Z</time></trkpt><trkpt lat="45.4465173" lon="11.203772"><ele>109.99999999999999</ele><time>2026-04-18T18:11:19.83Z</time></trkpt><trkpt lat="45.4465445" lon="11.2038585"><ele>110.0</ele><time>2026-04-18T18:11:20.828Z</time></trkpt><trkpt lat="45.4465767" lon="11.2039365"><ele>110.0</ele><time>2026-04-18T18:11:21.83Z</time></trkpt><trkpt lat="45.4466184" lon="11.2040181"><ele>110.0</ele><time>2026-04-18T18:11:22.828Z</time></trkpt><trkpt lat="45.4466722" lon="11.2041157"><ele>110.0</ele><time>2026-04-18T18:11:23.829Z</time></trkpt><trkpt lat="45.4467286" lon="11.2041986"><ele>109.99999999999999</ele><time>2026-04-18T18:11:24.831Z</time></trkpt><trkpt lat="45.4467851" lon="11.20428"><ele>110.0</ele><time>2026-04-18T18:11:25.824Z</time></trkpt><trkpt lat="45.4468363" lon="11.2043612"><ele>107.33333333333333</ele><time>2026-04-18T18:11:26.825Z</time></trkpt><trkpt lat="45.4468969" lon="11.2044541"><ele>104.66666666666666</ele><time>2026-04-18T18:11:27.83Z</time></trkpt><trkpt lat="45.4469549" lon="11.2045321"><ele>102.0</ele><time>2026-04-18T18:11:28.828Z</time></trkpt><trkpt lat="45.4470167" lon="11.2046081"><ele>99.33333333333333</ele><time>2026-04-18T18:11:29.824Z</time></trkpt><trkpt lat="45.4470695" lon="11.2046845"><ele>96.66666666666666</ele><time>2026-04-18T18:11:30.829Z</time></trkpt><trkpt lat="45.4471173" lon="11.2047833"><ele>94.0</ele><time>2026-04-18T18:11:31.826Z</time></trkpt><trkpt lat="45.4471529" lon="11.2048841"><ele>90.60000000000001</ele><time>2026-04-18T18:11:32.822Z</time></trkpt><trkpt lat="45.4471922" lon="11.2049957"><ele>87.2</ele><time>2026-04-18T18:11:33.822Z</time></trkpt><trkpt lat="45.4472175" lon="11.2051436"><ele>83.80000000000001</ele><time>2026-04-18T18:11:34.826Z</time></trkpt><trkpt lat="45.447247" lon="11.2052775"><ele>80.4</ele><time>2026-04-18T18:11:35.827Z</time></trkpt><trkpt lat="45.4472778" lon="11.2054125"><ele>77.0</ele><time>2026-04-18T18:11:36.824Z</time></trkpt><trkpt lat="45.4473051" lon="11.2055461"><ele>76.33333333333334</ele><time>2026-04-18T18:11:37.828Z</time></trkpt><trkpt lat="45.4473334" lon="11.2056797"><ele>75.66666666666667</ele><time>2026-04-18T18:11:38.824Z</time></trkpt><trkpt lat="45.4473609" lon="11.2058099"><ele>75.0</ele><time>2026-04-18T18:11:39.832Z</time></trkpt><trkpt lat="45.4473773" lon="11.2059239"><ele>74.33333333333333</ele><time>2026-04-18T18:11:40.823Z</time></trkpt><trkpt lat="45.447382" lon="11.2060418"><ele>73.66666666666666</ele><time>2026-04-18T18:11:41.826Z</time></trkpt><trkpt lat="45.4473887" lon="11.2061695"><ele>73.0</ele><time>2026-04-18T18:11:42.824Z</time></trkpt><trkpt lat="45.4473982" lon="11.2062977"><ele>73.0</ele><time>2026-04-18T18:11:43.828Z</time></trkpt><trkpt lat="45.4474044" lon="11.2064309"><ele>73.0</ele><time>2026-04-18T18:11:44.824Z</time></trkpt><trkpt lat="45.4474169" lon="11.2065803"><ele>73.0</ele><time>2026-04-18T18:11:45.829Z</time></trkpt><trkpt lat="45.4474356" lon="11.2067342"><ele>73.0</ele><time>2026-04-18T18:11:46.829Z</time></trkpt><trkpt lat="45.4474509" lon="11.2068792"><ele>73.0</ele><time>2026-04-18T18:11:47.824Z</time></trkpt><trkpt lat="45.4474686" lon="11.207015"><ele>72.16666666666666</ele><time>2026-04-18T18:11:48.829Z</time></trkpt><trkpt lat="45.4474844" lon="11.2071443"><ele>71.33333333333333</ele><time>2026-04-18T18:11:49.837Z</time></trkpt><trkpt lat="45.4475045" lon="11.2072675"><ele>70.5</ele><time>2026-04-18T18:11:50.826Z</time></trkpt><trkpt lat="45.4475248" lon="11.2073957"><ele>69.66666666666667</ele><time>2026-04-18T18:11:51.821Z</time></trkpt><trkpt lat="45.4475432" lon="11.2075108"><ele>68.83333333333334</ele><time>2026-04-18T18:11:52.828Z</time></trkpt><trkpt lat="45.4475595" lon="11.2076182"><ele>68.0</ele><time>2026-04-18T18:11:53.823Z</time></trkpt><trkpt lat="45.4475847" lon="11.2077071"><ele>67.4</ele><time>2026-04-18T18:11:54.824Z</time></trkpt><trkpt lat="45.4475713" lon="11.2078577"><ele>66.8</ele><time>2026-04-18T18:11:56.828Z</time></trkpt><trkpt lat="45.4475189" lon="11.208004"><ele>66.2</ele><time>2026-04-18T18:11:58.824Z</time></trkpt><trkpt lat="45.4474923" lon="11.2081852"><ele>65.6</ele><time>2026-04-18T18:12:00.821Z</time></trkpt><trkpt lat="45.4474826" lon="11.2082821"><ele>65.0</ele><time>2026-04-18T18:12:01.821Z</time></trkpt><trkpt lat="45.4474766" lon="11.2083811"><ele>63.8</ele><time>2026-04-18T18:12:02.827Z</time></trkpt><trkpt lat="45.4475174" lon="11.2085428"><ele>62.6</ele><time>2026-04-18T18:12:04.819Z</time></trkpt><trkpt lat="45.4476233" lon="11.2086308"><ele>61.400000000000006</ele><time>2026-04-18T18:12:06.824Z</time></trkpt><trkpt lat="45.4476955" lon="11.2086576"><ele>60.2</ele><time>2026-04-18T18:12:07.822Z</time></trkpt><trkpt lat="45.4477896" lon="11.208771"><ele>59.0</ele><time>2026-04-18T18:12:09.823Z</time></trkpt><trkpt lat="45.447824" lon="11.2088734"><ele>58.0</ele><time>2026-04-18T18:12:10.826Z</time></trkpt><trkpt lat="45.4478514" lon="11.2090109"><ele>57.00000000000001</ele><time>2026-04-18T18:12:11.821Z</time></trkpt><trkpt lat="45.4478788" lon="11.2091756"><ele>56.00000000000001</ele><time>2026-04-18T18:12:12.827Z</time></trkpt><trkpt lat="45.4479013" lon="11.2093138"><ele>55.0</ele><time>2026-04-18T18:12:13.824Z</time></trkpt><trkpt lat="45.4479321" lon="11.2094392"><ele>54.0</ele><time>2026-04-18T18:12:14.825Z</time></trkpt><trkpt lat="45.4479543" lon="11.2095548"><ele>53.833333333333336</ele><time>2026-04-18T18:12:15.828Z</time></trkpt><trkpt lat="45.447975" lon="11.2096636"><ele>53.66666666666667</ele><time>2026-04-18T18:12:16.82Z</time></trkpt><trkpt lat="45.4479982" lon="11.2097721"><ele>53.5</ele><time>2026-04-18T18:12:17.828Z</time></trkpt><trkpt lat="45.4480157" lon="11.2098857"><ele>53.333333333333336</ele><time>2026-04-18T18:12:18.823Z</time></trkpt><trkpt lat="45.4480354" lon="11.2100011"><ele>53.16666666666667</ele><time>2026-04-18T18:12:19.823Z</time></trkpt><trkpt lat="45.4480559" lon="11.2101104"><ele>53.0</ele><time>2026-04-18T18:12:20.822Z</time></trkpt><trkpt lat="45.4480681" lon="11.2102153"><ele>52.50000000000001</ele><time>2026-04-18T18:12:21.83Z</time></trkpt><trkpt lat="45.44807" lon="11.2103121"><ele>52.0</ele><time>2026-04-18T18:12:22.823Z</time></trkpt><trkpt lat="45.4479889" lon="11.2104314"><ele>51.5</ele><time>2026-04-18T18:12:24.825Z</time></trkpt><trkpt lat="45.4479166" lon="11.2104644"><ele>51.0</ele><time>2026-04-18T18:12:25.822Z</time></trkpt><trkpt lat="45.4478341" lon="11.2104991"><ele>50.50000000000001</ele><time>2026-04-18T18:12:26.832Z</time></trkpt><trkpt lat="45.4477463" lon="11.2105359"><ele>50.0</ele><time>2026-04-18T18:12:27.826Z</time></trkpt><trkpt lat="45.4476553" lon="11.2105709"><ele>50.0</ele><time>2026-04-18T18:12:28.82Z</time></trkpt><trkpt lat="45.4475667" lon="11.2106128"><ele>50.0</ele><time>2026-04-18T18:12:29.821Z</time></trkpt><trkpt lat="45.447479" lon="11.2106485"><ele>50.0</ele><time>2026-04-18T18:12:30.827Z</time></trkpt><trkpt lat="45.4473889" lon="11.2106859"><ele>50.0</ele><time>2026-04-18T18:12:31.82Z</time></trkpt><trkpt lat="45.447298" lon="11.2107188"><ele>50.0</ele><time>2026-04-18T18:12:32.822Z</time></trkpt><trkpt lat="45.4472024" lon="11.210754"><ele>50.50000000000001</ele><time>2026-04-18T18:12:33.823Z</time></trkpt><trkpt lat="45.4471065" lon="11.2107927"><ele>51.0</ele><time>2026-04-18T18:12:34.831Z</time></trkpt><trkpt lat="45.4470114" lon="11.2108254"><ele>51.5</ele><time>2026-04-18T18:12:35.824Z</time></trkpt><trkpt lat="45.446925" lon="11.2108651"><ele>52.0</ele><time>2026-04-18T18:12:36.82Z</time></trkpt><trkpt lat="45.4468444" lon="11.2108898"><ele>52.50000000000001</ele><time>2026-04-18T18:12:37.822Z</time></trkpt><trkpt lat="45.446769" lon="11.2109156"><ele>53.0</ele><time>2026-04-18T18:12:38.83Z</time></trkpt><trkpt lat="45.4466864" lon="11.2109502"><ele>53.0</ele><time>2026-04-18T18:12:39.826Z</time></trkpt><trkpt lat="45.4466022" lon="11.2109862"><ele>53.0</ele><time>2026-04-18T18:12:40.825Z</time></trkpt><trkpt lat="45.446514" lon="11.2110199"><ele>53.0</ele><time>2026-04-18T18:12:41.828Z</time></trkpt><trkpt lat="45.4464138" lon="11.2110598"><ele>53.0</ele><time>2026-04-18T18:12:42.832Z</time></trkpt><trkpt lat="45.4463032" lon="11.2111135"><ele>53.0</ele><time>2026-04-18T18:12:43.825Z</time></trkpt><trkpt lat="45.446185" lon="11.2111741"><ele>52.25</ele><time>2026-04-18T18:12:44.827Z</time></trkpt><trkpt lat="45.4460591" lon="11.2112286"><ele>51.5</ele><time>2026-04-18T18:12:45.824Z</time></trkpt><trkpt lat="45.4459378" lon="11.2112764"><ele>50.75</ele><time>2026-04-18T18:12:46.828Z</time></trkpt><trkpt lat="45.4458194" lon="11.2113243"><ele>50.0</ele><time>2026-04-18T18:12:47.825Z</time></trkpt><trkpt lat="45.4457104" lon="11.2113703"><ele>50.0</ele><time>2026-04-18T18:12:48.821Z</time></trkpt><trkpt lat="45.4456039" lon="11.2114157"><ele>50.0</ele><time>2026-04-18T18:12:49.823Z</time></trkpt><trkpt lat="45.4454903" lon="11.2114662"><ele>50.0</ele><time>2026-04-18T18:12:50.825Z</time></trkpt><trkpt lat="45.445377" lon="11.2115164"><ele>50.0</ele><time>2026-04-18T18:12:51.822Z</time></trkpt><trkpt lat="45.4452626" lon="11.2115695"><ele>49.75</ele><time>2026-04-18T18:12:52.824Z</time></trkpt><trkpt lat="45.4451492" lon="11.2116208"><ele>49.5</ele><time>2026-04-18T18:12:53.825Z</time></trkpt><trkpt lat="45.4450365" lon="11.2116707"><ele>49.25</ele><time>2026-04-18T18:12:54.824Z</time></trkpt><trkpt lat="45.4449258" lon="11.2117122"><ele>49.0</ele><time>2026-04-18T18:12:55.829Z</time></trkpt><trkpt lat="45.4448185" lon="11.2117518"><ele>49.0</ele><time>2026-04-18T18:12:56.82Z</time></trkpt><trkpt lat="45.4447131" lon="11.2118025"><ele>49.0</ele><time>2026-04-18T18:12:57.82Z</time></trkpt><trkpt lat="45.4446058" lon="11.2118502"><ele>49.0</ele><time>2026-04-18T18:12:58.823Z</time></trkpt><trkpt lat="45.4444979" lon="11.211891"><ele>49.0</ele><time>2026-04-18T18:12:59.825Z</time></trkpt><trkpt lat="45.4443805" lon="11.2119307"><ele>49.5</ele><time>2026-04-18T18:13:00.825Z</time></trkpt><trkpt lat="45.4442653" lon="11.2119763"><ele>50.0</ele><time>2026-04-18T18:13:01.824Z</time></trkpt><trkpt lat="45.4441511" lon="11.2120204"><ele>50.5</ele><time>2026-04-18T18:13:02.831Z</time></trkpt><trkpt lat="45.4440416" lon="11.2120649"><ele>51.0</ele><time>2026-04-18T18:13:03.82Z</time></trkpt><trkpt lat="45.4439295" lon="11.2121145"><ele>51.0</ele><time>2026-04-18T18:13:04.824Z</time></trkpt><trkpt lat="45.4438168" lon="11.2121595"><ele>51.0</ele><time>2026-04-18T18:13:05.823Z</time></trkpt><trkpt lat="45.4437097" lon="11.2122033"><ele>51.0</ele><time>2026-04-18T18:13:06.827Z</time></trkpt><trkpt lat="45.4436027" lon="11.2122463"><ele>51.0</ele><time>2026-04-18T18:13:07.828Z</time></trkpt><trkpt lat="45.443493" lon="11.212289"><ele>51.0</ele><time>2026-04-18T18:13:08.827Z</time></trkpt><trkpt lat="45.4433803" lon="11.2123286"><ele>51.0</ele><time>2026-04-18T18:13:09.828Z</time></trkpt><trkpt lat="45.4432681" lon="11.2123696"><ele>51.0</ele><time>2026-04-18T18:13:10.821Z</time></trkpt><trkpt lat="45.4431604" lon="11.2124156"><ele>51.0</ele><time>2026-04-18T18:13:11.826Z</time></trkpt><trkpt lat="45.4430528" lon="11.2124629"><ele>52.0</ele><time>2026-04-18T18:13:12.826Z</time></trkpt><trkpt lat="45.4429548" lon="11.2125033"><ele>53.0</ele><time>2026-04-18T18:13:13.832Z</time></trkpt><trkpt lat="45.4428703" lon="11.2125362"><ele>53.99999999999999</ele><time>2026-04-18T18:13:14.822Z</time></trkpt><trkpt lat="45.4428073" lon="11.2125636"><ele>55.0</ele><time>2026-04-18T18:13:15.824Z</time></trkpt><trkpt lat="45.4427222" lon="11.2126312"><ele>56.0</ele><time>2026-04-18T18:13:17.835Z</time></trkpt><trkpt lat="45.4426887" lon="11.2127884"><ele>56.00000000000001</ele><time>2026-04-18T18:13:19.826Z</time></trkpt><trkpt lat="45.4426882" lon="11.2129108"><ele>56.0</ele><time>2026-04-18T18:13:20.829Z</time></trkpt><trkpt lat="45.4426914" lon="11.213039"><ele>56.0</ele><time>2026-04-18T18:13:21.828Z</time></trkpt><trkpt lat="45.442693" lon="11.2131547"><ele>56.0</ele><time>2026-04-18T18:13:22.826Z</time></trkpt><trkpt lat="45.4426846" lon="11.2132555"><ele>56.00000000000001</ele><time>2026-04-18T18:13:23.825Z</time></trkpt><trkpt lat="45.4426476" lon="11.2133303"><ele>56.0</ele><time>2026-04-18T18:13:24.829Z</time></trkpt><trkpt lat="45.4425897" lon="11.2133751"><ele>54.25</ele><time>2026-04-18T18:13:25.825Z</time></trkpt><trkpt lat="45.4425127" lon="11.2134084"><ele>52.5</ele><time>2026-04-18T18:13:26.827Z</time></trkpt><trkpt lat="45.442417" lon="11.2134355"><ele>50.75</ele><time>2026-04-18T18:13:27.83Z</time></trkpt><trkpt lat="45.4422927" lon="11.2134793"><ele>49.0</ele><time>2026-04-18T18:13:28.824Z</time></trkpt><trkpt lat="45.4421532" lon="11.2135291"><ele>49.0</ele><time>2026-04-18T18:13:29.828Z</time></trkpt><trkpt lat="45.441997" lon="11.2135774"><ele>49.0</ele><time>2026-04-18T18:13:30.827Z</time></trkpt><trkpt lat="45.4418582" lon="11.2136155"><ele>49.0</ele><time>2026-04-18T18:13:31.823Z</time></trkpt><trkpt lat="45.4417368" lon="11.2136496"><ele>49.0</ele><time>2026-04-18T18:13:32.822Z</time></trkpt><trkpt lat="45.4416354" lon="11.2136824"><ele>49.0</ele><time>2026-04-18T18:13:33.828Z</time></trkpt><trkpt lat="45.4415548" lon="11.2137098"><ele>49.0</ele><time>2026-04-18T18:13:34.826Z</time></trkpt><trkpt lat="45.4414866" lon="11.21373"><ele>49.0</ele><time>2026-04-18T18:13:35.828Z</time></trkpt><trkpt lat="45.4413909" lon="11.2137511"><ele>49.0</ele><time>2026-04-18T18:13:37.828Z</time></trkpt><trkpt lat="45.4412677" lon="11.2137406"><ele>49.0</ele><time>2026-04-18T18:13:39.823Z</time></trkpt><trkpt lat="45.4411892" lon="11.2137502"><ele>49.800000000000004</ele><time>2026-04-18T18:13:40.823Z</time></trkpt><trkpt lat="45.441105" lon="11.2138054"><ele>50.6</ele><time>2026-04-18T18:13:41.823Z</time></trkpt><trkpt lat="45.4410247" lon="11.2138987"><ele>51.4</ele><time>2026-04-18T18:13:42.829Z</time></trkpt><trkpt lat="45.4409451" lon="11.2140265"><ele>52.2</ele><time>2026-04-18T18:13:43.83Z</time></trkpt><trkpt lat="45.4408693" lon="11.2141628"><ele>53.0</ele><time>2026-04-18T18:13:44.823Z</time></trkpt><trkpt lat="45.4408103" lon="11.2143142"><ele>53.0</ele><time>2026-04-18T18:13:45.832Z</time></trkpt><trkpt lat="45.4407889" lon="11.2144821"><ele>53.0</ele><time>2026-04-18T18:13:46.826Z</time></trkpt><trkpt lat="45.4407724" lon="11.2146607"><ele>53.0</ele><time>2026-04-18T18:13:47.825Z</time></trkpt><trkpt lat="45.4407436" lon="11.2148344"><ele>53.0</ele><time>2026-04-18T18:13:48.824Z</time></trkpt><trkpt lat="45.4407015" lon="11.2149967"><ele>52.0</ele><time>2026-04-18T18:13:49.824Z</time></trkpt><trkpt lat="45.4406393" lon="11.2151441"><ele>51.0</ele><time>2026-04-18T18:13:50.826Z</time></trkpt><trkpt lat="45.4405595" lon="11.215266"><ele>50.0</ele><time>2026-04-18T18:13:51.829Z</time></trkpt><trkpt lat="45.4404638" lon="11.2153636"><ele>49.0</ele><time>2026-04-18T18:13:52.825Z</time></trkpt><trkpt lat="45.4403549" lon="11.2154511"><ele>51.75</ele><time>2026-04-18T18:13:53.827Z</time></trkpt><trkpt lat="45.4402229" lon="11.2155135"><ele>54.5</ele><time>2026-04-18T18:13:54.822Z</time></trkpt><trkpt lat="45.4400737" lon="11.2155579"><ele>57.25</ele><time>2026-04-18T18:13:55.82Z</time></trkpt><trkpt lat="45.4399224" lon="11.2155851"><ele>60.0</ele><time>2026-04-18T18:13:56.821Z</time></trkpt><trkpt lat="45.4397733" lon="11.2156068"><ele>59.5</ele><time>2026-04-18T18:13:57.829Z</time></trkpt><trkpt lat="45.4396329" lon="11.2156346"><ele>59.0</ele><time>2026-04-18T18:13:58.827Z</time></trkpt><trkpt lat="45.4395049" lon="11.2156693"><ele>58.5</ele><time>2026-04-18T18:13:59.82Z</time></trkpt><trkpt lat="45.439384" lon="11.2157079"><ele>58.0</ele><time>2026-04-18T18:14:00.828Z</time></trkpt><trkpt lat="45.4392719" lon="11.2157451"><ele>56.4</ele><time>2026-04-18T18:14:01.824Z</time></trkpt><trkpt lat="45.4391723" lon="11.2157839"><ele>54.8</ele><time>2026-04-18T18:14:02.822Z</time></trkpt><trkpt lat="45.4390736" lon="11.2158281"><ele>53.2</ele><time>2026-04-18T18:14:03.824Z</time></trkpt><trkpt lat="45.4389771" lon="11.2158781"><ele>51.6</ele><time>2026-04-18T18:14:04.827Z</time></trkpt><trkpt lat="45.4388839" lon="11.2159307"><ele>50.0</ele><time>2026-04-18T18:14:05.821Z</time></trkpt><trkpt lat="45.438791" lon="11.2159881"><ele>49.833333333333336</ele><time>2026-04-18T18:14:06.825Z</time></trkpt><trkpt lat="45.4387061" lon="11.2160365"><ele>49.66666666666667</ele><time>2026-04-18T18:14:07.824Z</time></trkpt><trkpt lat="45.4386264" lon="11.216078"><ele>49.5</ele><time>2026-04-18T18:14:08.82Z</time></trkpt><trkpt lat="45.4385645" lon="11.2161184"><ele>49.33333333333333</ele><time>2026-04-18T18:14:09.83Z</time></trkpt><trkpt lat="45.4385113" lon="11.2161745"><ele>49.166666666666664</ele><time>2026-04-18T18:14:10.841Z</time></trkpt><trkpt lat="45.4384438" lon="11.2162946"><ele>49.0</ele><time>2026-04-18T18:14:12.827Z</time></trkpt><trkpt lat="45.4385004" lon="11.2162386"><ele>49.0</ele><time>2026-04-18T18:14:19.826Z</time></trkpt><trkpt lat="45.4386067" lon="11.2161272"><ele>49.0</ele><time>2026-04-18T18:14:21.827Z</time></trkpt><trkpt lat="45.4386887" lon="11.2160761"><ele>49.0</ele><time>2026-04-18T18:14:22.83Z</time></trkpt><trkpt lat="45.4387768" lon="11.2160237"><ele>49.0</ele><time>2026-04-18T18:14:23.826Z</time></trkpt><trkpt lat="45.4388677" lon="11.215971"><ele>49.0</ele><time>2026-04-18T18:14:24.831Z</time></trkpt><trkpt lat="45.4389582" lon="11.2159192"><ele>49.166666666666664</ele><time>2026-04-18T18:14:25.825Z</time></trkpt><trkpt lat="45.4390477" lon="11.2158716"><ele>49.33333333333333</ele><time>2026-04-18T18:14:26.833Z</time></trkpt><trkpt lat="45.4391206" lon="11.2158318"><ele>49.5</ele><time>2026-04-18T18:14:27.84Z</time></trkpt><trkpt lat="45.439186" lon="11.2157652"><ele>49.66666666666667</ele><time>2026-04-18T18:14:28.835Z</time></trkpt><trkpt lat="45.4392541" lon="11.2156884"><ele>49.833333333333336</ele><time>2026-04-18T18:14:29.825Z</time></trkpt><trkpt lat="45.4393395" lon="11.2156419"><ele>50.0</ele><time>2026-04-18T18:14:30.825Z</time></trkpt><trkpt lat="45.4394259" lon="11.2155912"><ele>51.6</ele><time>2026-04-18T18:14:31.825Z</time></trkpt><trkpt lat="45.4395133" lon="11.2155425"><ele>53.2</ele><time>2026-04-18T18:14:32.826Z</time></trkpt><trkpt lat="45.4396027" lon="11.2154963"><ele>54.8</ele><time>2026-04-18T18:14:33.829Z</time></trkpt><trkpt lat="45.4396826" lon="11.2154605"><ele>56.4</ele><time>2026-04-18T18:14:34.822Z</time></trkpt><trkpt lat="45.439791" lon="11.2153968"><ele>58.0</ele><time>2026-04-18T18:14:36.828Z</time></trkpt><trkpt lat="45.4398379" lon="11.2152171"><ele>58.4</ele><time>2026-04-18T18:14:38.823Z</time></trkpt><trkpt lat="45.4398258" lon="11.2151071"><ele>58.8</ele><time>2026-04-18T18:14:39.828Z</time></trkpt><trkpt lat="45.4398209" lon="11.2149861"><ele>59.2</ele><time>2026-04-18T18:14:40.824Z</time></trkpt><trkpt lat="45.4398239" lon="11.2148625"><ele>59.6</ele><time>2026-04-18T18:14:41.826Z</time></trkpt><trkpt lat="45.4398322" lon="11.2147257"><ele>60.0</ele><time>2026-04-18T18:14:42.827Z</time></trkpt><trkpt lat="45.4398544" lon="11.2145757"><ele>60.75</ele><time>2026-04-18T18:14:43.832Z</time></trkpt><trkpt lat="45.4398859" lon="11.2144123"><ele>61.5</ele><time>2026-04-18T18:14:44.828Z</time></trkpt><trkpt lat="45.4399102" lon="11.2142467"><ele>62.25</ele><time>2026-04-18T18:14:45.824Z</time></trkpt><trkpt lat="45.4399391" lon="11.2140855"><ele>63.0</ele><time>2026-04-18T18:14:46.827Z</time></trkpt><trkpt lat="45.4399683" lon="11.213935"><ele>65.2</ele><time>2026-04-18T18:14:47.827Z</time></trkpt><trkpt lat="45.4399924" lon="11.2138061"><ele>67.4</ele><time>2026-04-18T18:14:48.823Z</time></trkpt><trkpt lat="45.440016" lon="11.213686"><ele>69.60000000000001</ele><time>2026-04-18T18:14:49.821Z</time></trkpt><trkpt lat="45.440024" lon="11.2135732"><ele>71.8</ele><time>2026-04-18T18:14:50.829Z</time></trkpt><trkpt lat="45.4399835" lon="11.2134562"><ele>74.0</ele><time>2026-04-18T18:14:51.822Z</time></trkpt><trkpt lat="45.439918" lon="11.2133338"><ele>74.0</ele><time>2026-04-18T18:14:52.828Z</time></trkpt><trkpt lat="45.4398503" lon="11.2132005"><ele>74.0</ele><time>2026-04-18T18:14:53.82Z</time></trkpt><trkpt lat="45.4397844" lon="11.2130748"><ele>74.0</ele><time>2026-04-18T18:14:54.821Z</time></trkpt><trkpt lat="45.4397318" lon="11.2129774"><ele>74.0</ele><time>2026-04-18T18:14:55.822Z</time></trkpt><trkpt lat="45.4396835" lon="11.2128727"><ele>74.0</ele><time>2026-04-18T18:14:56.826Z</time></trkpt><trkpt lat="45.4396524" lon="11.2127612"><ele>76.2</ele><time>2026-04-18T18:14:57.833Z</time></trkpt><trkpt lat="45.4396386" lon="11.2126332"><ele>78.4</ele><time>2026-04-18T18:14:58.823Z</time></trkpt><trkpt lat="45.4396321" lon="11.2125109"><ele>80.6</ele><time>2026-04-18T18:14:59.827Z</time></trkpt><trkpt lat="45.4396264" lon="11.2123838"><ele>82.8</ele><time>2026-04-18T18:15:00.823Z</time></trkpt><trkpt lat="45.439615" lon="11.2122551"><ele>85.0</ele><time>2026-04-18T18:15:01.824Z</time></trkpt><trkpt lat="45.4395982" lon="11.2121251"><ele>86.5</ele><time>2026-04-18T18:15:02.824Z</time></trkpt><trkpt lat="45.4395895" lon="11.211991"><ele>88.0</ele><time>2026-04-18T18:15:03.83Z</time></trkpt><trkpt lat="45.4396042" lon="11.2118692"><ele>89.5</ele><time>2026-04-18T18:15:04.826Z</time></trkpt><trkpt lat="45.4396408" lon="11.2117762"><ele>91.0</ele><time>2026-04-18T18:15:05.829Z</time></trkpt><trkpt lat="45.4396977" lon="11.2116843"><ele>92.5</ele><time>2026-04-18T18:15:06.83Z</time></trkpt><trkpt lat="45.4397629" lon="11.2116037"><ele>94.0</ele><time>2026-04-18T18:15:07.824Z</time></trkpt><trkpt lat="45.4398359" lon="11.2115426"><ele>94.0</ele><time>2026-04-18T18:15:08.826Z</time></trkpt><trkpt lat="45.4398949" lon="11.2114908"><ele>94.0</ele><time>2026-04-18T18:15:09.822Z</time></trkpt><trkpt lat="45.4399351" lon="11.2114026"><ele>94.0</ele><time>2026-04-18T18:15:10.829Z</time></trkpt><trkpt lat="45.4399529" lon="11.2112875"><ele>94.0</ele><time>2026-04-18T18:15:11.822Z</time></trkpt><trkpt lat="45.4399529" lon="11.211139"><ele>94.0</ele><time>2026-04-18T18:15:12.823Z</time></trkpt><trkpt lat="45.4399622" lon="11.2109805"><ele>94.0</ele><time>2026-04-18T18:15:13.829Z</time></trkpt><trkpt lat="45.4399676" lon="11.2108135"><ele>96.0</ele><time>2026-04-18T18:15:14.825Z</time></trkpt><trkpt lat="45.4399608" lon="11.2106716"><ele>98.0</ele><time>2026-04-18T18:15:15.831Z</time></trkpt><trkpt lat="45.4399398" lon="11.2105616"><ele>100.0</ele><time>2026-04-18T18:15:16.821Z</time></trkpt><trkpt lat="45.4399125" lon="11.2104615"><ele>102.0</ele><time>2026-04-18T18:15:17.827Z</time></trkpt><trkpt lat="45.4398654" lon="11.2103896"><ele>104.00000000000001</ele><time>2026-04-18T18:15:18.826Z</time></trkpt><trkpt lat="45.4397915" lon="11.2103504"><ele>106.0</ele><time>2026-04-18T18:15:19.829Z</time></trkpt><trkpt lat="45.4397162" lon="11.2103357"><ele>108.0</ele><time>2026-04-18T18:15:20.835Z</time></trkpt><trkpt lat="45.4396417" lon="11.2103139"><ele>110.0</ele><time>2026-04-18T18:15:21.826Z</time></trkpt><trkpt lat="45.4396008" lon="11.2102078"><ele>112.0</ele><time>2026-04-18T18:15:23.83Z</time></trkpt><trkpt lat="45.4396387" lon="11.2100445"><ele>114.0</ele><time>2026-04-18T18:15:25.827Z</time></trkpt><trkpt lat="45.4397602" lon="11.2099745"><ele>116.0</ele><time>2026-04-18T18:15:26.839Z</time></trkpt><trkpt lat="45.4398418" lon="11.2098823"><ele>117.66666666666666</ele><time>2026-04-18T18:15:27.822Z</time></trkpt><trkpt lat="45.4399178" lon="11.2097908"><ele>119.33333333333333</ele><time>2026-04-18T18:15:28.83Z</time></trkpt><trkpt lat="45.4399737" lon="11.2097219"><ele>121.0</ele><time>2026-04-18T18:15:29.827Z</time></trkpt><trkpt lat="45.4400317" lon="11.2095771"><ele>122.66666666666666</ele><time>2026-04-18T18:15:31.828Z</time></trkpt><trkpt lat="45.4400182" lon="11.2094856"><ele>124.33333333333333</ele><time>2026-04-18T18:15:32.828Z</time></trkpt><trkpt lat="45.4399748" lon="11.2094059"><ele>126.0</ele><time>2026-04-18T18:15:33.825Z</time></trkpt><trkpt lat="45.4399213" lon="11.2093383"><ele>126.0</ele><time>2026-04-18T18:15:34.834Z</time></trkpt><trkpt lat="45.4398576" lon="11.2092806"><ele>126.0</ele><time>2026-04-18T18:15:35.83Z</time></trkpt><trkpt lat="45.4397801" lon="11.2092419"><ele>126.0</ele><time>2026-04-18T18:15:36.825Z</time></trkpt><trkpt lat="45.439694" lon="11.2092239"><ele>126.0</ele><time>2026-04-18T18:15:37.825Z</time></trkpt><trkpt lat="45.4395933" lon="11.2092225"><ele>126.0</ele><time>2026-04-18T18:15:38.829Z</time></trkpt><trkpt lat="45.4394896" lon="11.2092243"><ele>126.0</ele><time>2026-04-18T18:15:39.834Z</time></trkpt><trkpt lat="45.439383" lon="11.2092217"><ele>128.4</ele><time>2026-04-18T18:15:40.832Z</time></trkpt><trkpt lat="45.4392758" lon="11.2092123"><ele>130.8</ele><time>2026-04-18T18:15:41.826Z</time></trkpt><trkpt lat="45.4391651" lon="11.2092059"><ele>133.20000000000002</ele><time>2026-04-18T18:15:42.83Z</time></trkpt><trkpt lat="45.4390722" lon="11.2091594"><ele>135.6</ele><time>2026-04-18T18:15:43.824Z</time></trkpt><trkpt lat="45.4389701" lon="11.2091342"><ele>138.0</ele><time>2026-04-18T18:15:44.82Z</time></trkpt><trkpt lat="45.4388642" lon="11.2091086"><ele>139.5</ele><time>2026-04-18T18:15:45.823Z</time></trkpt><trkpt lat="45.4387611" lon="11.2090837"><ele>141.0</ele><time>2026-04-18T18:15:46.825Z</time></trkpt><trkpt lat="45.4386947" lon="11.2090461"><ele>142.5</ele><time>2026-04-18T18:15:47.827Z</time></trkpt><trkpt lat="45.4386137" lon="11.2090058"><ele>144.0</ele><time>2026-04-18T18:15:48.827Z</time></trkpt><trkpt lat="45.4385359" lon="11.2089553"><ele>145.5</ele><time>2026-04-18T18:15:49.824Z</time></trkpt><trkpt lat="45.4384665" lon="11.2088882"><ele>147.0</ele><time>2026-04-18T18:15:50.822Z</time></trkpt><trkpt lat="45.4384021" lon="11.2088034"><ele>148.66666666666666</ele><time>2026-04-18T18:15:51.835Z</time></trkpt><trkpt lat="45.4383486" lon="11.2087056"><ele>150.33333333333334</ele><time>2026-04-18T18:15:52.823Z</time></trkpt><trkpt lat="45.4383021" lon="11.2086009"><ele>152.0</ele><time>2026-04-18T18:15:53.826Z</time></trkpt><trkpt lat="45.4382518" lon="11.2084867"><ele>153.66666666666669</ele><time>2026-04-18T18:15:54.829Z</time></trkpt><trkpt lat="45.4382146" lon="11.2083725"><ele>155.33333333333334</ele><time>2026-04-18T18:15:55.83Z</time></trkpt><trkpt lat="45.4381957" lon="11.2082781"><ele>157.0</ele><time>2026-04-18T18:15:56.824Z</time></trkpt><trkpt lat="45.4381836" lon="11.2081713"><ele>158.0</ele><time>2026-04-18T18:15:57.825Z</time></trkpt><trkpt lat="45.4381956" lon="11.2080689"><ele>159.0</ele><time>2026-04-18T18:15:58.827Z</time></trkpt><trkpt lat="45.4382396" lon="11.207957"><ele>160.0</ele><time>2026-04-18T18:15:59.831Z</time></trkpt><trkpt lat="45.4382798" lon="11.2078454"><ele>161.0</ele><time>2026-04-18T18:16:00.826Z</time></trkpt><trkpt lat="45.4383193" lon="11.2077324"><ele>162.0</ele><time>2026-04-18T18:16:01.821Z</time></trkpt><trkpt lat="45.4383534" lon="11.2076371"><ele>163.0</ele><time>2026-04-18T18:16:02.825Z</time></trkpt><trkpt lat="45.4383877" lon="11.2075129"><ele>163.0</ele><time>2026-04-18T18:16:04.827Z</time></trkpt><trkpt lat="45.4384124" lon="11.2073928"><ele>163.0</ele><time>2026-04-18T18:16:06.828Z</time></trkpt><trkpt lat="45.4385147" lon="11.2072194"><ele>163.0</ele><time>2026-04-18T18:16:08.83Z</time></trkpt><trkpt lat="45.438573" lon="11.2070817"><ele>163.0</ele><time>2026-04-18T18:16:09.826Z</time></trkpt><trkpt lat="45.4386441" lon="11.2069358"><ele>162.4</ele><time>2026-04-18T18:16:10.822Z</time></trkpt><trkpt lat="45.4387114" lon="11.206803"><ele>161.8</ele><time>2026-04-18T18:16:11.824Z</time></trkpt><trkpt lat="45.4387678" lon="11.2066917"><ele>161.2</ele><time>2026-04-18T18:16:12.822Z</time></trkpt><trkpt lat="45.4388216" lon="11.2065886"><ele>160.6</ele><time>2026-04-18T18:16:13.824Z</time></trkpt><trkpt lat="45.4388793" lon="11.2064873"><ele>160.0</ele><time>2026-04-18T18:16:14.821Z</time></trkpt><trkpt lat="45.4389443" lon="11.2063926"><ele>161.2</ele><time>2026-04-18T18:16:15.823Z</time></trkpt><trkpt lat="45.4390126" lon="11.2062944"><ele>162.4</ele><time>2026-04-18T18:16:16.823Z</time></trkpt><trkpt lat="45.4390846" lon="11.2061867"><ele>163.60000000000002</ele><time>2026-04-18T18:16:17.822Z</time></trkpt><trkpt lat="45.4391584" lon="11.2060704"><ele>164.8</ele><time>2026-04-18T18:16:18.831Z</time></trkpt><trkpt lat="45.4392454" lon="11.2059643"><ele>166.0</ele><time>2026-04-18T18:16:19.817Z</time></trkpt><trkpt lat="45.4393434" lon="11.2058731"><ele>166.0</ele><time>2026-04-18T18:16:20.831Z</time></trkpt><trkpt lat="45.4394431" lon="11.2057793"><ele>166.0</ele><time>2026-04-18T18:16:21.828Z</time></trkpt><trkpt lat="45.4395402" lon="11.2056696"><ele>166.0</ele><time>2026-04-18T18:16:22.827Z</time></trkpt><trkpt lat="45.4396388" lon="11.2055441"><ele>166.0</ele><time>2026-04-18T18:16:23.829Z</time></trkpt><trkpt lat="45.4397363" lon="11.2054138"><ele>167.75</ele><time>2026-04-18T18:16:24.821Z</time></trkpt><trkpt lat="45.4398342" lon="11.205272"><ele>169.5</ele><time>2026-04-18T18:16:25.826Z</time></trkpt><trkpt lat="45.43993" lon="11.2051253"><ele>171.25</ele><time>2026-04-18T18:16:26.822Z</time></trkpt><trkpt lat="45.4400268" lon="11.2049783"><ele>173.0</ele><time>2026-04-18T18:16:27.823Z</time></trkpt><trkpt lat="45.4401218" lon="11.2048293"><ele>173.5</ele><time>2026-04-18T18:16:28.826Z</time></trkpt><trkpt lat="45.4402122" lon="11.2046844"><ele>174.0</ele><time>2026-04-18T18:16:29.828Z</time></trkpt><trkpt lat="45.4402909" lon="11.2045506"><ele>174.5</ele><time>2026-04-18T18:16:30.826Z</time></trkpt><trkpt lat="45.4403606" lon="11.204434"><ele>175.0</ele><time>2026-04-18T18:16:31.83Z</time></trkpt><trkpt lat="45.4404343" lon="11.2043332"><ele>175.6</ele><time>2026-04-18T18:16:32.824Z</time></trkpt><trkpt lat="45.4405205" lon="11.2042394"><ele>176.2</ele><time>2026-04-18T18:16:33.825Z</time></trkpt><trkpt lat="45.4406082" lon="11.2041521"><ele>176.8</ele><time>2026-04-18T18:16:34.824Z</time></trkpt><trkpt lat="45.4406899" lon="11.2040688"><ele>177.4</ele><time>2026-04-18T18:16:35.828Z</time></trkpt><trkpt lat="45.4407589" lon="11.203993"><ele>178.0</ele><time>2026-04-18T18:16:36.826Z</time></trkpt><trkpt lat="45.440813" lon="11.2039109"><ele>179.83333333333334</ele><time>2026-04-18T18:16:37.817Z</time></trkpt><trkpt lat="45.4408687" lon="11.2038261"><ele>181.66666666666669</ele><time>2026-04-18T18:16:38.827Z</time></trkpt><trkpt lat="45.4409279" lon="11.2037454"><ele>183.5</ele><time>2026-04-18T18:16:39.83Z</time></trkpt><trkpt lat="45.4409837" lon="11.2036605"><ele>185.33333333333334</ele><time>2026-04-18T18:16:40.828Z</time></trkpt><trkpt lat="45.4410409" lon="11.2035706"><ele>187.16666666666666</ele><time>2026-04-18T18:16:41.831Z</time></trkpt><trkpt lat="45.4411051" lon="11.2034709"><ele>189.0</ele><time>2026-04-18T18:16:42.823Z</time></trkpt><trkpt lat="45.4411588" lon="11.203378"><ele>189.0</ele><time>2026-04-18T18:16:43.825Z</time></trkpt><trkpt lat="45.4411977" lon="11.2032745"><ele>189.0</ele><time>2026-04-18T18:16:44.822Z</time></trkpt><trkpt lat="45.4412344" lon="11.2031667"><ele>189.0</ele><time>2026-04-18T18:16:45.824Z</time></trkpt><trkpt lat="45.4412614" lon="11.2030579"><ele>189.0</ele><time>2026-04-18T18:16:46.821Z</time></trkpt><trkpt lat="45.441282" lon="11.2029406"><ele>189.0</ele><time>2026-04-18T18:16:47.821Z</time></trkpt><trkpt lat="45.4413024" lon="11.2028374"><ele>189.0</ele><time>2026-04-18T18:16:48.829Z</time></trkpt><trkpt lat="45.4412968" lon="11.2027075"><ele>189.0</ele><time>2026-04-18T18:16:50.821Z</time></trkpt><trkpt lat="45.4412575" lon="11.2026215"><ele>189.0</ele><time>2026-04-18T18:16:52.821Z</time></trkpt><trkpt lat="45.4413046" lon="11.2027307"><ele>189.0</ele><time>2026-04-18T18:17:08.823Z</time></trkpt><trkpt lat="45.441283" lon="11.2028703"><ele>189.0</ele><time>2026-04-18T18:17:10.826Z</time></trkpt><trkpt lat="45.441252" lon="11.2030325"><ele>189.0</ele><time>2026-04-18T18:17:12.827Z</time></trkpt><trkpt lat="45.4412165" lon="11.2031844"><ele>189.0</ele><time>2026-04-18T18:17:14.822Z</time></trkpt><trkpt lat="45.441167" lon="11.2033234"><ele>189.0</ele><time>2026-04-18T18:17:16.826Z</time></trkpt><trkpt lat="45.4410924" lon="11.2034586"><ele>189.0</ele><time>2026-04-18T18:17:18.832Z</time></trkpt><trkpt lat="45.4410096" lon="11.2035951"><ele>189.0</ele><time>2026-04-18T18:17:20.828Z</time></trkpt><trkpt lat="45.4409626" lon="11.2036621"><ele>189.0</ele><time>2026-04-18T18:17:21.829Z</time></trkpt><trkpt lat="45.4409167" lon="11.2037315"><ele>189.0</ele><time>2026-04-18T18:17:22.829Z</time></trkpt><trkpt lat="45.4408677" lon="11.2037993"><ele>189.0</ele><time>2026-04-18T18:17:23.837Z</time></trkpt><trkpt lat="45.4408215" lon="11.203869"><ele>189.0</ele><time>2026-04-18T18:17:24.825Z</time></trkpt><trkpt lat="45.4407788" lon="11.2039422"><ele>189.0</ele><time>2026-04-18T18:17:25.83Z</time></trkpt><trkpt lat="45.4407292" lon="11.2040019"><ele>189.0</ele><time>2026-04-18T18:17:26.831Z</time></trkpt><trkpt lat="45.4406674" lon="11.2040667"><ele>189.0</ele><time>2026-04-18T18:17:27.826Z</time></trkpt><trkpt lat="45.440597" lon="11.2041343"><ele>189.0</ele><time>2026-04-18T18:17:28.825Z</time></trkpt><trkpt lat="45.4405227" lon="11.2042044"><ele>186.2</ele><time>2026-04-18T18:17:29.837Z</time></trkpt><trkpt lat="45.4404459" lon="11.2042801"><ele>183.39999999999998</ele><time>2026-04-18T18:17:30.819Z</time></trkpt><trkpt lat="45.4403793" lon="11.2043717"><ele>180.6</ele><time>2026-04-18T18:17:31.824Z</time></trkpt><trkpt lat="45.4403156" lon="11.2044727"><ele>177.8</ele><time>2026-04-18T18:17:32.829Z</time></trkpt><trkpt lat="45.4402548" lon="11.2045705"><ele>175.0</ele><time>2026-04-18T18:17:33.825Z</time></trkpt><trkpt lat="45.4401897" lon="11.2046655"><ele>175.0</ele><time>2026-04-18T18:17:34.832Z</time></trkpt><trkpt lat="45.4401245" lon="11.2047735"><ele>175.0</ele><time>2026-04-18T18:17:35.826Z</time></trkpt><trkpt lat="45.4400546" lon="11.2048897"><ele>175.0</ele><time>2026-04-18T18:17:36.83Z</time></trkpt><trkpt lat="45.4399789" lon="11.2050085"><ele>175.0</ele><time>2026-04-18T18:17:37.82Z</time></trkpt><trkpt lat="45.4399034" lon="11.2051252"><ele>175.0</ele><time>2026-04-18T18:17:38.822Z</time></trkpt><trkpt lat="45.4398311" lon="11.2052373"><ele>174.6</ele><time>2026-04-18T18:17:39.834Z</time></trkpt><trkpt lat="45.4397632" lon="11.2053399"><ele>174.2</ele><time>2026-04-18T18:17:40.828Z</time></trkpt><trkpt lat="45.4396961" lon="11.2054387"><ele>173.8</ele><time>2026-04-18T18:17:41.827Z</time></trkpt><trkpt lat="45.4396277" lon="11.2055314"><ele>173.4</ele><time>2026-04-18T18:17:42.825Z</time></trkpt><trkpt lat="45.4395599" lon="11.2056223"><ele>173.0</ele><time>2026-04-18T18:17:43.832Z</time></trkpt><trkpt lat="45.4394952" lon="11.2057052"><ele>172.0</ele><time>2026-04-18T18:17:44.829Z</time></trkpt><trkpt lat="45.4394321" lon="11.2057761"><ele>171.0</ele><time>2026-04-18T18:17:45.828Z</time></trkpt><trkpt lat="45.4393638" lon="11.2058324"><ele>170.0</ele><time>2026-04-18T18:17:46.825Z</time></trkpt><trkpt lat="45.4392979" lon="11.2058895"><ele>169.0</ele><time>2026-04-18T18:17:47.829Z</time></trkpt><trkpt lat="45.4392417" lon="11.2059564"><ele>168.0</ele><time>2026-04-18T18:17:48.827Z</time></trkpt><trkpt lat="45.4391881" lon="11.2060209"><ele>167.0</ele><time>2026-04-18T18:17:49.82Z</time></trkpt><trkpt lat="45.4391385" lon="11.2060825"><ele>166.0</ele><time>2026-04-18T18:17:50.821Z</time></trkpt><trkpt lat="45.4390931" lon="11.2061479"><ele>166.0</ele><time>2026-04-18T18:17:51.831Z</time></trkpt><trkpt lat="45.439015" lon="11.2062525"><ele>166.0</ele><time>2026-04-18T18:17:53.825Z</time></trkpt><trkpt lat="45.4389206" lon="11.2063513"><ele>166.0</ele><time>2026-04-18T18:17:55.831Z</time></trkpt><trkpt lat="45.4388729" lon="11.2064532"><ele>166.0</ele><time>2026-04-18T18:17:56.824Z</time></trkpt><trkpt lat="45.4388148" lon="11.2065793"><ele>166.0</ele><time>2026-04-18T18:17:57.834Z</time></trkpt><trkpt lat="45.4387438" lon="11.2067122"><ele>164.8</ele><time>2026-04-18T18:17:58.823Z</time></trkpt><trkpt lat="45.4386787" lon="11.2068336"><ele>163.60000000000002</ele><time>2026-04-18T18:17:59.83Z</time></trkpt><trkpt lat="45.4386199" lon="11.2069556"><ele>162.4</ele><time>2026-04-18T18:18:00.822Z</time></trkpt><trkpt lat="45.4385663" lon="11.2070709"><ele>161.2</ele><time>2026-04-18T18:18:01.836Z</time></trkpt><trkpt lat="45.438516" lon="11.2071828"><ele>160.0</ele><time>2026-04-18T18:18:02.818Z</time></trkpt><trkpt lat="45.4384642" lon="11.2072841"><ele>160.5</ele><time>2026-04-18T18:18:03.828Z</time></trkpt><trkpt lat="45.4384125" lon="11.2073761"><ele>161.0</ele><time>2026-04-18T18:18:04.824Z</time></trkpt><trkpt lat="45.4383621" lon="11.2074516"><ele>161.5</ele><time>2026-04-18T18:18:05.824Z</time></trkpt><trkpt lat="45.4382918" lon="11.2075892"><ele>162.0</ele><time>2026-04-18T18:18:07.827Z</time></trkpt><trkpt lat="45.438232" lon="11.2076364"><ele>162.5</ele><time>2026-04-18T18:18:09.827Z</time></trkpt><trkpt lat="45.4381493" lon="11.2075873"><ele>163.0</ele><time>2026-04-18T18:18:12.821Z</time></trkpt><trkpt lat="45.4382181" lon="11.2076254"><ele>163.0</ele><time>2026-04-18T18:18:25.823Z</time></trkpt><trkpt lat="45.4382833" lon="11.2076123"><ele>163.0</ele><time>2026-04-18T18:18:31.823Z</time></trkpt><trkpt lat="45.4383534" lon="11.2074921"><ele>163.0</ele><time>2026-04-18T18:18:33.823Z</time></trkpt><trkpt lat="45.4383961" lon="11.207424"><ele>163.0</ele><time>2026-04-18T18:18:34.823Z</time></trkpt><trkpt lat="45.4384503" lon="11.2073386"><ele>163.0</ele><time>2026-04-18T18:18:35.818Z</time></trkpt><trkpt lat="45.4385026" lon="11.2072346"><ele>163.0</ele><time>2026-04-18T18:18:36.826Z</time></trkpt><trkpt lat="45.4385561" lon="11.2071233"><ele>162.5</ele><time>2026-04-18T18:18:37.824Z</time></trkpt><trkpt lat="45.43861" lon="11.2070164"><ele>162.0</ele><time>2026-04-18T18:18:38.825Z</time></trkpt><trkpt lat="45.438668" lon="11.2069088"><ele>161.5</ele><time>2026-04-18T18:18:39.823Z</time></trkpt><trkpt lat="45.4387219" lon="11.2067985"><ele>161.0</ele><time>2026-04-18T18:18:40.83Z</time></trkpt><trkpt lat="45.4387735" lon="11.2066958"><ele>160.5</ele><time>2026-04-18T18:18:41.824Z</time></trkpt><trkpt lat="45.4388179" lon="11.2066036"><ele>160.0</ele><time>2026-04-18T18:18:42.828Z</time></trkpt><trkpt lat="45.438864" lon="11.2065266"><ele>161.2</ele><time>2026-04-18T18:18:43.829Z</time></trkpt><trkpt lat="45.4389439" lon="11.2064024"><ele>162.4</ele><time>2026-04-18T18:18:45.83Z</time></trkpt><trkpt lat="45.4390148" lon="11.2062959"><ele>163.60000000000002</ele><time>2026-04-18T18:18:47.821Z</time></trkpt><trkpt lat="45.4390711" lon="11.206183"><ele>164.8</ele><time>2026-04-18T18:18:49.829Z</time></trkpt><trkpt lat="45.4391133" lon="11.2060974"><ele>166.0</ele><time>2026-04-18T18:18:52.83Z</time></trkpt><trkpt lat="45.439174" lon="11.2060576"><ele>166.0</ele><time>2026-04-18T18:20:12.825Z</time></trkpt><trkpt lat="45.4392267" lon="11.2060058"><ele>166.0</ele><time>2026-04-18T18:20:15.744Z</time></trkpt><trkpt lat="45.4391664" lon="11.2060554"><ele>166.0</ele><time>2026-04-18T18:20:18.822Z</time></trkpt><trkpt lat="45.439118" lon="11.2061184"><ele>166.0</ele><time>2026-04-18T18:20:19.827Z</time></trkpt><trkpt lat="45.4390384" lon="11.2062272"><ele>166.0</ele><time>2026-04-18T18:20:21.817Z</time></trkpt><trkpt lat="45.438972" lon="11.2062873"><ele>166.0</ele><time>2026-04-18T18:20:23.827Z</time></trkpt><trkpt lat="45.4388943" lon="11.2063946"><ele>166.0</ele><time>2026-04-18T18:20:25.825Z</time></trkpt><trkpt lat="45.4388503" lon="11.2064867"><ele>166.0</ele><time>2026-04-18T18:20:26.823Z</time></trkpt><trkpt lat="45.4387957" lon="11.2066034"><ele>166.0</ele><time>2026-04-18T18:20:27.828Z</time></trkpt><trkpt lat="45.4387365" lon="11.2067313"><ele>166.0</ele><time>2026-04-18T18:20:28.822Z</time></trkpt><trkpt lat="45.4386707" lon="11.2068619"><ele>166.0</ele><time>2026-04-18T18:20:29.823Z</time></trkpt><trkpt lat="45.4386069" lon="11.2069856"><ele>165.4</ele><time>2026-04-18T18:20:30.825Z</time></trkpt><trkpt lat="45.4385463" lon="11.2071072"><ele>164.8</ele><time>2026-04-18T18:20:31.828Z</time></trkpt><trkpt lat="45.4384853" lon="11.2072356"><ele>164.20000000000002</ele><time>2026-04-18T18:20:32.826Z</time></trkpt><trkpt lat="45.4384165" lon="11.2073636"><ele>163.60000000000002</ele><time>2026-04-18T18:20:33.826Z</time></trkpt><trkpt lat="45.4383396" lon="11.2074961"><ele>163.0</ele><time>2026-04-18T18:20:34.828Z</time></trkpt><trkpt lat="45.4382652" lon="11.2076306"><ele>163.0</ele><time>2026-04-18T18:20:35.823Z</time></trkpt><trkpt lat="45.4381913" lon="11.2077716"><ele>163.0</ele><time>2026-04-18T18:20:36.822Z</time></trkpt><trkpt lat="45.4381233" lon="11.2079161"><ele>163.0</ele><time>2026-04-18T18:20:37.824Z</time></trkpt><trkpt lat="45.4380537" lon="11.2080628"><ele>163.0</ele><time>2026-04-18T18:20:38.826Z</time></trkpt><trkpt lat="45.4379766" lon="11.2082031"><ele>160.5</ele><time>2026-04-18T18:20:39.823Z</time></trkpt><trkpt lat="45.4378881" lon="11.2083392"><ele>158.0</ele><time>2026-04-18T18:20:40.827Z</time></trkpt><trkpt lat="45.437799" lon="11.2084794"><ele>155.5</ele><time>2026-04-18T18:20:41.824Z</time></trkpt><trkpt lat="45.4377133" lon="11.2086179"><ele>153.0</ele><time>2026-04-18T18:20:42.826Z</time></trkpt><trkpt lat="45.4376278" lon="11.2087515"><ele>153.0</ele><time>2026-04-18T18:20:43.827Z</time></trkpt><trkpt lat="45.4375525" lon="11.2088767"><ele>153.0</ele><time>2026-04-18T18:20:44.825Z</time></trkpt><trkpt lat="45.4374811" lon="11.2089912"><ele>153.0</ele><time>2026-04-18T18:20:45.832Z</time></trkpt><trkpt lat="45.4374148" lon="11.2090984"><ele>153.0</ele><time>2026-04-18T18:20:46.823Z</time></trkpt><trkpt lat="45.4373413" lon="11.2092057"><ele>153.0</ele><time>2026-04-18T18:20:47.825Z</time></trkpt><trkpt lat="45.4372585" lon="11.2093128"><ele>153.6</ele><time>2026-04-18T18:20:48.826Z</time></trkpt><trkpt lat="45.4371714" lon="11.209418"><ele>154.20000000000002</ele><time>2026-04-18T18:20:49.828Z</time></trkpt><trkpt lat="45.437087" lon="11.209508"><ele>154.8</ele><time>2026-04-18T18:20:50.822Z</time></trkpt><trkpt lat="45.4370039" lon="11.2095785"><ele>155.4</ele><time>2026-04-18T18:20:51.824Z</time></trkpt><trkpt lat="45.4369306" lon="11.2096293"><ele>156.0</ele><time>2026-04-18T18:20:52.825Z</time></trkpt><trkpt lat="45.4368628" lon="11.2096708"><ele>156.66666666666666</ele><time>2026-04-18T18:20:53.825Z</time></trkpt><trkpt lat="45.4368006" lon="11.2097"><ele>157.33333333333334</ele><time>2026-04-18T18:20:54.825Z</time></trkpt><trkpt lat="45.436726" lon="11.2097182"><ele>158.0</ele><time>2026-04-18T18:20:55.828Z</time></trkpt><trkpt lat="45.4366445" lon="11.2097198"><ele>158.66666666666669</ele><time>2026-04-18T18:20:56.819Z</time></trkpt><trkpt lat="45.4365529" lon="11.2097004"><ele>159.33333333333334</ele><time>2026-04-18T18:20:57.822Z</time></trkpt><trkpt lat="45.4364614" lon="11.2096574"><ele>160.0</ele><time>2026-04-18T18:20:58.827Z</time></trkpt><trkpt lat="45.4363755" lon="11.2096176"><ele>158.8</ele><time>2026-04-18T18:20:59.823Z</time></trkpt><trkpt lat="45.436289" lon="11.2095907"><ele>157.6</ele><time>2026-04-18T18:21:00.823Z</time></trkpt><trkpt lat="45.4361974" lon="11.2095892"><ele>156.4</ele><time>2026-04-18T18:21:01.826Z</time></trkpt><trkpt lat="45.4361004" lon="11.2096299"><ele>155.2</ele><time>2026-04-18T18:21:02.826Z</time></trkpt><trkpt lat="45.4359903" lon="11.209711"><ele>154.0</ele><time>2026-04-18T18:21:03.824Z</time></trkpt><trkpt lat="45.435866" lon="11.2098133"><ele>152.75</ele><time>2026-04-18T18:21:04.824Z</time></trkpt><trkpt lat="45.4357334" lon="11.2099179"><ele>151.5</ele><time>2026-04-18T18:21:05.824Z</time></trkpt><trkpt lat="45.4356037" lon="11.2100233"><ele>150.25</ele><time>2026-04-18T18:21:06.827Z</time></trkpt><trkpt lat="45.4354825" lon="11.2101263"><ele>149.0</ele><time>2026-04-18T18:21:07.829Z</time></trkpt><trkpt lat="45.4353685" lon="11.2102303"><ele>148.5</ele><time>2026-04-18T18:21:08.828Z</time></trkpt><trkpt lat="45.4352599" lon="11.2103286"><ele>148.0</ele><time>2026-04-18T18:21:09.823Z</time></trkpt><trkpt lat="45.4351498" lon="11.2104278"><ele>147.5</ele><time>2026-04-18T18:21:10.823Z</time></trkpt><trkpt lat="45.4350409" lon="11.2105276"><ele>147.0</ele><time>2026-04-18T18:21:11.821Z</time></trkpt><trkpt lat="45.4349362" lon="11.2106242"><ele>146.0</ele><time>2026-04-18T18:21:12.819Z</time></trkpt><trkpt lat="45.4348277" lon="11.2107117"><ele>145.0</ele><time>2026-04-18T18:21:13.832Z</time></trkpt><trkpt lat="45.4347241" lon="11.2107971"><ele>144.0</ele><time>2026-04-18T18:21:14.823Z</time></trkpt><trkpt lat="45.4346346" lon="11.2108919"><ele>143.0</ele><time>2026-04-18T18:21:15.823Z</time></trkpt><trkpt lat="45.4345449" lon="11.2109813"><ele>143.0</ele><time>2026-04-18T18:21:16.833Z</time></trkpt><trkpt lat="45.4344623" lon="11.2110791"><ele>143.0</ele><time>2026-04-18T18:21:17.819Z</time></trkpt><trkpt lat="45.434376" lon="11.2111721"><ele>143.0</ele><time>2026-04-18T18:21:18.827Z</time></trkpt><trkpt lat="45.4342922" lon="11.2112661"><ele>143.0</ele><time>2026-04-18T18:21:19.818Z</time></trkpt><trkpt lat="45.4342115" lon="11.2113534"><ele>143.0</ele><time>2026-04-18T18:21:20.821Z</time></trkpt><trkpt lat="45.4341331" lon="11.2114346"><ele>141.8</ele><time>2026-04-18T18:21:21.826Z</time></trkpt><trkpt lat="45.4340515" lon="11.2115075"><ele>140.60000000000002</ele><time>2026-04-18T18:21:22.822Z</time></trkpt><trkpt lat="45.4339608" lon="11.2115781"><ele>139.39999999999998</ele><time>2026-04-18T18:21:23.823Z</time></trkpt><trkpt lat="45.433866" lon="11.2116426"><ele>138.2</ele><time>2026-04-18T18:21:24.823Z</time></trkpt><trkpt lat="45.4337679" lon="11.2116989"><ele>137.0</ele><time>2026-04-18T18:21:25.827Z</time></trkpt><trkpt lat="45.4336738" lon="11.211754"><ele>136.6</ele><time>2026-04-18T18:21:26.824Z</time></trkpt><trkpt lat="45.4335746" lon="11.211802"><ele>136.2</ele><time>2026-04-18T18:21:27.822Z</time></trkpt><trkpt lat="45.4334747" lon="11.2118333"><ele>135.8</ele><time>2026-04-18T18:21:28.824Z</time></trkpt><trkpt lat="45.4333673" lon="11.2118598"><ele>135.4</ele><time>2026-04-18T18:21:29.823Z</time></trkpt><trkpt lat="45.4332557" lon="11.2118896"><ele>135.0</ele><time>2026-04-18T18:21:30.818Z</time></trkpt><trkpt lat="45.4331541" lon="11.2119094"><ele>135.0</ele><time>2026-04-18T18:21:31.826Z</time></trkpt><trkpt lat="45.4330664" lon="11.211948"><ele>135.0</ele><time>2026-04-18T18:21:32.821Z</time></trkpt><trkpt lat="45.4329869" lon="11.2120218"><ele>135.0</ele><time>2026-04-18T18:21:33.823Z</time></trkpt><trkpt lat="45.4329042" lon="11.2121265"><ele>135.0</ele><time>2026-04-18T18:21:34.825Z</time></trkpt><trkpt lat="45.4328158" lon="11.2122417"><ele>135.0</ele><time>2026-04-18T18:21:35.825Z</time></trkpt><trkpt lat="45.4327224" lon="11.2123649"><ele>131.75</ele><time>2026-04-18T18:21:36.826Z</time></trkpt><trkpt lat="45.4326289" lon="11.2124946"><ele>128.5</ele><time>2026-04-18T18:21:37.826Z</time></trkpt><trkpt lat="45.4325349" lon="11.212622"><ele>125.25</ele><time>2026-04-18T18:21:38.826Z</time></trkpt><trkpt lat="45.4324404" lon="11.2127512"><ele>122.0</ele><time>2026-04-18T18:21:39.828Z</time></trkpt><trkpt lat="45.4323403" lon="11.2128767"><ele>122.0</ele><time>2026-04-18T18:21:40.827Z</time></trkpt><trkpt lat="45.4322478" lon="11.2129959"><ele>122.0</ele><time>2026-04-18T18:21:41.823Z</time></trkpt><trkpt lat="45.4321525" lon="11.2131107"><ele>122.0</ele><time>2026-04-18T18:21:42.825Z</time></trkpt><trkpt lat="45.4320564" lon="11.2132236"><ele>122.0</ele><time>2026-04-18T18:21:43.826Z</time></trkpt><trkpt lat="45.4319627" lon="11.2133349"><ele>121.6</ele><time>2026-04-18T18:21:44.825Z</time></trkpt><trkpt lat="45.4318763" lon="11.2134383"><ele>121.19999999999999</ele><time>2026-04-18T18:21:45.823Z</time></trkpt><trkpt lat="45.431804" lon="11.2135314"><ele>120.8</ele><time>2026-04-18T18:21:46.824Z</time></trkpt><trkpt lat="45.4317516" lon="11.2136168"><ele>120.4</ele><time>2026-04-18T18:21:47.828Z</time></trkpt><trkpt lat="45.4317257" lon="11.2137316"><ele>120.0</ele><time>2026-04-18T18:21:48.824Z</time></trkpt><trkpt lat="45.4317164" lon="11.2138622"><ele>120.16666666666667</ele><time>2026-04-18T18:21:49.826Z</time></trkpt><trkpt lat="45.4317058" lon="11.2139889"><ele>120.33333333333334</ele><time>2026-04-18T18:21:50.826Z</time></trkpt><trkpt lat="45.4316985" lon="11.2141101"><ele>120.5</ele><time>2026-04-18T18:21:51.821Z</time></trkpt><trkpt lat="45.4316978" lon="11.2142287"><ele>120.66666666666667</ele><time>2026-04-18T18:21:52.831Z</time></trkpt><trkpt lat="45.4316958" lon="11.2143518"><ele>120.83333333333334</ele><time>2026-04-18T18:21:53.822Z</time></trkpt><trkpt lat="45.4316938" lon="11.2144596"><ele>121.0</ele><time>2026-04-18T18:21:54.825Z</time></trkpt><trkpt lat="45.4316796" lon="11.2145508"><ele>121.00000000000001</ele><time>2026-04-18T18:21:55.82Z</time></trkpt><trkpt lat="45.4316381" lon="11.2146294"><ele>121.0</ele><time>2026-04-18T18:21:56.827Z</time></trkpt><trkpt lat="45.431585" lon="11.2146997"><ele>121.0</ele><time>2026-04-18T18:21:57.824Z</time></trkpt><trkpt lat="45.431505" lon="11.2147604"><ele>121.0</ele><time>2026-04-18T18:21:58.825Z</time></trkpt><trkpt lat="45.4314082" lon="11.2148013"><ele>121.00000000000001</ele><time>2026-04-18T18:21:59.827Z</time></trkpt><trkpt lat="45.4313023" lon="11.2148449"><ele>121.0</ele><time>2026-04-18T18:22:00.826Z</time></trkpt><trkpt lat="45.4311909" lon="11.2148965"><ele>118.8</ele><time>2026-04-18T18:22:01.823Z</time></trkpt><trkpt lat="45.4310839" lon="11.2149386"><ele>116.6</ele><time>2026-04-18T18:22:02.824Z</time></trkpt><trkpt lat="45.4309814" lon="11.2149888"><ele>114.4</ele><time>2026-04-18T18:22:03.825Z</time></trkpt><trkpt lat="45.430893" lon="11.2150497"><ele>112.2</ele><time>2026-04-18T18:22:04.825Z</time></trkpt><trkpt lat="45.4308223" lon="11.2151104"><ele>110.0</ele><time>2026-04-18T18:22:05.826Z</time></trkpt><trkpt lat="45.4307701" lon="11.2152013"><ele>110.0</ele><time>2026-04-18T18:22:06.825Z</time></trkpt><trkpt lat="45.4307297" lon="11.2153253"><ele>110.0</ele><time>2026-04-18T18:22:07.824Z</time></trkpt><trkpt lat="45.4306938" lon="11.2154894"><ele>110.0</ele><time>2026-04-18T18:22:08.824Z</time></trkpt><trkpt lat="45.4306527" lon="11.2156339"><ele>110.0</ele><time>2026-04-18T18:22:09.825Z</time></trkpt><trkpt lat="45.4306156" lon="11.2157736"><ele>110.0</ele><time>2026-04-18T18:22:10.824Z</time></trkpt><trkpt lat="45.4305877" lon="11.2159128"><ele>109.2</ele><time>2026-04-18T18:22:11.829Z</time></trkpt><trkpt lat="45.4305763" lon="11.2160653"><ele>108.4</ele><time>2026-04-18T18:22:12.827Z</time></trkpt><trkpt lat="45.4305866" lon="11.2162197"><ele>107.6</ele><time>2026-04-18T18:22:13.821Z</time></trkpt><trkpt lat="45.4306108" lon="11.2163783"><ele>106.8</ele><time>2026-04-18T18:22:14.826Z</time></trkpt><trkpt lat="45.4306357" lon="11.2165415"><ele>106.0</ele><time>2026-04-18T18:22:15.822Z</time></trkpt><trkpt lat="45.4306585" lon="11.2167007"><ele>104.8</ele><time>2026-04-18T18:22:16.825Z</time></trkpt><trkpt lat="45.4306813" lon="11.2168568"><ele>103.6</ele><time>2026-04-18T18:22:17.822Z</time></trkpt><trkpt lat="45.4307111" lon="11.2170114"><ele>102.4</ele><time>2026-04-18T18:22:18.824Z</time></trkpt><trkpt lat="45.4307409" lon="11.2171649"><ele>101.2</ele><time>2026-04-18T18:22:19.827Z</time></trkpt><trkpt lat="45.430774" lon="11.2173132"><ele>100.0</ele><time>2026-04-18T18:22:20.823Z</time></trkpt><trkpt lat="45.4308083" lon="11.2174575"><ele>98.6</ele><time>2026-04-18T18:22:21.827Z</time></trkpt><trkpt lat="45.4308476" lon="11.2175971"><ele>97.2</ele><time>2026-04-18T18:22:22.825Z</time></trkpt><trkpt lat="45.4308855" lon="11.2177365"><ele>95.80000000000001</ele><time>2026-04-18T18:22:23.822Z</time></trkpt><trkpt lat="45.4309207" lon="11.2178651"><ele>94.4</ele><time>2026-04-18T18:22:24.824Z</time></trkpt><trkpt lat="45.4309509" lon="11.2179845"><ele>93.0</ele><time>2026-04-18T18:22:25.826Z</time></trkpt><trkpt lat="45.4309738" lon="11.2181086"><ele>92.0</ele><time>2026-04-18T18:22:26.821Z</time></trkpt><trkpt lat="45.430968" lon="11.2182299"><ele>91.0</ele><time>2026-04-18T18:22:27.83Z</time></trkpt><trkpt lat="45.4309372" lon="11.2183396"><ele>90.0</ele><time>2026-04-18T18:22:28.817Z</time></trkpt><trkpt lat="45.4308803" lon="11.2184227"><ele>89.0</ele><time>2026-04-18T18:22:29.822Z</time></trkpt><trkpt lat="45.4308034" lon="11.2184738"><ele>88.0</ele><time>2026-04-18T18:22:30.82Z</time></trkpt><trkpt lat="45.4307128" lon="11.2185096"><ele>87.0</ele><time>2026-04-18T18:22:31.827Z</time></trkpt><trkpt lat="45.4306156" lon="11.2185665"><ele>87.0</ele><time>2026-04-18T18:22:32.825Z</time></trkpt><trkpt lat="45.4305175" lon="11.2186295"><ele>87.0</ele><time>2026-04-18T18:22:33.826Z</time></trkpt><trkpt lat="45.4304188" lon="11.2186898"><ele>87.0</ele><time>2026-04-18T18:22:34.819Z</time></trkpt><trkpt lat="45.4303251" lon="11.2187491"><ele>87.0</ele><time>2026-04-18T18:22:35.827Z</time></trkpt><trkpt lat="45.4302327" lon="11.2187972"><ele>87.0</ele><time>2026-04-18T18:22:36.819Z</time></trkpt><trkpt lat="45.4301406" lon="11.2188374"><ele>86.39999999999999</ele><time>2026-04-18T18:22:37.822Z</time></trkpt><trkpt lat="45.4300461" lon="11.2188609"><ele>85.8</ele><time>2026-04-18T18:22:38.826Z</time></trkpt><trkpt lat="45.4299501" lon="11.2188673"><ele>85.2</ele><time>2026-04-18T18:22:39.825Z</time></trkpt><trkpt lat="45.4298583" lon="11.2188754"><ele>84.6</ele><time>2026-04-18T18:22:40.826Z</time></trkpt><trkpt lat="45.4297706" lon="11.2188893"><ele>84.0</ele><time>2026-04-18T18:22:41.826Z</time></trkpt><trkpt lat="45.4296866" lon="11.2189072"><ele>81.83333333333333</ele><time>2026-04-18T18:22:42.818Z</time></trkpt><trkpt lat="45.4296153" lon="11.2189498"><ele>79.66666666666667</ele><time>2026-04-18T18:22:43.824Z</time></trkpt><trkpt lat="45.4295584" lon="11.2190073"><ele>77.5</ele><time>2026-04-18T18:22:44.822Z</time></trkpt><trkpt lat="45.4295077" lon="11.219074"><ele>75.33333333333334</ele><time>2026-04-18T18:22:45.825Z</time></trkpt><trkpt lat="45.429472" lon="11.2191665"><ele>73.16666666666667</ele><time>2026-04-18T18:22:46.818Z</time></trkpt><trkpt lat="45.4294387" lon="11.2192791"><ele>71.0</ele><time>2026-04-18T18:22:47.826Z</time></trkpt><trkpt lat="45.4294022" lon="11.2194"><ele>70.0</ele><time>2026-04-18T18:22:48.825Z</time></trkpt><trkpt lat="45.4293603" lon="11.2195187"><ele>69.0</ele><time>2026-04-18T18:22:49.828Z</time></trkpt><trkpt lat="45.4293182" lon="11.2196346"><ele>68.0</ele><time>2026-04-18T18:22:50.822Z</time></trkpt><trkpt lat="45.4292832" lon="11.2197478"><ele>67.0</ele><time>2026-04-18T18:22:51.822Z</time></trkpt><trkpt lat="45.4292708" lon="11.219868"><ele>66.0</ele><time>2026-04-18T18:22:52.821Z</time></trkpt><trkpt lat="45.429264" lon="11.2199888"><ele>65.0</ele><time>2026-04-18T18:22:53.825Z</time></trkpt><trkpt lat="45.4292547" lon="11.2201216"><ele>64.5</ele><time>2026-04-18T18:22:54.823Z</time></trkpt><trkpt lat="45.4292569" lon="11.2202523"><ele>64.0</ele><time>2026-04-18T18:22:55.829Z</time></trkpt><trkpt lat="45.4292695" lon="11.2203791"><ele>63.5</ele><time>2026-04-18T18:22:56.828Z</time></trkpt><trkpt lat="45.4292871" lon="11.2205039"><ele>63.0</ele><time>2026-04-18T18:22:57.82Z</time></trkpt><trkpt lat="45.4293115" lon="11.220624"><ele>62.50000000000001</ele><time>2026-04-18T18:22:58.832Z</time></trkpt><trkpt lat="45.4293443" lon="11.2207368"><ele>62.0</ele><time>2026-04-18T18:22:59.822Z</time></trkpt><trkpt lat="45.429383" lon="11.2208419"><ele>61.50000000000001</ele><time>2026-04-18T18:23:00.828Z</time></trkpt><trkpt lat="45.4294186" lon="11.2209335"><ele>61.0</ele><time>2026-04-18T18:23:01.824Z</time></trkpt><trkpt lat="45.429457" lon="11.2210944"><ele>60.5</ele><time>2026-04-18T18:23:03.827Z</time></trkpt><trkpt lat="45.4294581" lon="11.2211841"><ele>60.0</ele><time>2026-04-18T18:23:04.827Z</time></trkpt><trkpt lat="45.4294635" lon="11.2212772"><ele>59.50000000000001</ele><time>2026-04-18T18:23:05.83Z</time></trkpt><trkpt lat="45.4294663" lon="11.2213745"><ele>59.0</ele><time>2026-04-18T18:23:06.83Z</time></trkpt><trkpt lat="45.4294697" lon="11.2214744"><ele>58.333333333333336</ele><time>2026-04-18T18:23:07.826Z</time></trkpt><trkpt lat="45.4294694" lon="11.2215724"><ele>57.66666666666667</ele><time>2026-04-18T18:23:08.831Z</time></trkpt><trkpt lat="45.4294645" lon="11.221662"><ele>57.0</ele><time>2026-04-18T18:23:09.829Z</time></trkpt><trkpt lat="45.4294558" lon="11.221794"><ele>56.33333333333333</ele><time>2026-04-18T18:23:11.826Z</time></trkpt><trkpt lat="45.4293776" lon="11.2218751"><ele>55.666666666666664</ele><time>2026-04-18T18:23:15.824Z</time></trkpt><trkpt lat="45.429313" lon="11.2218741"><ele>55.0</ele><time>2026-04-18T18:23:16.824Z</time></trkpt><trkpt lat="45.4292415" lon="11.2218703"><ele>54.99999999999999</ele><time>2026-04-18T18:23:17.824Z</time></trkpt><trkpt lat="45.4291625" lon="11.2219098"><ele>55.0</ele><time>2026-04-18T18:23:18.821Z</time></trkpt><trkpt lat="45.4290827" lon="11.2219715"><ele>55.0</ele><time>2026-04-18T18:23:19.823Z</time></trkpt><trkpt lat="45.4290051" lon="11.2220343"><ele>55.0</ele><time>2026-04-18T18:23:20.824Z</time></trkpt><trkpt lat="45.428932" lon="11.2221104"><ele>54.99999999999999</ele><time>2026-04-18T18:23:21.819Z</time></trkpt><trkpt lat="45.4288702" lon="11.2222008"><ele>55.0</ele><time>2026-04-18T18:23:22.825Z</time></trkpt><trkpt lat="45.4288031" lon="11.2222787"><ele>52.666666666666664</ele><time>2026-04-18T18:23:23.819Z</time></trkpt><trkpt lat="45.4287359" lon="11.2223569"><ele>50.33333333333333</ele><time>2026-04-18T18:23:24.829Z</time></trkpt><trkpt lat="45.428669" lon="11.2224367"><ele>48.0</ele><time>2026-04-18T18:23:25.823Z</time></trkpt><trkpt lat="45.4286055" lon="11.2225174"><ele>45.666666666666664</ele><time>2026-04-18T18:23:26.826Z</time></trkpt><trkpt lat="45.4285439" lon="11.222596"><ele>43.33333333333333</ele><time>2026-04-18T18:23:27.825Z</time></trkpt><trkpt lat="45.4284864" lon="11.2226815"><ele>41.0</ele><time>2026-04-18T18:23:28.823Z</time></trkpt><trkpt lat="45.4284437" lon="11.222776"><ele>41.0</ele><time>2026-04-18T18:23:29.827Z</time></trkpt><trkpt lat="45.4284094" lon="11.2228738"><ele>41.0</ele><time>2026-04-18T18:23:30.825Z</time></trkpt><trkpt lat="45.4283823" lon="11.2229575"><ele>41.0</ele><time>2026-04-18T18:23:31.83Z</time></trkpt><trkpt lat="45.4283516" lon="11.2230746"><ele>41.0</ele><time>2026-04-18T18:23:33.824Z</time></trkpt><trkpt lat="45.4283105" lon="11.2231487"><ele>41.0</ele><time>2026-04-18T18:23:36.826Z</time></trkpt><trkpt lat="45.4282769" lon="11.2232962"><ele>41.0</ele><time>2026-04-18T18:23:39.828Z</time></trkpt><trkpt lat="45.4282694" lon="11.2234162"><ele>40.199999999999996</ele><time>2026-04-18T18:23:40.825Z</time></trkpt><trkpt lat="45.4282483" lon="11.2235557"><ele>39.4</ele><time>2026-04-18T18:23:41.819Z</time></trkpt><trkpt lat="45.4282195" lon="11.2237071"><ele>38.6</ele><time>2026-04-18T18:23:42.831Z</time></trkpt><trkpt lat="45.4281917" lon="11.2238603"><ele>37.8</ele><time>2026-04-18T18:23:43.821Z</time></trkpt><trkpt lat="45.4281668" lon="11.2240031"><ele>37.0</ele><time>2026-04-18T18:23:44.829Z</time></trkpt><trkpt lat="45.4281415" lon="11.2241401"><ele>36.66666666666667</ele><time>2026-04-18T18:23:45.817Z</time></trkpt><trkpt lat="45.4281179" lon="11.2242707"><ele>36.333333333333336</ele><time>2026-04-18T18:23:46.822Z</time></trkpt><trkpt lat="45.4280955" lon="11.2243954"><ele>36.0</ele><time>2026-04-18T18:23:47.826Z</time></trkpt><trkpt lat="45.428077" lon="11.2245169"><ele>35.666666666666664</ele><time>2026-04-18T18:23:48.83Z</time></trkpt><trkpt lat="45.4280602" lon="11.224634"><ele>35.33333333333333</ele><time>2026-04-18T18:23:49.829Z</time></trkpt><trkpt lat="45.4280469" lon="11.2247486"><ele>35.0</ele><time>2026-04-18T18:23:50.823Z</time></trkpt><trkpt lat="45.4280329" lon="11.2248589"><ele>35.0</ele><time>2026-04-18T18:23:51.824Z</time></trkpt><trkpt lat="45.4280207" lon="11.224965"><ele>35.0</ele><time>2026-04-18T18:23:52.829Z</time></trkpt><trkpt lat="45.4280091" lon="11.2250618"><ele>35.0</ele><time>2026-04-18T18:23:53.825Z</time></trkpt><trkpt lat="45.4279652" lon="11.2251851"><ele>35.0</ele><time>2026-04-18T18:23:55.821Z</time></trkpt><trkpt lat="45.4278865" lon="11.2251742"><ele>35.0</ele><time>2026-04-18T18:24:00.821Z</time></trkpt><trkpt lat="45.4278472" lon="11.2249725"><ele>34.5</ele><time>2026-04-18T18:24:02.825Z</time></trkpt><trkpt lat="45.4278253" lon="11.2248242"><ele>34.0</ele><time>2026-04-18T18:24:03.822Z</time></trkpt><trkpt lat="45.4277932" lon="11.2246536"><ele>33.5</ele><time>2026-04-18T18:24:04.821Z</time></trkpt><trkpt lat="45.4277591" lon="11.2244641"><ele>33.0</ele><time>2026-04-18T18:24:05.825Z</time></trkpt><trkpt lat="45.4277274" lon="11.2242558"><ele>33.0</ele><time>2026-04-18T18:24:06.826Z</time></trkpt><trkpt lat="45.4276953" lon="11.2240381"><ele>33.0</ele><time>2026-04-18T18:24:07.829Z</time></trkpt><trkpt lat="45.4276599" lon="11.2238149"><ele>33.0</ele><time>2026-04-18T18:24:08.822Z</time></trkpt><trkpt lat="45.4276229" lon="11.2235882"><ele>33.0</ele><time>2026-04-18T18:24:09.82Z</time></trkpt><trkpt lat="45.4275873" lon="11.2233617"><ele>33.0</ele><time>2026-04-18T18:24:10.817Z</time></trkpt><trkpt lat="45.4275538" lon="11.2231365"><ele>33.0</ele><time>2026-04-18T18:24:11.826Z</time></trkpt><trkpt lat="45.4275206" lon="11.2229166"><ele>33.5</ele><time>2026-04-18T18:24:12.817Z</time></trkpt><trkpt lat="45.4274881" lon="11.2227045"><ele>34.0</ele><time>2026-04-18T18:24:13.819Z</time></trkpt><trkpt lat="45.4274538" lon="11.2224992"><ele>34.5</ele><time>2026-04-18T18:24:14.823Z</time></trkpt><trkpt lat="45.4274209" lon="11.2222956"><ele>35.0</ele><time>2026-04-18T18:24:15.817Z</time></trkpt><trkpt lat="45.4273887" lon="11.2220964"><ele>35.0</ele><time>2026-04-18T18:24:16.823Z</time></trkpt><trkpt lat="45.427358" lon="11.2219018"><ele>35.0</ele><time>2026-04-18T18:24:17.816Z</time></trkpt><trkpt lat="45.4273306" lon="11.221709"><ele>35.0</ele><time>2026-04-18T18:24:18.82Z</time></trkpt><trkpt lat="45.427309" lon="11.2215173"><ele>35.0</ele><time>2026-04-18T18:24:19.816Z</time></trkpt><trkpt lat="45.4272893" lon="11.221317"><ele>35.0</ele><time>2026-04-18T18:24:20.82Z</time></trkpt><trkpt lat="45.4272774" lon="11.2211057"><ele>35.0</ele><time>2026-04-18T18:24:21.828Z</time></trkpt><trkpt lat="45.4272721" lon="11.2208894"><ele>35.0</ele><time>2026-04-18T18:24:22.823Z</time></trkpt><trkpt lat="45.427268" lon="11.22066"><ele>35.33333333333333</ele><time>2026-04-18T18:24:23.823Z</time></trkpt><trkpt lat="45.4272666" lon="11.2204215"><ele>35.666666666666664</ele><time>2026-04-18T18:24:24.817Z</time></trkpt><trkpt lat="45.4272629" lon="11.2201804"><ele>36.0</ele><time>2026-04-18T18:24:25.823Z</time></trkpt><trkpt lat="45.4272596" lon="11.219941"><ele>36.0</ele><time>2026-04-18T18:24:26.824Z</time></trkpt><trkpt lat="45.4272591" lon="11.2197059"><ele>36.0</ele><time>2026-04-18T18:24:27.823Z</time></trkpt><trkpt lat="45.4272582" lon="11.2194693"><ele>36.0</ele><time>2026-04-18T18:24:28.82Z</time></trkpt><trkpt lat="45.4272517" lon="11.2192392"><ele>36.0</ele><time>2026-04-18T18:24:29.822Z</time></trkpt><trkpt lat="45.4272401" lon="11.2190086"><ele>36.0</ele><time>2026-04-18T18:24:30.829Z</time></trkpt><trkpt lat="45.42722" lon="11.2187823"><ele>36.0</ele><time>2026-04-18T18:24:31.822Z</time></trkpt><trkpt lat="45.4271916" lon="11.2185589"><ele>36.333333333333336</ele><time>2026-04-18T18:24:32.823Z</time></trkpt><trkpt lat="45.4271538" lon="11.2183365"><ele>36.66666666666667</ele><time>2026-04-18T18:24:33.824Z</time></trkpt><trkpt lat="45.4271139" lon="11.2181175"><ele>37.0</ele><time>2026-04-18T18:24:34.824Z</time></trkpt><trkpt lat="45.4270766" lon="11.217899"><ele>36.0</ele><time>2026-04-18T18:24:35.823Z</time></trkpt><trkpt lat="45.4270365" lon="11.2176799"><ele>35.0</ele><time>2026-04-18T18:24:36.82Z</time></trkpt><trkpt lat="45.4269935" lon="11.2174574"><ele>34.0</ele><time>2026-04-18T18:24:37.82Z</time></trkpt><trkpt lat="45.4269536" lon="11.217235"><ele>34.0</ele><time>2026-04-18T18:24:38.82Z</time></trkpt><trkpt lat="45.4269132" lon="11.2170064"><ele>34.0</ele><time>2026-04-18T18:24:39.825Z</time></trkpt><trkpt lat="45.426868" lon="11.2167741"><ele>34.0</ele><time>2026-04-18T18:24:40.826Z</time></trkpt><trkpt lat="45.4268196" lon="11.2165387"><ele>34.333333333333336</ele><time>2026-04-18T18:24:41.823Z</time></trkpt><trkpt lat="45.4267719" lon="11.2163015"><ele>34.666666666666664</ele><time>2026-04-18T18:24:42.82Z</time></trkpt><trkpt lat="45.4267282" lon="11.2160656"><ele>35.0</ele><time>2026-04-18T18:24:43.823Z</time></trkpt><trkpt lat="45.4266846" lon="11.2158341"><ele>35.666666666666664</ele><time>2026-04-18T18:24:44.821Z</time></trkpt><trkpt lat="45.426642" lon="11.2156042"><ele>36.333333333333336</ele><time>2026-04-18T18:24:45.826Z</time></trkpt><trkpt lat="45.4266056" lon="11.2153683"><ele>37.0</ele><time>2026-04-18T18:24:46.823Z</time></trkpt><trkpt lat="45.4265813" lon="11.2151311"><ele>37.0</ele><time>2026-04-18T18:24:47.823Z</time></trkpt><trkpt lat="45.4265741" lon="11.2148886"><ele>37.0</ele><time>2026-04-18T18:24:48.824Z</time></trkpt><trkpt lat="45.426582" lon="11.2146499"><ele>37.0</ele><time>2026-04-18T18:24:49.825Z</time></trkpt><trkpt lat="45.4265976" lon="11.2144111"><ele>37.0</ele><time>2026-04-18T18:24:50.825Z</time></trkpt><trkpt lat="45.4266129" lon="11.2141696"><ele>37.0</ele><time>2026-04-18T18:24:51.821Z</time></trkpt><trkpt lat="45.4266331" lon="11.2139304"><ele>37.0</ele><time>2026-04-18T18:24:52.835Z</time></trkpt><trkpt lat="45.4266676" lon="11.2136926"><ele>37.0</ele><time>2026-04-18T18:24:53.823Z</time></trkpt><trkpt lat="45.4267162" lon="11.2134645"><ele>37.0</ele><time>2026-04-18T18:24:54.827Z</time></trkpt><trkpt lat="45.4267713" lon="11.213238"><ele>37.0</ele><time>2026-04-18T18:24:55.825Z</time></trkpt><trkpt lat="45.4268289" lon="11.2130112"><ele>37.333333333333336</ele><time>2026-04-18T18:24:56.823Z</time></trkpt><trkpt lat="45.4268825" lon="11.2127862"><ele>37.666666666666664</ele><time>2026-04-18T18:24:57.827Z</time></trkpt><trkpt lat="45.4269335" lon="11.2125701"><ele>38.0</ele><time>2026-04-18T18:24:58.82Z</time></trkpt><trkpt lat="45.4269835" lon="11.2123614"><ele>38.75</ele><time>2026-04-18T18:24:59.825Z</time></trkpt><trkpt lat="45.4270291" lon="11.2121692"><ele>39.5</ele><time>2026-04-18T18:25:00.821Z</time></trkpt><trkpt lat="45.42707" lon="11.2119925"><ele>40.25</ele><time>2026-04-18T18:25:01.825Z</time></trkpt><trkpt lat="45.4271135" lon="11.2118127"><ele>41.0</ele><time>2026-04-18T18:25:02.822Z</time></trkpt><trkpt lat="45.42715" lon="11.2116317"><ele>41.5</ele><time>2026-04-18T18:25:03.826Z</time></trkpt><trkpt lat="45.4271877" lon="11.2114558"><ele>42.0</ele><time>2026-04-18T18:25:04.827Z</time></trkpt><trkpt lat="45.427223" lon="11.2112802"><ele>42.5</ele><time>2026-04-18T18:25:05.829Z</time></trkpt><trkpt lat="45.4272554" lon="11.2111001"><ele>43.0</ele><time>2026-04-18T18:25:06.827Z</time></trkpt><trkpt lat="45.4272808" lon="11.2109204"><ele>43.0</ele><time>2026-04-18T18:25:07.824Z</time></trkpt><trkpt lat="45.4272995" lon="11.2107378"><ele>43.0</ele><time>2026-04-18T18:25:08.827Z</time></trkpt><trkpt lat="45.427309" lon="11.210548"><ele>43.0</ele><time>2026-04-18T18:25:09.82Z</time></trkpt><trkpt lat="45.4273077" lon="11.2103529"><ele>43.0</ele><time>2026-04-18T18:25:10.823Z</time></trkpt><trkpt lat="45.4272987" lon="11.210161"><ele>43.5</ele><time>2026-04-18T18:25:11.817Z</time></trkpt><trkpt lat="45.4272873" lon="11.209968"><ele>44.0</ele><time>2026-04-18T18:25:12.823Z</time></trkpt><trkpt lat="45.427272" lon="11.2097786"><ele>44.5</ele><time>2026-04-18T18:25:13.826Z</time></trkpt><trkpt lat="45.4272549" lon="11.2095988"><ele>45.0</ele><time>2026-04-18T18:25:14.822Z</time></trkpt><trkpt lat="45.4272378" lon="11.2094351"><ele>45.666666666666664</ele><time>2026-04-18T18:25:15.823Z</time></trkpt><trkpt lat="45.4272219" lon="11.2092923"><ele>46.33333333333333</ele><time>2026-04-18T18:25:16.827Z</time></trkpt><trkpt lat="45.4272107" lon="11.2091834"><ele>47.0</ele><time>2026-04-18T18:25:17.817Z</time></trkpt><trkpt lat="45.4272217" lon="11.2090319"><ele>47.666666666666664</ele><time>2026-04-18T18:25:19.821Z</time></trkpt><trkpt lat="45.4272098" lon="11.2089436"><ele>48.33333333333333</ele><time>2026-04-18T18:25:21.823Z</time></trkpt><trkpt lat="45.4271796" lon="11.2088097"><ele>49.0</ele><time>2026-04-18T18:26:04.828Z</time></trkpt><trkpt lat="45.4271199" lon="11.2086196"><ele>50.0</ele><time>2026-04-18T18:26:06.84Z</time></trkpt><trkpt lat="45.4270649" lon="11.2085048"><ele>51.0</ele><time>2026-04-18T18:26:07.842Z</time></trkpt><trkpt lat="45.4269952" lon="11.2083675"><ele>52.0</ele><time>2026-04-18T18:26:08.844Z</time></trkpt><trkpt lat="45.4269143" lon="11.208231"><ele>53.0</ele><time>2026-04-18T18:26:09.848Z</time></trkpt><trkpt lat="45.4268259" lon="11.2080817"><ele>54.75</ele><time>2026-04-18T18:26:10.842Z</time></trkpt><trkpt lat="45.4267395" lon="11.2079295"><ele>56.5</ele><time>2026-04-18T18:26:11.828Z</time></trkpt><trkpt lat="45.4266595" lon="11.20778"><ele>58.25</ele><time>2026-04-18T18:26:12.827Z</time></trkpt><trkpt lat="45.4265803" lon="11.2076355"><ele>60.0</ele><time>2026-04-18T18:26:13.826Z</time></trkpt><trkpt lat="45.4264942" lon="11.207502"><ele>60.0</ele><time>2026-04-18T18:26:14.838Z</time></trkpt><trkpt lat="45.4263928" lon="11.2073868"><ele>60.0</ele><time>2026-04-18T18:26:15.84Z</time></trkpt><trkpt lat="45.4262826" lon="11.2072923"><ele>60.0</ele><time>2026-04-18T18:26:16.859Z</time></trkpt><trkpt lat="45.4261581" lon="11.2072168"><ele>60.0</ele><time>2026-04-18T18:26:17.848Z</time></trkpt><trkpt lat="45.4260244" lon="11.2071406"><ele>61.5</ele><time>2026-04-18T18:26:18.825Z</time></trkpt><trkpt lat="45.4258909" lon="11.2070582"><ele>63.0</ele><time>2026-04-18T18:26:19.843Z</time></trkpt><trkpt lat="45.4257563" lon="11.2069701"><ele>64.5</ele><time>2026-04-18T18:26:20.849Z</time></trkpt><trkpt lat="45.4256232" lon="11.2068661"><ele>66.0</ele><time>2026-04-18T18:26:21.842Z</time></trkpt><trkpt lat="45.4254888" lon="11.2067426"><ele>62.66666666666667</ele><time>2026-04-18T18:26:22.827Z</time></trkpt><trkpt lat="45.4253547" lon="11.2066027"><ele>59.333333333333336</ele><time>2026-04-18T18:26:23.834Z</time></trkpt><trkpt lat="45.4252235" lon="11.2064403"><ele>56.0</ele><time>2026-04-18T18:26:24.844Z</time></trkpt><trkpt lat="45.4250976" lon="11.2062588"><ele>63.0</ele><time>2026-04-18T18:26:25.839Z</time></trkpt><trkpt lat="45.4249709" lon="11.2060708"><ele>70.0</ele><time>2026-04-18T18:26:26.854Z</time></trkpt><trkpt lat="45.4248442" lon="11.2058794"><ele>77.0</ele><time>2026-04-18T18:26:27.843Z</time></trkpt><trkpt lat="45.4247165" lon="11.2056853"><ele>75.66666666666667</ele><time>2026-04-18T18:26:28.842Z</time></trkpt><trkpt lat="45.4245922" lon="11.2054929"><ele>74.33333333333333</ele><time>2026-04-18T18:26:29.827Z</time></trkpt><trkpt lat="45.4244691" lon="11.2052986"><ele>73.0</ele><time>2026-04-18T18:26:30.84Z</time></trkpt><trkpt lat="45.4243481" lon="11.2051055"><ele>73.0</ele><time>2026-04-18T18:26:31.84Z</time></trkpt><trkpt lat="45.4242266" lon="11.204921"><ele>73.0</ele><time>2026-04-18T18:26:32.841Z</time></trkpt><trkpt lat="45.4241059" lon="11.2047419"><ele>73.0</ele><time>2026-04-18T18:26:33.832Z</time></trkpt><trkpt lat="45.4239846" lon="11.2045709"><ele>73.0</ele><time>2026-04-18T18:26:34.843Z</time></trkpt><trkpt lat="45.4238616" lon="11.2044087"><ele>73.0</ele><time>2026-04-18T18:26:35.841Z</time></trkpt><trkpt lat="45.423736" lon="11.2042528"><ele>73.0</ele><time>2026-04-18T18:26:36.829Z</time></trkpt><trkpt lat="45.4236091" lon="11.2041025"><ele>79.66666666666666</ele><time>2026-04-18T18:26:37.835Z</time></trkpt><trkpt lat="45.4234796" lon="11.2039549"><ele>86.33333333333333</ele><time>2026-04-18T18:26:38.837Z</time></trkpt><trkpt lat="45.4233466" lon="11.2038121"><ele>93.0</ele><time>2026-04-18T18:26:39.841Z</time></trkpt><trkpt lat="45.423215" lon="11.2036687"><ele>93.0</ele><time>2026-04-18T18:26:40.84Z</time></trkpt><trkpt lat="45.4230807" lon="11.2035345"><ele>93.0</ele><time>2026-04-18T18:26:41.84Z</time></trkpt><trkpt lat="45.4229482" lon="11.2034215"><ele>93.0</ele><time>2026-04-18T18:26:42.823Z</time></trkpt><trkpt lat="45.4228327" lon="11.2033305"><ele>91.60000000000001</ele><time>2026-04-18T18:26:43.843Z</time></trkpt><trkpt lat="45.422742" lon="11.2032449"><ele>90.2</ele><time>2026-04-18T18:26:44.837Z</time></trkpt><trkpt lat="45.4226717" lon="11.203137"><ele>88.8</ele><time>2026-04-18T18:26:45.84Z</time></trkpt><trkpt lat="45.4226212" lon="11.2029985"><ele>87.4</ele><time>2026-04-18T18:26:46.822Z</time></trkpt><trkpt lat="45.4225938" lon="11.2028322"><ele>86.0</ele><time>2026-04-18T18:26:47.827Z</time></trkpt><trkpt lat="45.422593" lon="11.2026487"><ele>86.0</ele><time>2026-04-18T18:26:48.833Z</time></trkpt><trkpt lat="45.4225978" lon="11.2024479"><ele>86.0</ele><time>2026-04-18T18:26:49.828Z</time></trkpt><trkpt lat="45.4226104" lon="11.2022204"><ele>86.0</ele><time>2026-04-18T18:26:50.833Z</time></trkpt><trkpt lat="45.4226218" lon="11.2019836"><ele>86.33333333333334</ele><time>2026-04-18T18:26:51.824Z</time></trkpt><trkpt lat="45.422636" lon="11.2017414"><ele>86.66666666666667</ele><time>2026-04-18T18:26:52.85Z</time></trkpt><trkpt lat="45.4226534" lon="11.2014969"><ele>87.0</ele><time>2026-04-18T18:26:53.828Z</time></trkpt><trkpt lat="45.4226862" lon="11.201261"><ele>87.0</ele><time>2026-04-18T18:26:54.836Z</time></trkpt><trkpt lat="45.4227401" lon="11.2010337"><ele>87.0</ele><time>2026-04-18T18:26:55.834Z</time></trkpt><trkpt lat="45.4227984" lon="11.2008072"><ele>87.0</ele><time>2026-04-18T18:26:56.831Z</time></trkpt><trkpt lat="45.4228533" lon="11.200594"><ele>86.0</ele><time>2026-04-18T18:26:57.83Z</time></trkpt><trkpt lat="45.422903" lon="11.2003968"><ele>85.0</ele><time>2026-04-18T18:26:58.831Z</time></trkpt><trkpt lat="45.4229429" lon="11.2002305"><ele>84.0</ele><time>2026-04-18T18:26:59.826Z</time></trkpt><trkpt lat="45.4229843" lon="11.2000836"><ele>83.0</ele><time>2026-04-18T18:27:00.844Z</time></trkpt><trkpt lat="45.4230437" lon="11.1999437"><ele>85.5</ele><time>2026-04-18T18:27:01.823Z</time></trkpt><trkpt lat="45.4231275" lon="11.1998383"><ele>88.0</ele><time>2026-04-18T18:27:02.84Z</time></trkpt><trkpt lat="45.4232356" lon="11.199744"><ele>90.5</ele><time>2026-04-18T18:27:03.824Z</time></trkpt><trkpt lat="45.4233596" lon="11.1996666"><ele>93.0</ele><time>2026-04-18T18:27:04.828Z</time></trkpt><trkpt lat="45.4234905" lon="11.199606"><ele>93.0</ele><time>2026-04-18T18:27:05.836Z</time></trkpt><trkpt lat="45.4236306" lon="11.1995608"><ele>93.0</ele><time>2026-04-18T18:27:06.834Z</time></trkpt><trkpt lat="45.4237791" lon="11.1995338"><ele>93.0</ele><time>2026-04-18T18:27:07.831Z</time></trkpt><trkpt lat="45.4239196" lon="11.1995197"><ele>93.0</ele><time>2026-04-18T18:27:08.834Z</time></trkpt><trkpt lat="45.4240449" lon="11.1995162"><ele>94.25</ele><time>2026-04-18T18:27:09.825Z</time></trkpt><trkpt lat="45.4241698" lon="11.1995433"><ele>95.5</ele><time>2026-04-18T18:27:10.829Z</time></trkpt><trkpt lat="45.4242886" lon="11.1996161"><ele>96.75</ele><time>2026-04-18T18:27:11.838Z</time></trkpt><trkpt lat="45.4244153" lon="11.1997121"><ele>98.0</ele><time>2026-04-18T18:27:12.829Z</time></trkpt><trkpt lat="45.4245533" lon="11.1998176"><ele>103.0</ele><time>2026-04-18T18:27:13.826Z</time></trkpt><trkpt lat="45.4246933" lon="11.1999328"><ele>108.0</ele><time>2026-04-18T18:27:14.822Z</time></trkpt><trkpt lat="45.4248311" lon="11.2000422"><ele>113.0</ele><time>2026-04-18T18:27:15.826Z</time></trkpt><trkpt lat="45.4249662" lon="11.2001506"><ele>113.0</ele><time>2026-04-18T18:27:16.831Z</time></trkpt><trkpt lat="45.425099" lon="11.2002526"><ele>113.0</ele><time>2026-04-18T18:27:17.833Z</time></trkpt><trkpt lat="45.425236" lon="11.2003387"><ele>113.0</ele><time>2026-04-18T18:27:18.822Z</time></trkpt><trkpt lat="45.4253758" lon="11.2004171"><ele>111.25</ele><time>2026-04-18T18:27:19.828Z</time></trkpt><trkpt lat="45.4255117" lon="11.2004959"><ele>109.5</ele><time>2026-04-18T18:27:20.829Z</time></trkpt><trkpt lat="45.4256486" lon="11.200575"><ele>107.75</ele><time>2026-04-18T18:27:21.83Z</time></trkpt><trkpt lat="45.4257852" lon="11.2006585"><ele>106.0</ele><time>2026-04-18T18:27:22.831Z</time></trkpt><trkpt lat="45.4259248" lon="11.2007385"><ele>111.33333333333334</ele><time>2026-04-18T18:27:23.82Z</time></trkpt><trkpt lat="45.4260641" lon="11.2008308"><ele>116.66666666666666</ele><time>2026-04-18T18:27:24.831Z</time></trkpt><trkpt lat="45.4261999" lon="11.2009476"><ele>122.0</ele><time>2026-04-18T18:27:25.837Z</time></trkpt><trkpt lat="45.4263314" lon="11.2010864"><ele>122.0</ele><time>2026-04-18T18:27:26.822Z</time></trkpt><trkpt lat="45.4264655" lon="11.2012264"><ele>122.0</ele><time>2026-04-18T18:27:27.825Z</time></trkpt><trkpt lat="45.426605" lon="11.201358"><ele>122.0</ele><time>2026-04-18T18:27:28.829Z</time></trkpt><trkpt lat="45.426745" lon="11.2014772"><ele>127.66666666666666</ele><time>2026-04-18T18:27:29.834Z</time></trkpt><trkpt lat="45.4268955" lon="11.2015669"><ele>133.33333333333334</ele><time>2026-04-18T18:27:30.839Z</time></trkpt><trkpt lat="45.4270469" lon="11.2016315"><ele>139.0</ele><time>2026-04-18T18:27:31.828Z</time></trkpt><trkpt lat="45.4271938" lon="11.2016674"><ele>139.0</ele><time>2026-04-18T18:27:32.822Z</time></trkpt><trkpt lat="45.4273334" lon="11.2016791"><ele>139.0</ele><time>2026-04-18T18:27:33.853Z</time></trkpt><trkpt lat="45.4274653" lon="11.2016548"><ele>139.0</ele><time>2026-04-18T18:27:34.821Z</time></trkpt><trkpt lat="45.4275994" lon="11.2015968"><ele>139.0</ele><time>2026-04-18T18:27:35.841Z</time></trkpt><trkpt lat="45.427734" lon="11.2015301"><ele>137.75</ele><time>2026-04-18T18:27:36.829Z</time></trkpt><trkpt lat="45.4278672" lon="11.2014841"><ele>136.5</ele><time>2026-04-18T18:27:37.831Z</time></trkpt><trkpt lat="45.4280045" lon="11.201452"><ele>135.25</ele><time>2026-04-18T18:27:38.818Z</time></trkpt><trkpt lat="45.4281397" lon="11.2014395"><ele>134.0</ele><time>2026-04-18T18:27:39.83Z</time></trkpt><trkpt lat="45.4282762" lon="11.2014359"><ele>134.0</ele><time>2026-04-18T18:27:40.829Z</time></trkpt><trkpt lat="45.4284114" lon="11.2014365"><ele>134.0</ele><time>2026-04-18T18:27:41.83Z</time></trkpt><trkpt lat="45.4285453" lon="11.2014363"><ele>134.0</ele><time>2026-04-18T18:27:42.824Z</time></trkpt><trkpt lat="45.4286794" lon="11.2014399"><ele>134.0</ele><time>2026-04-18T18:27:43.826Z</time></trkpt><trkpt lat="45.4288159" lon="11.201439"><ele>136.75</ele><time>2026-04-18T18:27:44.825Z</time></trkpt><trkpt lat="45.4289479" lon="11.2014283"><ele>139.5</ele><time>2026-04-18T18:27:45.824Z</time></trkpt><trkpt lat="45.4290782" lon="11.2013967"><ele>142.25</ele><time>2026-04-18T18:27:46.83Z</time></trkpt><trkpt lat="45.429206" lon="11.2013376"><ele>145.0</ele><time>2026-04-18T18:27:47.851Z</time></trkpt><trkpt lat="45.4293326" lon="11.2012501"><ele>145.0</ele><time>2026-04-18T18:27:48.83Z</time></trkpt><trkpt lat="45.4294517" lon="11.2011381"><ele>145.0</ele><time>2026-04-18T18:27:49.818Z</time></trkpt><trkpt lat="45.4295612" lon="11.2010036"><ele>145.0</ele><time>2026-04-18T18:27:50.829Z</time></trkpt><trkpt lat="45.4296603" lon="11.2008491"><ele>145.0</ele><time>2026-04-18T18:27:51.821Z</time></trkpt><trkpt lat="45.4297547" lon="11.2006908"><ele>146.5</ele><time>2026-04-18T18:27:52.838Z</time></trkpt><trkpt lat="45.4298409" lon="11.2005414"><ele>148.0</ele><time>2026-04-18T18:27:53.829Z</time></trkpt><trkpt lat="45.4299185" lon="11.2004062"><ele>149.5</ele><time>2026-04-18T18:27:54.826Z</time></trkpt><trkpt lat="45.4299916" lon="11.2002862"><ele>151.0</ele><time>2026-04-18T18:27:55.826Z</time></trkpt><trkpt lat="45.4300579" lon="11.200176"><ele>151.0</ele><time>2026-04-18T18:27:56.823Z</time></trkpt><trkpt lat="45.4301188" lon="11.2000703"><ele>151.0</ele><time>2026-04-18T18:27:57.825Z</time></trkpt><trkpt lat="45.4301833" lon="11.1999661"><ele>151.0</ele><time>2026-04-18T18:27:58.824Z</time></trkpt><trkpt lat="45.4302481" lon="11.1998579"><ele>151.0</ele><time>2026-04-18T18:27:59.824Z</time></trkpt><trkpt lat="45.4303157" lon="11.1997464"><ele>151.0</ele><time>2026-04-18T18:28:00.823Z</time></trkpt><trkpt lat="45.4303853" lon="11.1996437"><ele>150.8</ele><time>2026-04-18T18:28:01.832Z</time></trkpt><trkpt lat="45.4304501" lon="11.1995447"><ele>150.6</ele><time>2026-04-18T18:28:02.824Z</time></trkpt><trkpt lat="45.4305133" lon="11.1994469"><ele>150.4</ele><time>2026-04-18T18:28:03.822Z</time></trkpt><trkpt lat="45.4305754" lon="11.1993523"><ele>150.2</ele><time>2026-04-18T18:28:04.836Z</time></trkpt><trkpt lat="45.4306352" lon="11.1992546"><ele>150.0</ele><time>2026-04-18T18:28:05.828Z</time></trkpt><trkpt lat="45.4306962" lon="11.1991525"><ele>152.4</ele><time>2026-04-18T18:28:06.831Z</time></trkpt><trkpt lat="45.4307583" lon="11.1990477"><ele>154.8</ele><time>2026-04-18T18:28:07.828Z</time></trkpt><trkpt lat="45.4308211" lon="11.1989432"><ele>157.2</ele><time>2026-04-18T18:28:08.829Z</time></trkpt><trkpt lat="45.4308866" lon="11.1988351"><ele>159.6</ele><time>2026-04-18T18:28:09.836Z</time></trkpt><trkpt lat="45.4309525" lon="11.1987272"><ele>162.0</ele><time>2026-04-18T18:28:10.824Z</time></trkpt><trkpt lat="45.4310222" lon="11.198618"><ele>162.2</ele><time>2026-04-18T18:28:11.821Z</time></trkpt><trkpt lat="45.4310922" lon="11.1985091"><ele>162.39999999999998</ele><time>2026-04-18T18:28:12.83Z</time></trkpt><trkpt lat="45.4311598" lon="11.1983984"><ele>162.60000000000002</ele><time>2026-04-18T18:28:13.822Z</time></trkpt><trkpt lat="45.4312305" lon="11.1982887"><ele>162.8</ele><time>2026-04-18T18:28:14.826Z</time></trkpt><trkpt lat="45.4313055" lon="11.1981805"><ele>163.0</ele><time>2026-04-18T18:28:15.822Z</time></trkpt><trkpt lat="45.431384" lon="11.1980686"><ele>165.2</ele><time>2026-04-18T18:28:16.824Z</time></trkpt><trkpt lat="45.4314596" lon="11.1979632"><ele>167.4</ele><time>2026-04-18T18:28:17.824Z</time></trkpt><trkpt lat="45.4315338" lon="11.1978514"><ele>169.6</ele><time>2026-04-18T18:28:18.825Z</time></trkpt><trkpt lat="45.4316134" lon="11.1977416"><ele>171.79999999999998</ele><time>2026-04-18T18:28:19.839Z</time></trkpt><trkpt lat="45.4316941" lon="11.1976318"><ele>174.0</ele><time>2026-04-18T18:28:20.831Z</time></trkpt><trkpt lat="45.4317805" lon="11.1975086"><ele>174.0</ele><time>2026-04-18T18:28:21.823Z</time></trkpt><trkpt lat="45.4318628" lon="11.1973816"><ele>174.0</ele><time>2026-04-18T18:28:22.833Z</time></trkpt><trkpt lat="45.4319457" lon="11.1972543"><ele>174.0</ele><time>2026-04-18T18:28:23.826Z</time></trkpt><trkpt lat="45.4320275" lon="11.1971227"><ele>174.0</ele><time>2026-04-18T18:28:24.826Z</time></trkpt><trkpt lat="45.4321085" lon="11.1969897"><ele>174.25</ele><time>2026-04-18T18:28:25.829Z</time></trkpt><trkpt lat="45.4321917" lon="11.1968547"><ele>174.5</ele><time>2026-04-18T18:28:26.82Z</time></trkpt><trkpt lat="45.4322701" lon="11.1967214"><ele>174.75</ele><time>2026-04-18T18:28:27.825Z</time></trkpt><trkpt lat="45.4323446" lon="11.1965987"><ele>175.0</ele><time>2026-04-18T18:28:28.82Z</time></trkpt><trkpt lat="45.4324244" lon="11.1964815"><ele>174.25</ele><time>2026-04-18T18:28:29.831Z</time></trkpt><trkpt lat="45.432512" lon="11.1963713"><ele>173.5</ele><time>2026-04-18T18:28:30.834Z</time></trkpt><trkpt lat="45.4326105" lon="11.19627"><ele>172.75</ele><time>2026-04-18T18:28:31.824Z</time></trkpt><trkpt lat="45.4327105" lon="11.1961727"><ele>172.0</ele><time>2026-04-18T18:28:32.823Z</time></trkpt><trkpt lat="45.4328052" lon="11.1960823"><ele>172.0</ele><time>2026-04-18T18:28:33.832Z</time></trkpt><trkpt lat="45.4328911" lon="11.1959947"><ele>172.0</ele><time>2026-04-18T18:28:34.825Z</time></trkpt><trkpt lat="45.432974" lon="11.1958939"><ele>172.0</ele><time>2026-04-18T18:28:35.831Z</time></trkpt><trkpt lat="45.4330537" lon="11.1957758"><ele>172.0</ele><time>2026-04-18T18:28:36.828Z</time></trkpt><trkpt lat="45.4331265" lon="11.1956431"><ele>172.0</ele><time>2026-04-18T18:28:37.823Z</time></trkpt><trkpt lat="45.4331866" lon="11.1954894"><ele>172.5</ele><time>2026-04-18T18:28:38.826Z</time></trkpt><trkpt lat="45.4332326" lon="11.1953104"><ele>173.0</ele><time>2026-04-18T18:28:39.819Z</time></trkpt><trkpt lat="45.4332748" lon="11.1951292"><ele>173.5</ele><time>2026-04-18T18:28:40.832Z</time></trkpt><trkpt lat="45.4333157" lon="11.19494"><ele>174.0</ele><time>2026-04-18T18:28:41.831Z</time></trkpt><trkpt lat="45.4333476" lon="11.1947524"><ele>174.0</ele><time>2026-04-18T18:28:42.819Z</time></trkpt><trkpt lat="45.433372" lon="11.1945765"><ele>174.0</ele><time>2026-04-18T18:28:43.822Z</time></trkpt><trkpt lat="45.4333971" lon="11.1944169"><ele>174.0</ele><time>2026-04-18T18:28:44.828Z</time></trkpt><trkpt lat="45.4334173" lon="11.1942682"><ele>174.0</ele><time>2026-04-18T18:28:45.829Z</time></trkpt><trkpt lat="45.4334344" lon="11.1941324"><ele>174.0</ele><time>2026-04-18T18:28:46.829Z</time></trkpt><trkpt lat="45.4334459" lon="11.1940024"><ele>173.2</ele><time>2026-04-18T18:28:47.824Z</time></trkpt><trkpt lat="45.4334488" lon="11.193892"><ele>172.39999999999998</ele><time>2026-04-18T18:28:48.848Z</time></trkpt><trkpt lat="45.4334473" lon="11.1937951"><ele>171.6</ele><time>2026-04-18T18:28:49.853Z</time></trkpt><trkpt lat="45.4334417" lon="11.1936237"><ele>170.8</ele><time>2026-04-18T18:28:51.838Z</time></trkpt><trkpt lat="45.43336" lon="11.1935034"><ele>170.0</ele><time>2026-04-18T18:28:53.825Z</time></trkpt><trkpt lat="45.4332472" lon="11.1933842"><ele>170.0</ele><time>2026-04-18T18:28:55.825Z</time></trkpt><trkpt lat="45.4331751" lon="11.1933119"><ele>170.0</ele><time>2026-04-18T18:28:56.826Z</time></trkpt><trkpt lat="45.4330984" lon="11.1932359"><ele>170.0</ele><time>2026-04-18T18:28:57.821Z</time></trkpt><trkpt lat="45.433022" lon="11.1931633"><ele>170.0</ele><time>2026-04-18T18:28:58.832Z</time></trkpt><trkpt lat="45.4329408" lon="11.1930727"><ele>170.0</ele><time>2026-04-18T18:28:59.824Z</time></trkpt><trkpt lat="45.4328586" lon="11.1929814"><ele>169.0</ele><time>2026-04-18T18:29:00.824Z</time></trkpt><trkpt lat="45.4327792" lon="11.1928891"><ele>168.0</ele><time>2026-04-18T18:29:01.819Z</time></trkpt><trkpt lat="45.4327058" lon="11.1927949"><ele>167.0</ele><time>2026-04-18T18:29:02.831Z</time></trkpt><trkpt lat="45.4326365" lon="11.1926961"><ele>166.0</ele><time>2026-04-18T18:29:03.821Z</time></trkpt><trkpt lat="45.4325728" lon="11.1925849"><ele>165.0</ele><time>2026-04-18T18:29:04.823Z</time></trkpt><trkpt lat="45.4325134" lon="11.1924656"><ele>165.0</ele><time>2026-04-18T18:29:05.828Z</time></trkpt><trkpt lat="45.4324503" lon="11.1923408"><ele>165.0</ele><time>2026-04-18T18:29:06.828Z</time></trkpt><trkpt lat="45.4323892" lon="11.1922125"><ele>165.0</ele><time>2026-04-18T18:29:07.826Z</time></trkpt><trkpt lat="45.4323258" lon="11.1920912"><ele>165.0</ele><time>2026-04-18T18:29:08.832Z</time></trkpt><trkpt lat="45.4322631" lon="11.1919738"><ele>165.0</ele><time>2026-04-18T18:29:09.833Z</time></trkpt><trkpt lat="45.4321995" lon="11.1918605"><ele>163.5</ele><time>2026-04-18T18:29:10.828Z</time></trkpt><trkpt lat="45.4321367" lon="11.1917506"><ele>162.0</ele><time>2026-04-18T18:29:11.824Z</time></trkpt><trkpt lat="45.4320749" lon="11.1916441"><ele>160.5</ele><time>2026-04-18T18:29:12.83Z</time></trkpt><trkpt lat="45.4320238" lon="11.1915443"><ele>159.0</ele><time>2026-04-18T18:29:13.823Z</time></trkpt><trkpt lat="45.4319801" lon="11.191455"><ele>157.5</ele><time>2026-04-18T18:29:14.828Z</time></trkpt><trkpt lat="45.4319417" lon="11.1913726"><ele>156.0</ele><time>2026-04-18T18:29:15.823Z</time></trkpt><trkpt lat="45.4319137" lon="11.1912922"><ele>156.0</ele><time>2026-04-18T18:29:16.825Z</time></trkpt><trkpt lat="45.4319396" lon="11.1911337"><ele>156.0</ele><time>2026-04-18T18:29:18.828Z</time></trkpt><trkpt lat="45.431985" lon="11.1910486"><ele>156.0</ele><time>2026-04-18T18:29:19.823Z</time></trkpt><trkpt lat="45.4320361" lon="11.1909578"><ele>156.0</ele><time>2026-04-18T18:29:20.827Z</time></trkpt><trkpt lat="45.4320926" lon="11.190867"><ele>156.0</ele><time>2026-04-18T18:29:21.83Z</time></trkpt><trkpt lat="45.4321443" lon="11.1907794"><ele>156.0</ele><time>2026-04-18T18:29:22.823Z</time></trkpt><trkpt lat="45.4321816" lon="11.1906785"><ele>156.33333333333334</ele><time>2026-04-18T18:29:23.823Z</time></trkpt><trkpt lat="45.4321875" lon="11.1905564"><ele>156.66666666666666</ele><time>2026-04-18T18:29:24.84Z</time></trkpt><trkpt lat="45.4321762" lon="11.1904474"><ele>157.0</ele><time>2026-04-18T18:29:25.829Z</time></trkpt><trkpt lat="45.4321469" lon="11.1903516"><ele>157.33333333333331</ele><time>2026-04-18T18:29:26.826Z</time></trkpt><trkpt lat="45.4321171" lon="11.1902506"><ele>157.66666666666666</ele><time>2026-04-18T18:29:27.829Z</time></trkpt><trkpt lat="45.4320852" lon="11.1901444"><ele>158.0</ele><time>2026-04-18T18:29:28.826Z</time></trkpt><trkpt lat="45.4320592" lon="11.1900247"><ele>158.0</ele><time>2026-04-18T18:29:29.827Z</time></trkpt><trkpt lat="45.4320495" lon="11.1898795"><ele>158.0</ele><time>2026-04-18T18:29:30.829Z</time></trkpt><trkpt lat="45.4320314" lon="11.1897142"><ele>158.0</ele><time>2026-04-18T18:29:31.828Z</time></trkpt><trkpt lat="45.432026" lon="11.1895376"><ele>158.0</ele><time>2026-04-18T18:29:32.823Z</time></trkpt><trkpt lat="45.4320209" lon="11.1893647"><ele>156.25</ele><time>2026-04-18T18:29:33.839Z</time></trkpt><trkpt lat="45.4320118" lon="11.1891948"><ele>154.5</ele><time>2026-04-18T18:29:34.833Z</time></trkpt><trkpt lat="45.4319885" lon="11.1890237"><ele>152.75</ele><time>2026-04-18T18:29:35.826Z</time></trkpt><trkpt lat="45.4319459" lon="11.1888619"><ele>151.0</ele><time>2026-04-18T18:29:36.828Z</time></trkpt><trkpt lat="45.4318888" lon="11.1887005"><ele>146.75</ele><time>2026-04-18T18:29:37.828Z</time></trkpt><trkpt lat="45.4318198" lon="11.1885386"><ele>142.5</ele><time>2026-04-18T18:29:38.822Z</time></trkpt><trkpt lat="45.4317378" lon="11.1883857"><ele>138.25</ele><time>2026-04-18T18:29:39.824Z</time></trkpt><trkpt lat="45.4316532" lon="11.1882479"><ele>134.0</ele><time>2026-04-18T18:29:40.825Z</time></trkpt><trkpt lat="45.4315741" lon="11.1881139"><ele>137.0</ele><time>2026-04-18T18:29:41.838Z</time></trkpt><trkpt lat="45.4314987" lon="11.1879821"><ele>140.0</ele><time>2026-04-18T18:29:42.837Z</time></trkpt><trkpt lat="45.4314236" lon="11.1878536"><ele>143.0</ele><time>2026-04-18T18:29:43.825Z</time></trkpt><trkpt lat="45.4313475" lon="11.187731"><ele>146.0</ele><time>2026-04-18T18:29:44.829Z</time></trkpt><trkpt lat="45.4312753" lon="11.1876108"><ele>146.0</ele><time>2026-04-18T18:29:45.824Z</time></trkpt><trkpt lat="45.4312138" lon="11.1874842"><ele>146.0</ele><time>2026-04-18T18:29:46.822Z</time></trkpt><trkpt lat="45.4311871" lon="11.1873371"><ele>146.0</ele><time>2026-04-18T18:29:47.822Z</time></trkpt><trkpt lat="45.4311868" lon="11.187172"><ele>146.0</ele><time>2026-04-18T18:29:48.825Z</time></trkpt><trkpt lat="45.4311788" lon="11.1869976"><ele>144.0</ele><time>2026-04-18T18:29:49.823Z</time></trkpt><trkpt lat="45.4311779" lon="11.1868151"><ele>142.0</ele><time>2026-04-18T18:29:50.822Z</time></trkpt><trkpt lat="45.4311765" lon="11.1866246"><ele>140.0</ele><time>2026-04-18T18:29:51.833Z</time></trkpt><trkpt lat="45.431179" lon="11.1864334"><ele>138.0</ele><time>2026-04-18T18:29:52.834Z</time></trkpt><trkpt lat="45.4311792" lon="11.1862493"><ele>135.5</ele><time>2026-04-18T18:29:53.827Z</time></trkpt><trkpt lat="45.4311833" lon="11.1860664"><ele>133.0</ele><time>2026-04-18T18:29:54.824Z</time></trkpt><trkpt lat="45.4311822" lon="11.1858843"><ele>130.5</ele><time>2026-04-18T18:29:55.828Z</time></trkpt><trkpt lat="45.4311774" lon="11.1857054"><ele>128.0</ele><time>2026-04-18T18:29:56.826Z</time></trkpt><trkpt lat="45.4311752" lon="11.1855284"><ele>124.5</ele><time>2026-04-18T18:29:57.837Z</time></trkpt><trkpt lat="45.4311777" lon="11.185357"><ele>121.0</ele><time>2026-04-18T18:29:58.825Z</time></trkpt><trkpt lat="45.4311829" lon="11.1851894"><ele>117.5</ele><time>2026-04-18T18:29:59.833Z</time></trkpt><trkpt lat="45.4311832" lon="11.1850197"><ele>114.0</ele><time>2026-04-18T18:30:00.822Z</time></trkpt><trkpt lat="45.4311962" lon="11.1848569"><ele>111.75</ele><time>2026-04-18T18:30:01.828Z</time></trkpt><trkpt lat="45.4312129" lon="11.1846915"><ele>109.5</ele><time>2026-04-18T18:30:02.828Z</time></trkpt><trkpt lat="45.4312353" lon="11.1845265"><ele>107.25</ele><time>2026-04-18T18:30:03.82Z</time></trkpt><trkpt lat="45.4312622" lon="11.1843497"><ele>105.0</ele><time>2026-04-18T18:30:04.83Z</time></trkpt><trkpt lat="45.4312849" lon="11.1841848"><ele>105.0</ele><time>2026-04-18T18:30:05.83Z</time></trkpt><trkpt lat="45.4313034" lon="11.1840201"><ele>105.0</ele><time>2026-04-18T18:30:06.828Z</time></trkpt><trkpt lat="45.4313087" lon="11.1838591"><ele>105.0</ele><time>2026-04-18T18:30:07.827Z</time></trkpt><trkpt lat="45.4313088" lon="11.1837"><ele>105.0</ele><time>2026-04-18T18:30:08.83Z</time></trkpt><trkpt lat="45.4313067" lon="11.1835461"><ele>103.0</ele><time>2026-04-18T18:30:09.824Z</time></trkpt><trkpt lat="45.431301" lon="11.1833932"><ele>101.0</ele><time>2026-04-18T18:30:10.823Z</time></trkpt><trkpt lat="45.4312859" lon="11.1832306"><ele>99.0</ele><time>2026-04-18T18:30:11.822Z</time></trkpt><trkpt lat="45.4312585" lon="11.1830639"><ele>97.0</ele><time>2026-04-18T18:30:12.822Z</time></trkpt><trkpt lat="45.4312242" lon="11.1829041"><ele>93.75</ele><time>2026-04-18T18:30:13.83Z</time></trkpt><trkpt lat="45.4311857" lon="11.1827465"><ele>90.5</ele><time>2026-04-18T18:30:14.822Z</time></trkpt><trkpt lat="45.4311377" lon="11.1825951"><ele>87.25</ele><time>2026-04-18T18:30:15.822Z</time></trkpt><trkpt lat="45.4310749" lon="11.1824495"><ele>84.0</ele><time>2026-04-18T18:30:16.831Z</time></trkpt><trkpt lat="45.4310079" lon="11.1823079"><ele>81.75</ele><time>2026-04-18T18:30:17.819Z</time></trkpt><trkpt lat="45.430937" lon="11.1821669"><ele>79.5</ele><time>2026-04-18T18:30:18.819Z</time></trkpt><trkpt lat="45.4308689" lon="11.1820345"><ele>77.25</ele><time>2026-04-18T18:30:19.826Z</time></trkpt><trkpt lat="45.4308062" lon="11.1819092"><ele>75.0</ele><time>2026-04-18T18:30:20.817Z</time></trkpt><trkpt lat="45.4307472" lon="11.1817858"><ele>75.0</ele><time>2026-04-18T18:30:21.825Z</time></trkpt><trkpt lat="45.4306873" lon="11.1816615"><ele>75.0</ele><time>2026-04-18T18:30:22.82Z</time></trkpt><trkpt lat="45.4306286" lon="11.1815471"><ele>75.0</ele><time>2026-04-18T18:30:23.829Z</time></trkpt><trkpt lat="45.4305757" lon="11.1814419"><ele>75.0</ele><time>2026-04-18T18:30:24.825Z</time></trkpt><trkpt lat="45.4305305" lon="11.1813535"><ele>75.0</ele><time>2026-04-18T18:30:25.832Z</time></trkpt><trkpt lat="45.430492" lon="11.1812815"><ele>75.0</ele><time>2026-04-18T18:30:26.823Z</time></trkpt><trkpt lat="45.4304302" lon="11.1811655"><ele>74.2</ele><time>2026-04-18T18:30:28.822Z</time></trkpt><trkpt lat="45.4303911" lon="11.1810331"><ele>73.4</ele><time>2026-04-18T18:30:31.828Z</time></trkpt><trkpt lat="45.430351" lon="11.1809376"><ele>72.6</ele><time>2026-04-18T18:30:32.823Z</time></trkpt><trkpt lat="45.4303196" lon="11.1808014"><ele>71.8</ele><time>2026-04-18T18:30:33.828Z</time></trkpt><trkpt lat="45.4303081" lon="11.1806255"><ele>71.0</ele><time>2026-04-18T18:30:34.829Z</time></trkpt><trkpt lat="45.4303244" lon="11.1804254"><ele>70.66666666666667</ele><time>2026-04-18T18:30:35.83Z</time></trkpt><trkpt lat="45.4303629" lon="11.1801952"><ele>70.33333333333333</ele><time>2026-04-18T18:30:36.827Z</time></trkpt><trkpt lat="45.430418" lon="11.1799549"><ele>70.0</ele><time>2026-04-18T18:30:37.817Z</time></trkpt><trkpt lat="45.4304737" lon="11.179731"><ele>71.0</ele><time>2026-04-18T18:30:38.822Z</time></trkpt><trkpt lat="45.4305252" lon="11.1795235"><ele>72.0</ele><time>2026-04-18T18:30:39.832Z</time></trkpt><trkpt lat="45.4305759" lon="11.1793149"><ele>73.0</ele><time>2026-04-18T18:30:40.823Z</time></trkpt><trkpt lat="45.4306252" lon="11.179118"><ele>73.0</ele><time>2026-04-18T18:30:41.829Z</time></trkpt><trkpt lat="45.4306733" lon="11.1789303"><ele>73.0</ele><time>2026-04-18T18:30:42.828Z</time></trkpt><trkpt lat="45.4307165" lon="11.1787556"><ele>73.0</ele><time>2026-04-18T18:30:43.831Z</time></trkpt><trkpt lat="45.4307527" lon="11.1785871"><ele>73.0</ele><time>2026-04-18T18:30:44.821Z</time></trkpt><trkpt lat="45.4307789" lon="11.1784261"><ele>73.0</ele><time>2026-04-18T18:30:45.833Z</time></trkpt><trkpt lat="45.4307942" lon="11.1782774"><ele>73.0</ele><time>2026-04-18T18:30:46.819Z</time></trkpt><trkpt lat="45.4308042" lon="11.1781436"><ele>73.0</ele><time>2026-04-18T18:30:47.821Z</time></trkpt><trkpt lat="45.4308098" lon="11.1780214"><ele>73.0</ele><time>2026-04-18T18:30:48.833Z</time></trkpt><trkpt lat="45.430813" lon="11.1779121"><ele>73.0</ele><time>2026-04-18T18:30:49.824Z</time></trkpt><trkpt lat="45.4308104" lon="11.1778123"><ele>73.0</ele><time>2026-04-18T18:30:50.821Z</time></trkpt><trkpt lat="45.430813" lon="11.1776524"><ele>72.8</ele><time>2026-04-18T18:30:52.818Z</time></trkpt><trkpt lat="45.4308076" lon="11.177555"><ele>72.6</ele><time>2026-04-18T18:31:38.826Z</time></trkpt><trkpt lat="45.4307973" lon="11.1774192"><ele>72.4</ele><time>2026-04-18T18:31:40.83Z</time></trkpt><trkpt lat="45.4306911" lon="11.1773223"><ele>72.2</ele><time>2026-04-18T18:31:42.835Z</time></trkpt><trkpt lat="45.4305952" lon="11.1772932"><ele>72.0</ele><time>2026-04-18T18:31:43.827Z</time></trkpt><trkpt lat="45.4304758" lon="11.177265"><ele>71.0</ele><time>2026-04-18T18:31:44.822Z</time></trkpt><trkpt lat="45.4303397" lon="11.1772348"><ele>70.0</ele><time>2026-04-18T18:31:45.831Z</time></trkpt><trkpt lat="45.4301873" lon="11.1771936"><ele>69.0</ele><time>2026-04-18T18:31:46.837Z</time></trkpt><trkpt lat="45.4300264" lon="11.1771486"><ele>69.0</ele><time>2026-04-18T18:31:47.822Z</time></trkpt><trkpt lat="45.4298593" lon="11.177106"><ele>69.0</ele><time>2026-04-18T18:31:48.83Z</time></trkpt><trkpt lat="45.4296909" lon="11.1770645"><ele>69.0</ele><time>2026-04-18T18:31:49.828Z</time></trkpt><trkpt lat="45.4295219" lon="11.1770269"><ele>68.33333333333333</ele><time>2026-04-18T18:31:50.821Z</time></trkpt><trkpt lat="45.4293543" lon="11.1769915"><ele>67.66666666666666</ele><time>2026-04-18T18:31:51.827Z</time></trkpt><trkpt lat="45.4291852" lon="11.1769587"><ele>67.0</ele><time>2026-04-18T18:31:52.829Z</time></trkpt><trkpt lat="45.4290212" lon="11.1769272"><ele>67.0</ele><time>2026-04-18T18:31:53.83Z</time></trkpt><trkpt lat="45.4288593" lon="11.1768979"><ele>67.0</ele><time>2026-04-18T18:31:54.83Z</time></trkpt><trkpt lat="45.4286976" lon="11.1768711"><ele>67.0</ele><time>2026-04-18T18:31:55.84Z</time></trkpt><trkpt lat="45.4285372" lon="11.1768422"><ele>65.66666666666666</ele><time>2026-04-18T18:31:56.825Z</time></trkpt><trkpt lat="45.4283766" lon="11.1768171"><ele>64.33333333333333</ele><time>2026-04-18T18:31:57.822Z</time></trkpt><trkpt lat="45.4282187" lon="11.1767908"><ele>63.0</ele><time>2026-04-18T18:31:58.825Z</time></trkpt><trkpt lat="45.4280582" lon="11.1767713"><ele>62.66666666666667</ele><time>2026-04-18T18:31:59.83Z</time></trkpt><trkpt lat="45.4278995" lon="11.1767576"><ele>62.333333333333336</ele><time>2026-04-18T18:32:00.826Z</time></trkpt><trkpt lat="45.4277379" lon="11.1767442"><ele>62.0</ele><time>2026-04-18T18:32:01.826Z</time></trkpt><trkpt lat="45.4275762" lon="11.1767341"><ele>62.0</ele><time>2026-04-18T18:32:02.832Z</time></trkpt><trkpt lat="45.4274146" lon="11.1767251"><ele>62.0</ele><time>2026-04-18T18:32:03.828Z</time></trkpt><trkpt lat="45.4272507" lon="11.1767124"><ele>62.0</ele><time>2026-04-18T18:32:04.834Z</time></trkpt><trkpt lat="45.4270834" lon="11.176699"><ele>62.0</ele><time>2026-04-18T18:32:05.83Z</time></trkpt><trkpt lat="45.4269154" lon="11.1766866"><ele>62.0</ele><time>2026-04-18T18:32:06.834Z</time></trkpt><trkpt lat="45.4267466" lon="11.1766763"><ele>62.0</ele><time>2026-04-18T18:32:07.832Z</time></trkpt><trkpt lat="45.4265756" lon="11.1766658"><ele>62.0</ele><time>2026-04-18T18:32:08.824Z</time></trkpt><trkpt lat="45.4264043" lon="11.1766535"><ele>62.0</ele><time>2026-04-18T18:32:09.82Z</time></trkpt><trkpt lat="45.4262323" lon="11.1766347"><ele>62.0</ele><time>2026-04-18T18:32:10.821Z</time></trkpt><trkpt lat="45.4260632" lon="11.1766099"><ele>62.0</ele><time>2026-04-18T18:32:11.83Z</time></trkpt><trkpt lat="45.4258916" lon="11.1765892"><ele>62.0</ele><time>2026-04-18T18:32:12.83Z</time></trkpt><trkpt lat="45.4257217" lon="11.1765691"><ele>62.0</ele><time>2026-04-18T18:32:13.83Z</time></trkpt><trkpt lat="45.4255543" lon="11.1765531"><ele>61.333333333333336</ele><time>2026-04-18T18:32:14.825Z</time></trkpt><trkpt lat="45.4253876" lon="11.1765316"><ele>60.66666666666667</ele><time>2026-04-18T18:32:15.831Z</time></trkpt><trkpt lat="45.4252189" lon="11.1765091"><ele>60.0</ele><time>2026-04-18T18:32:16.828Z</time></trkpt><trkpt lat="45.4250496" lon="11.1764865"><ele>59.66666666666667</ele><time>2026-04-18T18:32:17.827Z</time></trkpt><trkpt lat="45.4248803" lon="11.176461"><ele>59.333333333333336</ele><time>2026-04-18T18:32:18.821Z</time></trkpt><trkpt lat="45.4247153" lon="11.1764382"><ele>59.0</ele><time>2026-04-18T18:32:19.821Z</time></trkpt><trkpt lat="45.4245539" lon="11.1764169"><ele>58.0</ele><time>2026-04-18T18:32:20.82Z</time></trkpt><trkpt lat="45.4243921" lon="11.1763972"><ele>57.0</ele><time>2026-04-18T18:32:21.829Z</time></trkpt><trkpt lat="45.4242289" lon="11.1763798"><ele>56.0</ele><time>2026-04-18T18:32:22.83Z</time></trkpt><trkpt lat="45.4240663" lon="11.1763636"><ele>56.0</ele><time>2026-04-18T18:32:23.839Z</time></trkpt><trkpt lat="45.4239049" lon="11.1763421"><ele>56.0</ele><time>2026-04-18T18:32:24.826Z</time></trkpt><trkpt lat="45.4237452" lon="11.1763231"><ele>56.0</ele><time>2026-04-18T18:32:25.821Z</time></trkpt><trkpt lat="45.4235829" lon="11.1763036"><ele>56.333333333333336</ele><time>2026-04-18T18:32:26.824Z</time></trkpt><trkpt lat="45.4234207" lon="11.1762859"><ele>56.66666666666667</ele><time>2026-04-18T18:32:27.834Z</time></trkpt><trkpt lat="45.4232603" lon="11.176269"><ele>57.0</ele><time>2026-04-18T18:32:28.826Z</time></trkpt><trkpt lat="45.4231018" lon="11.1762574"><ele>56.75</ele><time>2026-04-18T18:32:29.834Z</time></trkpt><trkpt lat="45.4229471" lon="11.1762488"><ele>56.5</ele><time>2026-04-18T18:32:30.823Z</time></trkpt><trkpt lat="45.4228041" lon="11.1762397"><ele>56.25</ele><time>2026-04-18T18:32:31.838Z</time></trkpt><trkpt lat="45.4226774" lon="11.1762329"><ele>56.0</ele><time>2026-04-18T18:32:32.828Z</time></trkpt><trkpt lat="45.4225618" lon="11.1762279"><ele>56.0</ele><time>2026-04-18T18:32:33.826Z</time></trkpt><trkpt lat="45.4224594" lon="11.1762207"><ele>55.99999999999999</ele><time>2026-04-18T18:32:34.829Z</time></trkpt><trkpt lat="45.422369" lon="11.1762143"><ele>55.99999999999999</ele><time>2026-04-18T18:32:35.833Z</time></trkpt><trkpt lat="45.4222667" lon="11.1762057"><ele>56.0</ele><time>2026-04-18T18:32:36.825Z</time></trkpt><trkpt lat="45.4221458" lon="11.1761958"><ele>56.0</ele><time>2026-04-18T18:32:37.824Z</time></trkpt><trkpt lat="45.4219957" lon="11.1761951"><ele>55.333333333333336</ele><time>2026-04-18T18:32:38.828Z</time></trkpt><trkpt lat="45.4218227" lon="11.1761991"><ele>54.66666666666667</ele><time>2026-04-18T18:32:39.825Z</time></trkpt><trkpt lat="45.4216309" lon="11.1761747"><ele>54.0</ele><time>2026-04-18T18:32:40.826Z</time></trkpt><trkpt lat="45.4214232" lon="11.1761386"><ele>54.0</ele><time>2026-04-18T18:32:41.834Z</time></trkpt><trkpt lat="45.4212112" lon="11.1760967"><ele>54.0</ele><time>2026-04-18T18:32:42.828Z</time></trkpt><trkpt lat="45.4210177" lon="11.1760539"><ele>54.0</ele><time>2026-04-18T18:32:43.831Z</time></trkpt><trkpt lat="45.4208197" lon="11.1760064"><ele>54.0</ele><time>2026-04-18T18:32:44.827Z</time></trkpt><trkpt lat="45.4206267" lon="11.1759539"><ele>54.0</ele><time>2026-04-18T18:32:45.828Z</time></trkpt><trkpt lat="45.4204298" lon="11.175896"><ele>54.0</ele><time>2026-04-18T18:32:46.829Z</time></trkpt><trkpt lat="45.4202367" lon="11.1758225"><ele>54.33333333333333</ele><time>2026-04-18T18:32:47.82Z</time></trkpt><trkpt lat="45.4200451" lon="11.1757421"><ele>54.666666666666664</ele><time>2026-04-18T18:32:48.825Z</time></trkpt><trkpt lat="45.4198618" lon="11.1756638"><ele>55.0</ele><time>2026-04-18T18:32:49.824Z</time></trkpt><trkpt lat="45.4196872" lon="11.1755855"><ele>53.666666666666664</ele><time>2026-04-18T18:32:50.821Z</time></trkpt><trkpt lat="45.4195117" lon="11.1755069"><ele>52.33333333333333</ele><time>2026-04-18T18:32:51.824Z</time></trkpt><trkpt lat="45.4193372" lon="11.1754357"><ele>51.0</ele><time>2026-04-18T18:32:52.825Z</time></trkpt><trkpt lat="45.4191607" lon="11.1753603"><ele>51.0</ele><time>2026-04-18T18:32:53.83Z</time></trkpt><trkpt lat="45.4189925" lon="11.1752954"><ele>51.0</ele><time>2026-04-18T18:32:54.833Z</time></trkpt><trkpt lat="45.4188294" lon="11.1752218"><ele>51.0</ele><time>2026-04-18T18:32:55.825Z</time></trkpt><trkpt lat="45.4186464" lon="11.1751327"><ele>51.66666666666667</ele><time>2026-04-18T18:32:56.827Z</time></trkpt><trkpt lat="45.4184738" lon="11.1750549"><ele>52.333333333333336</ele><time>2026-04-18T18:32:57.836Z</time></trkpt><trkpt lat="45.4183065" lon="11.1749775"><ele>53.0</ele><time>2026-04-18T18:32:58.818Z</time></trkpt><trkpt lat="45.4181456" lon="11.1749115"><ele>52.0</ele><time>2026-04-18T18:32:59.825Z</time></trkpt><trkpt lat="45.4179704" lon="11.1748511"><ele>51.0</ele><time>2026-04-18T18:33:00.829Z</time></trkpt><trkpt lat="45.4178007" lon="11.1747987"><ele>50.0</ele><time>2026-04-18T18:33:01.825Z</time></trkpt><trkpt lat="45.4176473" lon="11.1747479"><ele>50.0</ele><time>2026-04-18T18:33:02.824Z</time></trkpt><trkpt lat="45.4175" lon="11.1746902"><ele>50.0</ele><time>2026-04-18T18:33:03.82Z</time></trkpt><trkpt lat="45.4173508" lon="11.1746179"><ele>50.0</ele><time>2026-04-18T18:33:04.85Z</time></trkpt><trkpt lat="45.4172145" lon="11.1745309"><ele>49.5</ele><time>2026-04-18T18:33:05.833Z</time></trkpt><trkpt lat="45.4170933" lon="11.1744336"><ele>49.0</ele><time>2026-04-18T18:33:06.84Z</time></trkpt><trkpt lat="45.4169856" lon="11.1743259"><ele>48.5</ele><time>2026-04-18T18:33:07.828Z</time></trkpt><trkpt lat="45.4168772" lon="11.1742046"><ele>48.0</ele><time>2026-04-18T18:33:08.829Z</time></trkpt><trkpt lat="45.4167912" lon="11.1740779"><ele>48.25</ele><time>2026-04-18T18:33:09.828Z</time></trkpt><trkpt lat="45.4167149" lon="11.1739291"><ele>48.5</ele><time>2026-04-18T18:33:10.825Z</time></trkpt><trkpt lat="45.4166544" lon="11.1737684"><ele>48.75</ele><time>2026-04-18T18:33:11.825Z</time></trkpt><trkpt lat="45.4165975" lon="11.1736065"><ele>49.0</ele><time>2026-04-18T18:33:12.823Z</time></trkpt><trkpt lat="45.4165507" lon="11.1734397"><ele>49.0</ele><time>2026-04-18T18:33:13.823Z</time></trkpt><trkpt lat="45.4165217" lon="11.1732698"><ele>49.0</ele><time>2026-04-18T18:33:14.824Z</time></trkpt><trkpt lat="45.4165044" lon="11.1730929"><ele>49.0</ele><time>2026-04-18T18:33:15.823Z</time></trkpt><trkpt lat="45.4164959" lon="11.1729061"><ele>49.0</ele><time>2026-04-18T18:33:16.829Z</time></trkpt><trkpt lat="45.4164918" lon="11.1727015"><ele>48.666666666666664</ele><time>2026-04-18T18:33:17.829Z</time></trkpt><trkpt lat="45.4164972" lon="11.1724705"><ele>48.33333333333333</ele><time>2026-04-18T18:33:18.824Z</time></trkpt><trkpt lat="45.4165207" lon="11.1722194"><ele>48.0</ele><time>2026-04-18T18:33:19.827Z</time></trkpt><trkpt lat="45.4165619" lon="11.1719598"><ele>48.0</ele><time>2026-04-18T18:33:20.825Z</time></trkpt><trkpt lat="45.4166052" lon="11.171713"><ele>48.0</ele><time>2026-04-18T18:33:21.817Z</time></trkpt><trkpt lat="45.4166485" lon="11.1714636"><ele>48.0</ele><time>2026-04-18T18:33:22.831Z</time></trkpt><trkpt lat="45.4166845" lon="11.1712147"><ele>48.0</ele><time>2026-04-18T18:33:23.824Z</time></trkpt><trkpt lat="45.4167207" lon="11.1709671"><ele>48.0</ele><time>2026-04-18T18:33:24.824Z</time></trkpt><trkpt lat="45.4167515" lon="11.1707253"><ele>48.0</ele><time>2026-04-18T18:33:25.825Z</time></trkpt><trkpt lat="45.4167804" lon="11.1704879"><ele>47.666666666666664</ele><time>2026-04-18T18:33:26.824Z</time></trkpt><trkpt lat="45.4168046" lon="11.1702614"><ele>47.33333333333333</ele><time>2026-04-18T18:33:27.827Z</time></trkpt><trkpt lat="45.4168253" lon="11.1700258"><ele>47.0</ele><time>2026-04-18T18:33:28.84Z</time></trkpt><trkpt lat="45.4168411" lon="11.169787"><ele>46.666666666666664</ele><time>2026-04-18T18:33:29.83Z</time></trkpt><trkpt lat="45.4168586" lon="11.1695424"><ele>46.333333333333336</ele><time>2026-04-18T18:33:30.838Z</time></trkpt><trkpt lat="45.4168783" lon="11.1692972"><ele>46.0</ele><time>2026-04-18T18:33:31.822Z</time></trkpt><trkpt lat="45.4168969" lon="11.1690497"><ele>45.66666666666667</ele><time>2026-04-18T18:33:32.835Z</time></trkpt><trkpt lat="45.416916" lon="11.1687945"><ele>45.333333333333336</ele><time>2026-04-18T18:33:33.833Z</time></trkpt><trkpt lat="45.4169329" lon="11.1685409"><ele>45.0</ele><time>2026-04-18T18:33:34.84Z</time></trkpt><trkpt lat="45.4169506" lon="11.1683025"><ele>45.0</ele><time>2026-04-18T18:33:35.827Z</time></trkpt><trkpt lat="45.4169727" lon="11.1680816"><ele>45.0</ele><time>2026-04-18T18:33:36.831Z</time></trkpt><trkpt lat="45.4169905" lon="11.167861"><ele>45.0</ele><time>2026-04-18T18:33:37.826Z</time></trkpt><trkpt lat="45.4170085" lon="11.1676379"><ele>45.0</ele><time>2026-04-18T18:33:38.829Z</time></trkpt><trkpt lat="45.4170272" lon="11.1674031"><ele>45.0</ele><time>2026-04-18T18:33:39.823Z</time></trkpt><trkpt lat="45.4170447" lon="11.1671699"><ele>45.0</ele><time>2026-04-18T18:33:40.829Z</time></trkpt><trkpt lat="45.4170641" lon="11.1669462"><ele>45.333333333333336</ele><time>2026-04-18T18:33:41.824Z</time></trkpt><trkpt lat="45.4170826" lon="11.1667163"><ele>45.66666666666667</ele><time>2026-04-18T18:33:42.834Z</time></trkpt><trkpt lat="45.4171022" lon="11.1664919"><ele>46.0</ele><time>2026-04-18T18:33:43.828Z</time></trkpt><trkpt lat="45.41712" lon="11.1662628"><ele>46.0</ele><time>2026-04-18T18:33:44.827Z</time></trkpt><trkpt lat="45.4171374" lon="11.1660341"><ele>46.0</ele><time>2026-04-18T18:33:45.828Z</time></trkpt><trkpt lat="45.4171526" lon="11.1658032"><ele>46.0</ele><time>2026-04-18T18:33:46.832Z</time></trkpt><trkpt lat="45.4171695" lon="11.165569"><ele>47.0</ele><time>2026-04-18T18:33:47.824Z</time></trkpt><trkpt lat="45.4171875" lon="11.1653386"><ele>48.0</ele><time>2026-04-18T18:33:48.825Z</time></trkpt><trkpt lat="45.4172076" lon="11.1651244"><ele>49.0</ele><time>2026-04-18T18:33:49.823Z</time></trkpt><trkpt lat="45.4172282" lon="11.1649135"><ele>48.5</ele><time>2026-04-18T18:33:50.829Z</time></trkpt><trkpt lat="45.4172463" lon="11.1647058"><ele>48.0</ele><time>2026-04-18T18:33:51.835Z</time></trkpt><trkpt lat="45.4172635" lon="11.164502"><ele>47.5</ele><time>2026-04-18T18:33:52.827Z</time></trkpt><trkpt lat="45.4172783" lon="11.1642897"><ele>47.0</ele><time>2026-04-18T18:33:53.827Z</time></trkpt><trkpt lat="45.4172913" lon="11.1640654"><ele>47.33333333333333</ele><time>2026-04-18T18:33:54.835Z</time></trkpt><trkpt lat="45.4173039" lon="11.163839"><ele>47.666666666666664</ele><time>2026-04-18T18:33:55.824Z</time></trkpt><trkpt lat="45.4173162" lon="11.1636093"><ele>48.0</ele><time>2026-04-18T18:33:56.834Z</time></trkpt><trkpt lat="45.4173303" lon="11.1633736"><ele>48.33333333333333</ele><time>2026-04-18T18:33:57.826Z</time></trkpt><trkpt lat="45.4173473" lon="11.1631408"><ele>48.666666666666664</ele><time>2026-04-18T18:33:58.836Z</time></trkpt><trkpt lat="45.4173672" lon="11.1629106"><ele>49.0</ele><time>2026-04-18T18:33:59.827Z</time></trkpt><trkpt lat="45.4173878" lon="11.1626891"><ele>49.0</ele><time>2026-04-18T18:34:00.827Z</time></trkpt><trkpt lat="45.4174052" lon="11.1624752"><ele>49.0</ele><time>2026-04-18T18:34:01.83Z</time></trkpt><trkpt lat="45.4174216" lon="11.1622643"><ele>49.0</ele><time>2026-04-18T18:34:02.824Z</time></trkpt><trkpt lat="45.417438" lon="11.1620553"><ele>49.0</ele><time>2026-04-18T18:34:03.825Z</time></trkpt><trkpt lat="45.4174544" lon="11.1618434"><ele>49.0</ele><time>2026-04-18T18:34:04.828Z</time></trkpt><trkpt lat="45.4174699" lon="11.1616294"><ele>49.0</ele><time>2026-04-18T18:34:05.825Z</time></trkpt><trkpt lat="45.4174851" lon="11.1614136"><ele>49.0</ele><time>2026-04-18T18:34:06.836Z</time></trkpt><trkpt lat="45.417502" lon="11.1611964"><ele>49.0</ele><time>2026-04-18T18:34:07.829Z</time></trkpt><trkpt lat="45.4175191" lon="11.1609761"><ele>49.0</ele><time>2026-04-18T18:34:08.823Z</time></trkpt><trkpt lat="45.4175363" lon="11.1607466"><ele>49.0</ele><time>2026-04-18T18:34:09.828Z</time></trkpt><trkpt lat="45.4175528" lon="11.1605049"><ele>48.33333333333333</ele><time>2026-04-18T18:34:10.826Z</time></trkpt><trkpt lat="45.4175669" lon="11.1602657"><ele>47.666666666666664</ele><time>2026-04-18T18:34:11.823Z</time></trkpt><trkpt lat="45.4175841" lon="11.1600194"><ele>47.0</ele><time>2026-04-18T18:34:12.819Z</time></trkpt><trkpt lat="45.4176015" lon="11.1597774"><ele>46.666666666666664</ele><time>2026-04-18T18:34:13.821Z</time></trkpt><trkpt lat="45.4176195" lon="11.1595336"><ele>46.333333333333336</ele><time>2026-04-18T18:34:14.83Z</time></trkpt><trkpt lat="45.4176362" lon="11.1592969"><ele>46.0</ele><time>2026-04-18T18:34:15.83Z</time></trkpt><trkpt lat="45.4176563" lon="11.1590622"><ele>46.333333333333336</ele><time>2026-04-18T18:34:16.825Z</time></trkpt><trkpt lat="45.4176705" lon="11.1588316"><ele>46.666666666666664</ele><time>2026-04-18T18:34:17.823Z</time></trkpt><trkpt lat="45.417689" lon="11.1586066"><ele>47.0</ele><time>2026-04-18T18:34:18.831Z</time></trkpt><trkpt lat="45.4177048" lon="11.1583849"><ele>47.0</ele><time>2026-04-18T18:34:19.831Z</time></trkpt><trkpt lat="45.4177202" lon="11.1581534"><ele>47.0</ele><time>2026-04-18T18:34:20.828Z</time></trkpt><trkpt lat="45.4177368" lon="11.1579179"><ele>47.0</ele><time>2026-04-18T18:34:21.824Z</time></trkpt><trkpt lat="45.4177569" lon="11.1576793"><ele>47.0</ele><time>2026-04-18T18:34:22.824Z</time></trkpt><trkpt lat="45.4177763" lon="11.1574394"><ele>47.0</ele><time>2026-04-18T18:34:23.823Z</time></trkpt><trkpt lat="45.417794" lon="11.1572027"><ele>47.0</ele><time>2026-04-18T18:34:24.832Z</time></trkpt><trkpt lat="45.4178106" lon="11.1569637"><ele>47.0</ele><time>2026-04-18T18:34:25.831Z</time></trkpt><trkpt lat="45.4178266" lon="11.1567269"><ele>47.0</ele><time>2026-04-18T18:34:26.828Z</time></trkpt><trkpt lat="45.4178422" lon="11.1564892"><ele>47.0</ele><time>2026-04-18T18:34:27.831Z</time></trkpt><trkpt lat="45.4178561" lon="11.1562558"><ele>46.666666666666664</ele><time>2026-04-18T18:34:28.832Z</time></trkpt><trkpt lat="45.4178694" lon="11.1560233"><ele>46.333333333333336</ele><time>2026-04-18T18:34:29.826Z</time></trkpt><trkpt lat="45.4178841" lon="11.1557893"><ele>46.0</ele><time>2026-04-18T18:34:30.828Z</time></trkpt><trkpt lat="45.4179017" lon="11.1555549"><ele>45.66666666666667</ele><time>2026-04-18T18:34:31.826Z</time></trkpt><trkpt lat="45.4179182" lon="11.1553225"><ele>45.333333333333336</ele><time>2026-04-18T18:34:32.829Z</time></trkpt><trkpt lat="45.4179323" lon="11.1550924"><ele>45.0</ele><time>2026-04-18T18:34:33.834Z</time></trkpt><trkpt lat="45.417948" lon="11.1548624"><ele>45.0</ele><time>2026-04-18T18:34:34.828Z</time></trkpt><trkpt lat="45.4179636" lon="11.1546345"><ele>45.0</ele><time>2026-04-18T18:34:35.833Z</time></trkpt><trkpt lat="45.4179803" lon="11.1544063"><ele>45.0</ele><time>2026-04-18T18:34:36.828Z</time></trkpt><trkpt lat="45.4179986" lon="11.1541779"><ele>46.0</ele><time>2026-04-18T18:34:37.83Z</time></trkpt><trkpt lat="45.418015" lon="11.1539503"><ele>47.0</ele><time>2026-04-18T18:34:38.829Z</time></trkpt><trkpt lat="45.4180334" lon="11.1537187"><ele>48.0</ele><time>2026-04-18T18:34:39.827Z</time></trkpt><trkpt lat="45.418048" lon="11.1534921"><ele>48.0</ele><time>2026-04-18T18:34:40.832Z</time></trkpt><trkpt lat="45.4180667" lon="11.1532644"><ele>48.0</ele><time>2026-04-18T18:34:41.819Z</time></trkpt><trkpt lat="45.4180842" lon="11.1530518"><ele>48.0</ele><time>2026-04-18T18:34:42.826Z</time></trkpt><trkpt lat="45.4181026" lon="11.1528456"><ele>48.0</ele><time>2026-04-18T18:34:43.835Z</time></trkpt><trkpt lat="45.4181198" lon="11.1526361"><ele>48.0</ele><time>2026-04-18T18:34:44.83Z</time></trkpt><trkpt lat="45.4181361" lon="11.1524293"><ele>48.0</ele><time>2026-04-18T18:34:45.825Z</time></trkpt><trkpt lat="45.4181498" lon="11.1522218"><ele>48.0</ele><time>2026-04-18T18:34:46.829Z</time></trkpt><trkpt lat="45.4181646" lon="11.1520246"><ele>47.5</ele><time>2026-04-18T18:34:47.822Z</time></trkpt><trkpt lat="45.4181772" lon="11.1518345"><ele>47.0</ele><time>2026-04-18T18:34:48.822Z</time></trkpt><trkpt lat="45.418191" lon="11.1516499"><ele>46.5</ele><time>2026-04-18T18:34:49.833Z</time></trkpt><trkpt lat="45.4182018" lon="11.1514699"><ele>46.0</ele><time>2026-04-18T18:34:50.835Z</time></trkpt><trkpt lat="45.4182127" lon="11.1512972"><ele>45.8</ele><time>2026-04-18T18:34:51.83Z</time></trkpt><trkpt lat="45.4182234" lon="11.1511394"><ele>45.599999999999994</ele><time>2026-04-18T18:34:52.827Z</time></trkpt><trkpt lat="45.4182297" lon="11.150997"><ele>45.4</ele><time>2026-04-18T18:34:53.827Z</time></trkpt><trkpt lat="45.4182394" lon="11.1508619"><ele>45.2</ele><time>2026-04-18T18:34:54.832Z</time></trkpt><trkpt lat="45.4182502" lon="11.1507325"><ele>45.0</ele><time>2026-04-18T18:34:55.832Z</time></trkpt><trkpt lat="45.4182617" lon="11.1506106"><ele>45.4</ele><time>2026-04-18T18:34:56.839Z</time></trkpt><trkpt lat="45.4182871" lon="11.1504804"><ele>45.8</ele><time>2026-04-18T18:34:57.822Z</time></trkpt><trkpt lat="45.4183362" lon="11.1503559"><ele>46.2</ele><time>2026-04-18T18:34:58.824Z</time></trkpt><trkpt lat="45.4183779" lon="11.1502242"><ele>46.6</ele><time>2026-04-18T18:34:59.828Z</time></trkpt><trkpt lat="45.4183813" lon="11.1500687"><ele>47.0</ele><time>2026-04-18T18:35:00.83Z</time></trkpt><trkpt lat="45.4183638" lon="11.1499073"><ele>47.0</ele><time>2026-04-18T18:35:01.829Z</time></trkpt><trkpt lat="45.4183405" lon="11.149744"><ele>47.0</ele><time>2026-04-18T18:35:02.829Z</time></trkpt><trkpt lat="45.4183284" lon="11.1495763"><ele>47.0</ele><time>2026-04-18T18:35:03.822Z</time></trkpt><trkpt lat="45.418332" lon="11.149403"><ele>47.0</ele><time>2026-04-18T18:35:04.824Z</time></trkpt><trkpt lat="45.4183453" lon="11.1492212"><ele>46.75</ele><time>2026-04-18T18:35:05.823Z</time></trkpt><trkpt lat="45.4183589" lon="11.1490324"><ele>46.5</ele><time>2026-04-18T18:35:06.832Z</time></trkpt><trkpt lat="45.418373" lon="11.148833"><ele>46.25</ele><time>2026-04-18T18:35:07.828Z</time></trkpt><trkpt lat="45.4183877" lon="11.148632"><ele>46.0</ele><time>2026-04-18T18:35:08.825Z</time></trkpt><trkpt lat="45.4184017" lon="11.1484363"><ele>46.0</ele><time>2026-04-18T18:35:09.824Z</time></trkpt><trkpt lat="45.4184175" lon="11.1482457"><ele>46.0</ele><time>2026-04-18T18:35:10.829Z</time></trkpt><trkpt lat="45.4184327" lon="11.1480492"><ele>46.0</ele><time>2026-04-18T18:35:11.818Z</time></trkpt><trkpt lat="45.4184494" lon="11.1478395"><ele>46.0</ele><time>2026-04-18T18:35:12.828Z</time></trkpt><trkpt lat="45.4184658" lon="11.1476299"><ele>45.75</ele><time>2026-04-18T18:35:13.83Z</time></trkpt><trkpt lat="45.4184813" lon="11.1474309"><ele>45.5</ele><time>2026-04-18T18:35:14.834Z</time></trkpt><trkpt lat="45.4184964" lon="11.1472437"><ele>45.25</ele><time>2026-04-18T18:35:15.833Z</time></trkpt><trkpt lat="45.4185136" lon="11.1470559"><ele>45.0</ele><time>2026-04-18T18:35:16.83Z</time></trkpt><trkpt lat="45.4185276" lon="11.1468818"><ele>44.8</ele><time>2026-04-18T18:35:17.825Z</time></trkpt><trkpt lat="45.4185401" lon="11.146722"><ele>44.6</ele><time>2026-04-18T18:35:18.827Z</time></trkpt><trkpt lat="45.4185518" lon="11.1465665"><ele>44.400000000000006</ele><time>2026-04-18T18:35:19.827Z</time></trkpt><trkpt lat="45.4185659" lon="11.1464151"><ele>44.2</ele><time>2026-04-18T18:35:20.824Z</time></trkpt><trkpt lat="45.4185783" lon="11.1462666"><ele>44.0</ele><time>2026-04-18T18:35:21.819Z</time></trkpt><trkpt lat="45.4185886" lon="11.1461273"><ele>43.800000000000004</ele><time>2026-04-18T18:35:22.822Z</time></trkpt><trkpt lat="45.4185996" lon="11.1459908"><ele>43.6</ele><time>2026-04-18T18:35:23.824Z</time></trkpt><trkpt lat="45.4186235" lon="11.1458567"><ele>43.4</ele><time>2026-04-18T18:35:24.831Z</time></trkpt><trkpt lat="45.4186783" lon="11.1457393"><ele>43.2</ele><time>2026-04-18T18:35:25.818Z</time></trkpt><trkpt lat="45.418748" lon="11.1456391"><ele>43.0</ele><time>2026-04-18T18:35:26.834Z</time></trkpt><trkpt lat="45.4187966" lon="11.1455342"><ele>43.0</ele><time>2026-04-18T18:35:27.83Z</time></trkpt><trkpt lat="45.4188205" lon="11.1453988"><ele>43.0</ele><time>2026-04-18T18:35:28.829Z</time></trkpt><trkpt lat="45.4188044" lon="11.1452626"><ele>43.0</ele><time>2026-04-18T18:35:29.825Z</time></trkpt><trkpt lat="45.418758" lon="11.1451246"><ele>43.0</ele><time>2026-04-18T18:35:30.836Z</time></trkpt><trkpt lat="45.418711" lon="11.144976"><ele>43.0</ele><time>2026-04-18T18:35:31.827Z</time></trkpt><trkpt lat="45.4186969" lon="11.1448106"><ele>43.5</ele><time>2026-04-18T18:35:32.834Z</time></trkpt><trkpt lat="45.4187055" lon="11.1446458"><ele>44.0</ele><time>2026-04-18T18:35:33.829Z</time></trkpt><trkpt lat="45.4187157" lon="11.1444826"><ele>44.5</ele><time>2026-04-18T18:35:34.827Z</time></trkpt><trkpt lat="45.4187268" lon="11.1443256"><ele>45.0</ele><time>2026-04-18T18:35:35.825Z</time></trkpt><trkpt lat="45.4187374" lon="11.144168"><ele>45.0</ele><time>2026-04-18T18:35:36.826Z</time></trkpt><trkpt lat="45.41875" lon="11.1440097"><ele>45.0</ele><time>2026-04-18T18:35:37.829Z</time></trkpt><trkpt lat="45.418763" lon="11.1438411"><ele>45.0</ele><time>2026-04-18T18:35:38.828Z</time></trkpt><trkpt lat="45.4187755" lon="11.1436673"><ele>45.0</ele><time>2026-04-18T18:35:39.837Z</time></trkpt><trkpt lat="45.4187902" lon="11.1434913"><ele>45.0</ele><time>2026-04-18T18:35:40.821Z</time></trkpt><trkpt lat="45.4188021" lon="11.1433134"><ele>45.0</ele><time>2026-04-18T18:35:41.829Z</time></trkpt><trkpt lat="45.4188131" lon="11.1431323"><ele>45.0</ele><time>2026-04-18T18:35:42.825Z</time></trkpt><trkpt lat="45.4188267" lon="11.1429437"><ele>45.0</ele><time>2026-04-18T18:35:43.822Z</time></trkpt><trkpt lat="45.4188414" lon="11.1427345"><ele>44.666666666666664</ele><time>2026-04-18T18:35:44.829Z</time></trkpt><trkpt lat="45.4188563" lon="11.1425211"><ele>44.33333333333333</ele><time>2026-04-18T18:35:45.828Z</time></trkpt><trkpt lat="45.4188734" lon="11.1423009"><ele>44.0</ele><time>2026-04-18T18:35:46.831Z</time></trkpt><trkpt lat="45.4188909" lon="11.142078"><ele>44.0</ele><time>2026-04-18T18:35:47.836Z</time></trkpt><trkpt lat="45.4189077" lon="11.1418616"><ele>44.0</ele><time>2026-04-18T18:35:48.828Z</time></trkpt><trkpt lat="45.4189231" lon="11.1416483"><ele>44.0</ele><time>2026-04-18T18:35:49.831Z</time></trkpt><trkpt lat="45.4189377" lon="11.14144"><ele>44.25</ele><time>2026-04-18T18:35:50.825Z</time></trkpt><trkpt lat="45.4189506" lon="11.1412371"><ele>44.5</ele><time>2026-04-18T18:35:51.828Z</time></trkpt><trkpt lat="45.4189627" lon="11.1410437"><ele>44.75</ele><time>2026-04-18T18:35:52.827Z</time></trkpt><trkpt lat="45.4189761" lon="11.1408547"><ele>45.0</ele><time>2026-04-18T18:35:53.829Z</time></trkpt><trkpt lat="45.4189902" lon="11.1406642"><ele>45.0</ele><time>2026-04-18T18:35:54.831Z</time></trkpt><trkpt lat="45.4190024" lon="11.1404744"><ele>45.0</ele><time>2026-04-18T18:35:55.838Z</time></trkpt><trkpt lat="45.4190148" lon="11.140288"><ele>45.0</ele><time>2026-04-18T18:35:56.826Z</time></trkpt><trkpt lat="45.4190275" lon="11.1400946"><ele>45.0</ele><time>2026-04-18T18:35:57.824Z</time></trkpt><trkpt lat="45.4190425" lon="11.1399052"><ele>45.25</ele><time>2026-04-18T18:35:58.824Z</time></trkpt><trkpt lat="45.4190584" lon="11.139704"><ele>45.5</ele><time>2026-04-18T18:35:59.822Z</time></trkpt><trkpt lat="45.4190708" lon="11.1394984"><ele>45.75</ele><time>2026-04-18T18:36:00.824Z</time></trkpt><trkpt lat="45.4190818" lon="11.1392908"><ele>46.0</ele><time>2026-04-18T18:36:01.828Z</time></trkpt><trkpt lat="45.4190961" lon="11.139082"><ele>46.25</ele><time>2026-04-18T18:36:02.826Z</time></trkpt><trkpt lat="45.4191129" lon="11.1388735"><ele>46.5</ele><time>2026-04-18T18:36:03.83Z</time></trkpt><trkpt lat="45.4191283" lon="11.138668"><ele>46.75</ele><time>2026-04-18T18:36:04.828Z</time></trkpt><trkpt lat="45.4191459" lon="11.1384655"><ele>47.0</ele><time>2026-04-18T18:36:05.824Z</time></trkpt><trkpt lat="45.4191655" lon="11.1382598"><ele>47.0</ele><time>2026-04-18T18:36:06.822Z</time></trkpt><trkpt lat="45.4191851" lon="11.1380511"><ele>47.0</ele><time>2026-04-18T18:36:07.829Z</time></trkpt><trkpt lat="45.4192027" lon="11.137816"><ele>47.0</ele><time>2026-04-18T18:36:08.833Z</time></trkpt><trkpt lat="45.4192156" lon="11.1375912"><ele>46.33333333333333</ele><time>2026-04-18T18:36:09.826Z</time></trkpt><trkpt lat="45.4192312" lon="11.1373718"><ele>45.666666666666664</ele><time>2026-04-18T18:36:10.824Z</time></trkpt><trkpt lat="45.419249" lon="11.1371497"><ele>45.0</ele><time>2026-04-18T18:36:11.831Z</time></trkpt><trkpt lat="45.4192648" lon="11.1369281"><ele>45.0</ele><time>2026-04-18T18:36:12.823Z</time></trkpt><trkpt lat="45.4192792" lon="11.1367135"><ele>45.0</ele><time>2026-04-18T18:36:13.832Z</time></trkpt><trkpt lat="45.419293" lon="11.1365156"><ele>45.0</ele><time>2026-04-18T18:36:14.831Z</time></trkpt><trkpt lat="45.4193047" lon="11.136325"><ele>45.0</ele><time>2026-04-18T18:36:15.831Z</time></trkpt><trkpt lat="45.4193215" lon="11.1361403"><ele>44.75</ele><time>2026-04-18T18:36:16.826Z</time></trkpt><trkpt lat="45.4193359" lon="11.1359577"><ele>44.5</ele><time>2026-04-18T18:36:17.824Z</time></trkpt><trkpt lat="45.4193496" lon="11.1357796"><ele>44.25</ele><time>2026-04-18T18:36:18.821Z</time></trkpt><trkpt lat="45.4193625" lon="11.1356147"><ele>44.0</ele><time>2026-04-18T18:36:19.83Z</time></trkpt><trkpt lat="45.4193753" lon="11.1354576"><ele>44.0</ele><time>2026-04-18T18:36:20.834Z</time></trkpt><trkpt lat="45.4193872" lon="11.1353075"><ele>44.0</ele><time>2026-04-18T18:36:21.823Z</time></trkpt><trkpt lat="45.4193976" lon="11.1351663"><ele>44.0</ele><time>2026-04-18T18:36:22.822Z</time></trkpt><trkpt lat="45.4194077" lon="11.1350335"><ele>44.0</ele><time>2026-04-18T18:36:23.827Z</time></trkpt><trkpt lat="45.4194179" lon="11.1348958"><ele>44.0</ele><time>2026-04-18T18:36:24.822Z</time></trkpt><trkpt lat="45.419427" lon="11.134768"><ele>43.800000000000004</ele><time>2026-04-18T18:36:25.821Z</time></trkpt><trkpt lat="45.4194352" lon="11.1346461"><ele>43.6</ele><time>2026-04-18T18:36:26.82Z</time></trkpt><trkpt lat="45.4194323" lon="11.1345162"><ele>43.4</ele><time>2026-04-18T18:36:27.827Z</time></trkpt><trkpt lat="45.4194336" lon="11.1343763"><ele>43.2</ele><time>2026-04-18T18:36:28.84Z</time></trkpt><trkpt lat="45.4194474" lon="11.134238"><ele>43.0</ele><time>2026-04-18T18:36:29.824Z</time></trkpt><trkpt lat="45.4194591" lon="11.1341015"><ele>43.0</ele><time>2026-04-18T18:36:30.825Z</time></trkpt><trkpt lat="45.4194698" lon="11.133972"><ele>43.0</ele><time>2026-04-18T18:36:31.828Z</time></trkpt><trkpt lat="45.419481" lon="11.1338503"><ele>43.0</ele><time>2026-04-18T18:36:32.832Z</time></trkpt><trkpt lat="45.4194904" lon="11.1337417"><ele>43.0</ele><time>2026-04-18T18:36:33.829Z</time></trkpt><trkpt lat="45.4195125" lon="11.1335916"><ele>43.0</ele><time>2026-04-18T18:36:35.824Z</time></trkpt><trkpt lat="45.4195288" lon="11.1334296"><ele>43.0</ele><time>2026-04-18T18:37:12.83Z</time></trkpt><trkpt lat="45.4195388" lon="11.1333162"><ele>43.0</ele><time>2026-04-18T18:37:13.819Z</time></trkpt><trkpt lat="45.419556" lon="11.1331752"><ele>43.0</ele><time>2026-04-18T18:37:14.826Z</time></trkpt><trkpt lat="45.4195716" lon="11.1330049"><ele>43.0</ele><time>2026-04-18T18:37:15.825Z</time></trkpt><trkpt lat="45.4195859" lon="11.1328117"><ele>43.0</ele><time>2026-04-18T18:37:16.823Z</time></trkpt><trkpt lat="45.4196025" lon="11.1325999"><ele>43.0</ele><time>2026-04-18T18:37:17.825Z</time></trkpt><trkpt lat="45.4196227" lon="11.1323794"><ele>43.0</ele><time>2026-04-18T18:37:18.824Z</time></trkpt><trkpt lat="45.419641" lon="11.1321523"><ele>43.0</ele><time>2026-04-18T18:37:19.828Z</time></trkpt><trkpt lat="45.4196604" lon="11.1319245"><ele>43.0</ele><time>2026-04-18T18:37:20.83Z</time></trkpt><trkpt lat="45.4196783" lon="11.1316863"><ele>43.0</ele><time>2026-04-18T18:37:21.826Z</time></trkpt><trkpt lat="45.4196935" lon="11.1314442"><ele>43.0</ele><time>2026-04-18T18:37:22.824Z</time></trkpt><trkpt lat="45.419711" lon="11.1312018"><ele>43.0</ele><time>2026-04-18T18:37:23.825Z</time></trkpt><trkpt lat="45.4197344" lon="11.1309586"><ele>43.0</ele><time>2026-04-18T18:37:24.828Z</time></trkpt><trkpt lat="45.419755" lon="11.1307152"><ele>43.0</ele><time>2026-04-18T18:37:25.825Z</time></trkpt><trkpt lat="45.4197709" lon="11.1304711"><ele>43.0</ele><time>2026-04-18T18:37:26.828Z</time></trkpt><trkpt lat="45.4197883" lon="11.1302287"><ele>43.0</ele><time>2026-04-18T18:37:27.82Z</time></trkpt><trkpt lat="45.419805" lon="11.129983"><ele>43.0</ele><time>2026-04-18T18:37:28.821Z</time></trkpt><trkpt lat="45.4198218" lon="11.1297347"><ele>42.66666666666667</ele><time>2026-04-18T18:37:29.821Z</time></trkpt><trkpt lat="45.4198436" lon="11.1294909"><ele>42.333333333333336</ele><time>2026-04-18T18:37:30.832Z</time></trkpt><trkpt lat="45.4198587" lon="11.1292479"><ele>42.0</ele><time>2026-04-18T18:37:31.823Z</time></trkpt><trkpt lat="45.419876" lon="11.1290038"><ele>42.0</ele><time>2026-04-18T18:37:32.824Z</time></trkpt><trkpt lat="45.4198986" lon="11.1287615"><ele>42.0</ele><time>2026-04-18T18:37:33.827Z</time></trkpt><trkpt lat="45.4199172" lon="11.1285176"><ele>42.0</ele><time>2026-04-18T18:37:34.831Z</time></trkpt><trkpt lat="45.4199332" lon="11.1282693"><ele>42.0</ele><time>2026-04-18T18:37:35.828Z</time></trkpt><trkpt lat="45.4199516" lon="11.1280194"><ele>42.0</ele><time>2026-04-18T18:37:36.829Z</time></trkpt><trkpt lat="45.4199708" lon="11.1277713"><ele>42.0</ele><time>2026-04-18T18:37:37.828Z</time></trkpt><trkpt lat="45.419991" lon="11.1275213"><ele>41.666666666666664</ele><time>2026-04-18T18:37:38.823Z</time></trkpt><trkpt lat="45.4200136" lon="11.1272718"><ele>41.33333333333333</ele><time>2026-04-18T18:37:39.828Z</time></trkpt><trkpt lat="45.4200342" lon="11.1270205"><ele>41.0</ele><time>2026-04-18T18:37:40.826Z</time></trkpt><trkpt lat="45.4200545" lon="11.1267733"><ele>41.0</ele><time>2026-04-18T18:37:41.826Z</time></trkpt><trkpt lat="45.4200734" lon="11.1265305"><ele>41.0</ele><time>2026-04-18T18:37:42.826Z</time></trkpt><trkpt lat="45.420087" lon="11.1262847"><ele>41.0</ele><time>2026-04-18T18:37:43.83Z</time></trkpt><trkpt lat="45.4201023" lon="11.1260441"><ele>41.0</ele><time>2026-04-18T18:37:44.825Z</time></trkpt><trkpt lat="45.4201176" lon="11.125803"><ele>41.0</ele><time>2026-04-18T18:37:45.831Z</time></trkpt><trkpt lat="45.4201345" lon="11.1255645"><ele>41.0</ele><time>2026-04-18T18:37:46.828Z</time></trkpt><trkpt lat="45.4201531" lon="11.1253282"><ele>41.0</ele><time>2026-04-18T18:37:47.824Z</time></trkpt><trkpt lat="45.4201709" lon="11.125091"><ele>41.0</ele><time>2026-04-18T18:37:48.823Z</time></trkpt><trkpt lat="45.4201886" lon="11.1248527"><ele>41.0</ele><time>2026-04-18T18:37:49.828Z</time></trkpt><trkpt lat="45.4202058" lon="11.1246131"><ele>41.33333333333333</ele><time>2026-04-18T18:37:50.828Z</time></trkpt><trkpt lat="45.4202232" lon="11.1243775"><ele>41.666666666666664</ele><time>2026-04-18T18:37:51.823Z</time></trkpt><trkpt lat="45.4202407" lon="11.1241419"><ele>42.0</ele><time>2026-04-18T18:37:52.824Z</time></trkpt><trkpt lat="45.4202599" lon="11.1239079"><ele>42.0</ele><time>2026-04-18T18:37:53.828Z</time></trkpt><trkpt lat="45.4202797" lon="11.1236692"><ele>42.0</ele><time>2026-04-18T18:37:54.829Z</time></trkpt><trkpt lat="45.4202991" lon="11.1234331"><ele>42.0</ele><time>2026-04-18T18:37:55.824Z</time></trkpt><trkpt lat="45.4203189" lon="11.1231983"><ele>41.666666666666664</ele><time>2026-04-18T18:37:56.832Z</time></trkpt><trkpt lat="45.4203344" lon="11.1229619"><ele>41.33333333333333</ele><time>2026-04-18T18:37:57.827Z</time></trkpt><trkpt lat="45.4203466" lon="11.1227287"><ele>41.0</ele><time>2026-04-18T18:37:58.828Z</time></trkpt><trkpt lat="45.4203666" lon="11.122498"><ele>41.0</ele><time>2026-04-18T18:37:59.826Z</time></trkpt><trkpt lat="45.4203894" lon="11.1222679"><ele>41.0</ele><time>2026-04-18T18:38:00.831Z</time></trkpt><trkpt lat="45.4204116" lon="11.1220219"><ele>41.0</ele><time>2026-04-18T18:38:01.828Z</time></trkpt><trkpt lat="45.4204285" lon="11.1217826"><ele>41.0</ele><time>2026-04-18T18:38:02.825Z</time></trkpt><trkpt lat="45.420444" lon="11.1215367"><ele>41.0</ele><time>2026-04-18T18:38:03.824Z</time></trkpt><trkpt lat="45.4204692" lon="11.1212993"><ele>41.0</ele><time>2026-04-18T18:38:04.822Z</time></trkpt><trkpt lat="45.4204914" lon="11.1210519"><ele>41.33333333333333</ele><time>2026-04-18T18:38:05.832Z</time></trkpt><trkpt lat="45.4205042" lon="11.1208038"><ele>41.666666666666664</ele><time>2026-04-18T18:38:06.824Z</time></trkpt><trkpt lat="45.4205209" lon="11.1205553"><ele>42.0</ele><time>2026-04-18T18:38:07.828Z</time></trkpt><trkpt lat="45.4205418" lon="11.1203086"><ele>42.333333333333336</ele><time>2026-04-18T18:38:08.822Z</time></trkpt><trkpt lat="45.4205572" lon="11.1200601"><ele>42.66666666666667</ele><time>2026-04-18T18:38:09.818Z</time></trkpt><trkpt lat="45.4205768" lon="11.1198151"><ele>43.0</ele><time>2026-04-18T18:38:10.821Z</time></trkpt><trkpt lat="45.4205998" lon="11.1195725"><ele>43.0</ele><time>2026-04-18T18:38:11.832Z</time></trkpt><trkpt lat="45.4206239" lon="11.1193336"><ele>43.0</ele><time>2026-04-18T18:38:12.832Z</time></trkpt><trkpt lat="45.4206459" lon="11.1190983"><ele>43.0</ele><time>2026-04-18T18:38:13.828Z</time></trkpt><trkpt lat="45.4206668" lon="11.1188599"><ele>43.0</ele><time>2026-04-18T18:38:14.819Z</time></trkpt><trkpt lat="45.4206902" lon="11.1186287"><ele>43.0</ele><time>2026-04-18T18:38:15.829Z</time></trkpt><trkpt lat="45.4207086" lon="11.1183922"><ele>43.0</ele><time>2026-04-18T18:38:16.821Z</time></trkpt><trkpt lat="45.4207261" lon="11.1181651"><ele>43.333333333333336</ele><time>2026-04-18T18:38:17.839Z</time></trkpt><trkpt lat="45.4207401" lon="11.1179507"><ele>43.666666666666664</ele><time>2026-04-18T18:38:18.827Z</time></trkpt><trkpt lat="45.4207574" lon="11.1177382"><ele>44.0</ele><time>2026-04-18T18:38:19.827Z</time></trkpt><trkpt lat="45.4207735" lon="11.1175277"><ele>44.5</ele><time>2026-04-18T18:38:20.822Z</time></trkpt><trkpt lat="45.4207856" lon="11.11733"><ele>45.0</ele><time>2026-04-18T18:38:21.834Z</time></trkpt><trkpt lat="45.4207974" lon="11.1171462"><ele>45.5</ele><time>2026-04-18T18:38:22.835Z</time></trkpt><trkpt lat="45.420806" lon="11.1169805"><ele>46.0</ele><time>2026-04-18T18:38:23.824Z</time></trkpt><trkpt lat="45.4207979" lon="11.1168299"><ele>46.0</ele><time>2026-04-18T18:38:24.834Z</time></trkpt><trkpt lat="45.4207859" lon="11.1166993"><ele>46.0</ele><time>2026-04-18T18:38:25.838Z</time></trkpt><trkpt lat="45.4207784" lon="11.1165704"><ele>46.0</ele><time>2026-04-18T18:38:26.823Z</time></trkpt><trkpt lat="45.420792" lon="11.1164309"><ele>46.0</ele><time>2026-04-18T18:38:27.827Z</time></trkpt><trkpt lat="45.4208198" lon="11.1162893"><ele>46.0</ele><time>2026-04-18T18:38:28.829Z</time></trkpt><trkpt lat="45.4208183" lon="11.1161383"><ele>45.8</ele><time>2026-04-18T18:38:29.824Z</time></trkpt><trkpt lat="45.4208147" lon="11.115986"><ele>45.599999999999994</ele><time>2026-04-18T18:38:30.818Z</time></trkpt><trkpt lat="45.4208361" lon="11.115843"><ele>45.4</ele><time>2026-04-18T18:38:31.817Z</time></trkpt><trkpt lat="45.420863" lon="11.1156909"><ele>45.2</ele><time>2026-04-18T18:38:32.822Z</time></trkpt><trkpt lat="45.4208955" lon="11.1155327"><ele>45.0</ele><time>2026-04-18T18:38:33.826Z</time></trkpt><trkpt lat="45.4209196" lon="11.1153793"><ele>44.75</ele><time>2026-04-18T18:38:34.827Z</time></trkpt><trkpt lat="45.4209313" lon="11.1152144"><ele>44.5</ele><time>2026-04-18T18:38:35.826Z</time></trkpt><trkpt lat="45.4209471" lon="11.1150445"><ele>44.25</ele><time>2026-04-18T18:38:36.823Z</time></trkpt><trkpt lat="45.4209659" lon="11.1148708"><ele>44.0</ele><time>2026-04-18T18:38:37.826Z</time></trkpt><trkpt lat="45.4209832" lon="11.1146934"><ele>44.0</ele><time>2026-04-18T18:38:38.827Z</time></trkpt><trkpt lat="45.4209976" lon="11.1145161"><ele>44.0</ele><time>2026-04-18T18:38:39.824Z</time></trkpt><trkpt lat="45.4210128" lon="11.114335"><ele>44.0</ele><time>2026-04-18T18:38:40.829Z</time></trkpt><trkpt lat="45.4210218" lon="11.1141276"><ele>44.0</ele><time>2026-04-18T18:38:41.826Z</time></trkpt><trkpt lat="45.4210367" lon="11.113895"><ele>44.0</ele><time>2026-04-18T18:38:42.826Z</time></trkpt><trkpt lat="45.4210612" lon="11.113646"><ele>44.0</ele><time>2026-04-18T18:38:43.829Z</time></trkpt><trkpt lat="45.4210911" lon="11.1133979"><ele>44.0</ele><time>2026-04-18T18:38:44.822Z</time></trkpt><trkpt lat="45.4211189" lon="11.1131665"><ele>44.0</ele><time>2026-04-18T18:38:45.826Z</time></trkpt><trkpt lat="45.4211383" lon="11.112945"><ele>44.0</ele><time>2026-04-18T18:38:46.825Z</time></trkpt><trkpt lat="45.4211537" lon="11.1127444"><ele>44.0</ele><time>2026-04-18T18:38:47.826Z</time></trkpt><trkpt lat="45.4211683" lon="11.1125698"><ele>44.0</ele><time>2026-04-18T18:38:48.827Z</time></trkpt><trkpt lat="45.4211823" lon="11.11242"><ele>44.0</ele><time>2026-04-18T18:38:49.824Z</time></trkpt><trkpt lat="45.4211976" lon="11.1122896"><ele>44.0</ele><time>2026-04-18T18:38:50.822Z</time></trkpt><trkpt lat="45.4212341" lon="11.1121827"><ele>44.0</ele><time>2026-04-18T18:38:51.824Z</time></trkpt><trkpt lat="45.4212924" lon="11.1120916"><ele>44.0</ele><time>2026-04-18T18:38:52.827Z</time></trkpt><trkpt lat="45.4213693" lon="11.1120219"><ele>44.0</ele><time>2026-04-18T18:38:53.823Z</time></trkpt><trkpt lat="45.4214434" lon="11.1119672"><ele>44.0</ele><time>2026-04-18T18:38:54.831Z</time></trkpt><trkpt lat="45.421504" lon="11.1118923"><ele>44.0</ele><time>2026-04-18T18:38:55.837Z</time></trkpt><trkpt lat="45.421544" lon="11.1117886"><ele>44.0</ele><time>2026-04-18T18:38:56.834Z</time></trkpt><trkpt lat="45.4215529" lon="11.1116691"><ele>44.0</ele><time>2026-04-18T18:38:57.829Z</time></trkpt><trkpt lat="45.4215263" lon="11.1115589"><ele>44.0</ele><time>2026-04-18T18:38:58.828Z</time></trkpt><trkpt lat="45.421462" lon="11.1114639"><ele>44.0</ele><time>2026-04-18T18:38:59.831Z</time></trkpt><trkpt lat="45.421377" lon="11.1113683"><ele>44.25</ele><time>2026-04-18T18:39:00.827Z</time></trkpt><trkpt lat="45.4213188" lon="11.1112293"><ele>44.5</ele><time>2026-04-18T18:39:01.815Z</time></trkpt><trkpt lat="45.4212864" lon="11.1110674"><ele>44.75</ele><time>2026-04-18T18:39:02.831Z</time></trkpt><trkpt lat="45.4212781" lon="11.1108851"><ele>45.0</ele><time>2026-04-18T18:39:03.825Z</time></trkpt><trkpt lat="45.4212883" lon="11.1107149"><ele>45.0</ele><time>2026-04-18T18:39:04.824Z</time></trkpt><trkpt lat="45.4213" lon="11.1105557"><ele>45.0</ele><time>2026-04-18T18:39:05.834Z</time></trkpt><trkpt lat="45.4213112" lon="11.1103907"><ele>45.0</ele><time>2026-04-18T18:39:06.826Z</time></trkpt><trkpt lat="45.4213212" lon="11.1102211"><ele>45.0</ele><time>2026-04-18T18:39:07.829Z</time></trkpt><trkpt lat="45.421334" lon="11.1100451"><ele>44.75</ele><time>2026-04-18T18:39:08.821Z</time></trkpt><trkpt lat="45.4213536" lon="11.1098607"><ele>44.5</ele><time>2026-04-18T18:39:09.827Z</time></trkpt><trkpt lat="45.4213704" lon="11.1096647"><ele>44.25</ele><time>2026-04-18T18:39:10.823Z</time></trkpt><trkpt lat="45.4213852" lon="11.1094593"><ele>44.0</ele><time>2026-04-18T18:39:11.826Z</time></trkpt><trkpt lat="45.4214074" lon="11.1092392"><ele>43.33333333333333</ele><time>2026-04-18T18:39:12.834Z</time></trkpt><trkpt lat="45.4214212" lon="11.1090061"><ele>42.666666666666664</ele><time>2026-04-18T18:39:13.826Z</time></trkpt><trkpt lat="45.4214318" lon="11.1087595"><ele>42.0</ele><time>2026-04-18T18:39:14.823Z</time></trkpt><trkpt lat="45.4214489" lon="11.1085392"><ele>42.0</ele><time>2026-04-18T18:39:15.822Z</time></trkpt><trkpt lat="45.4214657" lon="11.1083426"><ele>42.0</ele><time>2026-04-18T18:39:16.829Z</time></trkpt><trkpt lat="45.4214799" lon="11.1081675"><ele>42.0</ele><time>2026-04-18T18:39:17.821Z</time></trkpt><trkpt lat="45.4214973" lon="11.1080048"><ele>42.0</ele><time>2026-04-18T18:39:18.825Z</time></trkpt><trkpt lat="45.4215278" lon="11.1078631"><ele>41.8</ele><time>2026-04-18T18:39:19.822Z</time></trkpt><trkpt lat="45.4215739" lon="11.1077355"><ele>41.6</ele><time>2026-04-18T18:39:20.826Z</time></trkpt><trkpt lat="45.4216344" lon="11.1076314"><ele>41.4</ele><time>2026-04-18T18:39:21.822Z</time></trkpt><trkpt lat="45.4217104" lon="11.1075501"><ele>41.199999999999996</ele><time>2026-04-18T18:39:22.826Z</time></trkpt><trkpt lat="45.4217844" lon="11.1074821"><ele>41.0</ele><time>2026-04-18T18:39:23.828Z</time></trkpt><trkpt lat="45.4218451" lon="11.1074164"><ele>41.166666666666664</ele><time>2026-04-18T18:39:24.825Z</time></trkpt><trkpt lat="45.4218851" lon="11.1073344"><ele>41.33333333333333</ele><time>2026-04-18T18:39:25.822Z</time></trkpt><trkpt lat="45.4218993" lon="11.107223"><ele>41.5</ele><time>2026-04-18T18:39:26.828Z</time></trkpt><trkpt lat="45.4218817" lon="11.1071263"><ele>41.666666666666664</ele><time>2026-04-18T18:39:27.826Z</time></trkpt><trkpt lat="45.4218437" lon="11.1070425"><ele>41.833333333333336</ele><time>2026-04-18T18:39:28.824Z</time></trkpt><trkpt lat="45.4217943" lon="11.1069435"><ele>42.0</ele><time>2026-04-18T18:39:29.832Z</time></trkpt><trkpt lat="45.4217412" lon="11.106819"><ele>42.0</ele><time>2026-04-18T18:39:30.826Z</time></trkpt><trkpt lat="45.4217008" lon="11.1066759"><ele>42.0</ele><time>2026-04-18T18:39:31.826Z</time></trkpt><trkpt lat="45.4216748" lon="11.1065006"><ele>42.0</ele><time>2026-04-18T18:39:32.823Z</time></trkpt><trkpt lat="45.4216685" lon="11.1063043"><ele>42.0</ele><time>2026-04-18T18:39:33.82Z</time></trkpt><trkpt lat="45.4216799" lon="11.1060942"><ele>41.666666666666664</ele><time>2026-04-18T18:39:34.817Z</time></trkpt><trkpt lat="45.4216994" lon="11.1058805"><ele>41.33333333333333</ele><time>2026-04-18T18:39:35.819Z</time></trkpt><trkpt lat="45.4217147" lon="11.1056614"><ele>41.0</ele><time>2026-04-18T18:39:36.827Z</time></trkpt><trkpt lat="45.4217292" lon="11.1054463"><ele>41.75</ele><time>2026-04-18T18:39:37.825Z</time></trkpt><trkpt lat="45.4217448" lon="11.1052456"><ele>42.5</ele><time>2026-04-18T18:39:38.826Z</time></trkpt><trkpt lat="45.4217572" lon="11.1050579"><ele>43.25</ele><time>2026-04-18T18:39:39.827Z</time></trkpt><trkpt lat="45.4217678" lon="11.1048809"><ele>44.0</ele><time>2026-04-18T18:39:40.826Z</time></trkpt><trkpt lat="45.4217785" lon="11.1047086"><ele>44.400000000000006</ele><time>2026-04-18T18:39:41.836Z</time></trkpt><trkpt lat="45.421785" lon="11.1045404"><ele>44.8</ele><time>2026-04-18T18:39:42.835Z</time></trkpt><trkpt lat="45.4217756" lon="11.1043807"><ele>45.2</ele><time>2026-04-18T18:39:43.823Z</time></trkpt><trkpt lat="45.4217577" lon="11.1042323"><ele>45.599999999999994</ele><time>2026-04-18T18:39:44.822Z</time></trkpt><trkpt lat="45.4217558" lon="11.1040991"><ele>46.0</ele><time>2026-04-18T18:39:45.821Z</time></trkpt><trkpt lat="45.4217735" lon="11.1039726"><ele>46.0</ele><time>2026-04-18T18:39:46.831Z</time></trkpt><trkpt lat="45.4217953" lon="11.1038531"><ele>46.0</ele><time>2026-04-18T18:39:47.838Z</time></trkpt><trkpt lat="45.4218156" lon="11.1037402"><ele>46.0</ele><time>2026-04-18T18:39:48.835Z</time></trkpt><trkpt lat="45.42181" lon="11.1036255"><ele>46.0</ele><time>2026-04-18T18:39:49.828Z</time></trkpt><trkpt lat="45.4217745" lon="11.1035333"><ele>46.0</ele><time>2026-04-18T18:39:50.822Z</time></trkpt><trkpt lat="45.4217159" lon="11.1034662"><ele>46.0</ele><time>2026-04-18T18:39:51.824Z</time></trkpt><trkpt lat="45.4216378" lon="11.1034247"><ele>46.0</ele><time>2026-04-18T18:39:52.819Z</time></trkpt><trkpt lat="45.421547" lon="11.1033971"><ele>46.0</ele><time>2026-04-18T18:39:53.823Z</time></trkpt><trkpt lat="45.4214573" lon="11.1033387"><ele>46.0</ele><time>2026-04-18T18:39:54.84Z</time></trkpt><trkpt lat="45.4213782" lon="11.1032424"><ele>46.0</ele><time>2026-04-18T18:39:55.821Z</time></trkpt><trkpt lat="45.4213023" lon="11.1031032"><ele>46.0</ele><time>2026-04-18T18:39:56.823Z</time></trkpt><trkpt lat="45.4212306" lon="11.1029241"><ele>46.333333333333336</ele><time>2026-04-18T18:39:57.83Z</time></trkpt><trkpt lat="45.4211629" lon="11.1027248"><ele>46.666666666666664</ele><time>2026-04-18T18:39:58.822Z</time></trkpt><trkpt lat="45.4210856" lon="11.102507"><ele>47.0</ele><time>2026-04-18T18:39:59.822Z</time></trkpt><trkpt lat="45.4210061" lon="11.1022843"><ele>47.0</ele><time>2026-04-18T18:40:00.833Z</time></trkpt><trkpt lat="45.420923" lon="11.1020455"><ele>47.0</ele><time>2026-04-18T18:40:01.824Z</time></trkpt><trkpt lat="45.4208371" lon="11.1017999"><ele>47.0</ele><time>2026-04-18T18:40:02.824Z</time></trkpt><trkpt lat="45.4207518" lon="11.1015587"><ele>46.0</ele><time>2026-04-18T18:40:03.824Z</time></trkpt><trkpt lat="45.4206695" lon="11.1013249"><ele>45.0</ele><time>2026-04-18T18:40:04.826Z</time></trkpt><trkpt lat="45.4205928" lon="11.1011025"><ele>44.0</ele><time>2026-04-18T18:40:05.825Z</time></trkpt><trkpt lat="45.4205211" lon="11.1008928"><ele>44.666666666666664</ele><time>2026-04-18T18:40:06.828Z</time></trkpt><trkpt lat="45.4204501" lon="11.1006827"><ele>45.333333333333336</ele><time>2026-04-18T18:40:07.822Z</time></trkpt><trkpt lat="45.4203804" lon="11.1004686"><ele>46.0</ele><time>2026-04-18T18:40:08.83Z</time></trkpt><trkpt lat="45.4203084" lon="11.100256"><ele>46.0</ele><time>2026-04-18T18:40:09.82Z</time></trkpt><trkpt lat="45.4202332" lon="11.1000431"><ele>46.0</ele><time>2026-04-18T18:40:10.822Z</time></trkpt><trkpt lat="45.4201607" lon="11.0998338"><ele>46.0</ele><time>2026-04-18T18:40:11.825Z</time></trkpt><trkpt lat="45.4200898" lon="11.0996345"><ele>46.0</ele><time>2026-04-18T18:40:12.827Z</time></trkpt><trkpt lat="45.4200201" lon="11.0994391"><ele>46.0</ele><time>2026-04-18T18:40:13.829Z</time></trkpt><trkpt lat="45.4199502" lon="11.0992436"><ele>46.0</ele><time>2026-04-18T18:40:14.822Z</time></trkpt><trkpt lat="45.4198798" lon="11.0990466"><ele>46.0</ele><time>2026-04-18T18:40:15.826Z</time></trkpt><trkpt lat="45.4198112" lon="11.0988461"><ele>46.0</ele><time>2026-04-18T18:40:16.821Z</time></trkpt><trkpt lat="45.419745" lon="11.0986561"><ele>46.0</ele><time>2026-04-18T18:40:17.839Z</time></trkpt><trkpt lat="45.4196824" lon="11.098472"><ele>46.0</ele><time>2026-04-18T18:40:18.838Z</time></trkpt><trkpt lat="45.4196125" lon="11.0982979"><ele>45.66666666666667</ele><time>2026-04-18T18:40:19.827Z</time></trkpt><trkpt lat="45.4195209" lon="11.0981289"><ele>45.333333333333336</ele><time>2026-04-18T18:40:20.817Z</time></trkpt><trkpt lat="45.4194166" lon="11.0979706"><ele>45.0</ele><time>2026-04-18T18:40:21.827Z</time></trkpt><trkpt lat="45.4192969" lon="11.0978326"><ele>45.0</ele><time>2026-04-18T18:40:22.826Z</time></trkpt><trkpt lat="45.419171" lon="11.0977105"><ele>45.0</ele><time>2026-04-18T18:40:23.821Z</time></trkpt><trkpt lat="45.419045" lon="11.0975964"><ele>45.0</ele><time>2026-04-18T18:40:24.842Z</time></trkpt><trkpt lat="45.4189197" lon="11.0974843"><ele>45.25</ele><time>2026-04-18T18:40:25.828Z</time></trkpt><trkpt lat="45.4187955" lon="11.097372"><ele>45.5</ele><time>2026-04-18T18:40:26.829Z</time></trkpt><trkpt lat="45.4186826" lon="11.0972678"><ele>45.75</ele><time>2026-04-18T18:40:27.824Z</time></trkpt><trkpt lat="45.41857" lon="11.0971659"><ele>46.0</ele><time>2026-04-18T18:40:28.826Z</time></trkpt><trkpt lat="45.4184666" lon="11.0970674"><ele>46.0</ele><time>2026-04-18T18:40:29.829Z</time></trkpt><trkpt lat="45.4183698" lon="11.0969766"><ele>46.0</ele><time>2026-04-18T18:40:30.835Z</time></trkpt><trkpt lat="45.4182778" lon="11.096893"><ele>46.0</ele><time>2026-04-18T18:40:31.828Z</time></trkpt><trkpt lat="45.4181925" lon="11.0968175"><ele>46.0</ele><time>2026-04-18T18:40:32.834Z</time></trkpt><trkpt lat="45.4181164" lon="11.096751"><ele>46.0</ele><time>2026-04-18T18:40:33.831Z</time></trkpt><trkpt lat="45.4180523" lon="11.0966913"><ele>46.0</ele><time>2026-04-18T18:40:34.822Z</time></trkpt><trkpt lat="45.4179947" lon="11.0966336"><ele>46.0</ele><time>2026-04-18T18:40:35.824Z</time></trkpt><trkpt lat="45.4179462" lon="11.0965606"><ele>46.0</ele><time>2026-04-18T18:40:36.822Z</time></trkpt><trkpt lat="45.4179038" lon="11.0964741"><ele>46.0</ele><time>2026-04-18T18:40:37.826Z</time></trkpt><trkpt lat="45.4178421" lon="11.0964077"><ele>46.0</ele><time>2026-04-18T18:40:38.826Z</time></trkpt><trkpt lat="45.4177617" lon="11.0963689"><ele>46.0</ele><time>2026-04-18T18:40:39.824Z</time></trkpt><trkpt lat="45.4176733" lon="11.0963103"><ele>45.75</ele><time>2026-04-18T18:40:40.822Z</time></trkpt><trkpt lat="45.4175833" lon="11.096228"><ele>45.5</ele><time>2026-04-18T18:40:41.824Z</time></trkpt><trkpt lat="45.4174868" lon="11.0961407"><ele>45.25</ele><time>2026-04-18T18:40:42.829Z</time></trkpt><trkpt lat="45.4173834" lon="11.0960482"><ele>45.0</ele><time>2026-04-18T18:40:43.831Z</time></trkpt><trkpt lat="45.4172791" lon="11.0959573"><ele>45.0</ele><time>2026-04-18T18:40:44.824Z</time></trkpt><trkpt lat="45.4171762" lon="11.0958631"><ele>45.0</ele><time>2026-04-18T18:40:45.827Z</time></trkpt><trkpt lat="45.4170755" lon="11.0957697"><ele>45.0</ele><time>2026-04-18T18:40:46.824Z</time></trkpt><trkpt lat="45.4169755" lon="11.0956778"><ele>45.0</ele><time>2026-04-18T18:40:47.822Z</time></trkpt><trkpt lat="45.4168747" lon="11.0955877"><ele>45.5</ele><time>2026-04-18T18:40:48.828Z</time></trkpt><trkpt lat="45.4167696" lon="11.0954972"><ele>46.0</ele><time>2026-04-18T18:40:49.82Z</time></trkpt><trkpt lat="45.4166635" lon="11.0954039"><ele>46.5</ele><time>2026-04-18T18:40:50.827Z</time></trkpt><trkpt lat="45.4165563" lon="11.095308"><ele>47.0</ele><time>2026-04-18T18:40:51.824Z</time></trkpt><trkpt lat="45.4164498" lon="11.0952088"><ele>47.0</ele><time>2026-04-18T18:40:52.822Z</time></trkpt><trkpt lat="45.4163436" lon="11.0951062"><ele>47.0</ele><time>2026-04-18T18:40:53.829Z</time></trkpt><trkpt lat="45.4162387" lon="11.0950014"><ele>47.0</ele><time>2026-04-18T18:40:54.825Z</time></trkpt><trkpt lat="45.4161361" lon="11.0948947"><ele>47.0</ele><time>2026-04-18T18:40:55.822Z</time></trkpt><trkpt lat="45.4160372" lon="11.0947814"><ele>46.5</ele><time>2026-04-18T18:40:56.828Z</time></trkpt><trkpt lat="45.4159422" lon="11.0946689"><ele>46.0</ele><time>2026-04-18T18:40:57.818Z</time></trkpt><trkpt lat="45.4158477" lon="11.0945548"><ele>45.5</ele><time>2026-04-18T18:40:58.824Z</time></trkpt><trkpt lat="45.4157505" lon="11.0944464"><ele>45.0</ele><time>2026-04-18T18:40:59.819Z</time></trkpt><trkpt lat="45.4156564" lon="11.0943357"><ele>45.0</ele><time>2026-04-18T18:41:00.826Z</time></trkpt><trkpt lat="45.4155652" lon="11.0942299"><ele>45.0</ele><time>2026-04-18T18:41:01.836Z</time></trkpt><trkpt lat="45.4154761" lon="11.0941232"><ele>45.0</ele><time>2026-04-18T18:41:02.828Z</time></trkpt><trkpt lat="45.415385" lon="11.0940184"><ele>45.0</ele><time>2026-04-18T18:41:03.823Z</time></trkpt><trkpt lat="45.4152973" lon="11.093916"><ele>45.4</ele><time>2026-04-18T18:41:04.825Z</time></trkpt><trkpt lat="45.4152158" lon="11.0938178"><ele>45.8</ele><time>2026-04-18T18:41:05.826Z</time></trkpt><trkpt lat="45.4151392" lon="11.093727"><ele>46.2</ele><time>2026-04-18T18:41:06.822Z</time></trkpt><trkpt lat="45.4150677" lon="11.0936346"><ele>46.6</ele><time>2026-04-18T18:41:07.825Z</time></trkpt><trkpt lat="45.4150049" lon="11.093552"><ele>47.0</ele><time>2026-04-18T18:41:08.823Z</time></trkpt><trkpt lat="45.4149465" lon="11.0934791"><ele>47.0</ele><time>2026-04-18T18:41:09.836Z</time></trkpt><trkpt lat="45.414882" lon="11.0934028"><ele>47.0</ele><time>2026-04-18T18:41:10.826Z</time></trkpt><trkpt lat="45.4148186" lon="11.0933146"><ele>47.0</ele><time>2026-04-18T18:41:11.826Z</time></trkpt><trkpt lat="45.4147508" lon="11.0932234"><ele>47.0</ele><time>2026-04-18T18:41:12.828Z</time></trkpt><trkpt lat="45.4146715" lon="11.0931305"><ele>47.0</ele><time>2026-04-18T18:41:13.822Z</time></trkpt><trkpt lat="45.4145951" lon="11.0930312"><ele>46.8</ele><time>2026-04-18T18:41:14.822Z</time></trkpt><trkpt lat="45.4145275" lon="11.0929278"><ele>46.6</ele><time>2026-04-18T18:41:15.83Z</time></trkpt><trkpt lat="45.4144611" lon="11.0928187"><ele>46.4</ele><time>2026-04-18T18:41:16.828Z</time></trkpt><trkpt lat="45.4143966" lon="11.0926905"><ele>46.199999999999996</ele><time>2026-04-18T18:41:17.829Z</time></trkpt><trkpt lat="45.414341" lon="11.0925417"><ele>46.0</ele><time>2026-04-18T18:41:18.823Z</time></trkpt><trkpt lat="45.414304" lon="11.0923754"><ele>45.75</ele><time>2026-04-18T18:41:19.823Z</time></trkpt><trkpt lat="45.4142861" lon="11.0922064"><ele>45.5</ele><time>2026-04-18T18:41:20.83Z</time></trkpt><trkpt lat="45.4142858" lon="11.0920413"><ele>45.25</ele><time>2026-04-18T18:41:21.833Z</time></trkpt><trkpt lat="45.4142914" lon="11.0918704"><ele>45.0</ele><time>2026-04-18T18:41:22.826Z</time></trkpt><trkpt lat="45.4143046" lon="11.0917043"><ele>45.0</ele><time>2026-04-18T18:41:23.826Z</time></trkpt><trkpt lat="45.4143266" lon="11.0915449"><ele>45.0</ele><time>2026-04-18T18:41:24.834Z</time></trkpt><trkpt lat="45.414353" lon="11.0913978"><ele>45.0</ele><time>2026-04-18T18:41:25.827Z</time></trkpt><trkpt lat="45.4143782" lon="11.091265"><ele>45.0</ele><time>2026-04-18T18:41:26.825Z</time></trkpt><trkpt lat="45.414395" lon="11.0911463"><ele>45.0</ele><time>2026-04-18T18:41:27.826Z</time></trkpt><trkpt lat="45.414396" lon="11.0910363"><ele>45.0</ele><time>2026-04-18T18:41:28.821Z</time></trkpt><trkpt lat="45.4143869" lon="11.090891"><ele>45.0</ele><time>2026-04-18T18:41:30.821Z</time></trkpt><trkpt lat="45.4143951" lon="11.0907948"><ele>45.0</ele><time>2026-04-18T18:41:33.823Z</time></trkpt><trkpt lat="45.4144342" lon="11.0906796"><ele>45.0</ele><time>2026-04-18T18:41:35.826Z</time></trkpt><trkpt lat="45.4144576" lon="11.0905901"><ele>45.0</ele><time>2026-04-18T18:41:36.824Z</time></trkpt><trkpt lat="45.4144712" lon="11.0904781"><ele>45.0</ele><time>2026-04-18T18:41:37.824Z</time></trkpt><trkpt lat="45.4144756" lon="11.0903509"><ele>45.0</ele><time>2026-04-18T18:41:38.828Z</time></trkpt><trkpt lat="45.4144855" lon="11.0902034"><ele>45.0</ele><time>2026-04-18T18:41:39.824Z</time></trkpt><trkpt lat="45.414519" lon="11.090044"><ele>45.0</ele><time>2026-04-18T18:41:40.819Z</time></trkpt><trkpt lat="45.4145585" lon="11.0898768"><ele>45.0</ele><time>2026-04-18T18:41:41.822Z</time></trkpt><trkpt lat="45.4146009" lon="11.0896889"><ele>44.666666666666664</ele><time>2026-04-18T18:41:42.821Z</time></trkpt><trkpt lat="45.4146477" lon="11.089471"><ele>44.33333333333333</ele><time>2026-04-18T18:41:43.826Z</time></trkpt><trkpt lat="45.4146908" lon="11.0892253"><ele>44.0</ele><time>2026-04-18T18:41:44.827Z</time></trkpt><trkpt lat="45.4147304" lon="11.0889846"><ele>44.5</ele><time>2026-04-18T18:41:45.826Z</time></trkpt><trkpt lat="45.4147681" lon="11.0887677"><ele>45.0</ele><time>2026-04-18T18:41:46.825Z</time></trkpt><trkpt lat="45.4148101" lon="11.0885688"><ele>45.5</ele><time>2026-04-18T18:41:47.823Z</time></trkpt><trkpt lat="45.4148606" lon="11.0883778"><ele>46.0</ele><time>2026-04-18T18:41:48.825Z</time></trkpt><trkpt lat="45.4149167" lon="11.0882117"><ele>46.0</ele><time>2026-04-18T18:41:49.827Z</time></trkpt><trkpt lat="45.4149781" lon="11.0880616"><ele>46.0</ele><time>2026-04-18T18:41:50.83Z</time></trkpt><trkpt lat="45.4150393" lon="11.0879299"><ele>46.0</ele><time>2026-04-18T18:41:51.823Z</time></trkpt><trkpt lat="45.4150935" lon="11.0878104"><ele>46.0</ele><time>2026-04-18T18:41:52.83Z</time></trkpt><trkpt lat="45.4151453" lon="11.0877042"><ele>46.0</ele><time>2026-04-18T18:41:53.822Z</time></trkpt><trkpt lat="45.4151853" lon="11.0876211"><ele>46.0</ele><time>2026-04-18T18:41:54.826Z</time></trkpt><trkpt lat="45.4152696" lon="11.0875053"><ele>46.0</ele><time>2026-04-18T18:41:56.826Z</time></trkpt><trkpt lat="45.4153273" lon="11.0874596"><ele>46.0</ele><time>2026-04-18T18:41:57.827Z</time></trkpt><trkpt lat="45.4154325" lon="11.087346"><ele>46.0</ele><time>2026-04-18T18:41:59.832Z</time></trkpt><trkpt lat="45.4154632" lon="11.0872483"><ele>46.0</ele><time>2026-04-18T18:42:00.824Z</time></trkpt><trkpt lat="45.4154585" lon="11.0871364"><ele>46.16666666666667</ele><time>2026-04-18T18:42:01.832Z</time></trkpt><trkpt lat="45.4154155" lon="11.0870391"><ele>46.333333333333336</ele><time>2026-04-18T18:42:02.833Z</time></trkpt><trkpt lat="45.4153464" lon="11.0869803"><ele>46.5</ele><time>2026-04-18T18:42:03.825Z</time></trkpt><trkpt lat="45.4152629" lon="11.0869697"><ele>46.666666666666664</ele><time>2026-04-18T18:42:04.822Z</time></trkpt><trkpt lat="45.415172" lon="11.0870021"><ele>46.83333333333333</ele><time>2026-04-18T18:42:05.834Z</time></trkpt><trkpt lat="45.4150682" lon="11.0870093"><ele>47.0</ele><time>2026-04-18T18:42:06.827Z</time></trkpt><trkpt lat="45.4149539" lon="11.0869663"><ele>47.0</ele><time>2026-04-18T18:42:07.83Z</time></trkpt><trkpt lat="45.4148319" lon="11.0869012"><ele>47.0</ele><time>2026-04-18T18:42:08.83Z</time></trkpt><trkpt lat="45.4147073" lon="11.0868196"><ele>47.0</ele><time>2026-04-18T18:42:09.825Z</time></trkpt><trkpt lat="45.4145914" lon="11.0867293"><ele>47.0</ele><time>2026-04-18T18:42:10.827Z</time></trkpt><trkpt lat="45.4144835" lon="11.0866343"><ele>46.75</ele><time>2026-04-18T18:42:11.821Z</time></trkpt><trkpt lat="45.4143765" lon="11.0865323"><ele>46.5</ele><time>2026-04-18T18:42:12.824Z</time></trkpt><trkpt lat="45.414269" lon="11.086442"><ele>46.25</ele><time>2026-04-18T18:42:13.824Z</time></trkpt><trkpt lat="45.4141674" lon="11.0863607"><ele>46.0</ele><time>2026-04-18T18:42:14.827Z</time></trkpt><trkpt lat="45.4140725" lon="11.0862786"><ele>46.0</ele><time>2026-04-18T18:42:15.829Z</time></trkpt><trkpt lat="45.4139898" lon="11.0861838"><ele>46.0</ele><time>2026-04-18T18:42:16.828Z</time></trkpt><trkpt lat="45.4139057" lon="11.0860844"><ele>46.0</ele><time>2026-04-18T18:42:17.824Z</time></trkpt><trkpt lat="45.4138142" lon="11.0859949"><ele>46.0</ele><time>2026-04-18T18:42:18.839Z</time></trkpt><trkpt lat="45.4137286" lon="11.0859129"><ele>46.0</ele><time>2026-04-18T18:42:19.828Z</time></trkpt><trkpt lat="45.4136462" lon="11.0858382"><ele>46.0</ele><time>2026-04-18T18:42:20.822Z</time></trkpt><trkpt lat="45.4135581" lon="11.0857622"><ele>46.0</ele><time>2026-04-18T18:42:21.821Z</time></trkpt><trkpt lat="45.4134631" lon="11.0856915"><ele>46.0</ele><time>2026-04-18T18:42:22.83Z</time></trkpt><trkpt lat="45.4133672" lon="11.0856214"><ele>46.0</ele><time>2026-04-18T18:42:23.829Z</time></trkpt><trkpt lat="45.4132687" lon="11.0855506"><ele>46.0</ele><time>2026-04-18T18:42:24.823Z</time></trkpt><trkpt lat="45.4131648" lon="11.0854852"><ele>46.0</ele><time>2026-04-18T18:42:25.822Z</time></trkpt><trkpt lat="45.4130633" lon="11.0854205"><ele>46.0</ele><time>2026-04-18T18:42:26.838Z</time></trkpt><trkpt lat="45.4129626" lon="11.0853566"><ele>46.0</ele><time>2026-04-18T18:42:27.823Z</time></trkpt><trkpt lat="45.4128599" lon="11.0852932"><ele>46.0</ele><time>2026-04-18T18:42:28.839Z</time></trkpt><trkpt lat="45.4127557" lon="11.0852279"><ele>46.0</ele><time>2026-04-18T18:42:29.835Z</time></trkpt><trkpt lat="45.4126446" lon="11.0851541"><ele>46.25</ele><time>2026-04-18T18:42:30.824Z</time></trkpt><trkpt lat="45.4125168" lon="11.0850777"><ele>46.5</ele><time>2026-04-18T18:42:31.822Z</time></trkpt><trkpt lat="45.4123916" lon="11.0849935"><ele>46.75</ele><time>2026-04-18T18:42:32.837Z</time></trkpt><trkpt lat="45.4122717" lon="11.0848936"><ele>47.0</ele><time>2026-04-18T18:42:33.829Z</time></trkpt><trkpt lat="45.4121701" lon="11.0847662"><ele>46.5</ele><time>2026-04-18T18:42:34.828Z</time></trkpt><trkpt lat="45.4120901" lon="11.0846313"><ele>46.0</ele><time>2026-04-18T18:42:35.824Z</time></trkpt><trkpt lat="45.4120289" lon="11.0844942"><ele>45.5</ele><time>2026-04-18T18:42:36.824Z</time></trkpt><trkpt lat="45.4119811" lon="11.0843407"><ele>45.0</ele><time>2026-04-18T18:42:37.825Z</time></trkpt><trkpt lat="45.4119459" lon="11.0841762"><ele>45.0</ele><time>2026-04-18T18:42:38.826Z</time></trkpt><trkpt lat="45.4119122" lon="11.0840109"><ele>45.0</ele><time>2026-04-18T18:42:39.824Z</time></trkpt><trkpt lat="45.4118765" lon="11.0838487"><ele>45.0</ele><time>2026-04-18T18:42:40.83Z</time></trkpt><trkpt lat="45.4118436" lon="11.0836861"><ele>45.0</ele><time>2026-04-18T18:42:41.836Z</time></trkpt><trkpt lat="45.4118162" lon="11.0835234"><ele>45.0</ele><time>2026-04-18T18:42:42.821Z</time></trkpt><trkpt lat="45.4117899" lon="11.0833621"><ele>45.0</ele><time>2026-04-18T18:42:43.825Z</time></trkpt><trkpt lat="45.4117649" lon="11.0832007"><ele>45.0</ele><time>2026-04-18T18:42:44.825Z</time></trkpt><trkpt lat="45.4117407" lon="11.0830326"><ele>45.0</ele><time>2026-04-18T18:42:45.824Z</time></trkpt><trkpt lat="45.4117226" lon="11.0828566"><ele>45.0</ele><time>2026-04-18T18:42:46.833Z</time></trkpt><trkpt lat="45.4116918" lon="11.0826742"><ele>45.0</ele><time>2026-04-18T18:42:47.825Z</time></trkpt><trkpt lat="45.4116589" lon="11.0824838"><ele>45.0</ele><time>2026-04-18T18:42:48.823Z</time></trkpt><trkpt lat="45.4116388" lon="11.0822976"><ele>45.0</ele><time>2026-04-18T18:42:49.822Z</time></trkpt><trkpt lat="45.4116104" lon="11.0821307"><ele>45.0</ele><time>2026-04-18T18:42:50.83Z</time></trkpt><trkpt lat="45.4115869" lon="11.0819738"><ele>45.0</ele><time>2026-04-18T18:42:51.822Z</time></trkpt><trkpt lat="45.411566" lon="11.0818401"><ele>45.0</ele><time>2026-04-18T18:42:52.833Z</time></trkpt><trkpt lat="45.4115449" lon="11.081729"><ele>45.0</ele><time>2026-04-18T18:42:53.821Z</time></trkpt><trkpt lat="45.4115334" lon="11.0816389"><ele>45.0</ele><time>2026-04-18T18:42:54.829Z</time></trkpt><trkpt lat="45.4115474" lon="11.0815361"><ele>45.0</ele><time>2026-04-18T18:42:55.826Z</time></trkpt><trkpt lat="45.4115885" lon="11.0814378"><ele>44.8</ele><time>2026-04-18T18:42:56.821Z</time></trkpt><trkpt lat="45.4116577" lon="11.0813559"><ele>44.6</ele><time>2026-04-18T18:42:57.824Z</time></trkpt><trkpt lat="45.4117575" lon="11.081312"><ele>44.400000000000006</ele><time>2026-04-18T18:42:58.82Z</time></trkpt><trkpt lat="45.4118845" lon="11.081305"><ele>44.2</ele><time>2026-04-18T18:42:59.824Z</time></trkpt><trkpt lat="45.4120093" lon="11.0813183"><ele>44.0</ele><time>2026-04-18T18:43:00.829Z</time></trkpt><trkpt lat="45.4121246" lon="11.081319"><ele>43.33333333333333</ele><time>2026-04-18T18:43:01.821Z</time></trkpt><trkpt lat="45.4122318" lon="11.0813184"><ele>42.666666666666664</ele><time>2026-04-18T18:43:02.826Z</time></trkpt><trkpt lat="45.4123315" lon="11.0813218"><ele>42.0</ele><time>2026-04-18T18:43:03.814Z</time></trkpt><trkpt lat="45.4124198" lon="11.081323"><ele>41.333333333333336</ele><time>2026-04-18T18:43:04.819Z</time></trkpt><trkpt lat="45.412498" lon="11.0813255"><ele>40.66666666666667</ele><time>2026-04-18T18:43:05.836Z</time></trkpt><trkpt lat="45.4125696" lon="11.0813252"><ele>40.0</ele><time>2026-04-18T18:43:06.824Z</time></trkpt><trkpt lat="45.4126306" lon="11.0812302"><ele>40.0</ele><time>2026-04-18T18:43:08.823Z</time></trkpt><trkpt lat="45.4125413" lon="11.0811146"><ele>40.0</ele><time>2026-04-18T18:43:10.829Z</time></trkpt><trkpt lat="45.4124531" lon="11.0810604"><ele>40.0</ele><time>2026-04-18T18:43:11.821Z</time></trkpt><trkpt lat="45.4123426" lon="11.0809987"><ele>40.0</ele><time>2026-04-18T18:43:12.827Z</time></trkpt><trkpt lat="45.4122258" lon="11.0809332"><ele>39.75</ele><time>2026-04-18T18:43:13.823Z</time></trkpt><trkpt lat="45.4120999" lon="11.0808582"><ele>39.5</ele><time>2026-04-18T18:43:14.839Z</time></trkpt><trkpt lat="45.4119716" lon="11.0807838"><ele>39.25</ele><time>2026-04-18T18:43:15.823Z</time></trkpt><trkpt lat="45.411842" lon="11.0807084"><ele>39.0</ele><time>2026-04-18T18:43:16.821Z</time></trkpt><trkpt lat="45.4117117" lon="11.0806309"><ele>39.0</ele><time>2026-04-18T18:43:17.827Z</time></trkpt><trkpt lat="45.4115842" lon="11.0805368"><ele>39.0</ele><time>2026-04-18T18:43:18.83Z</time></trkpt><trkpt lat="45.411459" lon="11.0804297"><ele>39.0</ele><time>2026-04-18T18:43:19.824Z</time></trkpt><trkpt lat="45.4113329" lon="11.0803179"><ele>39.0</ele><time>2026-04-18T18:43:20.825Z</time></trkpt><trkpt lat="45.4112063" lon="11.0802106"><ele>38.5</ele><time>2026-04-18T18:43:21.818Z</time></trkpt><trkpt lat="45.4110766" lon="11.0801102"><ele>38.0</ele><time>2026-04-18T18:43:22.822Z</time></trkpt><trkpt lat="45.4109447" lon="11.0800163"><ele>37.5</ele><time>2026-04-18T18:43:23.822Z</time></trkpt><trkpt lat="45.4108121" lon="11.0799311"><ele>37.0</ele><time>2026-04-18T18:43:24.818Z</time></trkpt><trkpt lat="45.4106866" lon="11.0798523"><ele>37.0</ele><time>2026-04-18T18:43:25.813Z</time></trkpt><trkpt lat="45.410566" lon="11.0797746"><ele>37.0</ele><time>2026-04-18T18:43:26.82Z</time></trkpt><trkpt lat="45.4104519" lon="11.0796909"><ele>37.0</ele><time>2026-04-18T18:43:27.813Z</time></trkpt><trkpt lat="45.4103404" lon="11.079604"><ele>37.0</ele><time>2026-04-18T18:43:28.821Z</time></trkpt><trkpt lat="45.4102319" lon="11.0795095"><ele>36.5</ele><time>2026-04-18T18:43:29.826Z</time></trkpt><trkpt lat="45.4101309" lon="11.0793989"><ele>36.0</ele><time>2026-04-18T18:43:30.826Z</time></trkpt><trkpt lat="45.4100305" lon="11.0792757"><ele>35.5</ele><time>2026-04-18T18:43:31.823Z</time></trkpt><trkpt lat="45.4099262" lon="11.0791486"><ele>35.0</ele><time>2026-04-18T18:43:32.825Z</time></trkpt><trkpt lat="45.4098195" lon="11.0790214"><ele>35.0</ele><time>2026-04-18T18:43:33.821Z</time></trkpt><trkpt lat="45.4097187" lon="11.0789022"><ele>35.0</ele><time>2026-04-18T18:43:34.831Z</time></trkpt><trkpt lat="45.4096184" lon="11.0787901"><ele>35.0</ele><time>2026-04-18T18:43:35.824Z</time></trkpt><trkpt lat="45.4095126" lon="11.0786824"><ele>35.0</ele><time>2026-04-18T18:43:36.84Z</time></trkpt><trkpt lat="45.4094047" lon="11.0785743"><ele>36.0</ele><time>2026-04-18T18:43:37.823Z</time></trkpt><trkpt lat="45.4092963" lon="11.0784566"><ele>37.0</ele><time>2026-04-18T18:43:38.821Z</time></trkpt><trkpt lat="45.4091928" lon="11.0783345"><ele>38.0</ele><time>2026-04-18T18:43:39.826Z</time></trkpt><trkpt lat="45.4090936" lon="11.0782059"><ele>39.0</ele><time>2026-04-18T18:43:40.824Z</time></trkpt><trkpt lat="45.4089953" lon="11.0780722"><ele>39.0</ele><time>2026-04-18T18:43:41.827Z</time></trkpt><trkpt lat="45.4088996" lon="11.077928"><ele>39.0</ele><time>2026-04-18T18:43:42.824Z</time></trkpt><trkpt lat="45.4088094" lon="11.0777763"><ele>39.0</ele><time>2026-04-18T18:43:43.824Z</time></trkpt><trkpt lat="45.4087313" lon="11.0776146"><ele>39.0</ele><time>2026-04-18T18:43:44.825Z</time></trkpt><trkpt lat="45.4086626" lon="11.077445"><ele>39.0</ele><time>2026-04-18T18:43:45.829Z</time></trkpt><trkpt lat="45.4086026" lon="11.0772632"><ele>39.0</ele><time>2026-04-18T18:43:46.825Z</time></trkpt><trkpt lat="45.4085433" lon="11.0770767"><ele>39.0</ele><time>2026-04-18T18:43:47.821Z</time></trkpt><trkpt lat="45.4084766" lon="11.0768844"><ele>39.0</ele><time>2026-04-18T18:43:48.824Z</time></trkpt><trkpt lat="45.4084028" lon="11.076685"><ele>38.333333333333336</ele><time>2026-04-18T18:43:49.823Z</time></trkpt><trkpt lat="45.4083244" lon="11.0764801"><ele>37.66666666666667</ele><time>2026-04-18T18:43:50.824Z</time></trkpt><trkpt lat="45.4082378" lon="11.076283"><ele>37.0</ele><time>2026-04-18T18:43:51.825Z</time></trkpt><trkpt lat="45.4081473" lon="11.0761009"><ele>37.0</ele><time>2026-04-18T18:43:52.829Z</time></trkpt><trkpt lat="45.4080617" lon="11.0759325"><ele>37.0</ele><time>2026-04-18T18:43:53.832Z</time></trkpt><trkpt lat="45.4079802" lon="11.0757756"><ele>37.0</ele><time>2026-04-18T18:43:54.826Z</time></trkpt><trkpt lat="45.4079042" lon="11.0756089"><ele>37.0</ele><time>2026-04-18T18:43:55.823Z</time></trkpt><trkpt lat="45.4078358" lon="11.0754218"><ele>37.66666666666667</ele><time>2026-04-18T18:43:56.82Z</time></trkpt><trkpt lat="45.4077738" lon="11.0752151"><ele>38.333333333333336</ele><time>2026-04-18T18:43:57.819Z</time></trkpt><trkpt lat="45.407713" lon="11.074991"><ele>39.0</ele><time>2026-04-18T18:43:58.831Z</time></trkpt><trkpt lat="45.4076523" lon="11.0747555"><ele>39.0</ele><time>2026-04-18T18:43:59.823Z</time></trkpt><trkpt lat="45.4075886" lon="11.0745133"><ele>39.0</ele><time>2026-04-18T18:44:00.824Z</time></trkpt><trkpt lat="45.4075227" lon="11.0742505"><ele>39.0</ele><time>2026-04-18T18:44:01.82Z</time></trkpt><trkpt lat="45.4074536" lon="11.0739694"><ele>39.0</ele><time>2026-04-18T18:44:02.822Z</time></trkpt><trkpt lat="45.4073821" lon="11.0736791"><ele>39.0</ele><time>2026-04-18T18:44:03.819Z</time></trkpt><trkpt lat="45.4073171" lon="11.073415"><ele>39.0</ele><time>2026-04-18T18:44:04.827Z</time></trkpt><trkpt lat="45.4072558" lon="11.0731585"><ele>38.666666666666664</ele><time>2026-04-18T18:44:05.825Z</time></trkpt><trkpt lat="45.4071912" lon="11.0729105"><ele>38.33333333333333</ele><time>2026-04-18T18:44:06.824Z</time></trkpt><trkpt lat="45.4071258" lon="11.0726645"><ele>38.0</ele><time>2026-04-18T18:44:07.823Z</time></trkpt><trkpt lat="45.4070641" lon="11.0724239"><ele>38.666666666666664</ele><time>2026-04-18T18:44:08.824Z</time></trkpt><trkpt lat="45.4070048" lon="11.0721979"><ele>39.333333333333336</ele><time>2026-04-18T18:44:09.821Z</time></trkpt><trkpt lat="45.4069424" lon="11.0719811"><ele>40.0</ele><time>2026-04-18T18:44:10.827Z</time></trkpt><trkpt lat="45.4068867" lon="11.0717597"><ele>40.0</ele><time>2026-04-18T18:44:11.828Z</time></trkpt><trkpt lat="45.4068234" lon="11.0715382"><ele>40.0</ele><time>2026-04-18T18:44:12.831Z</time></trkpt><trkpt lat="45.406759" lon="11.0713089"><ele>40.0</ele><time>2026-04-18T18:44:13.832Z</time></trkpt><trkpt lat="45.406682" lon="11.0710804"><ele>40.0</ele><time>2026-04-18T18:44:14.828Z</time></trkpt><trkpt lat="45.4065892" lon="11.0708523"><ele>40.0</ele><time>2026-04-18T18:44:15.828Z</time></trkpt><trkpt lat="45.4064895" lon="11.0706187"><ele>40.0</ele><time>2026-04-18T18:44:16.824Z</time></trkpt><trkpt lat="45.4063937" lon="11.0703854"><ele>40.0</ele><time>2026-04-18T18:44:17.825Z</time></trkpt><trkpt lat="45.4062992" lon="11.0701595"><ele>40.0</ele><time>2026-04-18T18:44:18.823Z</time></trkpt><trkpt lat="45.4062018" lon="11.0699421"><ele>40.0</ele><time>2026-04-18T18:44:19.824Z</time></trkpt><trkpt lat="45.4061066" lon="11.0697284"><ele>39.66666666666667</ele><time>2026-04-18T18:44:20.831Z</time></trkpt><trkpt lat="45.4060115" lon="11.069516"><ele>39.333333333333336</ele><time>2026-04-18T18:44:21.82Z</time></trkpt><trkpt lat="45.4059235" lon="11.0693027"><ele>39.0</ele><time>2026-04-18T18:44:22.824Z</time></trkpt><trkpt lat="45.405842" lon="11.069081"><ele>38.0</ele><time>2026-04-18T18:44:23.827Z</time></trkpt><trkpt lat="45.4057781" lon="11.0688419"><ele>37.0</ele><time>2026-04-18T18:44:24.82Z</time></trkpt><trkpt lat="45.4057386" lon="11.0686006"><ele>36.0</ele><time>2026-04-18T18:44:25.823Z</time></trkpt><trkpt lat="45.4057113" lon="11.0683527"><ele>35.666666666666664</ele><time>2026-04-18T18:44:26.823Z</time></trkpt><trkpt lat="45.4056918" lon="11.068102"><ele>35.33333333333333</ele><time>2026-04-18T18:44:27.818Z</time></trkpt><trkpt lat="45.4056766" lon="11.0678531"><ele>35.0</ele><time>2026-04-18T18:44:28.823Z</time></trkpt><trkpt lat="45.4056586" lon="11.0676044"><ele>35.33333333333333</ele><time>2026-04-18T18:44:29.821Z</time></trkpt><trkpt lat="45.4056391" lon="11.0673606"><ele>35.666666666666664</ele><time>2026-04-18T18:44:30.822Z</time></trkpt><trkpt lat="45.405618" lon="11.0671213"><ele>36.0</ele><time>2026-04-18T18:44:31.826Z</time></trkpt><trkpt lat="45.4055978" lon="11.0668832"><ele>36.0</ele><time>2026-04-18T18:44:32.824Z</time></trkpt><trkpt lat="45.4055791" lon="11.0666462"><ele>36.0</ele><time>2026-04-18T18:44:33.824Z</time></trkpt><trkpt lat="45.4055729" lon="11.0664065"><ele>36.0</ele><time>2026-04-18T18:44:34.82Z</time></trkpt><trkpt lat="45.4055863" lon="11.066167"><ele>36.0</ele><time>2026-04-18T18:44:35.83Z</time></trkpt><trkpt lat="45.4056177" lon="11.0659258"><ele>36.0</ele><time>2026-04-18T18:44:36.827Z</time></trkpt><trkpt lat="45.4056628" lon="11.0656892"><ele>36.0</ele><time>2026-04-18T18:44:37.822Z</time></trkpt><trkpt lat="45.4057094" lon="11.0654518"><ele>36.0</ele><time>2026-04-18T18:44:38.824Z</time></trkpt><trkpt lat="45.4057518" lon="11.0652143"><ele>36.0</ele><time>2026-04-18T18:44:39.824Z</time></trkpt><trkpt lat="45.4057911" lon="11.0649794"><ele>36.0</ele><time>2026-04-18T18:44:40.825Z</time></trkpt><trkpt lat="45.4058286" lon="11.0647474"><ele>36.333333333333336</ele><time>2026-04-18T18:44:41.819Z</time></trkpt><trkpt lat="45.4058658" lon="11.064518"><ele>36.66666666666667</ele><time>2026-04-18T18:44:42.827Z</time></trkpt><trkpt lat="45.4059057" lon="11.0642881"><ele>37.0</ele><time>2026-04-18T18:44:43.824Z</time></trkpt><trkpt lat="45.4059458" lon="11.0640577"><ele>37.0</ele><time>2026-04-18T18:44:44.824Z</time></trkpt><trkpt lat="45.4059877" lon="11.0638232"><ele>37.0</ele><time>2026-04-18T18:44:45.821Z</time></trkpt><trkpt lat="45.4060248" lon="11.0636067"><ele>37.0</ele><time>2026-04-18T18:44:46.83Z</time></trkpt><trkpt lat="45.4060562" lon="11.0634054"><ele>37.0</ele><time>2026-04-18T18:44:47.817Z</time></trkpt><trkpt lat="45.4060851" lon="11.0632199"><ele>37.0</ele><time>2026-04-18T18:44:48.834Z</time></trkpt><trkpt lat="45.4061162" lon="11.0630496"><ele>37.0</ele><time>2026-04-18T18:44:49.822Z</time></trkpt><trkpt lat="45.4061377" lon="11.0628919"><ele>37.0</ele><time>2026-04-18T18:44:50.83Z</time></trkpt><trkpt lat="45.4061398" lon="11.0627351"><ele>37.0</ele><time>2026-04-18T18:44:51.831Z</time></trkpt><trkpt lat="45.4061228" lon="11.062579"><ele>37.0</ele><time>2026-04-18T18:44:52.836Z</time></trkpt><trkpt lat="45.4060872" lon="11.0624265"><ele>37.0</ele><time>2026-04-18T18:44:53.825Z</time></trkpt><trkpt lat="45.4060414" lon="11.0622854"><ele>37.0</ele><time>2026-04-18T18:44:54.829Z</time></trkpt><trkpt lat="45.4059933" lon="11.0621535"><ele>37.0</ele><time>2026-04-18T18:44:55.818Z</time></trkpt><trkpt lat="45.4059468" lon="11.062021"><ele>36.800000000000004</ele><time>2026-04-18T18:44:56.82Z</time></trkpt><trkpt lat="45.40592" lon="11.0618751"><ele>36.6</ele><time>2026-04-18T18:44:57.819Z</time></trkpt><trkpt lat="45.4059123" lon="11.0617231"><ele>36.400000000000006</ele><time>2026-04-18T18:44:58.84Z</time></trkpt><trkpt lat="45.4059342" lon="11.0615687"><ele>36.2</ele><time>2026-04-18T18:44:59.827Z</time></trkpt><trkpt lat="45.4059778" lon="11.0614017"><ele>36.0</ele><time>2026-04-18T18:45:00.816Z</time></trkpt><trkpt lat="45.4060371" lon="11.061222"><ele>36.0</ele><time>2026-04-18T18:45:01.832Z</time></trkpt><trkpt lat="45.4061062" lon="11.0610361"><ele>36.0</ele><time>2026-04-18T18:45:02.828Z</time></trkpt><trkpt lat="45.4061807" lon="11.060837"><ele>36.0</ele><time>2026-04-18T18:45:03.822Z</time></trkpt><trkpt lat="45.4062608" lon="11.0606288"><ele>36.0</ele><time>2026-04-18T18:45:04.822Z</time></trkpt><trkpt lat="45.4063418" lon="11.0604133"><ele>36.0</ele><time>2026-04-18T18:45:05.824Z</time></trkpt><trkpt lat="45.4064207" lon="11.0602067"><ele>36.0</ele><time>2026-04-18T18:45:06.822Z</time></trkpt><trkpt lat="45.4064946" lon="11.0600151"><ele>36.25</ele><time>2026-04-18T18:45:07.827Z</time></trkpt><trkpt lat="45.4065715" lon="11.059841"><ele>36.5</ele><time>2026-04-18T18:45:08.823Z</time></trkpt><trkpt lat="45.4066529" lon="11.0596901"><ele>36.75</ele><time>2026-04-18T18:45:09.825Z</time></trkpt><trkpt lat="45.4067453" lon="11.059552"><ele>37.0</ele><time>2026-04-18T18:45:10.826Z</time></trkpt><trkpt lat="45.4068546" lon="11.0594308"><ele>37.0</ele><time>2026-04-18T18:45:11.834Z</time></trkpt><trkpt lat="45.406977" lon="11.0593236"><ele>37.0</ele><time>2026-04-18T18:45:12.825Z</time></trkpt><trkpt lat="45.4071033" lon="11.0592294"><ele>37.0</ele><time>2026-04-18T18:45:13.829Z</time></trkpt><trkpt lat="45.4072306" lon="11.0591647"><ele>37.0</ele><time>2026-04-18T18:45:14.835Z</time></trkpt><trkpt lat="45.4073585" lon="11.0591272"><ele>37.2</ele><time>2026-04-18T18:45:15.824Z</time></trkpt><trkpt lat="45.4074766" lon="11.0591064"><ele>37.400000000000006</ele><time>2026-04-18T18:45:16.835Z</time></trkpt><trkpt lat="45.4075838" lon="11.0590935"><ele>37.599999999999994</ele><time>2026-04-18T18:45:17.834Z</time></trkpt><trkpt lat="45.40768" lon="11.0590731"><ele>37.8</ele><time>2026-04-18T18:45:18.831Z</time></trkpt><trkpt lat="45.4077659" lon="11.0590307"><ele>38.0</ele><time>2026-04-18T18:45:19.824Z</time></trkpt><trkpt lat="45.407846" lon="11.0589449"><ele>38.0</ele><time>2026-04-18T18:45:20.83Z</time></trkpt><trkpt lat="45.4079129" lon="11.0588253"><ele>38.0</ele><time>2026-04-18T18:45:21.822Z</time></trkpt><trkpt lat="45.4079682" lon="11.0586784"><ele>38.0</ele><time>2026-04-18T18:45:22.824Z</time></trkpt><trkpt lat="45.4080494" lon="11.0585371"><ele>38.0</ele><time>2026-04-18T18:45:23.819Z</time></trkpt><trkpt lat="45.4081419" lon="11.0584167"><ele>37.33333333333333</ele><time>2026-04-18T18:45:24.819Z</time></trkpt><trkpt lat="45.4082623" lon="11.058321"><ele>36.666666666666664</ele><time>2026-04-18T18:45:25.823Z</time></trkpt><trkpt lat="45.4084117" lon="11.0582431"><ele>36.0</ele><time>2026-04-18T18:45:26.83Z</time></trkpt><trkpt lat="45.4085703" lon="11.0581578"><ele>36.0</ele><time>2026-04-18T18:45:27.828Z</time></trkpt><trkpt lat="45.4087406" lon="11.0580632"><ele>36.0</ele><time>2026-04-18T18:45:28.823Z</time></trkpt><trkpt lat="45.4089123" lon="11.0579725"><ele>36.0</ele><time>2026-04-18T18:45:29.84Z</time></trkpt><trkpt lat="45.4090679" lon="11.0578864"><ele>36.25</ele><time>2026-04-18T18:45:30.826Z</time></trkpt><trkpt lat="45.4092128" lon="11.0578036"><ele>36.5</ele><time>2026-04-18T18:45:31.83Z</time></trkpt><trkpt lat="45.4093561" lon="11.0577222"><ele>36.75</ele><time>2026-04-18T18:45:32.828Z</time></trkpt><trkpt lat="45.4094869" lon="11.0576555"><ele>37.0</ele><time>2026-04-18T18:45:33.828Z</time></trkpt><trkpt lat="45.4096115" lon="11.0576019"><ele>37.75</ele><time>2026-04-18T18:45:34.822Z</time></trkpt><trkpt lat="45.4097453" lon="11.0575728"><ele>38.5</ele><time>2026-04-18T18:45:35.82Z</time></trkpt><trkpt lat="45.4098871" lon="11.0575819"><ele>39.25</ele><time>2026-04-18T18:45:36.83Z</time></trkpt><trkpt lat="45.4100354" lon="11.0575938"><ele>40.0</ele><time>2026-04-18T18:45:37.826Z</time></trkpt><trkpt lat="45.4101666" lon="11.0576143"><ele>40.0</ele><time>2026-04-18T18:45:38.825Z</time></trkpt><trkpt lat="45.4103013" lon="11.057661"><ele>40.0</ele><time>2026-04-18T18:45:39.825Z</time></trkpt><trkpt lat="45.4104272" lon="11.0577414"><ele>40.0</ele><time>2026-04-18T18:45:40.83Z</time></trkpt><trkpt lat="45.4105511" lon="11.057843"><ele>40.0</ele><time>2026-04-18T18:45:41.823Z</time></trkpt><trkpt lat="45.4106667" lon="11.0579581"><ele>40.333333333333336</ele><time>2026-04-18T18:45:42.835Z</time></trkpt><trkpt lat="45.4107848" lon="11.0580988"><ele>40.666666666666664</ele><time>2026-04-18T18:45:43.826Z</time></trkpt><trkpt lat="45.4109044" lon="11.0582647"><ele>41.0</ele><time>2026-04-18T18:45:44.823Z</time></trkpt><trkpt lat="45.4110235" lon="11.0584378"><ele>41.0</ele><time>2026-04-18T18:45:45.83Z</time></trkpt><trkpt lat="45.4111281" lon="11.0585929"><ele>41.0</ele><time>2026-04-18T18:45:46.823Z</time></trkpt><trkpt lat="45.4112257" lon="11.0587366"><ele>41.0</ele><time>2026-04-18T18:45:47.829Z</time></trkpt><trkpt lat="45.4113136" lon="11.0588666"><ele>41.0</ele><time>2026-04-18T18:45:48.835Z</time></trkpt><trkpt lat="45.4113957" lon="11.0589809"><ele>41.0</ele><time>2026-04-18T18:45:49.824Z</time></trkpt><trkpt lat="45.4114881" lon="11.0590834"><ele>41.0</ele><time>2026-04-18T18:45:50.826Z</time></trkpt><trkpt lat="45.4116066" lon="11.0591728"><ele>41.0</ele><time>2026-04-18T18:45:51.823Z</time></trkpt><trkpt lat="45.411708" lon="11.0592477"><ele>41.0</ele><time>2026-04-18T18:45:52.815Z</time></trkpt><trkpt lat="45.4118248" lon="11.0593003"><ele>41.0</ele><time>2026-04-18T18:45:53.82Z</time></trkpt><trkpt lat="45.4119662" lon="11.0593082"><ele>41.0</ele><time>2026-04-18T18:45:54.823Z</time></trkpt><trkpt lat="45.4121319" lon="11.0592833"><ele>41.0</ele><time>2026-04-18T18:45:55.828Z</time></trkpt><trkpt lat="45.4123131" lon="11.0592323"><ele>41.33333333333333</ele><time>2026-04-18T18:45:56.817Z</time></trkpt><trkpt lat="45.4124742" lon="11.0591619"><ele>41.666666666666664</ele><time>2026-04-18T18:45:57.827Z</time></trkpt><trkpt lat="45.4126167" lon="11.0590887"><ele>42.0</ele><time>2026-04-18T18:45:58.823Z</time></trkpt><trkpt lat="45.4127377" lon="11.0590154"><ele>42.5</ele><time>2026-04-18T18:45:59.822Z</time></trkpt><trkpt lat="45.4128331" lon="11.0589494"><ele>43.0</ele><time>2026-04-18T18:46:00.83Z</time></trkpt><trkpt lat="45.4129036" lon="11.0588727"><ele>43.5</ele><time>2026-04-18T18:46:01.833Z</time></trkpt><trkpt lat="45.4129837" lon="11.0586948"><ele>44.0</ele><time>2026-04-18T18:46:03.823Z</time></trkpt><trkpt lat="45.4130057" lon="11.0585262"><ele>44.0</ele><time>2026-04-18T18:46:05.821Z</time></trkpt><trkpt lat="45.4130158" lon="11.0584019"><ele>44.0</ele><time>2026-04-18T18:46:07.831Z</time></trkpt><trkpt lat="45.4129533" lon="11.0583576"><ele>44.0</ele><time>2026-04-18T18:46:34.827Z</time></trkpt><trkpt lat="45.4128788" lon="11.0583314"><ele>44.0</ele><time>2026-04-18T18:46:39.821Z</time></trkpt><trkpt lat="45.41285" lon="11.0582393"><ele>42.0</ele><time>2026-04-18T18:46:45.824Z</time></trkpt></trkseg></trk></gpx>